<?xml version="1.0" encoding="UTF-8" standalone="no" ?>
<gpx xmlns="http://www.topografix.com/GPX/1/1" xmlns:xsi="http://www.w3.org/2001/XMLSchema-instance" xsi:schemaLocation="http://www.topografix.com/GPX/1/1 http://www.topografix.com/GPX/1/1/gpx.xsd" version="1.1" creator="VisuGPX - https://www.visugpx.com">
  <metadata>
    <name>gtvhp1</name>
    <desc><![CDATA[gtv variante hp]]></desc>
  </metadata>
  <trk>
    <name><![CDATA[2010-06-05T10:03:14Z]]></name>
    <trkseg>
      <trkpt lat="45.02431" lon="5.51774">
        <ele>1148.912842</ele>
        <time>2010-06-05T10:03:15Z</time>
      </trkpt>
      <trkpt lat="45.02431" lon="5.51775">
        <ele>1149.393555</ele>
        <time>2010-06-05T10:03:35Z</time>
      </trkpt>
      <trkpt lat="45.02439" lon="5.51785">
        <ele>1147.470703</ele>
        <time>2010-06-05T10:03:42Z</time>
      </trkpt>
      <trkpt lat="45.02438" lon="5.51787">
        <ele>1146.509521</ele>
        <time>2010-06-05T10:03:45Z</time>
      </trkpt>
      <trkpt lat="45.02438" lon="5.51785">
        <ele>1146.028809</ele>
        <time>2010-06-05T10:03:49Z</time>
      </trkpt>
      <trkpt lat="45.02438" lon="5.51784">
        <ele>1145.548096</ele>
        <time>2010-06-05T10:04:05Z</time>
      </trkpt>
      <trkpt lat="45.02439" lon="5.51784">
        <ele>1145.067383</ele>
        <time>2010-06-05T10:04:21Z</time>
      </trkpt>
      <trkpt lat="45.02439" lon="5.51783">
        <ele>1145.067383</ele>
        <time>2010-06-05T10:04:28Z</time>
      </trkpt>
      <trkpt lat="45.02438" lon="5.51783">
        <ele>1145.548096</ele>
        <time>2010-06-05T10:04:39Z</time>
      </trkpt>
      <trkpt lat="45.02437" lon="5.51781">
        <ele>1146.028809</ele>
        <time>2010-06-05T10:05:12Z</time>
      </trkpt>
      <trkpt lat="45.02425" lon="5.51773">
        <ele>1146.509521</ele>
        <time>2010-06-05T10:05:22Z</time>
      </trkpt>
      <trkpt lat="45.02416" lon="5.51764">
        <ele>1147.470703</ele>
        <time>2010-06-05T10:05:28Z</time>
      </trkpt>
      <trkpt lat="45.02405" lon="5.51759">
        <ele>1147.951416</ele>
        <time>2010-06-05T10:05:33Z</time>
      </trkpt>
      <trkpt lat="45.02392" lon="5.51758">
        <ele>1148.432129</ele>
        <time>2010-06-05T10:05:39Z</time>
      </trkpt>
      <trkpt lat="45.02391" lon="5.51758">
        <ele>1149.393555</ele>
        <time>2010-06-05T10:05:48Z</time>
      </trkpt>
      <trkpt lat="45.02393" lon="5.51758">
        <ele>1148.432129</ele>
        <time>2010-06-05T10:05:59Z</time>
      </trkpt>
      <trkpt lat="45.02393" lon="5.51758">
        <ele>1148.432129</ele>
        <time>2010-06-05T10:06:08Z</time>
      </trkpt>
      <trkpt lat="45.02391" lon="5.51759">
        <ele>1149.393555</ele>
        <time>2010-06-05T10:06:13Z</time>
      </trkpt>
      <trkpt lat="45.0239" lon="5.5176">
        <ele>1149.393555</ele>
        <time>2010-06-05T10:06:20Z</time>
      </trkpt>
      <trkpt lat="45.02388" lon="5.5176">
        <ele>1152.758057</ele>
        <time>2010-06-05T10:09:00Z</time>
      </trkpt>
      <trkpt lat="45.02387" lon="5.51759">
        <ele>1152.277344</ele>
        <time>2010-06-05T10:09:01Z</time>
      </trkpt>
      <trkpt lat="45.02376" lon="5.51756">
        <ele>1153.238769</ele>
        <time>2010-06-05T10:09:08Z</time>
      </trkpt>
      <trkpt lat="45.02352" lon="5.51752">
        <ele>1153.719482</ele>
        <time>2010-06-05T10:09:18Z</time>
      </trkpt>
      <trkpt lat="45.02347" lon="5.51752">
        <ele>1153.719482</ele>
        <time>2010-06-05T10:09:20Z</time>
      </trkpt>
      <trkpt lat="45.02328" lon="5.51749">
        <ele>1154.680664</ele>
        <time>2010-06-05T10:09:28Z</time>
      </trkpt>
      <trkpt lat="45.02326" lon="5.51749">
        <ele>1154.680664</ele>
        <time>2010-06-05T10:09:34Z</time>
      </trkpt>
      <trkpt lat="45.02326" lon="5.51747">
        <ele>1153.238769</ele>
        <time>2010-06-05T10:09:47Z</time>
      </trkpt>
      <trkpt lat="45.02329" lon="5.51744">
        <ele>1152.758057</ele>
        <time>2010-06-05T10:09:50Z</time>
      </trkpt>
      <trkpt lat="45.02336" lon="5.51731">
        <ele>1152.758057</ele>
        <time>2010-06-05T10:09:55Z</time>
      </trkpt>
      <trkpt lat="45.02332" lon="5.51726">
        <ele>1152.758057</ele>
        <time>2010-06-05T10:09:59Z</time>
      </trkpt>
      <trkpt lat="45.02332" lon="5.51726">
        <ele>1152.277344</ele>
        <time>2010-06-05T10:10:08Z</time>
      </trkpt>
      <trkpt lat="45.02328" lon="5.51721">
        <ele>1152.277344</ele>
        <time>2010-06-05T10:10:14Z</time>
      </trkpt>
      <trkpt lat="45.02324" lon="5.51709">
        <ele>1154.200195</ele>
        <time>2010-06-05T10:10:20Z</time>
      </trkpt>
      <trkpt lat="45.02326" lon="5.51695">
        <ele>1158.04541</ele>
        <time>2010-06-05T10:10:26Z</time>
      </trkpt>
      <trkpt lat="45.02331" lon="5.51678">
        <ele>1161.890625</ele>
        <time>2010-06-05T10:10:34Z</time>
      </trkpt>
      <trkpt lat="45.02341" lon="5.51672">
        <ele>1162.851807</ele>
        <time>2010-06-05T10:10:40Z</time>
      </trkpt>
      <trkpt lat="45.0236" lon="5.51667">
        <ele>1162.371094</ele>
        <time>2010-06-05T10:10:48Z</time>
      </trkpt>
      <trkpt lat="45.02371" lon="5.51655">
        <ele>1162.371094</ele>
        <time>2010-06-05T10:10:54Z</time>
      </trkpt>
      <trkpt lat="45.02369" lon="5.51644">
        <ele>1164.293945</ele>
        <time>2010-06-05T10:10:59Z</time>
      </trkpt>
      <trkpt lat="45.02366" lon="5.5163">
        <ele>1166.697266</ele>
        <time>2010-06-05T10:11:06Z</time>
      </trkpt>
      <trkpt lat="45.02369" lon="5.5162">
        <ele>1167.177979</ele>
        <time>2010-06-05T10:11:12Z</time>
      </trkpt>
      <trkpt lat="45.02376" lon="5.51605">
        <ele>1168.619873</ele>
        <time>2010-06-05T10:11:22Z</time>
      </trkpt>
      <trkpt lat="45.02377" lon="5.51592">
        <ele>1169.581299</ele>
        <time>2010-06-05T10:11:30Z</time>
      </trkpt>
      <trkpt lat="45.02381" lon="5.51579">
        <ele>1171.023193</ele>
        <time>2010-06-05T10:11:38Z</time>
      </trkpt>
      <trkpt lat="45.02382" lon="5.51567">
        <ele>1171.023193</ele>
        <time>2010-06-05T10:11:45Z</time>
      </trkpt>
      <trkpt lat="45.02381" lon="5.51554">
        <ele>1171.023193</ele>
        <time>2010-06-05T10:11:52Z</time>
      </trkpt>
      <trkpt lat="45.02378" lon="5.51539">
        <ele>1171.503662</ele>
        <time>2010-06-05T10:12:01Z</time>
      </trkpt>
      <trkpt lat="45.02374" lon="5.5153">
        <ele>1171.984375</ele>
        <time>2010-06-05T10:12:05Z</time>
      </trkpt>
      <trkpt lat="45.02371" lon="5.51506">
        <ele>1172.465088</ele>
        <time>2010-06-05T10:12:15Z</time>
      </trkpt>
      <trkpt lat="45.02371" lon="5.51498">
        <ele>1172.465088</ele>
        <time>2010-06-05T10:12:21Z</time>
      </trkpt>
      <trkpt lat="45.02371" lon="5.51497">
        <ele>1172.465088</ele>
        <time>2010-06-05T10:12:28Z</time>
      </trkpt>
      <trkpt lat="45.0237" lon="5.51488">
        <ele>1172.945801</ele>
        <time>2010-06-05T10:12:55Z</time>
      </trkpt>
      <trkpt lat="45.02371" lon="5.51479">
        <ele>1173.906982</ele>
        <time>2010-06-05T10:13:01Z</time>
      </trkpt>
      <trkpt lat="45.02371" lon="5.51479">
        <ele>1172.465088</ele>
        <time>2010-06-05T10:13:19Z</time>
      </trkpt>
      <trkpt lat="45.02372" lon="5.51478">
        <ele>1172.945801</ele>
        <time>2010-06-05T10:13:36Z</time>
      </trkpt>
      <trkpt lat="45.02375" lon="5.51477">
        <ele>1175.348877</ele>
        <time>2010-06-05T10:14:27Z</time>
      </trkpt>
      <trkpt lat="45.02374" lon="5.51461">
        <ele>1175.348877</ele>
        <time>2010-06-05T10:14:35Z</time>
      </trkpt>
      <trkpt lat="45.02368" lon="5.51443">
        <ele>1176.791016</ele>
        <time>2010-06-05T10:14:43Z</time>
      </trkpt>
      <trkpt lat="45.02353" lon="5.51424">
        <ele>1178.713623</ele>
        <time>2010-06-05T10:14:54Z</time>
      </trkpt>
      <trkpt lat="45.02346" lon="5.51407">
        <ele>1181.117188</ele>
        <time>2010-06-05T10:15:03Z</time>
      </trkpt>
      <trkpt lat="45.0234" lon="5.51387">
        <ele>1183.039551</ele>
        <time>2010-06-05T10:15:13Z</time>
      </trkpt>
      <trkpt lat="45.02337" lon="5.51366">
        <ele>1184.481689</ele>
        <time>2010-06-05T10:15:22Z</time>
      </trkpt>
      <trkpt lat="45.02336" lon="5.51342">
        <ele>1186.404297</ele>
        <time>2010-06-05T10:15:32Z</time>
      </trkpt>
      <trkpt lat="45.02332" lon="5.51322">
        <ele>1186.404297</ele>
        <time>2010-06-05T10:15:40Z</time>
      </trkpt>
      <trkpt lat="45.02323" lon="5.51303">
        <ele>1186.884766</ele>
        <time>2010-06-05T10:15:49Z</time>
      </trkpt>
      <trkpt lat="45.02315" lon="5.51288">
        <ele>1188.326904</ele>
        <time>2010-06-05T10:15:55Z</time>
      </trkpt>
      <trkpt lat="45.02306" lon="5.51266">
        <ele>1189.288086</ele>
        <time>2010-06-05T10:16:03Z</time>
      </trkpt>
      <trkpt lat="45.02297" lon="5.51243">
        <ele>1191.691406</ele>
        <time>2010-06-05T10:16:12Z</time>
      </trkpt>
      <trkpt lat="45.02288" lon="5.51215">
        <ele>1192.652832</ele>
        <time>2010-06-05T10:16:22Z</time>
      </trkpt>
      <trkpt lat="45.02276" lon="5.51188">
        <ele>1193.614014</ele>
        <time>2010-06-05T10:16:31Z</time>
      </trkpt>
      <trkpt lat="45.02261" lon="5.51161">
        <ele>1195.055908</ele>
        <time>2010-06-05T10:16:41Z</time>
      </trkpt>
      <trkpt lat="45.02244" lon="5.5114">
        <ele>1197.459473</ele>
        <time>2010-06-05T10:16:50Z</time>
      </trkpt>
      <trkpt lat="45.02231" lon="5.51131">
        <ele>1198.420654</ele>
        <time>2010-06-05T10:16:57Z</time>
      </trkpt>
      <trkpt lat="45.0222" lon="5.51117">
        <ele>1200.823975</ele>
        <time>2010-06-05T10:17:05Z</time>
      </trkpt>
      <trkpt lat="45.02212" lon="5.51101">
        <ele>1202.265869</ele>
        <time>2010-06-05T10:17:13Z</time>
      </trkpt>
      <trkpt lat="45.02205" lon="5.51084">
        <ele>1203.227295</ele>
        <time>2010-06-05T10:17:21Z</time>
      </trkpt>
      <trkpt lat="45.02199" lon="5.51068">
        <ele>1204.188721</ele>
        <time>2010-06-05T10:17:28Z</time>
      </trkpt>
      <trkpt lat="45.02189" lon="5.51045">
        <ele>1204.669189</ele>
        <time>2010-06-05T10:17:38Z</time>
      </trkpt>
      <trkpt lat="45.02183" lon="5.5103">
        <ele>1205.149902</ele>
        <time>2010-06-05T10:17:44Z</time>
      </trkpt>
      <trkpt lat="45.02176" lon="5.51002">
        <ele>1205.630615</ele>
        <time>2010-06-05T10:17:53Z</time>
      </trkpt>
      <trkpt lat="45.02171" lon="5.50973">
        <ele>1205.630615</ele>
        <time>2010-06-05T10:18:01Z</time>
      </trkpt>
      <trkpt lat="45.02164" lon="5.50939">
        <ele>1206.111084</ele>
        <time>2010-06-05T10:18:11Z</time>
      </trkpt>
      <trkpt lat="45.02158" lon="5.50911">
        <ele>1206.111084</ele>
        <time>2010-06-05T10:18:18Z</time>
      </trkpt>
      <trkpt lat="45.02145" lon="5.50882">
        <ele>1206.111084</ele>
        <time>2010-06-05T10:18:26Z</time>
      </trkpt>
      <trkpt lat="45.0213" lon="5.50851">
        <ele>1206.591797</ele>
        <time>2010-06-05T10:18:35Z</time>
      </trkpt>
      <trkpt lat="45.02128" lon="5.50826">
        <ele>1207.07251</ele>
        <time>2010-06-05T10:18:41Z</time>
      </trkpt>
      <trkpt lat="45.02126" lon="5.50788">
        <ele>1206.111084</ele>
        <time>2010-06-05T10:18:50Z</time>
      </trkpt>
      <trkpt lat="45.02124" lon="5.50778">
        <ele>1207.553223</ele>
        <time>2010-06-05T10:18:55Z</time>
      </trkpt>
      <trkpt lat="45.02124" lon="5.50775">
        <ele>1207.553223</ele>
        <time>2010-06-05T10:19:02Z</time>
      </trkpt>
      <trkpt lat="45.02122" lon="5.50768">
        <ele>1208.514404</ele>
        <time>2010-06-05T10:19:08Z</time>
      </trkpt>
      <trkpt lat="45.02122" lon="5.50767">
        <ele>1209.47583</ele>
        <time>2010-06-05T10:19:12Z</time>
      </trkpt>
      <trkpt lat="45.0212" lon="5.50757">
        <ele>1208.033936</ele>
        <time>2010-06-05T10:19:38Z</time>
      </trkpt>
      <trkpt lat="45.02116" lon="5.50738">
        <ele>1207.553223</ele>
        <time>2010-06-05T10:19:45Z</time>
      </trkpt>
      <trkpt lat="45.02113" lon="5.50721">
        <ele>1208.033936</ele>
        <time>2010-06-05T10:19:52Z</time>
      </trkpt>
      <trkpt lat="45.02112" lon="5.50705">
        <ele>1208.995117</ele>
        <time>2010-06-05T10:19:59Z</time>
      </trkpt>
      <trkpt lat="45.02114" lon="5.50692">
        <ele>1208.033936</ele>
        <time>2010-06-05T10:20:05Z</time>
      </trkpt>
      <trkpt lat="45.02115" lon="5.50662">
        <ele>1208.514404</ele>
        <time>2010-06-05T10:20:14Z</time>
      </trkpt>
      <trkpt lat="45.02115" lon="5.50644">
        <ele>1208.995117</ele>
        <time>2010-06-05T10:20:21Z</time>
      </trkpt>
      <trkpt lat="45.02112" lon="5.50638">
        <ele>1208.995117</ele>
        <time>2010-06-05T10:20:24Z</time>
      </trkpt>
      <trkpt lat="45.02099" lon="5.50635">
        <ele>1210.437012</ele>
        <time>2010-06-05T10:20:30Z</time>
      </trkpt>
      <trkpt lat="45.02085" lon="5.50636">
        <ele>1216.205078</ele>
        <time>2010-06-05T10:20:36Z</time>
      </trkpt>
      <trkpt lat="45.02066" lon="5.5063">
        <ele>1217.166504</ele>
        <time>2010-06-05T10:20:43Z</time>
      </trkpt>
      <trkpt lat="45.02046" lon="5.50621">
        <ele>1216.205078</ele>
        <time>2010-06-05T10:20:50Z</time>
      </trkpt>
      <trkpt lat="45.02029" lon="5.50617">
        <ele>1214.763184</ele>
        <time>2010-06-05T10:20:56Z</time>
      </trkpt>
      <trkpt lat="45.02011" lon="5.50614">
        <ele>1216.205078</ele>
        <time>2010-06-05T10:21:04Z</time>
      </trkpt>
      <trkpt lat="45.02002" lon="5.5061">
        <ele>1219.569824</ele>
        <time>2010-06-05T10:21:08Z</time>
      </trkpt>
      <trkpt lat="45.01992" lon="5.50607">
        <ele>1223.415039</ele>
        <time>2010-06-05T10:21:13Z</time>
      </trkpt>
      <trkpt lat="45.01978" lon="5.50596">
        <ele>1229.663574</ele>
        <time>2010-06-05T10:21:21Z</time>
      </trkpt>
      <trkpt lat="45.01966" lon="5.50581">
        <ele>1232.547607</ele>
        <time>2010-06-05T10:21:28Z</time>
      </trkpt>
      <trkpt lat="45.01952" lon="5.50572">
        <ele>1237.834717</ele>
        <time>2010-06-05T10:21:35Z</time>
      </trkpt>
      <trkpt lat="45.01936" lon="5.50561">
        <ele>1239.276611</ele>
        <time>2010-06-05T10:21:44Z</time>
      </trkpt>
      <trkpt lat="45.01923" lon="5.50555">
        <ele>1237.834717</ele>
        <time>2010-06-05T10:21:51Z</time>
      </trkpt>
      <trkpt lat="45.01911" lon="5.50544">
        <ele>1236.392822</ele>
        <time>2010-06-05T10:21:59Z</time>
      </trkpt>
      <trkpt lat="45.01898" lon="5.50534">
        <ele>1233.508789</ele>
        <time>2010-06-05T10:22:07Z</time>
      </trkpt>
      <trkpt lat="45.01882" lon="5.50523">
        <ele>1233.028076</ele>
        <time>2010-06-05T10:22:15Z</time>
      </trkpt>
      <trkpt lat="45.01864" lon="5.50513">
        <ele>1229.663574</ele>
        <time>2010-06-05T10:22:23Z</time>
      </trkpt>
      <trkpt lat="45.01847" lon="5.50505">
        <ele>1227.740723</ele>
        <time>2010-06-05T10:22:30Z</time>
      </trkpt>
      <trkpt lat="45.01833" lon="5.50495">
        <ele>1232.066894</ele>
        <time>2010-06-05T10:22:38Z</time>
      </trkpt>
      <trkpt lat="45.01822" lon="5.50488">
        <ele>1234.950928</ele>
        <time>2010-06-05T10:22:45Z</time>
      </trkpt>
      <trkpt lat="45.01811" lon="5.50486">
        <ele>1234.950928</ele>
        <time>2010-06-05T10:22:51Z</time>
      </trkpt>
      <trkpt lat="45.01802" lon="5.50484">
        <ele>1234.470215</ele>
        <time>2010-06-05T10:22:56Z</time>
      </trkpt>
      <trkpt lat="45.01791" lon="5.50477">
        <ele>1234.950928</ele>
        <time>2010-06-05T10:23:04Z</time>
      </trkpt>
      <trkpt lat="45.01782" lon="5.50472">
        <ele>1235.912109</ele>
        <time>2010-06-05T10:23:10Z</time>
      </trkpt>
      <trkpt lat="45.01772" lon="5.50469">
        <ele>1240.238037</ele>
        <time>2010-06-05T10:23:16Z</time>
      </trkpt>
      <trkpt lat="45.01763" lon="5.50466">
        <ele>1241.679932</ele>
        <time>2010-06-05T10:23:22Z</time>
      </trkpt>
      <trkpt lat="45.01753" lon="5.50466">
        <ele>1245.044678</ele>
        <time>2010-06-05T10:23:29Z</time>
      </trkpt>
      <trkpt lat="45.01738" lon="5.50464">
        <ele>1246.006104</ele>
        <time>2010-06-05T10:23:38Z</time>
      </trkpt>
      <trkpt lat="45.01726" lon="5.50458">
        <ele>1246.967285</ele>
        <time>2010-06-05T10:23:46Z</time>
      </trkpt>
      <trkpt lat="45.01718" lon="5.50451">
        <ele>1246.486816</ele>
        <time>2010-06-05T10:23:52Z</time>
      </trkpt>
      <trkpt lat="45.01707" lon="5.50447">
        <ele>1246.967285</ele>
        <time>2010-06-05T10:23:59Z</time>
      </trkpt>
      <trkpt lat="45.01696" lon="5.50448">
        <ele>1252.254394</ele>
        <time>2010-06-05T10:24:06Z</time>
      </trkpt>
      <trkpt lat="45.01688" lon="5.50449">
        <ele>1257.541748</ele>
        <time>2010-06-05T10:24:12Z</time>
      </trkpt>
      <trkpt lat="45.01679" lon="5.50451">
        <ele>1259.944824</ele>
        <time>2010-06-05T10:24:17Z</time>
      </trkpt>
      <trkpt lat="45.01678" lon="5.50452">
        <ele>1260.906494</ele>
        <time>2010-06-05T10:24:18Z</time>
      </trkpt>
      <trkpt lat="45.01672" lon="5.50455">
        <ele>1261.387207</ele>
        <time>2010-06-05T10:24:22Z</time>
      </trkpt>
      <trkpt lat="45.01662" lon="5.50463">
        <ele>1261.387207</ele>
        <time>2010-06-05T10:24:30Z</time>
      </trkpt>
      <trkpt lat="45.01661" lon="5.50464">
        <ele>1261.86792</ele>
        <time>2010-06-05T10:24:31Z</time>
      </trkpt>
      <trkpt lat="45.01652" lon="5.5046">
        <ele>1259.464356</ele>
        <time>2010-06-05T10:24:38Z</time>
      </trkpt>
      <trkpt lat="45.01646" lon="5.50456">
        <ele>1259.944824</ele>
        <time>2010-06-05T10:24:42Z</time>
      </trkpt>
      <trkpt lat="45.01637" lon="5.50447">
        <ele>1260.906494</ele>
        <time>2010-06-05T10:24:50Z</time>
      </trkpt>
      <trkpt lat="45.01627" lon="5.50442">
        <ele>1260.906494</ele>
        <time>2010-06-05T10:24:58Z</time>
      </trkpt>
      <trkpt lat="45.01619" lon="5.50437">
        <ele>1261.86792</ele>
        <time>2010-06-05T10:25:04Z</time>
      </trkpt>
      <trkpt lat="45.01609" lon="5.5043">
        <ele>1262.829102</ele>
        <time>2010-06-05T10:25:11Z</time>
      </trkpt>
      <trkpt lat="45.01606" lon="5.50429">
        <ele>1262.348389</ele>
        <time>2010-06-05T10:25:13Z</time>
      </trkpt>
      <trkpt lat="45.01597" lon="5.50427">
        <ele>1262.829102</ele>
        <time>2010-06-05T10:25:21Z</time>
      </trkpt>
      <trkpt lat="45.01587" lon="5.50428">
        <ele>1264.270996</ele>
        <time>2010-06-05T10:25:28Z</time>
      </trkpt>
      <trkpt lat="45.01579" lon="5.50424">
        <ele>1265.713135</ele>
        <time>2010-06-05T10:25:34Z</time>
      </trkpt>
      <trkpt lat="45.0157" lon="5.5042">
        <ele>1269.077637</ele>
        <time>2010-06-05T10:25:41Z</time>
      </trkpt>
      <trkpt lat="45.01558" lon="5.50413">
        <ele>1269.077637</ele>
        <time>2010-06-05T10:25:48Z</time>
      </trkpt>
      <trkpt lat="45.01549" lon="5.50408">
        <ele>1270.038818</ele>
        <time>2010-06-05T10:25:54Z</time>
      </trkpt>
      <trkpt lat="45.01543" lon="5.50406">
        <ele>1268.596924</ele>
        <time>2010-06-05T10:25:58Z</time>
      </trkpt>
      <trkpt lat="45.01531" lon="5.50407">
        <ele>1269.077637</ele>
        <time>2010-06-05T10:26:05Z</time>
      </trkpt>
      <trkpt lat="45.0152" lon="5.50406">
        <ele>1268.116211</ele>
        <time>2010-06-05T10:26:12Z</time>
      </trkpt>
      <trkpt lat="45.0151" lon="5.50402">
        <ele>1270.038818</ele>
        <time>2010-06-05T10:26:20Z</time>
      </trkpt>
      <trkpt lat="45.01504" lon="5.50399">
        <ele>1269.077637</ele>
        <time>2010-06-05T10:26:27Z</time>
      </trkpt>
      <trkpt lat="45.01499" lon="5.50394">
        <ele>1261.86792</ele>
        <time>2010-06-05T10:26:39Z</time>
      </trkpt>
      <trkpt lat="45.01503" lon="5.50398">
        <ele>1271.480713</ele>
        <time>2010-06-05T10:26:58Z</time>
      </trkpt>
      <trkpt lat="45.01504" lon="5.50407">
        <ele>1273.403564</ele>
        <time>2010-06-05T10:27:15Z</time>
      </trkpt>
      <trkpt lat="45.01498" lon="5.50398">
        <ele>1272.442139</ele>
        <time>2010-06-05T10:27:21Z</time>
      </trkpt>
      <trkpt lat="45.01496" lon="5.50395">
        <ele>1271.961426</ele>
        <time>2010-06-05T10:27:22Z</time>
      </trkpt>
      <trkpt lat="45.01488" lon="5.50386">
        <ele>1271.000244</ele>
        <time>2010-06-05T10:27:29Z</time>
      </trkpt>
      <trkpt lat="45.01484" lon="5.5038">
        <ele>1270.519531</ele>
        <time>2010-06-05T10:27:34Z</time>
      </trkpt>
      <trkpt lat="45.0148" lon="5.50377">
        <ele>1272.442139</ele>
        <time>2010-06-05T10:27:39Z</time>
      </trkpt>
      <trkpt lat="45.01476" lon="5.50372">
        <ele>1276.287598</ele>
        <time>2010-06-05T10:27:46Z</time>
      </trkpt>
      <trkpt lat="45.01474" lon="5.50368">
        <ele>1275.806641</ele>
        <time>2010-06-05T10:27:52Z</time>
      </trkpt>
      <trkpt lat="45.01475" lon="5.5036">
        <ele>1276.768311</ele>
        <time>2010-06-05T10:27:58Z</time>
      </trkpt>
      <trkpt lat="45.01476" lon="5.50352">
        <ele>1275.806641</ele>
        <time>2010-06-05T10:28:05Z</time>
      </trkpt>
      <trkpt lat="45.01479" lon="5.50345">
        <ele>1275.325928</ele>
        <time>2010-06-05T10:28:11Z</time>
      </trkpt>
      <trkpt lat="45.01479" lon="5.50342">
        <ele>1275.325928</ele>
        <time>2010-06-05T10:28:19Z</time>
      </trkpt>
      <trkpt lat="45.01482" lon="5.50339">
        <ele>1282.536133</ele>
        <time>2010-06-05T10:28:27Z</time>
      </trkpt>
      <trkpt lat="45.01478" lon="5.5033">
        <ele>1287.342529</ele>
        <time>2010-06-05T10:28:36Z</time>
      </trkpt>
      <trkpt lat="45.01483" lon="5.50328">
        <ele>1287.342529</ele>
        <time>2010-06-05T10:28:52Z</time>
      </trkpt>
      <trkpt lat="45.01484" lon="5.50325">
        <ele>1285.900635</ele>
        <time>2010-06-05T10:28:55Z</time>
      </trkpt>
      <trkpt lat="45.01491" lon="5.50317">
        <ele>1280.613525</ele>
        <time>2010-06-05T10:29:02Z</time>
      </trkpt>
      <trkpt lat="45.01499" lon="5.50311">
        <ele>1278.690918</ele>
        <time>2010-06-05T10:29:10Z</time>
      </trkpt>
      <trkpt lat="45.01506" lon="5.50299">
        <ele>1275.325928</ele>
        <time>2010-06-05T10:29:18Z</time>
      </trkpt>
      <trkpt lat="45.01508" lon="5.50295">
        <ele>1274.845459</ele>
        <time>2010-06-05T10:29:21Z</time>
      </trkpt>
      <trkpt lat="45.01509" lon="5.50284">
        <ele>1277.729492</ele>
        <time>2010-06-05T10:29:27Z</time>
      </trkpt>
      <trkpt lat="45.01514" lon="5.50276">
        <ele>1278.210205</ele>
        <time>2010-06-05T10:29:34Z</time>
      </trkpt>
      <trkpt lat="45.01515" lon="5.50275">
        <ele>1278.210205</ele>
        <time>2010-06-05T10:29:35Z</time>
      </trkpt>
      <trkpt lat="45.01519" lon="5.5026">
        <ele>1280.613525</ele>
        <time>2010-06-05T10:29:43Z</time>
      </trkpt>
      <trkpt lat="45.01524" lon="5.50252">
        <ele>1281.094238</ele>
        <time>2010-06-05T10:29:49Z</time>
      </trkpt>
      <trkpt lat="45.01527" lon="5.50242">
        <ele>1281.574707</ele>
        <time>2010-06-05T10:29:56Z</time>
      </trkpt>
      <trkpt lat="45.01528" lon="5.50238">
        <ele>1285.900635</ele>
        <time>2010-06-05T10:30:01Z</time>
      </trkpt>
      <trkpt lat="45.01531" lon="5.50227">
        <ele>1287.342529</ele>
        <time>2010-06-05T10:30:07Z</time>
      </trkpt>
      <trkpt lat="45.01532" lon="5.50218">
        <ele>1290.226562</ele>
        <time>2010-06-05T10:30:13Z</time>
      </trkpt>
      <trkpt lat="45.0153" lon="5.50214">
        <ele>1292.630127</ele>
        <time>2010-06-05T10:30:20Z</time>
      </trkpt>
      <trkpt lat="45.0153" lon="5.50208">
        <ele>1301.762451</ele>
        <time>2010-06-05T10:30:42Z</time>
      </trkpt>
      <trkpt lat="45.01531" lon="5.50202">
        <ele>1291.187744</ele>
        <time>2010-06-05T10:30:57Z</time>
      </trkpt>
      <trkpt lat="45.01522" lon="5.50216">
        <ele>1294.072021</ele>
        <time>2010-06-05T10:31:33Z</time>
      </trkpt>
      <trkpt lat="45.01522" lon="5.50227">
        <ele>1306.568848</ele>
        <time>2010-06-05T10:31:47Z</time>
      </trkpt>
      <trkpt lat="45.01525" lon="5.50222">
        <ele>1303.685059</ele>
        <time>2010-06-05T10:31:56Z</time>
      </trkpt>
      <trkpt lat="45.01523" lon="5.50215">
        <ele>1298.397705</ele>
        <time>2010-06-05T10:32:03Z</time>
      </trkpt>
      <trkpt lat="45.0152" lon="5.50215">
        <ele>1296.475342</ele>
        <time>2010-06-05T10:32:08Z</time>
      </trkpt>
      <trkpt lat="45.01516" lon="5.50207">
        <ele>1300.801025</ele>
        <time>2010-06-05T10:32:17Z</time>
      </trkpt>
      <trkpt lat="45.0151" lon="5.50203">
        <ele>1301.281738</ele>
        <time>2010-06-05T10:32:26Z</time>
      </trkpt>
      <trkpt lat="45.01505" lon="5.50197">
        <ele>1303.204346</ele>
        <time>2010-06-05T10:32:34Z</time>
      </trkpt>
      <trkpt lat="45.01499" lon="5.50194">
        <ele>1302.723633</ele>
        <time>2010-06-05T10:32:41Z</time>
      </trkpt>
      <trkpt lat="45.01497" lon="5.50194">
        <ele>1306.088135</ele>
        <time>2010-06-05T10:32:49Z</time>
      </trkpt>
      <trkpt lat="45.01491" lon="5.50193">
        <ele>1308.011231</ele>
        <time>2010-06-05T10:32:55Z</time>
      </trkpt>
      <trkpt lat="45.01489" lon="5.50191">
        <ele>1311.375732</ele>
        <time>2010-06-05T10:33:01Z</time>
      </trkpt>
      <trkpt lat="45.01486" lon="5.50188">
        <ele>1310.414307</ele>
        <time>2010-06-05T10:33:08Z</time>
      </trkpt>
      <trkpt lat="45.01482" lon="5.50183">
        <ele>1310.895019</ele>
        <time>2010-06-05T10:33:16Z</time>
      </trkpt>
      <trkpt lat="45.01478" lon="5.5018">
        <ele>1308.972412</ele>
        <time>2010-06-05T10:33:21Z</time>
      </trkpt>
      <trkpt lat="45.01475" lon="5.50179">
        <ele>1308.491699</ele>
        <time>2010-06-05T10:33:28Z</time>
      </trkpt>
      <trkpt lat="45.0147" lon="5.50176">
        <ele>1308.011231</ele>
        <time>2010-06-05T10:33:33Z</time>
      </trkpt>
      <trkpt lat="45.01466" lon="5.50173">
        <ele>1307.530273</ele>
        <time>2010-06-05T10:33:38Z</time>
      </trkpt>
      <trkpt lat="45.01459" lon="5.50165">
        <ele>1307.530273</ele>
        <time>2010-06-05T10:33:47Z</time>
      </trkpt>
      <trkpt lat="45.01453" lon="5.50158">
        <ele>1309.453125</ele>
        <time>2010-06-05T10:33:55Z</time>
      </trkpt>
      <trkpt lat="45.01449" lon="5.50153">
        <ele>1310.414307</ele>
        <time>2010-06-05T10:34:01Z</time>
      </trkpt>
      <trkpt lat="45.01446" lon="5.50146">
        <ele>1309.453125</ele>
        <time>2010-06-05T10:34:08Z</time>
      </trkpt>
      <trkpt lat="45.01444" lon="5.5014">
        <ele>1304.64624</ele>
        <time>2010-06-05T10:34:17Z</time>
      </trkpt>
      <trkpt lat="45.01437" lon="5.50134">
        <ele>1306.568848</ele>
        <time>2010-06-05T10:34:24Z</time>
      </trkpt>
      <trkpt lat="45.0143" lon="5.50131">
        <ele>1307.049561</ele>
        <time>2010-06-05T10:34:29Z</time>
      </trkpt>
      <trkpt lat="45.01422" lon="5.50127">
        <ele>1308.011231</ele>
        <time>2010-06-05T10:34:34Z</time>
      </trkpt>
      <trkpt lat="45.01412" lon="5.50123">
        <ele>1308.491699</ele>
        <time>2010-06-05T10:34:40Z</time>
      </trkpt>
      <trkpt lat="45.01407" lon="5.50121">
        <ele>1309.453125</ele>
        <time>2010-06-05T10:34:43Z</time>
      </trkpt>
      <trkpt lat="45.01397" lon="5.50117">
        <ele>1310.895019</ele>
        <time>2010-06-05T10:34:50Z</time>
      </trkpt>
      <trkpt lat="45.01389" lon="5.50109">
        <ele>1313.778809</ele>
        <time>2010-06-05T10:34:56Z</time>
      </trkpt>
      <trkpt lat="45.01378" lon="5.50101">
        <ele>1315.220947</ele>
        <time>2010-06-05T10:35:04Z</time>
      </trkpt>
      <trkpt lat="45.01371" lon="5.50095">
        <ele>1316.182129</ele>
        <time>2010-06-05T10:35:10Z</time>
      </trkpt>
      <trkpt lat="45.01362" lon="5.50086">
        <ele>1314.740234</ele>
        <time>2010-06-05T10:35:18Z</time>
      </trkpt>
      <trkpt lat="45.01354" lon="5.50081">
        <ele>1315.220947</ele>
        <time>2010-06-05T10:35:25Z</time>
      </trkpt>
      <trkpt lat="45.01346" lon="5.50075">
        <ele>1316.662842</ele>
        <time>2010-06-05T10:35:32Z</time>
      </trkpt>
      <trkpt lat="45.01338" lon="5.50072">
        <ele>1320.027344</ele>
        <time>2010-06-05T10:35:40Z</time>
      </trkpt>
      <trkpt lat="45.01333" lon="5.50073">
        <ele>1321.469238</ele>
        <time>2010-06-05T10:35:44Z</time>
      </trkpt>
      <trkpt lat="45.01324" lon="5.50073">
        <ele>1323.872559</ele>
        <time>2010-06-05T10:35:50Z</time>
      </trkpt>
      <trkpt lat="45.01315" lon="5.5007">
        <ele>1327.718018</ele>
        <time>2010-06-05T10:35:58Z</time>
      </trkpt>
      <trkpt lat="45.01307" lon="5.50069">
        <ele>1328.679443</ele>
        <time>2010-06-05T10:36:04Z</time>
      </trkpt>
      <trkpt lat="45.01297" lon="5.50064">
        <ele>1324.834229</ele>
        <time>2010-06-05T10:36:12Z</time>
      </trkpt>
      <trkpt lat="45.01289" lon="5.5006">
        <ele>1326.756836</ele>
        <time>2010-06-05T10:36:19Z</time>
      </trkpt>
      <trkpt lat="45.01279" lon="5.50054">
        <ele>1326.756836</ele>
        <time>2010-06-05T10:36:26Z</time>
      </trkpt>
      <trkpt lat="45.01269" lon="5.50047">
        <ele>1328.198731</ele>
        <time>2010-06-05T10:36:33Z</time>
      </trkpt>
      <trkpt lat="45.01261" lon="5.50039">
        <ele>1329.159912</ele>
        <time>2010-06-05T10:36:40Z</time>
      </trkpt>
      <trkpt lat="45.01249" lon="5.50032">
        <ele>1329.640625</ele>
        <time>2010-06-05T10:36:46Z</time>
      </trkpt>
      <trkpt lat="45.01243" lon="5.50029">
        <ele>1330.121338</ele>
        <time>2010-06-05T10:36:51Z</time>
      </trkpt>
      <trkpt lat="45.01232" lon="5.50023">
        <ele>1330.121338</ele>
        <time>2010-06-05T10:36:58Z</time>
      </trkpt>
      <trkpt lat="45.01225" lon="5.50018">
        <ele>1331.082764</ele>
        <time>2010-06-05T10:37:04Z</time>
      </trkpt>
      <trkpt lat="45.01218" lon="5.50014">
        <ele>1331.563232</ele>
        <time>2010-06-05T10:37:10Z</time>
      </trkpt>
      <trkpt lat="45.0121" lon="5.5001">
        <ele>1332.524658</ele>
        <time>2010-06-05T10:37:16Z</time>
      </trkpt>
      <trkpt lat="45.01201" lon="5.50002">
        <ele>1332.043945</ele>
        <time>2010-06-05T10:37:23Z</time>
      </trkpt>
      <trkpt lat="45.01199" lon="5.49999">
        <ele>1332.524658</ele>
        <time>2010-06-05T10:37:25Z</time>
      </trkpt>
      <trkpt lat="45.01195" lon="5.4999">
        <ele>1332.524658</ele>
        <time>2010-06-05T10:37:31Z</time>
      </trkpt>
      <trkpt lat="45.01191" lon="5.4998">
        <ele>1333.005127</ele>
        <time>2010-06-05T10:37:37Z</time>
      </trkpt>
      <trkpt lat="45.01187" lon="5.4997">
        <ele>1332.524658</ele>
        <time>2010-06-05T10:37:43Z</time>
      </trkpt>
      <trkpt lat="45.01183" lon="5.49965">
        <ele>1332.043945</ele>
        <time>2010-06-05T10:37:49Z</time>
      </trkpt>
      <trkpt lat="45.01183" lon="5.49962">
        <ele>1331.563232</ele>
        <time>2010-06-05T10:38:01Z</time>
      </trkpt>
      <trkpt lat="45.01183" lon="5.4996">
        <ele>1330.121338</ele>
        <time>2010-06-05T10:38:16Z</time>
      </trkpt>
      <trkpt lat="45.01185" lon="5.49958">
        <ele>1329.159912</ele>
        <time>2010-06-05T10:38:30Z</time>
      </trkpt>
      <trkpt lat="45.01184" lon="5.49956">
        <ele>1320.988769</ele>
        <time>2010-06-05T10:46:38Z</time>
      </trkpt>
      <trkpt lat="45.01186" lon="5.49958">
        <ele>1321.469238</ele>
        <time>2010-06-05T10:46:44Z</time>
      </trkpt>
      <trkpt lat="45.01191" lon="5.49958">
        <ele>1322.911377</ele>
        <time>2010-06-05T10:46:51Z</time>
      </trkpt>
      <trkpt lat="45.01192" lon="5.49955">
        <ele>1323.39209</ele>
        <time>2010-06-05T10:46:58Z</time>
      </trkpt>
      <trkpt lat="45.01197" lon="5.49947">
        <ele>1324.834229</ele>
        <time>2010-06-05T10:47:06Z</time>
      </trkpt>
      <trkpt lat="45.01201" lon="5.49942">
        <ele>1325.314697</ele>
        <time>2010-06-05T10:47:13Z</time>
      </trkpt>
      <trkpt lat="45.012" lon="5.49941">
        <ele>1325.79541</ele>
        <time>2010-06-05T10:47:30Z</time>
      </trkpt>
      <trkpt lat="45.01203" lon="5.49944">
        <ele>1325.79541</ele>
        <time>2010-06-05T10:47:50Z</time>
      </trkpt>
      <trkpt lat="45.01206" lon="5.49938">
        <ele>1327.237549</ele>
        <time>2010-06-05T10:47:55Z</time>
      </trkpt>
      <trkpt lat="45.01214" lon="5.49928">
        <ele>1328.198731</ele>
        <time>2010-06-05T10:48:02Z</time>
      </trkpt>
      <trkpt lat="45.01222" lon="5.49918">
        <ele>1328.198731</ele>
        <time>2010-06-05T10:48:08Z</time>
      </trkpt>
      <trkpt lat="45.01229" lon="5.49913">
        <ele>1328.679443</ele>
        <time>2010-06-05T10:48:12Z</time>
      </trkpt>
      <trkpt lat="45.01234" lon="5.49906">
        <ele>1328.198731</ele>
        <time>2010-06-05T10:48:17Z</time>
      </trkpt>
      <trkpt lat="45.01242" lon="5.49892">
        <ele>1327.237549</ele>
        <time>2010-06-05T10:48:24Z</time>
      </trkpt>
      <trkpt lat="45.01248" lon="5.4988">
        <ele>1330.602051</ele>
        <time>2010-06-05T10:48:29Z</time>
      </trkpt>
      <trkpt lat="45.01249" lon="5.49879">
        <ele>1330.602051</ele>
        <time>2010-06-05T10:48:30Z</time>
      </trkpt>
      <trkpt lat="45.01255" lon="5.4987">
        <ele>1333.966553</ele>
        <time>2010-06-05T10:48:35Z</time>
      </trkpt>
      <trkpt lat="45.01254" lon="5.49866">
        <ele>1336.850342</ele>
        <time>2010-06-05T10:48:41Z</time>
      </trkpt>
      <trkpt lat="45.01254" lon="5.49866">
        <ele>1338.292481</ele>
        <time>2010-06-05T10:48:47Z</time>
      </trkpt>
      <trkpt lat="45.01244" lon="5.49869">
        <ele>1341.657227</ele>
        <time>2010-06-05T10:48:54Z</time>
      </trkpt>
      <trkpt lat="45.01232" lon="5.4987">
        <ele>1344.060547</ele>
        <time>2010-06-05T10:49:01Z</time>
      </trkpt>
      <trkpt lat="45.0122" lon="5.49865">
        <ele>1342.137939</ele>
        <time>2010-06-05T10:49:08Z</time>
      </trkpt>
      <trkpt lat="45.01212" lon="5.49857">
        <ele>1341.657227</ele>
        <time>2010-06-05T10:49:15Z</time>
      </trkpt>
      <trkpt lat="45.0121" lon="5.49853">
        <ele>1342.137939</ele>
        <time>2010-06-05T10:49:18Z</time>
      </trkpt>
      <trkpt lat="45.01207" lon="5.49839">
        <ele>1341.657227</ele>
        <time>2010-06-05T10:49:27Z</time>
      </trkpt>
      <trkpt lat="45.01205" lon="5.49821">
        <ele>1341.176514</ele>
        <time>2010-06-05T10:49:35Z</time>
      </trkpt>
      <trkpt lat="45.01204" lon="5.49816">
        <ele>1340.695801</ele>
        <time>2010-06-05T10:49:36Z</time>
      </trkpt>
      <trkpt lat="45.01191" lon="5.49782">
        <ele>1339.734375</ele>
        <time>2010-06-05T10:49:41Z</time>
      </trkpt>
      <trkpt lat="45.01177" lon="5.49746">
        <ele>1336.850342</ele>
        <time>2010-06-05T10:49:46Z</time>
      </trkpt>
      <trkpt lat="45.0116" lon="5.49727">
        <ele>1337.331055</ele>
        <time>2010-06-05T10:49:51Z</time>
      </trkpt>
      <trkpt lat="45.01147" lon="5.49721">
        <ele>1340.695801</ele>
        <time>2010-06-05T10:49:56Z</time>
      </trkpt>
      <trkpt lat="45.01129" lon="5.49717">
        <ele>1342.137939</ele>
        <time>2010-06-05T10:50:03Z</time>
      </trkpt>
      <trkpt lat="45.01108" lon="5.4971">
        <ele>1342.137939</ele>
        <time>2010-06-05T10:50:11Z</time>
      </trkpt>
      <trkpt lat="45.01093" lon="5.49703">
        <ele>1342.618652</ele>
        <time>2010-06-05T10:50:17Z</time>
      </trkpt>
      <trkpt lat="45.01075" lon="5.49698">
        <ele>1347.425049</ele>
        <time>2010-06-05T10:50:26Z</time>
      </trkpt>
      <trkpt lat="45.01064" lon="5.49698">
        <ele>1351.270264</ele>
        <time>2010-06-05T10:50:33Z</time>
      </trkpt>
      <trkpt lat="45.01047" lon="5.49699">
        <ele>1356.076904</ele>
        <time>2010-06-05T10:50:42Z</time>
      </trkpt>
      <trkpt lat="45.01032" lon="5.49693">
        <ele>1358.480225</ele>
        <time>2010-06-05T10:50:50Z</time>
      </trkpt>
      <trkpt lat="45.0102" lon="5.49686">
        <ele>1358.480225</ele>
        <time>2010-06-05T10:50:57Z</time>
      </trkpt>
      <trkpt lat="45.01003" lon="5.49679">
        <ele>1357.519043</ele>
        <time>2010-06-05T10:51:03Z</time>
      </trkpt>
      <trkpt lat="45.00982" lon="5.49676">
        <ele>1358.960938</ele>
        <time>2010-06-05T10:51:10Z</time>
      </trkpt>
      <trkpt lat="45.00959" lon="5.49678">
        <ele>1360.402832</ele>
        <time>2010-06-05T10:51:15Z</time>
      </trkpt>
      <trkpt lat="45.00938" lon="5.49683">
        <ele>1361.844971</ele>
        <time>2010-06-05T10:51:21Z</time>
      </trkpt>
      <trkpt lat="45.00925" lon="5.4969">
        <ele>1363.286865</ele>
        <time>2010-06-05T10:51:28Z</time>
      </trkpt>
      <trkpt lat="45.00922" lon="5.49697">
        <ele>1361.844971</ele>
        <time>2010-06-05T10:51:36Z</time>
      </trkpt>
      <trkpt lat="45.00921" lon="5.49698">
        <ele>1360.883545</ele>
        <time>2010-06-05T10:52:17Z</time>
      </trkpt>
      <trkpt lat="45.00918" lon="5.49696">
        <ele>1363.767334</ele>
        <time>2010-06-05T10:52:23Z</time>
      </trkpt>
      <trkpt lat="45.0092" lon="5.49696">
        <ele>1355.596191</ele>
        <time>2010-06-05T10:53:31Z</time>
      </trkpt>
      <trkpt lat="45.00913" lon="5.49693">
        <ele>1354.634766</ele>
        <time>2010-06-05T10:53:35Z</time>
      </trkpt>
      <trkpt lat="45.00903" lon="5.49685">
        <ele>1355.115479</ele>
        <time>2010-06-05T10:53:42Z</time>
      </trkpt>
      <trkpt lat="45.00901" lon="5.49685">
        <ele>1354.154297</ele>
        <time>2010-06-05T10:53:44Z</time>
      </trkpt>
      <trkpt lat="45.00896" lon="5.4968">
        <ele>1355.596191</ele>
        <time>2010-06-05T10:53:50Z</time>
      </trkpt>
      <trkpt lat="45.00884" lon="5.49676">
        <ele>1356.557617</ele>
        <time>2010-06-05T10:53:58Z</time>
      </trkpt>
      <trkpt lat="45.00872" lon="5.4967">
        <ele>1356.076904</ele>
        <time>2010-06-05T10:54:06Z</time>
      </trkpt>
      <trkpt lat="45.00861" lon="5.49667">
        <ele>1357.519043</ele>
        <time>2010-06-05T10:54:14Z</time>
      </trkpt>
      <trkpt lat="45.00854" lon="5.49659">
        <ele>1357.519043</ele>
        <time>2010-06-05T10:54:20Z</time>
      </trkpt>
      <trkpt lat="45.00846" lon="5.49655">
        <ele>1359.44165</ele>
        <time>2010-06-05T10:54:27Z</time>
      </trkpt>
      <trkpt lat="45.00839" lon="5.49649">
        <ele>1358.960938</ele>
        <time>2010-06-05T10:54:33Z</time>
      </trkpt>
      <trkpt lat="45.00832" lon="5.4964">
        <ele>1358.480225</ele>
        <time>2010-06-05T10:54:40Z</time>
      </trkpt>
      <trkpt lat="45.00823" lon="5.49627">
        <ele>1358.480225</ele>
        <time>2010-06-05T10:54:48Z</time>
      </trkpt>
      <trkpt lat="45.00816" lon="5.49612">
        <ele>1358.960938</ele>
        <time>2010-06-05T10:54:56Z</time>
      </trkpt>
      <trkpt lat="45.00811" lon="5.49596">
        <ele>1358.480225</ele>
        <time>2010-06-05T10:55:04Z</time>
      </trkpt>
      <trkpt lat="45.00805" lon="5.49583">
        <ele>1358.960938</ele>
        <time>2010-06-05T10:55:11Z</time>
      </trkpt>
      <trkpt lat="45.00798" lon="5.49573">
        <ele>1359.44165</ele>
        <time>2010-06-05T10:55:18Z</time>
      </trkpt>
      <trkpt lat="45.0079" lon="5.49563">
        <ele>1362.806152</ele>
        <time>2010-06-05T10:55:25Z</time>
      </trkpt>
      <trkpt lat="45.0078" lon="5.49556">
        <ele>1363.286865</ele>
        <time>2010-06-05T10:55:32Z</time>
      </trkpt>
      <trkpt lat="45.00769" lon="5.49551">
        <ele>1365.690186</ele>
        <time>2010-06-05T10:55:40Z</time>
      </trkpt>
      <trkpt lat="45.00755" lon="5.49544">
        <ele>1369.054688</ele>
        <time>2010-06-05T10:55:50Z</time>
      </trkpt>
      <trkpt lat="45.0075" lon="5.4953">
        <ele>1369.054688</ele>
        <time>2010-06-05T10:55:57Z</time>
      </trkpt>
      <trkpt lat="45.00755" lon="5.49518">
        <ele>1369.5354</ele>
        <time>2010-06-05T10:56:03Z</time>
      </trkpt>
      <trkpt lat="45.00765" lon="5.49508">
        <ele>1371.457764</ele>
        <time>2010-06-05T10:56:11Z</time>
      </trkpt>
      <trkpt lat="45.00776" lon="5.49498">
        <ele>1371.938477</ele>
        <time>2010-06-05T10:56:19Z</time>
      </trkpt>
      <trkpt lat="45.00784" lon="5.49487">
        <ele>1372.419434</ele>
        <time>2010-06-05T10:56:27Z</time>
      </trkpt>
      <trkpt lat="45.00794" lon="5.49475">
        <ele>1372.419434</ele>
        <time>2010-06-05T10:56:35Z</time>
      </trkpt>
      <trkpt lat="45.00804" lon="5.49459">
        <ele>1373.380859</ele>
        <time>2010-06-05T10:56:43Z</time>
      </trkpt>
      <trkpt lat="45.00818" lon="5.49439">
        <ele>1375.783936</ele>
        <time>2010-06-05T10:56:51Z</time>
      </trkpt>
      <trkpt lat="45.00828" lon="5.49421">
        <ele>1377.226074</ele>
        <time>2010-06-05T10:56:57Z</time>
      </trkpt>
      <trkpt lat="45.00839" lon="5.49404">
        <ele>1380.590576</ele>
        <time>2010-06-05T10:57:03Z</time>
      </trkpt>
      <trkpt lat="45.0085" lon="5.49379">
        <ele>1383.955078</ele>
        <time>2010-06-05T10:57:12Z</time>
      </trkpt>
      <trkpt lat="45.0086" lon="5.49358">
        <ele>1383.955078</ele>
        <time>2010-06-05T10:57:19Z</time>
      </trkpt>
      <trkpt lat="45.00872" lon="5.49338">
        <ele>1384.916504</ele>
        <time>2010-06-05T10:57:27Z</time>
      </trkpt>
      <trkpt lat="45.00881" lon="5.49327">
        <ele>1386.838867</ele>
        <time>2010-06-05T10:57:35Z</time>
      </trkpt>
      <trkpt lat="45.00888" lon="5.49319">
        <ele>1389.242432</ele>
        <time>2010-06-05T10:57:42Z</time>
      </trkpt>
      <trkpt lat="45.00899" lon="5.49309">
        <ele>1389.242432</ele>
        <time>2010-06-05T10:57:51Z</time>
      </trkpt>
      <trkpt lat="45.0091" lon="5.493">
        <ele>1389.723144</ele>
        <time>2010-06-05T10:58:00Z</time>
      </trkpt>
      <trkpt lat="45.00921" lon="5.49295">
        <ele>1389.242432</ele>
        <time>2010-06-05T10:58:08Z</time>
      </trkpt>
      <trkpt lat="45.00931" lon="5.49292">
        <ele>1388.28125</ele>
        <time>2010-06-05T10:58:15Z</time>
      </trkpt>
      <trkpt lat="45.0094" lon="5.49291">
        <ele>1388.28125</ele>
        <time>2010-06-05T10:58:23Z</time>
      </trkpt>
      <trkpt lat="45.0095" lon="5.4929">
        <ele>1388.28125</ele>
        <time>2010-06-05T10:58:31Z</time>
      </trkpt>
      <trkpt lat="45.0096" lon="5.49292">
        <ele>1390.203857</ele>
        <time>2010-06-05T10:58:38Z</time>
      </trkpt>
      <trkpt lat="45.00973" lon="5.4929">
        <ele>1390.684326</ele>
        <time>2010-06-05T10:58:46Z</time>
      </trkpt>
      <trkpt lat="45.00984" lon="5.49285">
        <ele>1392.126465</ele>
        <time>2010-06-05T10:58:54Z</time>
      </trkpt>
      <trkpt lat="45.00994" lon="5.49277">
        <ele>1394.049072</ele>
        <time>2010-06-05T10:59:02Z</time>
      </trkpt>
      <trkpt lat="45.01003" lon="5.49269">
        <ele>1395.490967</ele>
        <time>2010-06-05T10:59:09Z</time>
      </trkpt>
      <trkpt lat="45.01014" lon="5.49257">
        <ele>1399.336182</ele>
        <time>2010-06-05T10:59:19Z</time>
      </trkpt>
      <trkpt lat="45.01021" lon="5.49246">
        <ele>1401.739502</ele>
        <time>2010-06-05T10:59:27Z</time>
      </trkpt>
      <trkpt lat="45.01027" lon="5.49232">
        <ele>1404.143066</ele>
        <time>2010-06-05T10:59:36Z</time>
      </trkpt>
      <trkpt lat="45.01032" lon="5.49218">
        <ele>1408.949463</ele>
        <time>2010-06-05T10:59:44Z</time>
      </trkpt>
      <trkpt lat="45.01037" lon="5.49199">
        <ele>1412.313965</ele>
        <time>2010-06-05T10:59:55Z</time>
      </trkpt>
      <trkpt lat="45.01045" lon="5.49178">
        <ele>1415.678711</ele>
        <time>2010-06-05T11:00:06Z</time>
      </trkpt>
      <trkpt lat="45.01047" lon="5.49175">
        <ele>1415.197998</ele>
        <time>2010-06-05T11:00:08Z</time>
      </trkpt>
      <trkpt lat="45.01052" lon="5.49169">
        <ele>1416.15918</ele>
        <time>2010-06-05T11:00:13Z</time>
      </trkpt>
      <trkpt lat="45.01057" lon="5.49162">
        <ele>1416.15918</ele>
        <time>2010-06-05T11:00:19Z</time>
      </trkpt>
      <trkpt lat="45.01063" lon="5.49154">
        <ele>1415.197998</ele>
        <time>2010-06-05T11:00:25Z</time>
      </trkpt>
      <trkpt lat="45.01071" lon="5.49144">
        <ele>1416.15918</ele>
        <time>2010-06-05T11:00:32Z</time>
      </trkpt>
      <trkpt lat="45.01081" lon="5.49133">
        <ele>1414.717285</ele>
        <time>2010-06-05T11:00:42Z</time>
      </trkpt>
      <trkpt lat="45.0109" lon="5.49125">
        <ele>1414.717285</ele>
        <time>2010-06-05T11:00:49Z</time>
      </trkpt>
      <trkpt lat="45.01099" lon="5.49114">
        <ele>1413.755859</ele>
        <time>2010-06-05T11:00:56Z</time>
      </trkpt>
      <trkpt lat="45.01099" lon="5.49099">
        <ele>1414.717285</ele>
        <time>2010-06-05T11:01:03Z</time>
      </trkpt>
      <trkpt lat="45.01095" lon="5.49086">
        <ele>1416.15918</ele>
        <time>2010-06-05T11:01:10Z</time>
      </trkpt>
      <trkpt lat="45.01091" lon="5.49072">
        <ele>1416.15918</ele>
        <time>2010-06-05T11:01:17Z</time>
      </trkpt>
      <trkpt lat="45.01087" lon="5.49064">
        <ele>1419.523926</ele>
        <time>2010-06-05T11:01:23Z</time>
      </trkpt>
      <trkpt lat="45.01084" lon="5.49051">
        <ele>1420.004639</ele>
        <time>2010-06-05T11:01:30Z</time>
      </trkpt>
      <trkpt lat="45.01084" lon="5.49037">
        <ele>1419.523926</ele>
        <time>2010-06-05T11:01:35Z</time>
      </trkpt>
      <trkpt lat="45.0108" lon="5.49028">
        <ele>1419.523926</ele>
        <time>2010-06-05T11:01:42Z</time>
      </trkpt>
      <trkpt lat="45.01077" lon="5.49026">
        <ele>1424.811279</ele>
        <time>2010-06-05T11:04:07Z</time>
      </trkpt>
      <trkpt lat="45.01083" lon="5.49025">
        <ele>1423.849854</ele>
        <time>2010-06-05T11:11:33Z</time>
      </trkpt>
      <trkpt lat="45.01082" lon="5.49025">
        <ele>1423.369385</ele>
        <time>2010-06-05T11:11:43Z</time>
      </trkpt>
      <trkpt lat="45.0108" lon="5.49024">
        <ele>1423.849854</ele>
        <time>2010-06-05T11:11:54Z</time>
      </trkpt>
      <trkpt lat="45.0108" lon="5.49024">
        <ele>1424.811279</ele>
        <time>2010-06-05T11:12:03Z</time>
      </trkpt>
      <trkpt lat="45.01079" lon="5.4902">
        <ele>1428.656494</ele>
        <time>2010-06-05T11:12:32Z</time>
      </trkpt>
      <trkpt lat="45.0108" lon="5.49021">
        <ele>1425.772461</ele>
        <time>2010-06-05T11:12:47Z</time>
      </trkpt>
      <trkpt lat="45.0108" lon="5.49019">
        <ele>1424.330566</ele>
        <time>2010-06-05T11:13:53Z</time>
      </trkpt>
      <trkpt lat="45.01074" lon="5.4901">
        <ele>1426.253174</ele>
        <time>2010-06-05T11:14:00Z</time>
      </trkpt>
      <trkpt lat="45.01072" lon="5.49007">
        <ele>1426.253174</ele>
        <time>2010-06-05T11:14:01Z</time>
      </trkpt>
      <trkpt lat="45.01059" lon="5.49003">
        <ele>1424.330566</ele>
        <time>2010-06-05T11:14:04Z</time>
      </trkpt>
      <trkpt lat="45.01047" lon="5.49001">
        <ele>1423.369385</ele>
        <time>2010-06-05T11:14:06Z</time>
      </trkpt>
      <trkpt lat="45.01021" lon="5.48985">
        <ele>1421.927246</ele>
        <time>2010-06-05T11:14:10Z</time>
      </trkpt>
      <trkpt lat="45.0102" lon="5.48964">
        <ele>1420.004639</ele>
        <time>2010-06-05T11:14:12Z</time>
      </trkpt>
      <trkpt lat="45.0102" lon="5.48953">
        <ele>1419.523926</ele>
        <time>2010-06-05T11:14:13Z</time>
      </trkpt>
      <trkpt lat="45.01022" lon="5.48932">
        <ele>1417.120606</ele>
        <time>2010-06-05T11:14:15Z</time>
      </trkpt>
      <trkpt lat="45.01015" lon="5.48887">
        <ele>1415.197998</ele>
        <time>2010-06-05T11:14:20Z</time>
      </trkpt>
      <trkpt lat="45.01013" lon="5.48879">
        <ele>1413.755859</ele>
        <time>2010-06-05T11:14:21Z</time>
      </trkpt>
      <trkpt lat="45.01012" lon="5.48854">
        <ele>1412.313965</ele>
        <time>2010-06-05T11:14:24Z</time>
      </trkpt>
      <trkpt lat="45.01015" lon="5.48852">
        <ele>1409.910644</ele>
        <time>2010-06-05T11:14:30Z</time>
      </trkpt>
      <trkpt lat="45.01015" lon="5.48852">
        <ele>1409.910644</ele>
        <time>2010-06-05T11:14:32Z</time>
      </trkpt>
      <trkpt lat="45.01013" lon="5.48858">
        <ele>1408.949463</ele>
        <time>2010-06-05T11:14:38Z</time>
      </trkpt>
      <trkpt lat="45.0101" lon="5.48859">
        <ele>1407.988281</ele>
        <time>2010-06-05T11:14:43Z</time>
      </trkpt>
      <trkpt lat="45.01008" lon="5.48858">
        <ele>1407.026856</ele>
        <time>2010-06-05T11:14:47Z</time>
      </trkpt>
      <trkpt lat="45.01005" lon="5.48857">
        <ele>1407.507568</ele>
        <time>2010-06-05T11:14:51Z</time>
      </trkpt>
      <trkpt lat="45.01" lon="5.48861">
        <ele>1407.988281</ele>
        <time>2010-06-05T11:14:58Z</time>
      </trkpt>
      <trkpt lat="45.00999" lon="5.48862">
        <ele>1409.910644</ele>
        <time>2010-06-05T11:15:06Z</time>
      </trkpt>
      <trkpt lat="45.00992" lon="5.48841">
        <ele>1438.750488</ele>
        <time>2010-06-05T11:16:05Z</time>
      </trkpt>
      <trkpt lat="45.00994" lon="5.48846">
        <ele>1433.462891</ele>
        <time>2010-06-05T11:16:26Z</time>
      </trkpt>
      <trkpt lat="45.00995" lon="5.48852">
        <ele>1429.136963</ele>
        <time>2010-06-05T11:17:21Z</time>
      </trkpt>
      <trkpt lat="45.00997" lon="5.48852">
        <ele>1424.811279</ele>
        <time>2010-06-05T11:17:32Z</time>
      </trkpt>
      <trkpt lat="45.01002" lon="5.48858">
        <ele>1416.15918</ele>
        <time>2010-06-05T11:17:54Z</time>
      </trkpt>
      <trkpt lat="45.0101" lon="5.48862">
        <ele>1414.236572</ele>
        <time>2010-06-05T11:18:03Z</time>
      </trkpt>
      <trkpt lat="45.01012" lon="5.48857">
        <ele>1413.755859</ele>
        <time>2010-06-05T11:18:10Z</time>
      </trkpt>
      <trkpt lat="45.01012" lon="5.48856">
        <ele>1413.755859</ele>
        <time>2010-06-05T11:18:11Z</time>
      </trkpt>
      <trkpt lat="45.01016" lon="5.48847">
        <ele>1414.236572</ele>
        <time>2010-06-05T11:18:20Z</time>
      </trkpt>
      <trkpt lat="45.01016" lon="5.48847">
        <ele>1414.236572</ele>
        <time>2010-06-05T11:18:23Z</time>
      </trkpt>
      <trkpt lat="45.01015" lon="5.4883">
        <ele>1413.755859</ele>
        <time>2010-06-05T11:18:30Z</time>
      </trkpt>
      <trkpt lat="45.01012" lon="5.48811">
        <ele>1412.794678</ele>
        <time>2010-06-05T11:18:37Z</time>
      </trkpt>
      <trkpt lat="45.01012" lon="5.48812">
        <ele>1410.391357</ele>
        <time>2010-06-05T11:18:55Z</time>
      </trkpt>
      <trkpt lat="45.01012" lon="5.48809">
        <ele>1407.026856</ele>
        <time>2010-06-05T11:19:04Z</time>
      </trkpt>
      <trkpt lat="45.01011" lon="5.48811">
        <ele>1407.026856</ele>
        <time>2010-06-05T11:19:06Z</time>
      </trkpt>
      <trkpt lat="45.01013" lon="5.4882">
        <ele>1407.507568</ele>
        <time>2010-06-05T11:19:11Z</time>
      </trkpt>
      <trkpt lat="45.01015" lon="5.48834">
        <ele>1408.46875</ele>
        <time>2010-06-05T11:19:18Z</time>
      </trkpt>
      <trkpt lat="45.0102" lon="5.48843">
        <ele>1408.949463</ele>
        <time>2010-06-05T11:19:24Z</time>
      </trkpt>
      <trkpt lat="45.01021" lon="5.48844">
        <ele>1409.910644</ele>
        <time>2010-06-05T11:19:30Z</time>
      </trkpt>
      <trkpt lat="45.01018" lon="5.4884">
        <ele>1411.352783</ele>
        <time>2010-06-05T11:21:03Z</time>
      </trkpt>
      <trkpt lat="45.01019" lon="5.48838">
        <ele>1411.833496</ele>
        <time>2010-06-05T11:21:11Z</time>
      </trkpt>
      <trkpt lat="45.01019" lon="5.48838">
        <ele>1411.833496</ele>
        <time>2010-06-05T11:21:16Z</time>
      </trkpt>
      <trkpt lat="45.01017" lon="5.48831">
        <ele>1411.352783</ele>
        <time>2010-06-05T11:21:20Z</time>
      </trkpt>
      <trkpt lat="45.0101" lon="5.48808">
        <ele>1410.391357</ele>
        <time>2010-06-05T11:21:27Z</time>
      </trkpt>
      <trkpt lat="45.00995" lon="5.48783">
        <ele>1410.87207</ele>
        <time>2010-06-05T11:21:35Z</time>
      </trkpt>
      <trkpt lat="45.00984" lon="5.48774">
        <ele>1412.794678</ele>
        <time>2010-06-05T11:21:38Z</time>
      </trkpt>
      <trkpt lat="45.0096" lon="5.48762">
        <ele>1414.236572</ele>
        <time>2010-06-05T11:21:43Z</time>
      </trkpt>
      <trkpt lat="45.00945" lon="5.4876">
        <ele>1415.197998</ele>
        <time>2010-06-05T11:21:46Z</time>
      </trkpt>
      <trkpt lat="45.00922" lon="5.4875">
        <ele>1417.120606</ele>
        <time>2010-06-05T11:21:53Z</time>
      </trkpt>
      <trkpt lat="45.00907" lon="5.48753">
        <ele>1417.601074</ele>
        <time>2010-06-05T11:21:59Z</time>
      </trkpt>
      <trkpt lat="45.0089" lon="5.48764">
        <ele>1417.601074</ele>
        <time>2010-06-05T11:22:06Z</time>
      </trkpt>
      <trkpt lat="45.00875" lon="5.48773">
        <ele>1414.717285</ele>
        <time>2010-06-05T11:22:12Z</time>
      </trkpt>
      <trkpt lat="45.00852" lon="5.48786">
        <ele>1413.275391</ele>
        <time>2010-06-05T11:22:19Z</time>
      </trkpt>
      <trkpt lat="45.00818" lon="5.48801">
        <ele>1413.275391</ele>
        <time>2010-06-05T11:22:27Z</time>
      </trkpt>
      <trkpt lat="45.00796" lon="5.48807">
        <ele>1413.755859</ele>
        <time>2010-06-05T11:22:32Z</time>
      </trkpt>
      <trkpt lat="45.00778" lon="5.48815">
        <ele>1411.352783</ele>
        <time>2010-06-05T11:22:36Z</time>
      </trkpt>
      <trkpt lat="45.00762" lon="5.4882">
        <ele>1409.430176</ele>
        <time>2010-06-05T11:22:39Z</time>
      </trkpt>
      <trkpt lat="45.00747" lon="5.4883">
        <ele>1406.546143</ele>
        <time>2010-06-05T11:22:42Z</time>
      </trkpt>
      <trkpt lat="45.00721" lon="5.48831">
        <ele>1402.700684</ele>
        <time>2010-06-05T11:22:46Z</time>
      </trkpt>
      <trkpt lat="45.00712" lon="5.48806">
        <ele>1400.297607</ele>
        <time>2010-06-05T11:22:49Z</time>
      </trkpt>
      <trkpt lat="45.00711" lon="5.48784">
        <ele>1399.336182</ele>
        <time>2010-06-05T11:22:52Z</time>
      </trkpt>
      <trkpt lat="45.00707" lon="5.48761">
        <ele>1401.258789</ele>
        <time>2010-06-05T11:22:58Z</time>
      </trkpt>
      <trkpt lat="45.00699" lon="5.48738">
        <ele>1403.181396</ele>
        <time>2010-06-05T11:23:05Z</time>
      </trkpt>
      <trkpt lat="45.00689" lon="5.48712">
        <ele>1405.104248</ele>
        <time>2010-06-05T11:23:13Z</time>
      </trkpt>
      <trkpt lat="45.00681" lon="5.48688">
        <ele>1407.988281</ele>
        <time>2010-06-05T11:23:18Z</time>
      </trkpt>
      <trkpt lat="45.00666" lon="5.48665">
        <ele>1413.275391</ele>
        <time>2010-06-05T11:23:24Z</time>
      </trkpt>
      <trkpt lat="45.00659" lon="5.48658">
        <ele>1417.120606</ele>
        <time>2010-06-05T11:23:29Z</time>
      </trkpt>
      <trkpt lat="45.00649" lon="5.48644">
        <ele>1419.043213</ele>
        <time>2010-06-05T11:23:37Z</time>
      </trkpt>
      <trkpt lat="45.00638" lon="5.48632">
        <ele>1423.849854</ele>
        <time>2010-06-05T11:23:46Z</time>
      </trkpt>
      <trkpt lat="45.00631" lon="5.48621">
        <ele>1422.888672</ele>
        <time>2010-06-05T11:23:52Z</time>
      </trkpt>
      <trkpt lat="45.00619" lon="5.48604">
        <ele>1422.407959</ele>
        <time>2010-06-05T11:24:00Z</time>
      </trkpt>
      <trkpt lat="45.00608" lon="5.48593">
        <ele>1423.369385</ele>
        <time>2010-06-05T11:24:07Z</time>
      </trkpt>
      <trkpt lat="45.00588" lon="5.48574">
        <ele>1429.617676</ele>
        <time>2010-06-05T11:24:17Z</time>
      </trkpt>
      <trkpt lat="45.00575" lon="5.48556">
        <ele>1428.175781</ele>
        <time>2010-06-05T11:24:24Z</time>
      </trkpt>
      <trkpt lat="45.0056" lon="5.48541">
        <ele>1426.253174</ele>
        <time>2010-06-05T11:24:30Z</time>
      </trkpt>
      <trkpt lat="45.0055" lon="5.4854">
        <ele>1422.888672</ele>
        <time>2010-06-05T11:24:36Z</time>
      </trkpt>
      <trkpt lat="45.00541" lon="5.48542">
        <ele>1421.927246</ele>
        <time>2010-06-05T11:24:42Z</time>
      </trkpt>
      <trkpt lat="45.00535" lon="5.48546">
        <ele>1423.369385</ele>
        <time>2010-06-05T11:24:46Z</time>
      </trkpt>
      <trkpt lat="45.00521" lon="5.48549">
        <ele>1427.2146</ele>
        <time>2010-06-05T11:24:54Z</time>
      </trkpt>
      <trkpt lat="45.00509" lon="5.4855">
        <ele>1429.617676</ele>
        <time>2010-06-05T11:25:01Z</time>
      </trkpt>
      <trkpt lat="45.00496" lon="5.48551">
        <ele>1432.501709</ele>
        <time>2010-06-05T11:25:09Z</time>
      </trkpt>
      <trkpt lat="45.00485" lon="5.48552">
        <ele>1428.656494</ele>
        <time>2010-06-05T11:25:17Z</time>
      </trkpt>
      <trkpt lat="45.00483" lon="5.48553">
        <ele>1428.175781</ele>
        <time>2010-06-05T11:25:18Z</time>
      </trkpt>
      <trkpt lat="45.00477" lon="5.48558">
        <ele>1429.136963</ele>
        <time>2010-06-05T11:25:24Z</time>
      </trkpt>
      <trkpt lat="45.00468" lon="5.48563">
        <ele>1431.059814</ele>
        <time>2010-06-05T11:25:29Z</time>
      </trkpt>
      <trkpt lat="45.00455" lon="5.48572">
        <ele>1433.462891</ele>
        <time>2010-06-05T11:25:36Z</time>
      </trkpt>
      <trkpt lat="45.00446" lon="5.48582">
        <ele>1434.905029</ele>
        <time>2010-06-05T11:25:43Z</time>
      </trkpt>
      <trkpt lat="45.00438" lon="5.4859">
        <ele>1438.750488</ele>
        <time>2010-06-05T11:25:48Z</time>
      </trkpt>
      <trkpt lat="45.00436" lon="5.48591">
        <ele>1438.269775</ele>
        <time>2010-06-05T11:25:49Z</time>
      </trkpt>
      <trkpt lat="45.00424" lon="5.48597">
        <ele>1435.866211</ele>
        <time>2010-06-05T11:25:57Z</time>
      </trkpt>
      <trkpt lat="45.00414" lon="5.48602">
        <ele>1435.866211</ele>
        <time>2010-06-05T11:26:03Z</time>
      </trkpt>
      <trkpt lat="45.00401" lon="5.48607">
        <ele>1435.866211</ele>
        <time>2010-06-05T11:26:11Z</time>
      </trkpt>
      <trkpt lat="45.00392" lon="5.48611">
        <ele>1436.347168</ele>
        <time>2010-06-05T11:26:16Z</time>
      </trkpt>
      <trkpt lat="45.00379" lon="5.48613">
        <ele>1435.866211</ele>
        <time>2010-06-05T11:26:24Z</time>
      </trkpt>
      <trkpt lat="45.00371" lon="5.48618">
        <ele>1432.020996</ele>
        <time>2010-06-05T11:26:31Z</time>
      </trkpt>
      <trkpt lat="45.0036" lon="5.4863">
        <ele>1430.098389</ele>
        <time>2010-06-05T11:26:36Z</time>
      </trkpt>
      <trkpt lat="45.0035" lon="5.48647">
        <ele>1423.369385</ele>
        <time>2010-06-05T11:26:42Z</time>
      </trkpt>
      <trkpt lat="45.00342" lon="5.48659">
        <ele>1421.446533</ele>
        <time>2010-06-05T11:26:47Z</time>
      </trkpt>
      <trkpt lat="45.00332" lon="5.48669">
        <ele>1420.485352</ele>
        <time>2010-06-05T11:26:53Z</time>
      </trkpt>
      <trkpt lat="45.00321" lon="5.48677">
        <ele>1419.043213</ele>
        <time>2010-06-05T11:26:59Z</time>
      </trkpt>
      <trkpt lat="45.00306" lon="5.4869">
        <ele>1424.330566</ele>
        <time>2010-06-05T11:27:06Z</time>
      </trkpt>
      <trkpt lat="45.00292" lon="5.48697">
        <ele>1425.772461</ele>
        <time>2010-06-05T11:27:13Z</time>
      </trkpt>
      <trkpt lat="45.00276" lon="5.48695">
        <ele>1427.2146</ele>
        <time>2010-06-05T11:27:21Z</time>
      </trkpt>
      <trkpt lat="45.00264" lon="5.4869">
        <ele>1427.2146</ele>
        <time>2010-06-05T11:27:28Z</time>
      </trkpt>
      <trkpt lat="45.00261" lon="5.48688">
        <ele>1428.656494</ele>
        <time>2010-06-05T11:27:31Z</time>
      </trkpt>
      <trkpt lat="45.00256" lon="5.48675">
        <ele>1434.424316</ele>
        <time>2010-06-05T11:27:40Z</time>
      </trkpt>
      <trkpt lat="45.00252" lon="5.48656">
        <ele>1441.634277</ele>
        <time>2010-06-05T11:27:50Z</time>
      </trkpt>
      <trkpt lat="45.00253" lon="5.48644">
        <ele>1444.998779</ele>
        <time>2010-06-05T11:27:58Z</time>
      </trkpt>
      <trkpt lat="45.00253" lon="5.48635">
        <ele>1446.440918</ele>
        <time>2010-06-05T11:28:03Z</time>
      </trkpt>
      <trkpt lat="45.00253" lon="5.48622">
        <ele>1445.960205</ele>
        <time>2010-06-05T11:28:10Z</time>
      </trkpt>
      <trkpt lat="45.00254" lon="5.48619">
        <ele>1443.556885</ele>
        <time>2010-06-05T11:28:17Z</time>
      </trkpt>
      <trkpt lat="45.00254" lon="5.48619">
        <ele>1444.518066</ele>
        <time>2010-06-05T11:28:32Z</time>
      </trkpt>
      <trkpt lat="45.00254" lon="5.48615">
        <ele>1433.462891</ele>
        <time>2010-06-05T11:28:59Z</time>
      </trkpt>
      <trkpt lat="45.00255" lon="5.48615">
        <ele>1433.462891</ele>
        <time>2010-06-05T11:29:33Z</time>
      </trkpt>
      <trkpt lat="45.00249" lon="5.48614">
        <ele>1440.672852</ele>
        <time>2010-06-05T11:29:52Z</time>
      </trkpt>
      <trkpt lat="45.00249" lon="5.48612">
        <ele>1436.827637</ele>
        <time>2010-06-05T11:30:06Z</time>
      </trkpt>
      <trkpt lat="45.00254" lon="5.48612">
        <ele>1440.192383</ele>
        <time>2010-06-05T11:30:41Z</time>
      </trkpt>
      <trkpt lat="45.00256" lon="5.48605">
        <ele>1440.192383</ele>
        <time>2010-06-05T11:30:44Z</time>
      </trkpt>
      <trkpt lat="45.00262" lon="5.48579">
        <ele>1439.71167</ele>
        <time>2010-06-05T11:30:48Z</time>
      </trkpt>
      <trkpt lat="45.00262" lon="5.48571">
        <ele>1439.71167</ele>
        <time>2010-06-05T11:30:49Z</time>
      </trkpt>
      <trkpt lat="45.00251" lon="5.48523">
        <ele>1439.230957</ele>
        <time>2010-06-05T11:30:54Z</time>
      </trkpt>
      <trkpt lat="45.00239" lon="5.48496">
        <ele>1441.634277</ele>
        <time>2010-06-05T11:30:58Z</time>
      </trkpt>
      <trkpt lat="45.00223" lon="5.48493">
        <ele>1438.750488</ele>
        <time>2010-06-05T11:31:01Z</time>
      </trkpt>
      <trkpt lat="45.00209" lon="5.48505">
        <ele>1433.462891</ele>
        <time>2010-06-05T11:31:04Z</time>
      </trkpt>
      <trkpt lat="45.00198" lon="5.48539">
        <ele>1428.175781</ele>
        <time>2010-06-05T11:31:08Z</time>
      </trkpt>
      <trkpt lat="45.00184" lon="5.48563">
        <ele>1431.059814</ele>
        <time>2010-06-05T11:31:11Z</time>
      </trkpt>
      <trkpt lat="45.00173" lon="5.48575">
        <ele>1428.175781</ele>
        <time>2010-06-05T11:31:13Z</time>
      </trkpt>
      <trkpt lat="45.00147" lon="5.48586">
        <ele>1426.733887</ele>
        <time>2010-06-05T11:31:16Z</time>
      </trkpt>
      <trkpt lat="45.00122" lon="5.48609">
        <ele>1422.888672</ele>
        <time>2010-06-05T11:31:19Z</time>
      </trkpt>
      <trkpt lat="45.00099" lon="5.48638">
        <ele>1416.639893</ele>
        <time>2010-06-05T11:31:23Z</time>
      </trkpt>
      <trkpt lat="45.00087" lon="5.48649">
        <ele>1411.833496</ele>
        <time>2010-06-05T11:31:28Z</time>
      </trkpt>
      <trkpt lat="45.00086" lon="5.48648">
        <ele>1411.352783</ele>
        <time>2010-06-05T11:31:35Z</time>
      </trkpt>
      <trkpt lat="45.00079" lon="5.48659">
        <ele>1409.910644</ele>
        <time>2010-06-05T11:31:42Z</time>
      </trkpt>
      <trkpt lat="45.00074" lon="5.48658">
        <ele>1430.098389</ele>
        <time>2010-06-05T11:31:51Z</time>
      </trkpt>
      <trkpt lat="45.00065" lon="5.48665">
        <ele>1447.882812</ele>
        <time>2010-06-05T11:32:14Z</time>
      </trkpt>
      <trkpt lat="45.0005" lon="5.48675">
        <ele>1437.30835</ele>
        <time>2010-06-05T11:32:20Z</time>
      </trkpt>
      <trkpt lat="45.00042" lon="5.48684">
        <ele>1430.579102</ele>
        <time>2010-06-05T11:32:23Z</time>
      </trkpt>
      <trkpt lat="45.00023" lon="5.48714">
        <ele>1422.407959</ele>
        <time>2010-06-05T11:32:30Z</time>
      </trkpt>
      <trkpt lat="45.00021" lon="5.48719">
        <ele>1420.966064</ele>
        <time>2010-06-05T11:32:32Z</time>
      </trkpt>
      <trkpt lat="45.00007" lon="5.48736">
        <ele>1407.026856</ele>
        <time>2010-06-05T11:32:40Z</time>
      </trkpt>
      <trkpt lat="44.99994" lon="5.48747">
        <ele>1403.662109</ele>
        <time>2010-06-05T11:32:46Z</time>
      </trkpt>
      <trkpt lat="44.99973" lon="5.48758">
        <ele>1398.855469</ele>
        <time>2010-06-05T11:32:51Z</time>
      </trkpt>
      <trkpt lat="44.99955" lon="5.48761">
        <ele>1394.049072</ele>
        <time>2010-06-05T11:32:56Z</time>
      </trkpt>
      <trkpt lat="44.99935" lon="5.48768">
        <ele>1392.607178</ele>
        <time>2010-06-05T11:33:02Z</time>
      </trkpt>
      <trkpt lat="44.99924" lon="5.48775">
        <ele>1393.568359</ele>
        <time>2010-06-05T11:33:06Z</time>
      </trkpt>
      <trkpt lat="44.99924" lon="5.4878">
        <ele>1394.049072</ele>
        <time>2010-06-05T11:33:22Z</time>
      </trkpt>
      <trkpt lat="44.99919" lon="5.48787">
        <ele>1389.723144</ele>
        <time>2010-06-05T11:33:41Z</time>
      </trkpt>
      <trkpt lat="44.99899" lon="5.48797">
        <ele>1392.126465</ele>
        <time>2010-06-05T11:33:46Z</time>
      </trkpt>
      <trkpt lat="44.99885" lon="5.48803">
        <ele>1395.490967</ele>
        <time>2010-06-05T11:33:48Z</time>
      </trkpt>
      <trkpt lat="44.9987" lon="5.48805">
        <ele>1397.894287</ele>
        <time>2010-06-05T11:33:50Z</time>
      </trkpt>
      <trkpt lat="44.99844" lon="5.48834">
        <ele>1406.06543</ele>
        <time>2010-06-05T11:33:54Z</time>
      </trkpt>
      <trkpt lat="44.99811" lon="5.48861">
        <ele>1405.104248</ele>
        <time>2010-06-05T11:33:59Z</time>
      </trkpt>
      <trkpt lat="44.9979" lon="5.48888">
        <ele>1404.623535</ele>
        <time>2010-06-05T11:34:03Z</time>
      </trkpt>
      <trkpt lat="44.99781" lon="5.489">
        <ele>1404.143066</ele>
        <time>2010-06-05T11:34:07Z</time>
      </trkpt>
      <trkpt lat="44.99784" lon="5.489">
        <ele>1399.816894</ele>
        <time>2010-06-05T11:34:17Z</time>
      </trkpt>
      <trkpt lat="44.9978" lon="5.48904">
        <ele>1388.761963</ele>
        <time>2010-06-05T11:34:38Z</time>
      </trkpt>
      <trkpt lat="44.99779" lon="5.48904">
        <ele>1387.31958</ele>
        <time>2010-06-05T11:34:39Z</time>
      </trkpt>
      <trkpt lat="44.99768" lon="5.48902">
        <ele>1386.358398</ele>
        <time>2010-06-05T11:34:43Z</time>
      </trkpt>
      <trkpt lat="44.99754" lon="5.48895">
        <ele>1384.916504</ele>
        <time>2010-06-05T11:34:46Z</time>
      </trkpt>
      <trkpt lat="44.99716" lon="5.48864">
        <ele>1376.745361</ele>
        <time>2010-06-05T11:34:51Z</time>
      </trkpt>
      <trkpt lat="44.99709" lon="5.48858">
        <ele>1375.303223</ele>
        <time>2010-06-05T11:34:52Z</time>
      </trkpt>
      <trkpt lat="44.99686" lon="5.48846">
        <ele>1369.5354</ele>
        <time>2010-06-05T11:34:56Z</time>
      </trkpt>
      <trkpt lat="44.99661" lon="5.48846">
        <ele>1358.960938</ele>
        <time>2010-06-05T11:35:01Z</time>
      </trkpt>
      <trkpt lat="44.99644" lon="5.48851">
        <ele>1353.192871</ele>
        <time>2010-06-05T11:35:04Z</time>
      </trkpt>
      <trkpt lat="44.99615" lon="5.48841">
        <ele>1345.983154</ele>
        <time>2010-06-05T11:35:08Z</time>
      </trkpt>
      <trkpt lat="44.99594" lon="5.48822">
        <ele>1339.734375</ele>
        <time>2010-06-05T11:35:11Z</time>
      </trkpt>
      <trkpt lat="44.99573" lon="5.48816">
        <ele>1335.408447</ele>
        <time>2010-06-05T11:35:15Z</time>
      </trkpt>
      <trkpt lat="44.99572" lon="5.48817">
        <ele>1339.253662</ele>
        <time>2010-06-05T11:35:19Z</time>
      </trkpt>
      <trkpt lat="44.99565" lon="5.48825">
        <ele>1357.999756</ele>
        <time>2010-06-05T11:36:55Z</time>
      </trkpt>
      <trkpt lat="44.99566" lon="5.48821">
        <ele>1349.347656</ele>
        <time>2010-06-05T11:37:07Z</time>
      </trkpt>
      <trkpt lat="44.9957" lon="5.48814">
        <ele>1343.579834</ele>
        <time>2010-06-05T11:38:15Z</time>
      </trkpt>
      <trkpt lat="44.99565" lon="5.48817">
        <ele>1346.463867</ele>
        <time>2010-06-05T11:38:31Z</time>
      </trkpt>
      <trkpt lat="44.99561" lon="5.48817">
        <ele>1345.021729</ele>
        <time>2010-06-05T11:38:38Z</time>
      </trkpt>
      <trkpt lat="44.99561" lon="5.48816">
        <ele>1339.734375</ele>
        <time>2010-06-05T11:38:44Z</time>
      </trkpt>
      <trkpt lat="44.99557" lon="5.48815">
        <ele>1334.447266</ele>
        <time>2010-06-05T11:38:57Z</time>
      </trkpt>
      <trkpt lat="44.99547" lon="5.48818">
        <ele>1333.966553</ele>
        <time>2010-06-05T11:39:03Z</time>
      </trkpt>
      <trkpt lat="44.99542" lon="5.4882">
        <ele>1334.447266</ele>
        <time>2010-06-05T11:39:07Z</time>
      </trkpt>
      <trkpt lat="44.99535" lon="5.48823">
        <ele>1334.447266</ele>
        <time>2010-06-05T11:39:12Z</time>
      </trkpt>
      <trkpt lat="44.99527" lon="5.48825">
        <ele>1334.927979</ele>
        <time>2010-06-05T11:39:15Z</time>
      </trkpt>
      <trkpt lat="44.99525" lon="5.48823">
        <ele>1335.408447</ele>
        <time>2010-06-05T11:39:19Z</time>
      </trkpt>
      <trkpt lat="44.99526" lon="5.48824">
        <ele>1336.369873</ele>
        <time>2010-06-05T11:39:23Z</time>
      </trkpt>
      <trkpt lat="44.99534" lon="5.48824">
        <ele>1337.811768</ele>
        <time>2010-06-05T11:39:29Z</time>
      </trkpt>
      <trkpt lat="44.99542" lon="5.48824">
        <ele>1339.734375</ele>
        <time>2010-06-05T11:39:37Z</time>
      </trkpt>
      <trkpt lat="44.99545" lon="5.48823">
        <ele>1340.215332</ele>
        <time>2010-06-05T11:39:43Z</time>
      </trkpt>
      <trkpt lat="44.99552" lon="5.48821">
        <ele>1340.215332</ele>
        <time>2010-06-05T11:39:51Z</time>
      </trkpt>
      <trkpt lat="44.99562" lon="5.48817">
        <ele>1340.695801</ele>
        <time>2010-06-05T11:39:56Z</time>
      </trkpt>
      <trkpt lat="44.99568" lon="5.48817">
        <ele>1341.176514</ele>
        <time>2010-06-05T11:40:03Z</time>
      </trkpt>
      <trkpt lat="44.99566" lon="5.48817">
        <ele>1341.176514</ele>
        <time>2010-06-05T11:40:07Z</time>
      </trkpt>
      <trkpt lat="44.99564" lon="5.48818">
        <ele>1340.695801</ele>
        <time>2010-06-05T11:40:36Z</time>
      </trkpt>
      <trkpt lat="44.99552" lon="5.4882">
        <ele>1341.176514</ele>
        <time>2010-06-05T11:40:43Z</time>
      </trkpt>
      <trkpt lat="44.99544" lon="5.48822">
        <ele>1339.253662</ele>
        <time>2010-06-05T11:40:49Z</time>
      </trkpt>
      <trkpt lat="44.99539" lon="5.48825">
        <ele>1336.369873</ele>
        <time>2010-06-05T11:41:10Z</time>
      </trkpt>
      <trkpt lat="44.99523" lon="5.48826">
        <ele>1336.850342</ele>
        <time>2010-06-05T11:41:17Z</time>
      </trkpt>
      <trkpt lat="44.99499" lon="5.48823">
        <ele>1334.927979</ele>
        <time>2010-06-05T11:41:26Z</time>
      </trkpt>
      <trkpt lat="44.99481" lon="5.48825">
        <ele>1333.966553</ele>
        <time>2010-06-05T11:41:33Z</time>
      </trkpt>
      <trkpt lat="44.99462" lon="5.48828">
        <ele>1334.927979</ele>
        <time>2010-06-05T11:41:41Z</time>
      </trkpt>
      <trkpt lat="44.99439" lon="5.48826">
        <ele>1335.408447</ele>
        <time>2010-06-05T11:41:49Z</time>
      </trkpt>
      <trkpt lat="44.99414" lon="5.48823">
        <ele>1334.927979</ele>
        <time>2010-06-05T11:41:57Z</time>
      </trkpt>
      <trkpt lat="44.9941" lon="5.48823">
        <ele>1334.447266</ele>
        <time>2010-06-05T11:41:58Z</time>
      </trkpt>
      <trkpt lat="44.99389" lon="5.48825">
        <ele>1333.005127</ele>
        <time>2010-06-05T11:42:02Z</time>
      </trkpt>
      <trkpt lat="44.9937" lon="5.48823">
        <ele>1331.563232</ele>
        <time>2010-06-05T11:42:05Z</time>
      </trkpt>
      <trkpt lat="44.99347" lon="5.48833">
        <ele>1330.121338</ele>
        <time>2010-06-05T11:42:09Z</time>
      </trkpt>
      <trkpt lat="44.99328" lon="5.48849">
        <ele>1329.159912</ele>
        <time>2010-06-05T11:42:15Z</time>
      </trkpt>
      <trkpt lat="44.99317" lon="5.4885">
        <ele>1329.640625</ele>
        <time>2010-06-05T11:42:20Z</time>
      </trkpt>
      <trkpt lat="44.99313" lon="5.48848">
        <ele>1330.602051</ele>
        <time>2010-06-05T11:42:25Z</time>
      </trkpt>
      <trkpt lat="44.9931" lon="5.48847">
        <ele>1333.005127</ele>
        <time>2010-06-05T11:42:38Z</time>
      </trkpt>
      <trkpt lat="44.99301" lon="5.48848">
        <ele>1332.043945</ele>
        <time>2010-06-05T11:42:42Z</time>
      </trkpt>
      <trkpt lat="44.99299" lon="5.4885">
        <ele>1331.082764</ele>
        <time>2010-06-05T11:42:43Z</time>
      </trkpt>
      <trkpt lat="44.99287" lon="5.4885">
        <ele>1329.159912</ele>
        <time>2010-06-05T11:42:47Z</time>
      </trkpt>
      <trkpt lat="44.99287" lon="5.48849">
        <ele>1329.159912</ele>
        <time>2010-06-05T11:42:53Z</time>
      </trkpt>
      <trkpt lat="44.99286" lon="5.48849">
        <ele>1332.043945</ele>
        <time>2010-06-05T11:43:16Z</time>
      </trkpt>
      <trkpt lat="44.99279" lon="5.48836">
        <ele>1332.524658</ele>
        <time>2010-06-05T11:43:22Z</time>
      </trkpt>
      <trkpt lat="44.99271" lon="5.48817">
        <ele>1332.524658</ele>
        <time>2010-06-05T11:43:28Z</time>
      </trkpt>
      <trkpt lat="44.99263" lon="5.48795">
        <ele>1332.524658</ele>
        <time>2010-06-05T11:43:34Z</time>
      </trkpt>
      <trkpt lat="44.99254" lon="5.48788">
        <ele>1331.563232</ele>
        <time>2010-06-05T11:43:41Z</time>
      </trkpt>
      <trkpt lat="44.99248" lon="5.48785">
        <ele>1330.121338</ele>
        <time>2010-06-05T11:43:48Z</time>
      </trkpt>
      <trkpt lat="44.99245" lon="5.48785">
        <ele>1325.314697</ele>
        <time>2010-06-05T11:44:13Z</time>
      </trkpt>
      <trkpt lat="44.9924" lon="5.48783">
        <ele>1324.834229</ele>
        <time>2010-06-05T11:44:29Z</time>
      </trkpt>
      <trkpt lat="44.99233" lon="5.48781">
        <ele>1324.834229</ele>
        <time>2010-06-05T11:44:34Z</time>
      </trkpt>
      <trkpt lat="44.99229" lon="5.4878">
        <ele>1324.834229</ele>
        <time>2010-06-05T11:44:39Z</time>
      </trkpt>
      <trkpt lat="44.9923" lon="5.48781">
        <ele>1324.353516</ele>
        <time>2010-06-05T11:44:53Z</time>
      </trkpt>
      <trkpt lat="44.9923" lon="5.48782">
        <ele>1324.834229</ele>
        <time>2010-06-05T11:45:11Z</time>
      </trkpt>
      <trkpt lat="44.99228" lon="5.48782">
        <ele>1325.314697</ele>
        <time>2010-06-05T11:45:16Z</time>
      </trkpt>
      <trkpt lat="44.99224" lon="5.48778">
        <ele>1325.314697</ele>
        <time>2010-06-05T11:45:20Z</time>
      </trkpt>
      <trkpt lat="44.99211" lon="5.48764">
        <ele>1325.314697</ele>
        <time>2010-06-05T11:45:29Z</time>
      </trkpt>
      <trkpt lat="44.992" lon="5.48747">
        <ele>1326.276123</ele>
        <time>2010-06-05T11:45:38Z</time>
      </trkpt>
      <trkpt lat="44.99191" lon="5.48729">
        <ele>1328.198731</ele>
        <time>2010-06-05T11:45:46Z</time>
      </trkpt>
      <trkpt lat="44.99182" lon="5.48712">
        <ele>1329.159912</ele>
        <time>2010-06-05T11:45:53Z</time>
      </trkpt>
      <trkpt lat="44.99174" lon="5.48691">
        <ele>1330.121338</ele>
        <time>2010-06-05T11:45:59Z</time>
      </trkpt>
      <trkpt lat="44.99162" lon="5.48667">
        <ele>1332.524658</ele>
        <time>2010-06-05T11:46:06Z</time>
      </trkpt>
      <trkpt lat="44.99146" lon="5.48645">
        <ele>1333.966553</ele>
        <time>2010-06-05T11:46:14Z</time>
      </trkpt>
      <trkpt lat="44.99129" lon="5.48634">
        <ele>1333.966553</ele>
        <time>2010-06-05T11:46:20Z</time>
      </trkpt>
      <trkpt lat="44.99117" lon="5.48622">
        <ele>1334.927979</ele>
        <time>2010-06-05T11:46:25Z</time>
      </trkpt>
      <trkpt lat="44.99108" lon="5.48607">
        <ele>1335.408447</ele>
        <time>2010-06-05T11:46:31Z</time>
      </trkpt>
      <trkpt lat="44.99089" lon="5.4859">
        <ele>1333.005127</ele>
        <time>2010-06-05T11:46:36Z</time>
      </trkpt>
      <trkpt lat="44.99073" lon="5.48583">
        <ele>1331.082764</ele>
        <time>2010-06-05T11:46:39Z</time>
      </trkpt>
      <trkpt lat="44.9905" lon="5.48564">
        <ele>1329.640625</ele>
        <time>2010-06-05T11:46:44Z</time>
      </trkpt>
      <trkpt lat="44.99027" lon="5.48556">
        <ele>1327.237549</ele>
        <time>2010-06-05T11:46:49Z</time>
      </trkpt>
      <trkpt lat="44.99008" lon="5.4855">
        <ele>1325.314697</ele>
        <time>2010-06-05T11:46:54Z</time>
      </trkpt>
      <trkpt lat="44.99003" lon="5.48548">
        <ele>1325.314697</ele>
        <time>2010-06-05T11:46:58Z</time>
      </trkpt>
      <trkpt lat="44.99002" lon="5.48546">
        <ele>1321.949951</ele>
        <time>2010-06-05T11:47:06Z</time>
      </trkpt>
      <trkpt lat="44.99" lon="5.4855">
        <ele>1338.773193</ele>
        <time>2010-06-05T11:47:21Z</time>
      </trkpt>
      <trkpt lat="44.99" lon="5.48555">
        <ele>1325.314697</ele>
        <time>2010-06-05T11:48:28Z</time>
      </trkpt>
      <trkpt lat="44.99003" lon="5.48559">
        <ele>1342.137939</ele>
        <time>2010-06-05T11:49:36Z</time>
      </trkpt>
      <trkpt lat="44.98995" lon="5.48563">
        <ele>1339.734375</ele>
        <time>2010-06-05T11:49:41Z</time>
      </trkpt>
      <trkpt lat="44.98987" lon="5.48565">
        <ele>1337.811768</ele>
        <time>2010-06-05T11:49:44Z</time>
      </trkpt>
      <trkpt lat="44.98964" lon="5.4857">
        <ele>1333.48584</ele>
        <time>2010-06-05T11:49:52Z</time>
      </trkpt>
      <trkpt lat="44.98945" lon="5.48576">
        <ele>1331.082764</ele>
        <time>2010-06-05T11:50:00Z</time>
      </trkpt>
      <trkpt lat="44.98931" lon="5.48581">
        <ele>1329.159912</ele>
        <time>2010-06-05T11:50:07Z</time>
      </trkpt>
      <trkpt lat="44.98914" lon="5.48585">
        <ele>1328.198731</ele>
        <time>2010-06-05T11:50:15Z</time>
      </trkpt>
      <trkpt lat="44.98898" lon="5.48587">
        <ele>1329.159912</ele>
        <time>2010-06-05T11:50:22Z</time>
      </trkpt>
      <trkpt lat="44.98881" lon="5.48582">
        <ele>1330.121338</ele>
        <time>2010-06-05T11:50:30Z</time>
      </trkpt>
      <trkpt lat="44.98864" lon="5.48584">
        <ele>1329.159912</ele>
        <time>2010-06-05T11:50:37Z</time>
      </trkpt>
      <trkpt lat="44.98844" lon="5.48588">
        <ele>1329.159912</ele>
        <time>2010-06-05T11:50:45Z</time>
      </trkpt>
      <trkpt lat="44.98829" lon="5.48588">
        <ele>1330.121338</ele>
        <time>2010-06-05T11:50:52Z</time>
      </trkpt>
      <trkpt lat="44.98819" lon="5.48584">
        <ele>1332.524658</ele>
        <time>2010-06-05T11:50:59Z</time>
      </trkpt>
      <trkpt lat="44.9881" lon="5.48581">
        <ele>1333.005127</ele>
        <time>2010-06-05T11:51:06Z</time>
      </trkpt>
      <trkpt lat="44.98803" lon="5.48581">
        <ele>1333.005127</ele>
        <time>2010-06-05T11:51:13Z</time>
      </trkpt>
      <trkpt lat="44.98789" lon="5.48581">
        <ele>1332.043945</ele>
        <time>2010-06-05T11:51:20Z</time>
      </trkpt>
      <trkpt lat="44.98772" lon="5.48583">
        <ele>1331.563232</ele>
        <time>2010-06-05T11:51:25Z</time>
      </trkpt>
      <trkpt lat="44.98758" lon="5.4858">
        <ele>1332.043945</ele>
        <time>2010-06-05T11:51:31Z</time>
      </trkpt>
      <trkpt lat="44.98739" lon="5.48577">
        <ele>1334.447266</ele>
        <time>2010-06-05T11:51:39Z</time>
      </trkpt>
      <trkpt lat="44.98723" lon="5.48578">
        <ele>1334.927979</ele>
        <time>2010-06-05T11:51:46Z</time>
      </trkpt>
      <trkpt lat="44.98708" lon="5.48578">
        <ele>1334.927979</ele>
        <time>2010-06-05T11:51:52Z</time>
      </trkpt>
      <trkpt lat="44.98689" lon="5.48569">
        <ele>1336.369873</ele>
        <time>2010-06-05T11:52:01Z</time>
      </trkpt>
      <trkpt lat="44.98672" lon="5.48555">
        <ele>1337.331055</ele>
        <time>2010-06-05T11:52:08Z</time>
      </trkpt>
      <trkpt lat="44.98655" lon="5.48544">
        <ele>1340.695801</ele>
        <time>2010-06-05T11:52:16Z</time>
      </trkpt>
      <trkpt lat="44.98646" lon="5.48537">
        <ele>1341.176514</ele>
        <time>2010-06-05T11:52:22Z</time>
      </trkpt>
      <trkpt lat="44.98634" lon="5.48521">
        <ele>1340.695801</ele>
        <time>2010-06-05T11:52:27Z</time>
      </trkpt>
      <trkpt lat="44.9863" lon="5.48499">
        <ele>1341.176514</ele>
        <time>2010-06-05T11:52:32Z</time>
      </trkpt>
      <trkpt lat="44.9863" lon="5.48487">
        <ele>1341.176514</ele>
        <time>2010-06-05T11:52:37Z</time>
      </trkpt>
      <trkpt lat="44.98628" lon="5.48468">
        <ele>1338.292481</ele>
        <time>2010-06-05T11:52:42Z</time>
      </trkpt>
      <trkpt lat="44.98628" lon="5.48462">
        <ele>1337.811768</ele>
        <time>2010-06-05T11:52:43Z</time>
      </trkpt>
      <trkpt lat="44.98629" lon="5.48424">
        <ele>1335.88916</ele>
        <time>2010-06-05T11:52:48Z</time>
      </trkpt>
      <trkpt lat="44.98623" lon="5.48404">
        <ele>1335.408447</ele>
        <time>2010-06-05T11:52:52Z</time>
      </trkpt>
      <trkpt lat="44.98615" lon="5.48398">
        <ele>1336.369873</ele>
        <time>2010-06-05T11:52:57Z</time>
      </trkpt>
      <trkpt lat="44.98609" lon="5.48392">
        <ele>1336.850342</ele>
        <time>2010-06-05T11:53:00Z</time>
      </trkpt>
      <trkpt lat="44.98595" lon="5.48375">
        <ele>1340.215332</ele>
        <time>2010-06-05T11:53:09Z</time>
      </trkpt>
      <trkpt lat="44.98587" lon="5.4837">
        <ele>1340.695801</ele>
        <time>2010-06-05T11:53:15Z</time>
      </trkpt>
      <trkpt lat="44.98575" lon="5.48361">
        <ele>1340.695801</ele>
        <time>2010-06-05T11:53:20Z</time>
      </trkpt>
      <trkpt lat="44.98561" lon="5.48353">
        <ele>1340.695801</ele>
        <time>2010-06-05T11:53:26Z</time>
      </trkpt>
      <trkpt lat="44.98552" lon="5.48345">
        <ele>1341.176514</ele>
        <time>2010-06-05T11:53:32Z</time>
      </trkpt>
      <trkpt lat="44.98549" lon="5.48333">
        <ele>1341.657227</ele>
        <time>2010-06-05T11:53:38Z</time>
      </trkpt>
      <trkpt lat="44.9855" lon="5.48324">
        <ele>1341.176514</ele>
        <time>2010-06-05T11:53:44Z</time>
      </trkpt>
      <trkpt lat="44.98551" lon="5.48319">
        <ele>1341.657227</ele>
        <time>2010-06-05T11:53:51Z</time>
      </trkpt>
      <trkpt lat="44.98555" lon="5.48307">
        <ele>1341.657227</ele>
        <time>2010-06-05T11:54:01Z</time>
      </trkpt>
      <trkpt lat="44.98556" lon="5.48304">
        <ele>1341.176514</ele>
        <time>2010-06-05T11:54:08Z</time>
      </trkpt>
      <trkpt lat="44.98557" lon="5.48304">
        <ele>1339.253662</ele>
        <time>2010-06-05T11:54:27Z</time>
      </trkpt>
      <trkpt lat="44.98557" lon="5.48303">
        <ele>1344.541016</ele>
        <time>2010-06-05T11:54:57Z</time>
      </trkpt>
      <trkpt lat="44.98557" lon="5.48298">
        <ele>1346.463867</ele>
        <time>2010-06-05T11:55:02Z</time>
      </trkpt>
      <trkpt lat="44.98557" lon="5.48297">
        <ele>1347.425049</ele>
        <time>2010-06-05T11:55:09Z</time>
      </trkpt>
      <trkpt lat="44.98556" lon="5.48296">
        <ele>1348.386231</ele>
        <time>2010-06-05T11:55:13Z</time>
      </trkpt>
      <trkpt lat="44.98556" lon="5.48289">
        <ele>1348.866943</ele>
        <time>2010-06-05T11:55:17Z</time>
      </trkpt>
      <trkpt lat="44.9856" lon="5.48269">
        <ele>1350.309082</ele>
        <time>2010-06-05T11:55:28Z</time>
      </trkpt>
      <trkpt lat="44.98559" lon="5.48252">
        <ele>1352.231445</ele>
        <time>2010-06-05T11:55:36Z</time>
      </trkpt>
      <trkpt lat="44.98561" lon="5.4823">
        <ele>1353.673584</ele>
        <time>2010-06-05T11:55:47Z</time>
      </trkpt>
      <trkpt lat="44.98567" lon="5.48213">
        <ele>1353.192871</ele>
        <time>2010-06-05T11:55:53Z</time>
      </trkpt>
      <trkpt lat="44.98575" lon="5.48199">
        <ele>1355.115479</ele>
        <time>2010-06-05T11:56:00Z</time>
      </trkpt>
      <trkpt lat="44.98583" lon="5.48193">
        <ele>1356.557617</ele>
        <time>2010-06-05T11:56:07Z</time>
      </trkpt>
      <trkpt lat="44.98593" lon="5.48186">
        <ele>1359.44165</ele>
        <time>2010-06-05T11:56:15Z</time>
      </trkpt>
      <trkpt lat="44.98603" lon="5.48178">
        <ele>1362.806152</ele>
        <time>2010-06-05T11:56:25Z</time>
      </trkpt>
      <trkpt lat="44.98613" lon="5.48169">
        <ele>1360.883545</ele>
        <time>2010-06-05T11:56:31Z</time>
      </trkpt>
      <trkpt lat="44.98626" lon="5.48154">
        <ele>1357.999756</ele>
        <time>2010-06-05T11:56:34Z</time>
      </trkpt>
      <trkpt lat="44.98661" lon="5.48133">
        <ele>1354.154297</ele>
        <time>2010-06-05T11:56:39Z</time>
      </trkpt>
      <trkpt lat="44.98667" lon="5.48127">
        <ele>1354.154297</ele>
        <time>2010-06-05T11:56:40Z</time>
      </trkpt>
      <trkpt lat="44.98682" lon="5.48113">
        <ele>1354.154297</ele>
        <time>2010-06-05T11:56:44Z</time>
      </trkpt>
      <trkpt lat="44.98692" lon="5.48102">
        <ele>1353.192871</ele>
        <time>2010-06-05T11:56:50Z</time>
      </trkpt>
      <trkpt lat="44.98704" lon="5.48087">
        <ele>1352.231445</ele>
        <time>2010-06-05T11:56:57Z</time>
      </trkpt>
      <trkpt lat="44.98715" lon="5.48075">
        <ele>1350.789551</ele>
        <time>2010-06-05T11:57:00Z</time>
      </trkpt>
      <trkpt lat="44.98748" lon="5.48036">
        <ele>1347.425049</ele>
        <time>2010-06-05T11:57:06Z</time>
      </trkpt>
      <trkpt lat="44.98765" lon="5.4801">
        <ele>1346.463867</ele>
        <time>2010-06-05T11:57:09Z</time>
      </trkpt>
      <trkpt lat="44.98781" lon="5.47991">
        <ele>1346.463867</ele>
        <time>2010-06-05T11:57:13Z</time>
      </trkpt>
      <trkpt lat="44.98783" lon="5.47989">
        <ele>1347.425049</ele>
        <time>2010-06-05T11:57:14Z</time>
      </trkpt>
      <trkpt lat="44.98795" lon="5.4797">
        <ele>1349.828369</ele>
        <time>2010-06-05T11:57:23Z</time>
      </trkpt>
      <trkpt lat="44.98806" lon="5.47962">
        <ele>1352.231445</ele>
        <time>2010-06-05T11:57:30Z</time>
      </trkpt>
      <trkpt lat="44.9882" lon="5.47955">
        <ele>1354.634766</ele>
        <time>2010-06-05T11:57:39Z</time>
      </trkpt>
      <trkpt lat="44.98838" lon="5.47949">
        <ele>1356.076904</ele>
        <time>2010-06-05T11:57:47Z</time>
      </trkpt>
      <trkpt lat="44.98856" lon="5.47942">
        <ele>1356.557617</ele>
        <time>2010-06-05T11:57:52Z</time>
      </trkpt>
      <trkpt lat="44.98868" lon="5.47935">
        <ele>1357.999756</ele>
        <time>2010-06-05T11:57:58Z</time>
      </trkpt>
      <trkpt lat="44.98877" lon="5.47927">
        <ele>1361.364258</ele>
        <time>2010-06-05T11:58:05Z</time>
      </trkpt>
      <trkpt lat="44.9888" lon="5.47914">
        <ele>1362.325439</ele>
        <time>2010-06-05T11:58:13Z</time>
      </trkpt>
      <trkpt lat="44.98879" lon="5.479">
        <ele>1363.286865</ele>
        <time>2010-06-05T11:58:22Z</time>
      </trkpt>
      <trkpt lat="44.98878" lon="5.47894">
        <ele>1363.767334</ele>
        <time>2010-06-05T11:58:26Z</time>
      </trkpt>
      <trkpt lat="44.98874" lon="5.47883">
        <ele>1362.806152</ele>
        <time>2010-06-05T11:58:35Z</time>
      </trkpt>
      <trkpt lat="44.98869" lon="5.47866">
        <ele>1363.767334</ele>
        <time>2010-06-05T11:58:46Z</time>
      </trkpt>
      <trkpt lat="44.98867" lon="5.47855">
        <ele>1363.767334</ele>
        <time>2010-06-05T11:58:53Z</time>
      </trkpt>
      <trkpt lat="44.98866" lon="5.4785">
        <ele>1364.248047</ele>
        <time>2010-06-05T11:58:57Z</time>
      </trkpt>
      <trkpt lat="44.98866" lon="5.47843">
        <ele>1364.248047</ele>
        <time>2010-06-05T11:59:01Z</time>
      </trkpt>
      <trkpt lat="44.9887" lon="5.47829">
        <ele>1364.248047</ele>
        <time>2010-06-05T11:59:11Z</time>
      </trkpt>
      <trkpt lat="44.98876" lon="5.4782">
        <ele>1365.209473</ele>
        <time>2010-06-05T11:59:19Z</time>
      </trkpt>
      <trkpt lat="44.98881" lon="5.47811">
        <ele>1367.13208</ele>
        <time>2010-06-05T11:59:27Z</time>
      </trkpt>
      <trkpt lat="44.98886" lon="5.47795">
        <ele>1365.690186</ele>
        <time>2010-06-05T11:59:32Z</time>
      </trkpt>
      <trkpt lat="44.98893" lon="5.47773">
        <ele>1366.170654</ele>
        <time>2010-06-05T11:59:37Z</time>
      </trkpt>
      <trkpt lat="44.98903" lon="5.47753">
        <ele>1365.690186</ele>
        <time>2010-06-05T11:59:45Z</time>
      </trkpt>
      <trkpt lat="44.98906" lon="5.47728">
        <ele>1364.248047</ele>
        <time>2010-06-05T11:59:52Z</time>
      </trkpt>
      <trkpt lat="44.98907" lon="5.47722">
        <ele>1363.286865</ele>
        <time>2010-06-05T11:59:53Z</time>
      </trkpt>
      <trkpt lat="44.98907" lon="5.47702">
        <ele>1360.883545</ele>
        <time>2010-06-05T11:59:57Z</time>
      </trkpt>
      <trkpt lat="44.98907" lon="5.47701">
        <ele>1359.922119</ele>
        <time>2010-06-05T12:00:02Z</time>
      </trkpt>
      <trkpt lat="44.98907" lon="5.47701">
        <ele>1361.844971</ele>
        <time>2010-06-05T12:00:21Z</time>
      </trkpt>
      <trkpt lat="44.98908" lon="5.477">
        <ele>1365.690186</ele>
        <time>2010-06-05T12:00:39Z</time>
      </trkpt>
      <trkpt lat="44.98908" lon="5.47693">
        <ele>1365.209473</ele>
        <time>2010-06-05T12:00:43Z</time>
      </trkpt>
      <trkpt lat="44.98909" lon="5.47674">
        <ele>1363.286865</ele>
        <time>2010-06-05T12:00:48Z</time>
      </trkpt>
      <trkpt lat="44.9891" lon="5.47673">
        <ele>1362.806152</ele>
        <time>2010-06-05T12:00:52Z</time>
      </trkpt>
      <trkpt lat="44.98911" lon="5.47673">
        <ele>1361.844971</ele>
        <time>2010-06-05T12:01:17Z</time>
      </trkpt>
      <trkpt lat="44.98914" lon="5.47666">
        <ele>1361.364258</ele>
        <time>2010-06-05T12:01:27Z</time>
      </trkpt>
      <trkpt lat="44.98926" lon="5.47645">
        <ele>1360.883545</ele>
        <time>2010-06-05T12:01:34Z</time>
      </trkpt>
      <trkpt lat="44.98935" lon="5.47622">
        <ele>1358.960938</ele>
        <time>2010-06-05T12:01:39Z</time>
      </trkpt>
      <trkpt lat="44.98938" lon="5.47595">
        <ele>1357.519043</ele>
        <time>2010-06-05T12:01:46Z</time>
      </trkpt>
      <trkpt lat="44.98944" lon="5.47571">
        <ele>1357.999756</ele>
        <time>2010-06-05T12:01:53Z</time>
      </trkpt>
      <trkpt lat="44.98955" lon="5.4756">
        <ele>1358.960938</ele>
        <time>2010-06-05T12:01:59Z</time>
      </trkpt>
      <trkpt lat="44.98966" lon="5.47546">
        <ele>1359.44165</ele>
        <time>2010-06-05T12:02:04Z</time>
      </trkpt>
      <trkpt lat="44.98984" lon="5.47547">
        <ele>1360.402832</ele>
        <time>2010-06-05T12:02:09Z</time>
      </trkpt>
      <trkpt lat="44.98991" lon="5.47547">
        <ele>1359.922119</ele>
        <time>2010-06-05T12:02:14Z</time>
      </trkpt>
      <trkpt lat="44.9899" lon="5.47542">
        <ele>1360.402832</ele>
        <time>2010-06-05T12:02:19Z</time>
      </trkpt>
      <trkpt lat="44.9899" lon="5.47545">
        <ele>1358.480225</ele>
        <time>2010-06-05T12:02:35Z</time>
      </trkpt>
      <trkpt lat="44.98994" lon="5.47552">
        <ele>1357.999756</ele>
        <time>2010-06-05T12:02:43Z</time>
      </trkpt>
      <trkpt lat="44.98996" lon="5.47554">
        <ele>1360.402832</ele>
        <time>2010-06-05T12:02:52Z</time>
      </trkpt>
      <trkpt lat="44.98997" lon="5.47554">
        <ele>1362.806152</ele>
        <time>2010-06-05T12:02:58Z</time>
      </trkpt>
      <trkpt lat="44.98996" lon="5.47555">
        <ele>1362.325439</ele>
        <time>2010-06-05T12:03:05Z</time>
      </trkpt>
      <trkpt lat="44.98994" lon="5.47557">
        <ele>1353.673584</ele>
        <time>2010-06-05T12:04:36Z</time>
      </trkpt>
      <trkpt lat="44.98993" lon="5.47556">
        <ele>1353.673584</ele>
        <time>2010-06-05T12:04:43Z</time>
      </trkpt>
      <trkpt lat="44.98993" lon="5.47555">
        <ele>1354.634766</ele>
        <time>2010-06-05T12:04:54Z</time>
      </trkpt>
      <trkpt lat="44.98989" lon="5.47551">
        <ele>1355.115479</ele>
        <time>2010-06-05T12:04:59Z</time>
      </trkpt>
      <trkpt lat="44.98989" lon="5.47538">
        <ele>1355.596191</ele>
        <time>2010-06-05T12:05:08Z</time>
      </trkpt>
      <trkpt lat="44.98988" lon="5.47526">
        <ele>1356.076904</ele>
        <time>2010-06-05T12:05:16Z</time>
      </trkpt>
      <trkpt lat="44.98989" lon="5.47524">
        <ele>1358.480225</ele>
        <time>2010-06-05T12:05:24Z</time>
      </trkpt>
      <trkpt lat="44.98988" lon="5.47522">
        <ele>1361.844971</ele>
        <time>2010-06-05T12:05:37Z</time>
      </trkpt>
      <trkpt lat="44.98987" lon="5.47518">
        <ele>1362.325439</ele>
        <time>2010-06-05T12:05:40Z</time>
      </trkpt>
      <trkpt lat="44.98977" lon="5.47513">
        <ele>1364.248047</ele>
        <time>2010-06-05T12:05:44Z</time>
      </trkpt>
      <trkpt lat="44.98983" lon="5.47518">
        <ele>1363.767334</ele>
        <time>2010-06-05T12:05:49Z</time>
      </trkpt>
      <trkpt lat="44.98983" lon="5.47518">
        <ele>1364.72876</ele>
        <time>2010-06-05T12:05:56Z</time>
      </trkpt>
      <trkpt lat="44.98982" lon="5.47516">
        <ele>1364.72876</ele>
        <time>2010-06-05T12:05:58Z</time>
      </trkpt>
      <trkpt lat="44.9898" lon="5.47499">
        <ele>1365.690186</ele>
        <time>2010-06-05T12:06:07Z</time>
      </trkpt>
      <trkpt lat="44.98979" lon="5.47483">
        <ele>1366.170654</ele>
        <time>2010-06-05T12:06:14Z</time>
      </trkpt>
      <trkpt lat="44.98973" lon="5.4747">
        <ele>1367.13208</ele>
        <time>2010-06-05T12:06:20Z</time>
      </trkpt>
      <trkpt lat="44.9896" lon="5.47458">
        <ele>1370.977295</ele>
        <time>2010-06-05T12:06:28Z</time>
      </trkpt>
      <trkpt lat="44.98945" lon="5.47449">
        <ele>1374.342041</ele>
        <time>2010-06-05T12:06:36Z</time>
      </trkpt>
      <trkpt lat="44.98931" lon="5.47442">
        <ele>1376.745361</ele>
        <time>2010-06-05T12:06:43Z</time>
      </trkpt>
      <trkpt lat="44.98913" lon="5.47431">
        <ele>1379.62915</ele>
        <time>2010-06-05T12:06:53Z</time>
      </trkpt>
      <trkpt lat="44.98896" lon="5.47421">
        <ele>1383.955078</ele>
        <time>2010-06-05T12:07:02Z</time>
      </trkpt>
      <trkpt lat="44.98876" lon="5.47412">
        <ele>1380.109863</ele>
        <time>2010-06-05T12:07:12Z</time>
      </trkpt>
      <trkpt lat="44.98864" lon="5.47413">
        <ele>1374.342041</ele>
        <time>2010-06-05T12:07:19Z</time>
      </trkpt>
      <trkpt lat="44.98859" lon="5.47414">
        <ele>1372.900146</ele>
        <time>2010-06-05T12:07:25Z</time>
      </trkpt>
      <trkpt lat="44.98858" lon="5.47414">
        <ele>1370.977295</ele>
        <time>2010-06-05T12:07:37Z</time>
      </trkpt>
      <trkpt lat="44.98853" lon="5.47418">
        <ele>1369.5354</ele>
        <time>2010-06-05T12:07:41Z</time>
      </trkpt>
      <trkpt lat="44.98834" lon="5.47423">
        <ele>1366.170654</ele>
        <time>2010-06-05T12:07:48Z</time>
      </trkpt>
      <trkpt lat="44.98819" lon="5.47425">
        <ele>1363.767334</ele>
        <time>2010-06-05T12:07:52Z</time>
      </trkpt>
      <trkpt lat="44.98807" lon="5.47428">
        <ele>1362.325439</ele>
        <time>2010-06-05T12:07:56Z</time>
      </trkpt>
      <trkpt lat="44.98793" lon="5.47427">
        <ele>1361.364258</ele>
        <time>2010-06-05T12:08:01Z</time>
      </trkpt>
      <trkpt lat="44.98787" lon="5.4742">
        <ele>1361.844971</ele>
        <time>2010-06-05T12:08:06Z</time>
      </trkpt>
      <trkpt lat="44.98784" lon="5.47413">
        <ele>1358.960938</ele>
        <time>2010-06-05T12:08:13Z</time>
      </trkpt>
      <trkpt lat="44.98782" lon="5.47413">
        <ele>1365.690186</ele>
        <time>2010-06-05T12:08:28Z</time>
      </trkpt>
      <trkpt lat="44.98783" lon="5.47411">
        <ele>1364.72876</ele>
        <time>2010-06-05T12:08:35Z</time>
      </trkpt>
      <trkpt lat="44.98788" lon="5.47411">
        <ele>1373.380859</ele>
        <time>2010-06-05T12:09:07Z</time>
      </trkpt>
      <trkpt lat="44.98785" lon="5.47418">
        <ele>1368.573975</ele>
        <time>2010-06-05T12:09:47Z</time>
      </trkpt>
      <trkpt lat="44.98784" lon="5.47417">
        <ele>1367.612549</ele>
        <time>2010-06-05T12:10:03Z</time>
      </trkpt>
      <trkpt lat="44.98785" lon="5.47413">
        <ele>1376.264648</ele>
        <time>2010-06-05T12:12:36Z</time>
      </trkpt>
      <trkpt lat="44.98783" lon="5.47411">
        <ele>1372.419434</ele>
        <time>2010-06-05T12:12:45Z</time>
      </trkpt>
      <trkpt lat="44.98781" lon="5.4741">
        <ele>1370.015869</ele>
        <time>2010-06-05T12:12:54Z</time>
      </trkpt>
      <trkpt lat="44.9878" lon="5.47409">
        <ele>1371.457764</ele>
        <time>2010-06-05T12:13:15Z</time>
      </trkpt>
      <trkpt lat="44.98779" lon="5.47411">
        <ele>1370.977295</ele>
        <time>2010-06-05T12:14:18Z</time>
      </trkpt>
      <trkpt lat="44.98776" lon="5.47404">
        <ele>1365.690186</ele>
        <time>2010-06-05T12:15:34Z</time>
      </trkpt>
      <trkpt lat="44.98772" lon="5.47389">
        <ele>1364.72876</ele>
        <time>2010-06-05T12:15:39Z</time>
      </trkpt>
      <trkpt lat="44.98764" lon="5.47363">
        <ele>1364.248047</ele>
        <time>2010-06-05T12:15:43Z</time>
      </trkpt>
      <trkpt lat="44.98752" lon="5.47342">
        <ele>1362.325439</ele>
        <time>2010-06-05T12:15:48Z</time>
      </trkpt>
      <trkpt lat="44.98743" lon="5.47311">
        <ele>1361.844971</ele>
        <time>2010-06-05T12:15:54Z</time>
      </trkpt>
      <trkpt lat="44.98737" lon="5.47293">
        <ele>1360.883545</ele>
        <time>2010-06-05T12:15:59Z</time>
      </trkpt>
      <trkpt lat="44.98726" lon="5.47278">
        <ele>1361.364258</ele>
        <time>2010-06-05T12:16:03Z</time>
      </trkpt>
      <trkpt lat="44.98709" lon="5.47263">
        <ele>1365.209473</ele>
        <time>2010-06-05T12:16:08Z</time>
      </trkpt>
      <trkpt lat="44.98705" lon="5.47258">
        <ele>1365.690186</ele>
        <time>2010-06-05T12:16:13Z</time>
      </trkpt>
      <trkpt lat="44.987" lon="5.47248">
        <ele>1364.248047</ele>
        <time>2010-06-05T12:16:20Z</time>
      </trkpt>
      <trkpt lat="44.98698" lon="5.47248">
        <ele>1369.054688</ele>
        <time>2010-06-05T12:16:25Z</time>
      </trkpt>
      <trkpt lat="44.98696" lon="5.47249">
        <ele>1381.551758</ele>
        <time>2010-06-05T12:16:39Z</time>
      </trkpt>
      <trkpt lat="44.98694" lon="5.47243">
        <ele>1383.955078</ele>
        <time>2010-06-05T12:16:48Z</time>
      </trkpt>
      <trkpt lat="44.98693" lon="5.4724">
        <ele>1382.032471</ele>
        <time>2010-06-05T12:16:56Z</time>
      </trkpt>
      <trkpt lat="44.98693" lon="5.47237">
        <ele>1383.474365</ele>
        <time>2010-06-05T12:17:05Z</time>
      </trkpt>
      <trkpt lat="44.98693" lon="5.47235">
        <ele>1388.761963</ele>
        <time>2010-06-05T12:17:12Z</time>
      </trkpt>
      <trkpt lat="44.98691" lon="5.47232">
        <ele>1383.474365</ele>
        <time>2010-06-05T12:17:20Z</time>
      </trkpt>
      <trkpt lat="44.98688" lon="5.47227">
        <ele>1380.590576</ele>
        <time>2010-06-05T12:17:29Z</time>
      </trkpt>
      <trkpt lat="44.98683" lon="5.47217">
        <ele>1377.226074</ele>
        <time>2010-06-05T12:17:39Z</time>
      </trkpt>
      <trkpt lat="44.98682" lon="5.47208">
        <ele>1379.148438</ele>
        <time>2010-06-05T12:17:48Z</time>
      </trkpt>
      <trkpt lat="44.98682" lon="5.47205">
        <ele>1383.955078</ele>
        <time>2010-06-05T12:17:55Z</time>
      </trkpt>
      <trkpt lat="44.98682" lon="5.47198">
        <ele>1385.396973</ele>
        <time>2010-06-05T12:18:29Z</time>
      </trkpt>
      <trkpt lat="44.98681" lon="5.47194">
        <ele>1386.838867</ele>
        <time>2010-06-05T12:18:38Z</time>
      </trkpt>
      <trkpt lat="44.98683" lon="5.47192">
        <ele>1389.242432</ele>
        <time>2010-06-05T12:18:48Z</time>
      </trkpt>
      <trkpt lat="44.98681" lon="5.47188">
        <ele>1389.242432</ele>
        <time>2010-06-05T12:19:02Z</time>
      </trkpt>
      <trkpt lat="44.98679" lon="5.47188">
        <ele>1384.916504</ele>
        <time>2010-06-05T12:19:13Z</time>
      </trkpt>
      <trkpt lat="44.98678" lon="5.47184">
        <ele>1385.396973</ele>
        <time>2010-06-05T12:19:23Z</time>
      </trkpt>
      <trkpt lat="44.98675" lon="5.4718">
        <ele>1385.877686</ele>
        <time>2010-06-05T12:19:31Z</time>
      </trkpt>
      <trkpt lat="44.98675" lon="5.47176">
        <ele>1388.28125</ele>
        <time>2010-06-05T12:19:38Z</time>
      </trkpt>
      <trkpt lat="44.98677" lon="5.47172">
        <ele>1384.916504</ele>
        <time>2010-06-05T12:19:51Z</time>
      </trkpt>
      <trkpt lat="44.98669" lon="5.47159">
        <ele>1382.032471</ele>
        <time>2010-06-05T12:19:55Z</time>
      </trkpt>
      <trkpt lat="44.98667" lon="5.47157">
        <ele>1382.032471</ele>
        <time>2010-06-05T12:19:56Z</time>
      </trkpt>
      <trkpt lat="44.98659" lon="5.47155">
        <ele>1384.916504</ele>
        <time>2010-06-05T12:20:02Z</time>
      </trkpt>
      <trkpt lat="44.98654" lon="5.47155">
        <ele>1389.723144</ele>
        <time>2010-06-05T12:20:11Z</time>
      </trkpt>
      <trkpt lat="44.98648" lon="5.47153">
        <ele>1390.684326</ele>
        <time>2010-06-05T12:20:18Z</time>
      </trkpt>
      <trkpt lat="44.98643" lon="5.47151">
        <ele>1392.126465</ele>
        <time>2010-06-05T12:20:25Z</time>
      </trkpt>
      <trkpt lat="44.98639" lon="5.4715">
        <ele>1395.010254</ele>
        <time>2010-06-05T12:20:33Z</time>
      </trkpt>
      <trkpt lat="44.98635" lon="5.47148">
        <ele>1401.739502</ele>
        <time>2010-06-05T12:20:44Z</time>
      </trkpt>
      <trkpt lat="44.98633" lon="5.47144">
        <ele>1408.46875</ele>
        <time>2010-06-05T12:20:52Z</time>
      </trkpt>
      <trkpt lat="44.98626" lon="5.47135">
        <ele>1407.507568</ele>
        <time>2010-06-05T12:21:02Z</time>
      </trkpt>
      <trkpt lat="44.98622" lon="5.47129">
        <ele>1406.546143</ele>
        <time>2010-06-05T12:21:11Z</time>
      </trkpt>
      <trkpt lat="44.98613" lon="5.47137">
        <ele>1394.529541</ele>
        <time>2010-06-05T12:21:40Z</time>
      </trkpt>
      <trkpt lat="44.98611" lon="5.47133">
        <ele>1392.607178</ele>
        <time>2010-06-05T12:21:51Z</time>
      </trkpt>
      <trkpt lat="44.9861" lon="5.47129">
        <ele>1391.645752</ele>
        <time>2010-06-05T12:21:53Z</time>
      </trkpt>
      <trkpt lat="44.98607" lon="5.47117">
        <ele>1392.607178</ele>
        <time>2010-06-05T12:21:58Z</time>
      </trkpt>
      <trkpt lat="44.98597" lon="5.47104">
        <ele>1394.049072</ele>
        <time>2010-06-05T12:22:04Z</time>
      </trkpt>
      <trkpt lat="44.98591" lon="5.47098">
        <ele>1398.855469</ele>
        <time>2010-06-05T12:22:09Z</time>
      </trkpt>
      <trkpt lat="44.98581" lon="5.47096">
        <ele>1398.374756</ele>
        <time>2010-06-05T12:22:15Z</time>
      </trkpt>
      <trkpt lat="44.98569" lon="5.4709">
        <ele>1396.932861</ele>
        <time>2010-06-05T12:22:21Z</time>
      </trkpt>
      <trkpt lat="44.98554" lon="5.47082">
        <ele>1396.452393</ele>
        <time>2010-06-05T12:22:27Z</time>
      </trkpt>
      <trkpt lat="44.98548" lon="5.47074">
        <ele>1396.932861</ele>
        <time>2010-06-05T12:22:33Z</time>
      </trkpt>
      <trkpt lat="44.98544" lon="5.4706">
        <ele>1397.894287</ele>
        <time>2010-06-05T12:22:39Z</time>
      </trkpt>
      <trkpt lat="44.98534" lon="5.47047">
        <ele>1399.336182</ele>
        <time>2010-06-05T12:22:45Z</time>
      </trkpt>
      <trkpt lat="44.98529" lon="5.47042">
        <ele>1398.855469</ele>
        <time>2010-06-05T12:22:47Z</time>
      </trkpt>
      <trkpt lat="44.98513" lon="5.47041">
        <ele>1400.297607</ele>
        <time>2010-06-05T12:22:51Z</time>
      </trkpt>
      <trkpt lat="44.98501" lon="5.47033">
        <ele>1400.778076</ele>
        <time>2010-06-05T12:22:56Z</time>
      </trkpt>
      <trkpt lat="44.98498" lon="5.47028">
        <ele>1401.258789</ele>
        <time>2010-06-05T12:22:57Z</time>
      </trkpt>
      <trkpt lat="44.98483" lon="5.47007">
        <ele>1406.06543</ele>
        <time>2010-06-05T12:23:02Z</time>
      </trkpt>
      <trkpt lat="44.98474" lon="5.4699">
        <ele>1408.949463</ele>
        <time>2010-06-05T12:23:09Z</time>
      </trkpt>
      <trkpt lat="44.98469" lon="5.46968">
        <ele>1402.219971</ele>
        <time>2010-06-05T12:23:16Z</time>
      </trkpt>
      <trkpt lat="44.98466" lon="5.46953">
        <ele>1400.297607</ele>
        <time>2010-06-05T12:23:21Z</time>
      </trkpt>
      <trkpt lat="44.98459" lon="5.4693">
        <ele>1392.126465</ele>
        <time>2010-06-05T12:23:28Z</time>
      </trkpt>
      <trkpt lat="44.98454" lon="5.46906">
        <ele>1390.684326</ele>
        <time>2010-06-05T12:23:34Z</time>
      </trkpt>
      <trkpt lat="44.98451" lon="5.46891">
        <ele>1392.607178</ele>
        <time>2010-06-05T12:23:39Z</time>
      </trkpt>
      <trkpt lat="44.98447" lon="5.46871">
        <ele>1394.049072</ele>
        <time>2010-06-05T12:23:44Z</time>
      </trkpt>
      <trkpt lat="44.98442" lon="5.46848">
        <ele>1394.049072</ele>
        <time>2010-06-05T12:23:50Z</time>
      </trkpt>
      <trkpt lat="44.98439" lon="5.46838">
        <ele>1393.087646</ele>
        <time>2010-06-05T12:23:52Z</time>
      </trkpt>
      <trkpt lat="44.98435" lon="5.46811">
        <ele>1392.607178</ele>
        <time>2010-06-05T12:23:57Z</time>
      </trkpt>
      <trkpt lat="44.98431" lon="5.46794">
        <ele>1394.049072</ele>
        <time>2010-06-05T12:24:05Z</time>
      </trkpt>
      <trkpt lat="44.98425" lon="5.46781">
        <ele>1396.452393</ele>
        <time>2010-06-05T12:24:13Z</time>
      </trkpt>
      <trkpt lat="44.98421" lon="5.46768">
        <ele>1399.816894</ele>
        <time>2010-06-05T12:24:19Z</time>
      </trkpt>
      <trkpt lat="44.98411" lon="5.46757">
        <ele>1401.739502</ele>
        <time>2010-06-05T12:24:26Z</time>
      </trkpt>
      <trkpt lat="44.98401" lon="5.46751">
        <ele>1403.181396</ele>
        <time>2010-06-05T12:24:32Z</time>
      </trkpt>
      <trkpt lat="44.98395" lon="5.46739">
        <ele>1402.219971</ele>
        <time>2010-06-05T12:24:37Z</time>
      </trkpt>
      <trkpt lat="44.9839" lon="5.46726">
        <ele>1400.778076</ele>
        <time>2010-06-05T12:24:42Z</time>
      </trkpt>
      <trkpt lat="44.98388" lon="5.46722">
        <ele>1400.778076</ele>
        <time>2010-06-05T12:24:44Z</time>
      </trkpt>
      <trkpt lat="44.98385" lon="5.46713">
        <ele>1402.219971</ele>
        <time>2010-06-05T12:24:50Z</time>
      </trkpt>
      <trkpt lat="44.98384" lon="5.46712">
        <ele>1402.700684</ele>
        <time>2010-06-05T12:24:56Z</time>
      </trkpt>
      <trkpt lat="44.98384" lon="5.46711">
        <ele>1399.336182</ele>
        <time>2010-06-05T12:25:53Z</time>
      </trkpt>
      <trkpt lat="44.98384" lon="5.4671">
        <ele>1399.336182</ele>
        <time>2010-06-05T12:26:02Z</time>
      </trkpt>
      <trkpt lat="44.98384" lon="5.46708">
        <ele>1400.297607</ele>
        <time>2010-06-05T12:26:14Z</time>
      </trkpt>
      <trkpt lat="44.98384" lon="5.46708">
        <ele>1404.143066</ele>
        <time>2010-06-05T12:26:31Z</time>
      </trkpt>
      <trkpt lat="44.98386" lon="5.46706">
        <ele>1401.739502</ele>
        <time>2010-06-05T12:29:05Z</time>
      </trkpt>
      <trkpt lat="44.98385" lon="5.46694">
        <ele>1401.258789</ele>
        <time>2010-06-05T12:29:10Z</time>
      </trkpt>
      <trkpt lat="44.9838" lon="5.46674">
        <ele>1399.336182</ele>
        <time>2010-06-05T12:29:13Z</time>
      </trkpt>
      <trkpt lat="44.9837" lon="5.46648">
        <ele>1396.932861</ele>
        <time>2010-06-05T12:29:16Z</time>
      </trkpt>
      <trkpt lat="44.98343" lon="5.46604">
        <ele>1389.242432</ele>
        <time>2010-06-05T12:29:22Z</time>
      </trkpt>
      <trkpt lat="44.98335" lon="5.46593">
        <ele>1387.31958</ele>
        <time>2010-06-05T12:29:24Z</time>
      </trkpt>
      <trkpt lat="44.98329" lon="5.46583">
        <ele>1384.916504</ele>
        <time>2010-06-05T12:29:26Z</time>
      </trkpt>
      <trkpt lat="44.98314" lon="5.46558">
        <ele>1379.62915</ele>
        <time>2010-06-05T12:29:31Z</time>
      </trkpt>
      <trkpt lat="44.98295" lon="5.46536">
        <ele>1374.342041</ele>
        <time>2010-06-05T12:29:37Z</time>
      </trkpt>
      <trkpt lat="44.98279" lon="5.46521">
        <ele>1371.457764</ele>
        <time>2010-06-05T12:29:41Z</time>
      </trkpt>
      <trkpt lat="44.98269" lon="5.46501">
        <ele>1368.573975</ele>
        <time>2010-06-05T12:29:45Z</time>
      </trkpt>
      <trkpt lat="44.98268" lon="5.46496">
        <ele>1369.5354</ele>
        <time>2010-06-05T12:29:50Z</time>
      </trkpt>
      <trkpt lat="44.98267" lon="5.46497">
        <ele>1372.900146</ele>
        <time>2010-06-05T12:30:02Z</time>
      </trkpt>
      <trkpt lat="44.98266" lon="5.46499">
        <ele>1373.380859</ele>
        <time>2010-06-05T12:30:04Z</time>
      </trkpt>
      <trkpt lat="44.98263" lon="5.46499">
        <ele>1374.342041</ele>
        <time>2010-06-05T12:30:09Z</time>
      </trkpt>
      <trkpt lat="44.98264" lon="5.46497">
        <ele>1380.109863</ele>
        <time>2010-06-05T12:30:36Z</time>
      </trkpt>
      <trkpt lat="44.98262" lon="5.46498">
        <ele>1384.435791</ele>
        <time>2010-06-05T12:32:28Z</time>
      </trkpt>
      <trkpt lat="44.98258" lon="5.46498">
        <ele>1384.435791</ele>
        <time>2010-06-05T12:34:05Z</time>
      </trkpt>
      <trkpt lat="44.98259" lon="5.46498">
        <ele>1385.396973</ele>
        <time>2010-06-05T12:34:48Z</time>
      </trkpt>
      <trkpt lat="44.98261" lon="5.46499">
        <ele>1394.049072</ele>
        <time>2010-06-05T12:36:15Z</time>
      </trkpt>
      <trkpt lat="44.98261" lon="5.465">
        <ele>1393.568359</ele>
        <time>2010-06-05T12:36:34Z</time>
      </trkpt>
      <trkpt lat="44.98263" lon="5.46502">
        <ele>1384.435791</ele>
        <time>2010-06-05T12:38:13Z</time>
      </trkpt>
      <trkpt lat="44.98264" lon="5.46502">
        <ele>1384.916504</ele>
        <time>2010-06-05T12:38:47Z</time>
      </trkpt>
      <trkpt lat="44.98261" lon="5.46501">
        <ele>1378.667969</ele>
        <time>2010-06-05T12:39:07Z</time>
      </trkpt>
      <trkpt lat="44.98257" lon="5.46501">
        <ele>1373.861328</ele>
        <time>2010-06-05T12:39:20Z</time>
      </trkpt>
      <trkpt lat="44.98247" lon="5.465">
        <ele>1361.844971</ele>
        <time>2010-06-05T12:40:07Z</time>
      </trkpt>
      <trkpt lat="44.98255" lon="5.46502">
        <ele>1369.054688</ele>
        <time>2010-06-05T12:41:21Z</time>
      </trkpt>
      <trkpt lat="44.98259" lon="5.46504">
        <ele>1377.226074</ele>
        <time>2010-06-05T12:43:22Z</time>
      </trkpt>
      <trkpt lat="44.9826" lon="5.46504">
        <ele>1377.706543</ele>
        <time>2010-06-05T12:43:39Z</time>
      </trkpt>
      <trkpt lat="44.98261" lon="5.46504">
        <ele>1378.187256</ele>
        <time>2010-06-05T12:43:56Z</time>
      </trkpt>
      <trkpt lat="44.98261" lon="5.46504">
        <ele>1377.226074</ele>
        <time>2010-06-05T12:44:05Z</time>
      </trkpt>
      <trkpt lat="44.98261" lon="5.46504">
        <ele>1376.745361</ele>
        <time>2010-06-05T12:44:13Z</time>
      </trkpt>
      <trkpt lat="44.98262" lon="5.46504">
        <ele>1376.264648</ele>
        <time>2010-06-05T12:44:31Z</time>
      </trkpt>
      <trkpt lat="44.98262" lon="5.46504">
        <ele>1376.264648</ele>
        <time>2010-06-05T12:44:50Z</time>
      </trkpt>
      <trkpt lat="44.98262" lon="5.46504">
        <ele>1375.303223</ele>
        <time>2010-06-05T12:45:02Z</time>
      </trkpt>
      <trkpt lat="44.98263" lon="5.46505">
        <ele>1375.303223</ele>
        <time>2010-06-05T12:45:22Z</time>
      </trkpt>
      <trkpt lat="44.98264" lon="5.46503">
        <ele>1376.264648</ele>
        <time>2010-06-05T12:45:28Z</time>
      </trkpt>
      <trkpt lat="44.98263" lon="5.46491">
        <ele>1375.303223</ele>
        <time>2010-06-05T12:45:33Z</time>
      </trkpt>
      <trkpt lat="44.98253" lon="5.46472">
        <ele>1372.419434</ele>
        <time>2010-06-05T12:45:41Z</time>
      </trkpt>
      <trkpt lat="44.98244" lon="5.46461">
        <ele>1370.015869</ele>
        <time>2010-06-05T12:45:46Z</time>
      </trkpt>
      <trkpt lat="44.98232" lon="5.46445">
        <ele>1368.093262</ele>
        <time>2010-06-05T12:45:53Z</time>
      </trkpt>
      <trkpt lat="44.98226" lon="5.4643">
        <ele>1367.13208</ele>
        <time>2010-06-05T12:45:57Z</time>
      </trkpt>
      <trkpt lat="44.98212" lon="5.46401">
        <ele>1364.248047</ele>
        <time>2010-06-05T12:46:02Z</time>
      </trkpt>
      <trkpt lat="44.98204" lon="5.46386">
        <ele>1362.806152</ele>
        <time>2010-06-05T12:46:04Z</time>
      </trkpt>
      <trkpt lat="44.98176" lon="5.46346">
        <ele>1358.480225</ele>
        <time>2010-06-05T12:46:09Z</time>
      </trkpt>
      <trkpt lat="44.98147" lon="5.4629">
        <ele>1355.596191</ele>
        <time>2010-06-05T12:46:14Z</time>
      </trkpt>
      <trkpt lat="44.98139" lon="5.46272">
        <ele>1354.154297</ele>
        <time>2010-06-05T12:46:16Z</time>
      </trkpt>
      <trkpt lat="44.98123" lon="5.46245">
        <ele>1350.309082</ele>
        <time>2010-06-05T12:46:20Z</time>
      </trkpt>
      <trkpt lat="44.981" lon="5.46229">
        <ele>1346.944336</ele>
        <time>2010-06-05T12:46:24Z</time>
      </trkpt>
      <trkpt lat="44.98073" lon="5.46232">
        <ele>1344.060547</ele>
        <time>2010-06-05T12:46:28Z</time>
      </trkpt>
      <trkpt lat="44.98067" lon="5.46232">
        <ele>1343.099121</ele>
        <time>2010-06-05T12:46:29Z</time>
      </trkpt>
      <trkpt lat="44.98048" lon="5.46213">
        <ele>1336.850342</ele>
        <time>2010-06-05T12:46:34Z</time>
      </trkpt>
      <trkpt lat="44.98048" lon="5.46194">
        <ele>1334.927979</ele>
        <time>2010-06-05T12:46:36Z</time>
      </trkpt>
      <trkpt lat="44.98048" lon="5.46129">
        <ele>1328.198731</ele>
        <time>2010-06-05T12:46:42Z</time>
      </trkpt>
      <trkpt lat="44.98041" lon="5.46065">
        <ele>1319.066162</ele>
        <time>2010-06-05T12:46:48Z</time>
      </trkpt>
      <trkpt lat="44.98035" lon="5.46031">
        <ele>1314.740234</ele>
        <time>2010-06-05T12:46:51Z</time>
      </trkpt>
      <trkpt lat="44.98033" lon="5.46008">
        <ele>1310.895019</ele>
        <time>2010-06-05T12:46:53Z</time>
      </trkpt>
      <trkpt lat="44.98023" lon="5.45959">
        <ele>1307.049561</ele>
        <time>2010-06-05T12:46:58Z</time>
      </trkpt>
      <trkpt lat="44.98013" lon="5.45908">
        <ele>1302.723633</ele>
        <time>2010-06-05T12:47:04Z</time>
      </trkpt>
      <trkpt lat="44.98011" lon="5.45899">
        <ele>1300.801025</ele>
        <time>2010-06-05T12:47:08Z</time>
      </trkpt>
      <trkpt lat="44.9801" lon="5.45901">
        <ele>1297.917236</ele>
        <time>2010-06-05T12:47:35Z</time>
      </trkpt>
      <trkpt lat="44.98004" lon="5.45899">
        <ele>1297.917236</ele>
        <time>2010-06-05T12:47:39Z</time>
      </trkpt>
      <trkpt lat="44.97988" lon="5.45898">
        <ele>1297.436523</ele>
        <time>2010-06-05T12:47:48Z</time>
      </trkpt>
      <trkpt lat="44.97983" lon="5.45897">
        <ele>1297.436523</ele>
        <time>2010-06-05T12:47:54Z</time>
      </trkpt>
      <trkpt lat="44.97973" lon="5.45896">
        <ele>1297.917236</ele>
        <time>2010-06-05T12:48:00Z</time>
      </trkpt>
      <trkpt lat="44.97964" lon="5.45895">
        <ele>1297.917236</ele>
        <time>2010-06-05T12:48:05Z</time>
      </trkpt>
      <trkpt lat="44.97957" lon="5.45893">
        <ele>1298.878418</ele>
        <time>2010-06-05T12:48:10Z</time>
      </trkpt>
      <trkpt lat="44.97949" lon="5.45893">
        <ele>1298.878418</ele>
        <time>2010-06-05T12:48:15Z</time>
      </trkpt>
      <trkpt lat="44.97939" lon="5.45893">
        <ele>1298.878418</ele>
        <time>2010-06-05T12:48:21Z</time>
      </trkpt>
      <trkpt lat="44.97928" lon="5.45893">
        <ele>1298.878418</ele>
        <time>2010-06-05T12:48:27Z</time>
      </trkpt>
      <trkpt lat="44.97921" lon="5.45893">
        <ele>1298.397705</ele>
        <time>2010-06-05T12:48:32Z</time>
      </trkpt>
      <trkpt lat="44.97911" lon="5.45892">
        <ele>1299.839844</ele>
        <time>2010-06-05T12:48:39Z</time>
      </trkpt>
      <trkpt lat="44.97899" lon="5.45892">
        <ele>1298.878418</ele>
        <time>2010-06-05T12:48:45Z</time>
      </trkpt>
      <trkpt lat="44.97887" lon="5.45893">
        <ele>1298.397705</ele>
        <time>2010-06-05T12:48:52Z</time>
      </trkpt>
      <trkpt lat="44.97873" lon="5.45895">
        <ele>1301.762451</ele>
        <time>2010-06-05T12:49:00Z</time>
      </trkpt>
      <trkpt lat="44.97856" lon="5.45898">
        <ele>1301.762451</ele>
        <time>2010-06-05T12:49:09Z</time>
      </trkpt>
      <trkpt lat="44.97845" lon="5.45899">
        <ele>1299.839844</ele>
        <time>2010-06-05T12:49:16Z</time>
      </trkpt>
      <trkpt lat="44.97836" lon="5.459">
        <ele>1302.24292</ele>
        <time>2010-06-05T12:49:22Z</time>
      </trkpt>
      <trkpt lat="44.97824" lon="5.45902">
        <ele>1304.165771</ele>
        <time>2010-06-05T12:49:28Z</time>
      </trkpt>
      <trkpt lat="44.9781" lon="5.45906">
        <ele>1304.64624</ele>
        <time>2010-06-05T12:49:35Z</time>
      </trkpt>
      <trkpt lat="44.97798" lon="5.45911">
        <ele>1305.607666</ele>
        <time>2010-06-05T12:49:41Z</time>
      </trkpt>
      <trkpt lat="44.97788" lon="5.45923">
        <ele>1305.607666</ele>
        <time>2010-06-05T12:49:48Z</time>
      </trkpt>
      <trkpt lat="44.97781" lon="5.45939">
        <ele>1304.64624</ele>
        <time>2010-06-05T12:49:55Z</time>
      </trkpt>
      <trkpt lat="44.97773" lon="5.45955">
        <ele>1302.24292</ele>
        <time>2010-06-05T12:50:02Z</time>
      </trkpt>
      <trkpt lat="44.97772" lon="5.4596">
        <ele>1301.762451</ele>
        <time>2010-06-05T12:50:04Z</time>
      </trkpt>
      <trkpt lat="44.97767" lon="5.45973">
        <ele>1301.762451</ele>
        <time>2010-06-05T12:50:10Z</time>
      </trkpt>
      <trkpt lat="44.97762" lon="5.45994">
        <ele>1302.723633</ele>
        <time>2010-06-05T12:50:18Z</time>
      </trkpt>
      <trkpt lat="44.97758" lon="5.46011">
        <ele>1301.281738</ele>
        <time>2010-06-05T12:50:24Z</time>
      </trkpt>
      <trkpt lat="44.97752" lon="5.46029">
        <ele>1301.762451</ele>
        <time>2010-06-05T12:50:30Z</time>
      </trkpt>
      <trkpt lat="44.97743" lon="5.46049">
        <ele>1298.878418</ele>
        <time>2010-06-05T12:50:37Z</time>
      </trkpt>
      <trkpt lat="44.97734" lon="5.46068">
        <ele>1302.723633</ele>
        <time>2010-06-05T12:50:43Z</time>
      </trkpt>
      <trkpt lat="44.97724" lon="5.46084">
        <ele>1302.24292</ele>
        <time>2010-06-05T12:50:49Z</time>
      </trkpt>
      <trkpt lat="44.97722" lon="5.46089">
        <ele>1303.685059</ele>
        <time>2010-06-05T12:50:51Z</time>
      </trkpt>
      <trkpt lat="44.97706" lon="5.46109">
        <ele>1300.320557</ele>
        <time>2010-06-05T12:50:59Z</time>
      </trkpt>
      <trkpt lat="44.9769" lon="5.46129">
        <ele>1299.359131</ele>
        <time>2010-06-05T12:51:06Z</time>
      </trkpt>
      <trkpt lat="44.97678" lon="5.46142">
        <ele>1299.839844</ele>
        <time>2010-06-05T12:51:11Z</time>
      </trkpt>
      <trkpt lat="44.97659" lon="5.4616">
        <ele>1304.165771</ele>
        <time>2010-06-05T12:51:18Z</time>
      </trkpt>
      <trkpt lat="44.97642" lon="5.46174">
        <ele>1308.972412</ele>
        <time>2010-06-05T12:51:24Z</time>
      </trkpt>
      <trkpt lat="44.97625" lon="5.46187">
        <ele>1310.414307</ele>
        <time>2010-06-05T12:51:30Z</time>
      </trkpt>
      <trkpt lat="44.9761" lon="5.46195">
        <ele>1312.336914</ele>
        <time>2010-06-05T12:51:35Z</time>
      </trkpt>
      <trkpt lat="44.97596" lon="5.46199">
        <ele>1315.220947</ele>
        <time>2010-06-05T12:51:40Z</time>
      </trkpt>
      <trkpt lat="44.97573" lon="5.46202">
        <ele>1316.182129</ele>
        <time>2010-06-05T12:51:48Z</time>
      </trkpt>
      <trkpt lat="44.97555" lon="5.46205">
        <ele>1318.585449</ele>
        <time>2010-06-05T12:51:55Z</time>
      </trkpt>
      <trkpt lat="44.9754" lon="5.46209">
        <ele>1319.546875</ele>
        <time>2010-06-05T12:52:02Z</time>
      </trkpt>
      <trkpt lat="44.97534" lon="5.46212">
        <ele>1319.546875</ele>
        <time>2010-06-05T12:52:08Z</time>
      </trkpt>
      <trkpt lat="44.97534" lon="5.46212">
        <ele>1320.027344</ele>
        <time>2010-06-05T12:52:12Z</time>
      </trkpt>
      <trkpt lat="44.9754" lon="5.4621">
        <ele>1320.027344</ele>
        <time>2010-06-05T12:52:17Z</time>
      </trkpt>
      <trkpt lat="44.97543" lon="5.46205">
        <ele>1323.872559</ele>
        <time>2010-06-05T12:52:34Z</time>
      </trkpt>
      <trkpt lat="44.97544" lon="5.46199">
        <ele>1327.718018</ele>
        <time>2010-06-05T12:52:41Z</time>
      </trkpt>
      <trkpt lat="44.97542" lon="5.46202">
        <ele>1329.159912</ele>
        <time>2010-06-05T12:52:48Z</time>
      </trkpt>
      <trkpt lat="44.97539" lon="5.46204">
        <ele>1327.237549</ele>
        <time>2010-06-05T12:52:52Z</time>
      </trkpt>
      <trkpt lat="44.97534" lon="5.46209">
        <ele>1325.79541</ele>
        <time>2010-06-05T12:53:00Z</time>
      </trkpt>
      <trkpt lat="44.97528" lon="5.46212">
        <ele>1323.39209</ele>
        <time>2010-06-05T12:53:06Z</time>
      </trkpt>
      <trkpt lat="44.97521" lon="5.46213">
        <ele>1322.430664</ele>
        <time>2010-06-05T12:53:10Z</time>
      </trkpt>
      <trkpt lat="44.97511" lon="5.46215">
        <ele>1321.469238</ele>
        <time>2010-06-05T12:53:17Z</time>
      </trkpt>
      <trkpt lat="44.97503" lon="5.46219">
        <ele>1324.834229</ele>
        <time>2010-06-05T12:53:23Z</time>
      </trkpt>
      <trkpt lat="44.97489" lon="5.46223">
        <ele>1327.237549</ele>
        <time>2010-06-05T12:53:32Z</time>
      </trkpt>
      <trkpt lat="44.97477" lon="5.46226">
        <ele>1327.718018</ele>
        <time>2010-06-05T12:53:40Z</time>
      </trkpt>
      <trkpt lat="44.97469" lon="5.46229">
        <ele>1328.679443</ele>
        <time>2010-06-05T12:53:47Z</time>
      </trkpt>
      <trkpt lat="44.97463" lon="5.46231">
        <ele>1328.198731</ele>
        <time>2010-06-05T12:53:52Z</time>
      </trkpt>
      <trkpt lat="44.97453" lon="5.46233">
        <ele>1328.679443</ele>
        <time>2010-06-05T12:53:58Z</time>
      </trkpt>
      <trkpt lat="44.97446" lon="5.46234">
        <ele>1330.121338</ele>
        <time>2010-06-05T12:54:03Z</time>
      </trkpt>
      <trkpt lat="44.97439" lon="5.46236">
        <ele>1329.159912</ele>
        <time>2010-06-05T12:54:09Z</time>
      </trkpt>
      <trkpt lat="44.97431" lon="5.46238">
        <ele>1328.198731</ele>
        <time>2010-06-05T12:54:15Z</time>
      </trkpt>
      <trkpt lat="44.97422" lon="5.4624">
        <ele>1326.756836</ele>
        <time>2010-06-05T12:54:22Z</time>
      </trkpt>
      <trkpt lat="44.97413" lon="5.46244">
        <ele>1327.237549</ele>
        <time>2010-06-05T12:54:28Z</time>
      </trkpt>
      <trkpt lat="44.97401" lon="5.46249">
        <ele>1325.314697</ele>
        <time>2010-06-05T12:54:36Z</time>
      </trkpt>
      <trkpt lat="44.97386" lon="5.46255">
        <ele>1324.353516</ele>
        <time>2010-06-05T12:54:43Z</time>
      </trkpt>
      <trkpt lat="44.97372" lon="5.46258">
        <ele>1324.353516</ele>
        <time>2010-06-05T12:54:50Z</time>
      </trkpt>
      <trkpt lat="44.97351" lon="5.46257">
        <ele>1327.237549</ele>
        <time>2010-06-05T12:54:59Z</time>
      </trkpt>
      <trkpt lat="44.97334" lon="5.46253">
        <ele>1331.082764</ele>
        <time>2010-06-05T12:55:07Z</time>
      </trkpt>
      <trkpt lat="44.97319" lon="5.46254">
        <ele>1332.043945</ele>
        <time>2010-06-05T12:55:15Z</time>
      </trkpt>
      <trkpt lat="44.97304" lon="5.46255">
        <ele>1332.043945</ele>
        <time>2010-06-05T12:55:22Z</time>
      </trkpt>
      <trkpt lat="44.97288" lon="5.46252">
        <ele>1333.005127</ele>
        <time>2010-06-05T12:55:30Z</time>
      </trkpt>
      <trkpt lat="44.97276" lon="5.46247">
        <ele>1333.48584</ele>
        <time>2010-06-05T12:55:37Z</time>
      </trkpt>
      <trkpt lat="44.97261" lon="5.46239">
        <ele>1334.927979</ele>
        <time>2010-06-05T12:55:45Z</time>
      </trkpt>
      <trkpt lat="44.97247" lon="5.46238">
        <ele>1333.48584</ele>
        <time>2010-06-05T12:55:52Z</time>
      </trkpt>
      <trkpt lat="44.97235" lon="5.46239">
        <ele>1333.966553</ele>
        <time>2010-06-05T12:55:58Z</time>
      </trkpt>
      <trkpt lat="44.97219" lon="5.46241">
        <ele>1333.966553</ele>
        <time>2010-06-05T12:56:06Z</time>
      </trkpt>
      <trkpt lat="44.97201" lon="5.4624">
        <ele>1334.927979</ele>
        <time>2010-06-05T12:56:14Z</time>
      </trkpt>
      <trkpt lat="44.97182" lon="5.46237">
        <ele>1335.408447</ele>
        <time>2010-06-05T12:56:20Z</time>
      </trkpt>
      <trkpt lat="44.97165" lon="5.46224">
        <ele>1335.88916</ele>
        <time>2010-06-05T12:56:26Z</time>
      </trkpt>
      <trkpt lat="44.97145" lon="5.46208">
        <ele>1338.292481</ele>
        <time>2010-06-05T12:56:32Z</time>
      </trkpt>
      <trkpt lat="44.97129" lon="5.46183">
        <ele>1340.695801</ele>
        <time>2010-06-05T12:56:38Z</time>
      </trkpt>
      <trkpt lat="44.97124" lon="5.46176">
        <ele>1341.657227</ele>
        <time>2010-06-05T12:56:41Z</time>
      </trkpt>
      <trkpt lat="44.97121" lon="5.46174">
        <ele>1344.060547</ele>
        <time>2010-06-05T12:56:46Z</time>
      </trkpt>
      <trkpt lat="44.9712" lon="5.46177">
        <ele>1344.541016</ele>
        <time>2010-06-05T12:56:48Z</time>
      </trkpt>
      <trkpt lat="44.97123" lon="5.46184">
        <ele>1341.657227</ele>
        <time>2010-06-05T12:56:52Z</time>
      </trkpt>
      <trkpt lat="44.97123" lon="5.46191">
        <ele>1340.215332</ele>
        <time>2010-06-05T12:56:58Z</time>
      </trkpt>
      <trkpt lat="44.9712" lon="5.46194">
        <ele>1339.734375</ele>
        <time>2010-06-05T12:57:02Z</time>
      </trkpt>
      <trkpt lat="44.97113" lon="5.46192">
        <ele>1337.331055</ele>
        <time>2010-06-05T12:57:08Z</time>
      </trkpt>
      <trkpt lat="44.97098" lon="5.46185">
        <ele>1333.005127</ele>
        <time>2010-06-05T12:57:15Z</time>
      </trkpt>
      <trkpt lat="44.97075" lon="5.46181">
        <ele>1330.602051</ele>
        <time>2010-06-05T12:57:20Z</time>
      </trkpt>
      <trkpt lat="44.97062" lon="5.46164">
        <ele>1328.679443</ele>
        <time>2010-06-05T12:57:24Z</time>
      </trkpt>
      <trkpt lat="44.97054" lon="5.46139">
        <ele>1325.314697</ele>
        <time>2010-06-05T12:57:28Z</time>
      </trkpt>
      <trkpt lat="44.97042" lon="5.46108">
        <ele>1323.872559</ele>
        <time>2010-06-05T12:57:34Z</time>
      </trkpt>
      <trkpt lat="44.97022" lon="5.46085">
        <ele>1324.834229</ele>
        <time>2010-06-05T12:57:39Z</time>
      </trkpt>
      <trkpt lat="44.97017" lon="5.4608">
        <ele>1325.314697</ele>
        <time>2010-06-05T12:57:40Z</time>
      </trkpt>
      <trkpt lat="44.97005" lon="5.4607">
        <ele>1325.314697</ele>
        <time>2010-06-05T12:57:42Z</time>
      </trkpt>
      <trkpt lat="44.96993" lon="5.46063">
        <ele>1324.353516</ele>
        <time>2010-06-05T12:57:44Z</time>
      </trkpt>
      <trkpt lat="44.96976" lon="5.46059">
        <ele>1325.79541</ele>
        <time>2010-06-05T12:57:49Z</time>
      </trkpt>
      <trkpt lat="44.96969" lon="5.46054">
        <ele>1324.353516</ele>
        <time>2010-06-05T12:57:55Z</time>
      </trkpt>
      <trkpt lat="44.96953" lon="5.46042">
        <ele>1322.430664</ele>
        <time>2010-06-05T12:58:00Z</time>
      </trkpt>
      <trkpt lat="44.96937" lon="5.46033">
        <ele>1315.220947</ele>
        <time>2010-06-05T12:58:04Z</time>
      </trkpt>
      <trkpt lat="44.96918" lon="5.46018">
        <ele>1301.762451</ele>
        <time>2010-06-05T12:58:09Z</time>
      </trkpt>
      <trkpt lat="44.96899" lon="5.45982">
        <ele>1300.801025</ele>
        <time>2010-06-05T12:58:13Z</time>
      </trkpt>
      <trkpt lat="44.96879" lon="5.45944">
        <ele>1310.414307</ele>
        <time>2010-06-05T12:58:17Z</time>
      </trkpt>
      <trkpt lat="44.96872" lon="5.45933">
        <ele>1313.778809</ele>
        <time>2010-06-05T12:58:21Z</time>
      </trkpt>
      <trkpt lat="44.96866" lon="5.45921">
        <ele>1316.662842</ele>
        <time>2010-06-05T12:58:27Z</time>
      </trkpt>
      <trkpt lat="44.96861" lon="5.4591">
        <ele>1317.143555</ele>
        <time>2010-06-05T12:58:33Z</time>
      </trkpt>
      <trkpt lat="44.96857" lon="5.459">
        <ele>1317.624023</ele>
        <time>2010-06-05T12:58:39Z</time>
      </trkpt>
      <trkpt lat="44.96855" lon="5.45891">
        <ele>1320.027344</ele>
        <time>2010-06-05T12:58:45Z</time>
      </trkpt>
      <trkpt lat="44.96848" lon="5.4588">
        <ele>1324.834229</ele>
        <time>2010-06-05T12:58:53Z</time>
      </trkpt>
      <trkpt lat="44.96842" lon="5.45873">
        <ele>1329.640625</ele>
        <time>2010-06-05T12:58:58Z</time>
      </trkpt>
      <trkpt lat="44.96837" lon="5.45861">
        <ele>1332.043945</ele>
        <time>2010-06-05T12:59:05Z</time>
      </trkpt>
      <trkpt lat="44.96834" lon="5.45845">
        <ele>1327.237549</ele>
        <time>2010-06-05T12:59:10Z</time>
      </trkpt>
      <trkpt lat="44.96832" lon="5.45827">
        <ele>1320.508057</ele>
        <time>2010-06-05T12:59:13Z</time>
      </trkpt>
      <trkpt lat="44.96828" lon="5.4581">
        <ele>1318.585449</ele>
        <time>2010-06-05T12:59:15Z</time>
      </trkpt>
      <trkpt lat="44.9681" lon="5.45768">
        <ele>1318.585449</ele>
        <time>2010-06-05T12:59:21Z</time>
      </trkpt>
      <trkpt lat="44.96806" lon="5.45755">
        <ele>1315.70166</ele>
        <time>2010-06-05T12:59:25Z</time>
      </trkpt>
      <trkpt lat="44.96802" lon="5.45742">
        <ele>1314.740234</ele>
        <time>2010-06-05T12:59:30Z</time>
      </trkpt>
      <trkpt lat="44.96795" lon="5.45725">
        <ele>1316.182129</ele>
        <time>2010-06-05T12:59:37Z</time>
      </trkpt>
      <trkpt lat="44.96788" lon="5.45707">
        <ele>1316.182129</ele>
        <time>2010-06-05T12:59:43Z</time>
      </trkpt>
      <trkpt lat="44.96777" lon="5.45698">
        <ele>1315.220947</ele>
        <time>2010-06-05T12:59:49Z</time>
      </trkpt>
      <trkpt lat="44.96769" lon="5.45687">
        <ele>1314.259521</ele>
        <time>2010-06-05T12:59:56Z</time>
      </trkpt>
      <trkpt lat="44.9676" lon="5.45677">
        <ele>1312.336914</ele>
        <time>2010-06-05T13:00:04Z</time>
      </trkpt>
      <trkpt lat="44.96746" lon="5.45668">
        <ele>1311.856445</ele>
        <time>2010-06-05T13:00:11Z</time>
      </trkpt>
      <trkpt lat="44.9673" lon="5.45654">
        <ele>1310.414307</ele>
        <time>2010-06-05T13:00:19Z</time>
      </trkpt>
      <trkpt lat="44.96722" lon="5.45654">
        <ele>1310.414307</ele>
        <time>2010-06-05T13:00:22Z</time>
      </trkpt>
      <trkpt lat="44.96713" lon="5.4567">
        <ele>1310.414307</ele>
        <time>2010-06-05T13:00:29Z</time>
      </trkpt>
      <trkpt lat="44.9671" lon="5.45682">
        <ele>1310.895019</ele>
        <time>2010-06-05T13:00:35Z</time>
      </trkpt>
      <trkpt lat="44.96708" lon="5.45687">
        <ele>1310.414307</ele>
        <time>2010-06-05T13:00:38Z</time>
      </trkpt>
      <trkpt lat="44.96703" lon="5.45693">
        <ele>1310.414307</ele>
        <time>2010-06-05T13:00:45Z</time>
      </trkpt>
      <trkpt lat="44.96696" lon="5.45705">
        <ele>1309.933594</ele>
        <time>2010-06-05T13:00:52Z</time>
      </trkpt>
      <trkpt lat="44.96688" lon="5.45719">
        <ele>1309.933594</ele>
        <time>2010-06-05T13:00:59Z</time>
      </trkpt>
      <trkpt lat="44.96682" lon="5.45735">
        <ele>1309.453125</ele>
        <time>2010-06-05T13:01:04Z</time>
      </trkpt>
      <trkpt lat="44.96673" lon="5.45756">
        <ele>1310.895019</ele>
        <time>2010-06-05T13:01:10Z</time>
      </trkpt>
      <trkpt lat="44.96663" lon="5.45788">
        <ele>1312.336914</ele>
        <time>2010-06-05T13:01:17Z</time>
      </trkpt>
      <trkpt lat="44.96653" lon="5.45821">
        <ele>1311.375732</ele>
        <time>2010-06-05T13:01:24Z</time>
      </trkpt>
      <trkpt lat="44.96641" lon="5.45857">
        <ele>1310.895019</ele>
        <time>2010-06-05T13:01:32Z</time>
      </trkpt>
      <trkpt lat="44.96637" lon="5.45889">
        <ele>1308.011231</ele>
        <time>2010-06-05T13:01:39Z</time>
      </trkpt>
      <trkpt lat="44.96633" lon="5.45934">
        <ele>1307.049561</ele>
        <time>2010-06-05T13:01:47Z</time>
      </trkpt>
      <trkpt lat="44.96632" lon="5.45951">
        <ele>1306.568848</ele>
        <time>2010-06-05T13:01:50Z</time>
      </trkpt>
      <trkpt lat="44.96629" lon="5.45968">
        <ele>1306.568848</ele>
        <time>2010-06-05T13:01:53Z</time>
      </trkpt>
      <trkpt lat="44.96625" lon="5.45985">
        <ele>1306.568848</ele>
        <time>2010-06-05T13:01:56Z</time>
      </trkpt>
      <trkpt lat="44.96619" lon="5.46">
        <ele>1306.088135</ele>
        <time>2010-06-05T13:01:59Z</time>
      </trkpt>
      <trkpt lat="44.96606" lon="5.46015">
        <ele>1306.088135</ele>
        <time>2010-06-05T13:02:03Z</time>
      </trkpt>
      <trkpt lat="44.96581" lon="5.46021">
        <ele>1307.049561</ele>
        <time>2010-06-05T13:02:09Z</time>
      </trkpt>
      <trkpt lat="44.96547" lon="5.46012">
        <ele>1308.491699</ele>
        <time>2010-06-05T13:02:17Z</time>
      </trkpt>
      <trkpt lat="44.96543" lon="5.46012">
        <ele>1308.491699</ele>
        <time>2010-06-05T13:02:18Z</time>
      </trkpt>
      <trkpt lat="44.96516" lon="5.46022">
        <ele>1309.453125</ele>
        <time>2010-06-05T13:02:25Z</time>
      </trkpt>
      <trkpt lat="44.96494" lon="5.4604">
        <ele>1311.375732</ele>
        <time>2010-06-05T13:02:32Z</time>
      </trkpt>
      <trkpt lat="44.96475" lon="5.46052">
        <ele>1313.29834</ele>
        <time>2010-06-05T13:02:38Z</time>
      </trkpt>
      <trkpt lat="44.96458" lon="5.46052">
        <ele>1313.778809</ele>
        <time>2010-06-05T13:02:43Z</time>
      </trkpt>
      <trkpt lat="44.96445" lon="5.46043">
        <ele>1315.220947</ele>
        <time>2010-06-05T13:02:49Z</time>
      </trkpt>
      <trkpt lat="44.96437" lon="5.46036">
        <ele>1317.143555</ele>
        <time>2010-06-05T13:02:55Z</time>
      </trkpt>
      <trkpt lat="44.96422" lon="5.4603">
        <ele>1317.143555</ele>
        <time>2010-06-05T13:03:02Z</time>
      </trkpt>
      <trkpt lat="44.96405" lon="5.46029">
        <ele>1319.546875</ele>
        <time>2010-06-05T13:03:09Z</time>
      </trkpt>
      <trkpt lat="44.96395" lon="5.46029">
        <ele>1320.027344</ele>
        <time>2010-06-05T13:03:15Z</time>
      </trkpt>
      <trkpt lat="44.96384" lon="5.46031">
        <ele>1320.508057</ele>
        <time>2010-06-05T13:03:22Z</time>
      </trkpt>
      <trkpt lat="44.96372" lon="5.46033">
        <ele>1320.988769</ele>
        <time>2010-06-05T13:03:29Z</time>
      </trkpt>
      <trkpt lat="44.96357" lon="5.46037">
        <ele>1321.469238</ele>
        <time>2010-06-05T13:03:38Z</time>
      </trkpt>
      <trkpt lat="44.96341" lon="5.46041">
        <ele>1325.79541</ele>
        <time>2010-06-05T13:03:47Z</time>
      </trkpt>
      <trkpt lat="44.96331" lon="5.4604">
        <ele>1325.314697</ele>
        <time>2010-06-05T13:03:54Z</time>
      </trkpt>
      <trkpt lat="44.96323" lon="5.4603">
        <ele>1328.198731</ele>
        <time>2010-06-05T13:04:01Z</time>
      </trkpt>
      <trkpt lat="44.9632" lon="5.46017">
        <ele>1328.198731</ele>
        <time>2010-06-05T13:04:07Z</time>
      </trkpt>
      <trkpt lat="44.96321" lon="5.45992">
        <ele>1330.602051</ele>
        <time>2010-06-05T13:04:18Z</time>
      </trkpt>
      <trkpt lat="44.96328" lon="5.4598">
        <ele>1336.850342</ele>
        <time>2010-06-05T13:04:25Z</time>
      </trkpt>
      <trkpt lat="44.96334" lon="5.45979">
        <ele>1339.253662</ele>
        <time>2010-06-05T13:04:28Z</time>
      </trkpt>
      <trkpt lat="44.96342" lon="5.45971">
        <ele>1341.176514</ele>
        <time>2010-06-05T13:04:35Z</time>
      </trkpt>
      <trkpt lat="44.96354" lon="5.45964">
        <ele>1338.773193</ele>
        <time>2010-06-05T13:04:41Z</time>
      </trkpt>
      <trkpt lat="44.96363" lon="5.45953">
        <ele>1339.253662</ele>
        <time>2010-06-05T13:04:49Z</time>
      </trkpt>
      <trkpt lat="44.96374" lon="5.45942">
        <ele>1340.215332</ele>
        <time>2010-06-05T13:04:57Z</time>
      </trkpt>
      <trkpt lat="44.96384" lon="5.45932">
        <ele>1340.695801</ele>
        <time>2010-06-05T13:05:04Z</time>
      </trkpt>
      <trkpt lat="44.96391" lon="5.45927">
        <ele>1341.657227</ele>
        <time>2010-06-05T13:05:09Z</time>
      </trkpt>
      <trkpt lat="44.96394" lon="5.45924">
        <ele>1342.137939</ele>
        <time>2010-06-05T13:05:11Z</time>
      </trkpt>
      <trkpt lat="44.96396" lon="5.45913">
        <ele>1343.099121</ele>
        <time>2010-06-05T13:05:16Z</time>
      </trkpt>
      <trkpt lat="44.96395" lon="5.45906">
        <ele>1344.541016</ele>
        <time>2010-06-05T13:05:19Z</time>
      </trkpt>
      <trkpt lat="44.96383" lon="5.45907">
        <ele>1343.579834</ele>
        <time>2010-06-05T13:05:25Z</time>
      </trkpt>
      <trkpt lat="44.96363" lon="5.45917">
        <ele>1342.618652</ele>
        <time>2010-06-05T13:05:32Z</time>
      </trkpt>
      <trkpt lat="44.96341" lon="5.45926">
        <ele>1341.176514</ele>
        <time>2010-06-05T13:05:39Z</time>
      </trkpt>
      <trkpt lat="44.96322" lon="5.45924">
        <ele>1339.734375</ele>
        <time>2010-06-05T13:05:45Z</time>
      </trkpt>
      <trkpt lat="44.96307" lon="5.45921">
        <ele>1340.215332</ele>
        <time>2010-06-05T13:05:50Z</time>
      </trkpt>
      <trkpt lat="44.96294" lon="5.45917">
        <ele>1342.618652</ele>
        <time>2010-06-05T13:05:55Z</time>
      </trkpt>
      <trkpt lat="44.96289" lon="5.45908">
        <ele>1345.983154</ele>
        <time>2010-06-05T13:05:59Z</time>
      </trkpt>
      <trkpt lat="44.96285" lon="5.45894">
        <ele>1350.309082</ele>
        <time>2010-06-05T13:06:05Z</time>
      </trkpt>
      <trkpt lat="44.96278" lon="5.45884">
        <ele>1352.712158</ele>
        <time>2010-06-05T13:06:10Z</time>
      </trkpt>
      <trkpt lat="44.96273" lon="5.45876">
        <ele>1354.634766</ele>
        <time>2010-06-05T13:06:14Z</time>
      </trkpt>
      <trkpt lat="44.96258" lon="5.45864">
        <ele>1356.076904</ele>
        <time>2010-06-05T13:06:22Z</time>
      </trkpt>
      <trkpt lat="44.96245" lon="5.45858">
        <ele>1356.076904</ele>
        <time>2010-06-05T13:06:29Z</time>
      </trkpt>
      <trkpt lat="44.96235" lon="5.45856">
        <ele>1355.115479</ele>
        <time>2010-06-05T13:06:35Z</time>
      </trkpt>
      <trkpt lat="44.96221" lon="5.45856">
        <ele>1355.596191</ele>
        <time>2010-06-05T13:06:42Z</time>
      </trkpt>
      <trkpt lat="44.96207" lon="5.45858">
        <ele>1354.154297</ele>
        <time>2010-06-05T13:06:49Z</time>
      </trkpt>
      <trkpt lat="44.96192" lon="5.45863">
        <ele>1355.596191</ele>
        <time>2010-06-05T13:06:57Z</time>
      </trkpt>
      <trkpt lat="44.96181" lon="5.4587">
        <ele>1356.076904</ele>
        <time>2010-06-05T13:07:04Z</time>
      </trkpt>
      <trkpt lat="44.96172" lon="5.45877">
        <ele>1355.115479</ele>
        <time>2010-06-05T13:07:10Z</time>
      </trkpt>
      <trkpt lat="44.96165" lon="5.45887">
        <ele>1357.519043</ele>
        <time>2010-06-05T13:07:17Z</time>
      </trkpt>
      <trkpt lat="44.96152" lon="5.45897">
        <ele>1358.960938</ele>
        <time>2010-06-05T13:07:23Z</time>
      </trkpt>
      <trkpt lat="44.9614" lon="5.45907">
        <ele>1357.519043</ele>
        <time>2010-06-05T13:07:29Z</time>
      </trkpt>
      <trkpt lat="44.96136" lon="5.45911">
        <ele>1357.519043</ele>
        <time>2010-06-05T13:07:31Z</time>
      </trkpt>
      <trkpt lat="44.96126" lon="5.45921">
        <ele>1357.999756</ele>
        <time>2010-06-05T13:07:37Z</time>
      </trkpt>
      <trkpt lat="44.9612" lon="5.45932">
        <ele>1358.960938</ele>
        <time>2010-06-05T13:07:42Z</time>
      </trkpt>
      <trkpt lat="44.96113" lon="5.45947">
        <ele>1360.883545</ele>
        <time>2010-06-05T13:07:48Z</time>
      </trkpt>
      <trkpt lat="44.96111" lon="5.45973">
        <ele>1361.844971</ele>
        <time>2010-06-05T13:07:57Z</time>
      </trkpt>
      <trkpt lat="44.96108" lon="5.45994">
        <ele>1359.922119</ele>
        <time>2010-06-05T13:08:05Z</time>
      </trkpt>
      <trkpt lat="44.96101" lon="5.46014">
        <ele>1359.922119</ele>
        <time>2010-06-05T13:08:12Z</time>
      </trkpt>
      <trkpt lat="44.96096" lon="5.46035">
        <ele>1359.922119</ele>
        <time>2010-06-05T13:08:17Z</time>
      </trkpt>
      <trkpt lat="44.96098" lon="5.46068">
        <ele>1358.480225</ele>
        <time>2010-06-05T13:08:23Z</time>
      </trkpt>
      <trkpt lat="44.96098" lon="5.46089">
        <ele>1356.557617</ele>
        <time>2010-06-05T13:08:28Z</time>
      </trkpt>
      <trkpt lat="44.96086" lon="5.46107">
        <ele>1353.673584</ele>
        <time>2010-06-05T13:08:34Z</time>
      </trkpt>
      <trkpt lat="44.96073" lon="5.4612">
        <ele>1352.231445</ele>
        <time>2010-06-05T13:08:40Z</time>
      </trkpt>
      <trkpt lat="44.96071" lon="5.46122">
        <ele>1355.596191</ele>
        <time>2010-06-05T13:08:45Z</time>
      </trkpt>
      <trkpt lat="44.9607" lon="5.4612">
        <ele>1356.557617</ele>
        <time>2010-06-05T13:09:33Z</time>
      </trkpt>
      <trkpt lat="44.96072" lon="5.4612">
        <ele>1351.270264</ele>
        <time>2010-06-05T13:09:49Z</time>
      </trkpt>
      <trkpt lat="44.9607" lon="5.46122">
        <ele>1352.231445</ele>
        <time>2010-06-05T13:10:00Z</time>
      </trkpt>
      <trkpt lat="44.96072" lon="5.46124">
        <ele>1351.750977</ele>
        <time>2010-06-05T13:10:10Z</time>
      </trkpt>
      <trkpt lat="44.96074" lon="5.46124">
        <ele>1350.789551</ele>
        <time>2010-06-05T13:11:35Z</time>
      </trkpt>
      <trkpt lat="44.96077" lon="5.46123">
        <ele>1352.231445</ele>
        <time>2010-06-05T13:11:47Z</time>
      </trkpt>
      <trkpt lat="44.96076" lon="5.46125">
        <ele>1354.154297</ele>
        <time>2010-06-05T13:11:53Z</time>
      </trkpt>
      <trkpt lat="44.96078" lon="5.46124">
        <ele>1354.154297</ele>
        <time>2010-06-05T13:11:57Z</time>
      </trkpt>
      <trkpt lat="44.96079" lon="5.46126">
        <ele>1359.922119</ele>
        <time>2010-06-05T13:12:12Z</time>
      </trkpt>
      <trkpt lat="44.9607" lon="5.46122">
        <ele>1355.596191</ele>
        <time>2010-06-05T13:14:10Z</time>
      </trkpt>
      <trkpt lat="44.96072" lon="5.46124">
        <ele>1356.557617</ele>
        <time>2010-06-05T13:14:36Z</time>
      </trkpt>
      <trkpt lat="44.96073" lon="5.46132">
        <ele>1355.596191</ele>
        <time>2010-06-05T13:14:44Z</time>
      </trkpt>
      <trkpt lat="44.96072" lon="5.46133">
        <ele>1354.154297</ele>
        <time>2010-06-05T13:15:08Z</time>
      </trkpt>
      <trkpt lat="44.96075" lon="5.46127">
        <ele>1360.883545</ele>
        <time>2010-06-05T13:15:47Z</time>
      </trkpt>
      <trkpt lat="44.9608" lon="5.46127">
        <ele>1362.325439</ele>
        <time>2010-06-05T13:15:58Z</time>
      </trkpt>
      <trkpt lat="44.96082" lon="5.46135">
        <ele>1360.402832</ele>
        <time>2010-06-05T13:16:02Z</time>
      </trkpt>
      <trkpt lat="44.96102" lon="5.4615">
        <ele>1356.557617</ele>
        <time>2010-06-05T13:16:08Z</time>
      </trkpt>
      <trkpt lat="44.96107" lon="5.46153">
        <ele>1356.076904</ele>
        <time>2010-06-05T13:16:09Z</time>
      </trkpt>
      <trkpt lat="44.96116" lon="5.46162">
        <ele>1355.115479</ele>
        <time>2010-06-05T13:16:11Z</time>
      </trkpt>
      <trkpt lat="44.96113" lon="5.46183">
        <ele>1350.309082</ele>
        <time>2010-06-05T13:16:15Z</time>
      </trkpt>
      <trkpt lat="44.96102" lon="5.46185">
        <ele>1347.905762</ele>
        <time>2010-06-05T13:16:17Z</time>
      </trkpt>
      <trkpt lat="44.96075" lon="5.46194">
        <ele>1343.099121</ele>
        <time>2010-06-05T13:16:22Z</time>
      </trkpt>
      <trkpt lat="44.96071" lon="5.46202">
        <ele>1342.137939</ele>
        <time>2010-06-05T13:16:23Z</time>
      </trkpt>
      <trkpt lat="44.96054" lon="5.46235">
        <ele>1337.811768</ele>
        <time>2010-06-05T13:16:27Z</time>
      </trkpt>
      <trkpt lat="44.96022" lon="5.4626">
        <ele>1335.408447</ele>
        <time>2010-06-05T13:16:32Z</time>
      </trkpt>
      <trkpt lat="44.95992" lon="5.46267">
        <ele>1333.005127</ele>
        <time>2010-06-05T13:16:37Z</time>
      </trkpt>
      <trkpt lat="44.95959" lon="5.4625">
        <ele>1333.966553</ele>
        <time>2010-06-05T13:16:43Z</time>
      </trkpt>
      <trkpt lat="44.95944" lon="5.46234">
        <ele>1340.215332</ele>
        <time>2010-06-05T13:16:48Z</time>
      </trkpt>
      <trkpt lat="44.95936" lon="5.46219">
        <ele>1344.060547</ele>
        <time>2010-06-05T13:16:54Z</time>
      </trkpt>
      <trkpt lat="44.95934" lon="5.46207">
        <ele>1345.021729</ele>
        <time>2010-06-05T13:16:58Z</time>
      </trkpt>
      <trkpt lat="44.95934" lon="5.46197">
        <ele>1344.541016</ele>
        <time>2010-06-05T13:17:04Z</time>
      </trkpt>
      <trkpt lat="44.95933" lon="5.46197">
        <ele>1347.425049</ele>
        <time>2010-06-05T13:17:14Z</time>
      </trkpt>
      <trkpt lat="44.95935" lon="5.46188">
        <ele>1347.905762</ele>
        <time>2010-06-05T13:17:18Z</time>
      </trkpt>
      <trkpt lat="44.95941" lon="5.46166">
        <ele>1345.983154</ele>
        <time>2010-06-05T13:17:24Z</time>
      </trkpt>
      <trkpt lat="44.95941" lon="5.46145">
        <ele>1343.579834</ele>
        <time>2010-06-05T13:17:28Z</time>
      </trkpt>
      <trkpt lat="44.95938" lon="5.46131">
        <ele>1341.657227</ele>
        <time>2010-06-05T13:17:32Z</time>
      </trkpt>
      <trkpt lat="44.95933" lon="5.46119">
        <ele>1342.618652</ele>
        <time>2010-06-05T13:17:39Z</time>
      </trkpt>
      <trkpt lat="44.9593" lon="5.46116">
        <ele>1342.618652</ele>
        <time>2010-06-05T13:17:42Z</time>
      </trkpt>
      <trkpt lat="44.95921" lon="5.46113">
        <ele>1342.618652</ele>
        <time>2010-06-05T13:17:48Z</time>
      </trkpt>
      <trkpt lat="44.95906" lon="5.46108">
        <ele>1340.695801</ele>
        <time>2010-06-05T13:17:53Z</time>
      </trkpt>
      <trkpt lat="44.95902" lon="5.46109">
        <ele>1340.215332</ele>
        <time>2010-06-05T13:17:54Z</time>
      </trkpt>
      <trkpt lat="44.95888" lon="5.46111">
        <ele>1339.253662</ele>
        <time>2010-06-05T13:17:57Z</time>
      </trkpt>
      <trkpt lat="44.95858" lon="5.4611">
        <ele>1332.043945</ele>
        <time>2010-06-05T13:18:02Z</time>
      </trkpt>
      <trkpt lat="44.95825" lon="5.46089">
        <ele>1325.79541</ele>
        <time>2010-06-05T13:18:07Z</time>
      </trkpt>
      <trkpt lat="44.95819" lon="5.46085">
        <ele>1323.872559</ele>
        <time>2010-06-05T13:18:08Z</time>
      </trkpt>
      <trkpt lat="44.95792" lon="5.46052">
        <ele>1322.430664</ele>
        <time>2010-06-05T13:18:13Z</time>
      </trkpt>
      <trkpt lat="44.95765" lon="5.46052">
        <ele>1319.066162</ele>
        <time>2010-06-05T13:18:17Z</time>
      </trkpt>
      <trkpt lat="44.95758" lon="5.46054">
        <ele>1317.143555</ele>
        <time>2010-06-05T13:18:18Z</time>
      </trkpt>
      <trkpt lat="44.95733" lon="5.46056">
        <ele>1313.778809</ele>
        <time>2010-06-05T13:18:22Z</time>
      </trkpt>
      <trkpt lat="44.95723" lon="5.46049">
        <ele>1313.29834</ele>
        <time>2010-06-05T13:18:26Z</time>
      </trkpt>
      <trkpt lat="44.95724" lon="5.46048">
        <ele>1315.220947</ele>
        <time>2010-06-05T13:18:31Z</time>
      </trkpt>
      <trkpt lat="44.95727" lon="5.46048">
        <ele>1321.469238</ele>
        <time>2010-06-05T13:18:45Z</time>
      </trkpt>
      <trkpt lat="44.9572" lon="5.46035">
        <ele>1322.911377</ele>
        <time>2010-06-05T13:18:50Z</time>
      </trkpt>
      <trkpt lat="44.95715" lon="5.46025">
        <ele>1322.911377</ele>
        <time>2010-06-05T13:18:52Z</time>
      </trkpt>
      <trkpt lat="44.95699" lon="5.46005">
        <ele>1320.988769</ele>
        <time>2010-06-05T13:18:58Z</time>
      </trkpt>
      <trkpt lat="44.95691" lon="5.45992">
        <ele>1319.546875</ele>
        <time>2010-06-05T13:19:02Z</time>
      </trkpt>
      <trkpt lat="44.95678" lon="5.45996">
        <ele>1310.895019</ele>
        <time>2010-06-05T13:19:07Z</time>
      </trkpt>
      <trkpt lat="44.95675" lon="5.45997">
        <ele>1309.933594</ele>
        <time>2010-06-05T13:19:08Z</time>
      </trkpt>
      <trkpt lat="44.95651" lon="5.4601">
        <ele>1300.320557</ele>
        <time>2010-06-05T13:19:15Z</time>
      </trkpt>
      <trkpt lat="44.95632" lon="5.46015">
        <ele>1294.072021</ele>
        <time>2010-06-05T13:19:19Z</time>
      </trkpt>
      <trkpt lat="44.95613" lon="5.46014">
        <ele>1286.861816</ele>
        <time>2010-06-05T13:19:24Z</time>
      </trkpt>
      <trkpt lat="44.95609" lon="5.46009">
        <ele>1283.978027</ele>
        <time>2010-06-05T13:19:26Z</time>
      </trkpt>
      <trkpt lat="44.95597" lon="5.45997">
        <ele>1265.713135</ele>
        <time>2010-06-05T13:19:32Z</time>
      </trkpt>
      <trkpt lat="44.95594" lon="5.45995">
        <ele>1261.86792</ele>
        <time>2010-06-05T13:19:33Z</time>
      </trkpt>
      <trkpt lat="44.95573" lon="5.45983">
        <ele>1252.735107</ele>
        <time>2010-06-05T13:19:37Z</time>
      </trkpt>
      <trkpt lat="44.95552" lon="5.45974">
        <ele>1244.083496</ele>
        <time>2010-06-05T13:19:42Z</time>
      </trkpt>
      <trkpt lat="44.95539" lon="5.45967">
        <ele>1235.912109</ele>
        <time>2010-06-05T13:19:46Z</time>
      </trkpt>
      <trkpt lat="44.9551" lon="5.45943">
        <ele>1241.199219</ele>
        <time>2010-06-05T13:19:50Z</time>
      </trkpt>
      <trkpt lat="44.95496" lon="5.4593">
        <ele>1252.254394</ele>
        <time>2010-06-05T13:19:54Z</time>
      </trkpt>
      <trkpt lat="44.95487" lon="5.45922">
        <ele>1264.751709</ele>
        <time>2010-06-05T13:19:59Z</time>
      </trkpt>
      <trkpt lat="44.95474" lon="5.45921">
        <ele>1273.403564</ele>
        <time>2010-06-05T13:20:08Z</time>
      </trkpt>
      <trkpt lat="44.95468" lon="5.45922">
        <ele>1278.210205</ele>
        <time>2010-06-05T13:20:12Z</time>
      </trkpt>
      <trkpt lat="44.95453" lon="5.45924">
        <ele>1281.094238</ele>
        <time>2010-06-05T13:20:18Z</time>
      </trkpt>
      <trkpt lat="44.95434" lon="5.45932">
        <ele>1281.574707</ele>
        <time>2010-06-05T13:20:25Z</time>
      </trkpt>
      <trkpt lat="44.9542" lon="5.45947">
        <ele>1283.016602</ele>
        <time>2010-06-05T13:20:31Z</time>
      </trkpt>
      <trkpt lat="44.95414" lon="5.45963">
        <ele>1286.381348</ele>
        <time>2010-06-05T13:20:37Z</time>
      </trkpt>
      <trkpt lat="44.95408" lon="5.45983">
        <ele>1285.900635</ele>
        <time>2010-06-05T13:20:43Z</time>
      </trkpt>
      <trkpt lat="44.95405" lon="5.4599">
        <ele>1285.419922</ele>
        <time>2010-06-05T13:20:47Z</time>
      </trkpt>
      <trkpt lat="44.95408" lon="5.45986">
        <ele>1284.939453</ele>
        <time>2010-06-05T13:20:55Z</time>
      </trkpt>
      <trkpt lat="44.95408" lon="5.45985">
        <ele>1282.536133</ele>
        <time>2010-06-05T13:21:03Z</time>
      </trkpt>
      <trkpt lat="44.95408" lon="5.45985">
        <ele>1281.094238</ele>
        <time>2010-06-05T13:21:09Z</time>
      </trkpt>
      <trkpt lat="44.9541" lon="5.45981">
        <ele>1280.132812</ele>
        <time>2010-06-05T13:21:16Z</time>
      </trkpt>
      <trkpt lat="44.9541" lon="5.45983">
        <ele>1281.094238</ele>
        <time>2010-06-05T13:21:25Z</time>
      </trkpt>
      <trkpt lat="44.95408" lon="5.45986">
        <ele>1281.094238</ele>
        <time>2010-06-05T13:21:30Z</time>
      </trkpt>
      <trkpt lat="44.95407" lon="5.4599">
        <ele>1281.094238</ele>
        <time>2010-06-05T13:21:34Z</time>
      </trkpt>
      <trkpt lat="44.95402" lon="5.46003">
        <ele>1281.574707</ele>
        <time>2010-06-05T13:21:40Z</time>
      </trkpt>
      <trkpt lat="44.9539" lon="5.46021">
        <ele>1283.978027</ele>
        <time>2010-06-05T13:21:48Z</time>
      </trkpt>
      <trkpt lat="44.95384" lon="5.46031">
        <ele>1285.900635</ele>
        <time>2010-06-05T13:21:54Z</time>
      </trkpt>
      <trkpt lat="44.9538" lon="5.46043">
        <ele>1283.497314</ele>
        <time>2010-06-05T13:21:59Z</time>
      </trkpt>
      <trkpt lat="44.95373" lon="5.46065">
        <ele>1284.939453</ele>
        <time>2010-06-05T13:22:06Z</time>
      </trkpt>
      <trkpt lat="44.95367" lon="5.46084">
        <ele>1287.823242</ele>
        <time>2010-06-05T13:22:12Z</time>
      </trkpt>
      <trkpt lat="44.95361" lon="5.46099">
        <ele>1289.74585</ele>
        <time>2010-06-05T13:22:18Z</time>
      </trkpt>
      <trkpt lat="44.95353" lon="5.46117">
        <ele>1291.187744</ele>
        <time>2010-06-05T13:22:24Z</time>
      </trkpt>
      <trkpt lat="44.95345" lon="5.46137">
        <ele>1288.784668</ele>
        <time>2010-06-05T13:22:30Z</time>
      </trkpt>
      <trkpt lat="44.95343" lon="5.46152">
        <ele>1288.784668</ele>
        <time>2010-06-05T13:22:36Z</time>
      </trkpt>
      <trkpt lat="44.95341" lon="5.4617">
        <ele>1288.784668</ele>
        <time>2010-06-05T13:22:43Z</time>
      </trkpt>
      <trkpt lat="44.95337" lon="5.46186">
        <ele>1290.226562</ele>
        <time>2010-06-05T13:22:50Z</time>
      </trkpt>
      <trkpt lat="44.95329" lon="5.46197">
        <ele>1290.707031</ele>
        <time>2010-06-05T13:22:57Z</time>
      </trkpt>
      <trkpt lat="44.95316" lon="5.46204">
        <ele>1289.74585</ele>
        <time>2010-06-05T13:23:05Z</time>
      </trkpt>
      <trkpt lat="44.95306" lon="5.46212">
        <ele>1291.668457</ele>
        <time>2010-06-05T13:23:12Z</time>
      </trkpt>
      <trkpt lat="44.95294" lon="5.46221">
        <ele>1291.187744</ele>
        <time>2010-06-05T13:23:18Z</time>
      </trkpt>
      <trkpt lat="44.95277" lon="5.46234">
        <ele>1291.668457</ele>
        <time>2010-06-05T13:23:25Z</time>
      </trkpt>
      <trkpt lat="44.95259" lon="5.46236">
        <ele>1292.149414</ele>
        <time>2010-06-05T13:23:31Z</time>
      </trkpt>
      <trkpt lat="44.95244" lon="5.46222">
        <ele>1294.072021</ele>
        <time>2010-06-05T13:23:37Z</time>
      </trkpt>
      <trkpt lat="44.95232" lon="5.46201">
        <ele>1296.955811</ele>
        <time>2010-06-05T13:23:44Z</time>
      </trkpt>
      <trkpt lat="44.95215" lon="5.46189">
        <ele>1298.878418</ele>
        <time>2010-06-05T13:23:50Z</time>
      </trkpt>
      <trkpt lat="44.95198" lon="5.46187">
        <ele>1298.878418</ele>
        <time>2010-06-05T13:23:56Z</time>
      </trkpt>
      <trkpt lat="44.9518" lon="5.46195">
        <ele>1296.475342</ele>
        <time>2010-06-05T13:24:03Z</time>
      </trkpt>
      <trkpt lat="44.95163" lon="5.46196">
        <ele>1299.359131</ele>
        <time>2010-06-05T13:24:10Z</time>
      </trkpt>
      <trkpt lat="44.95153" lon="5.46185">
        <ele>1301.281738</ele>
        <time>2010-06-05T13:24:15Z</time>
      </trkpt>
      <trkpt lat="44.95146" lon="5.46167">
        <ele>1304.165771</ele>
        <time>2010-06-05T13:24:21Z</time>
      </trkpt>
      <trkpt lat="44.95138" lon="5.46158">
        <ele>1306.568848</ele>
        <time>2010-06-05T13:24:25Z</time>
      </trkpt>
      <trkpt lat="44.95126" lon="5.4616">
        <ele>1308.011231</ele>
        <time>2010-06-05T13:24:30Z</time>
      </trkpt>
      <trkpt lat="44.95111" lon="5.46177">
        <ele>1309.933594</ele>
        <time>2010-06-05T13:24:38Z</time>
      </trkpt>
      <trkpt lat="44.95102" lon="5.4619">
        <ele>1310.895019</ele>
        <time>2010-06-05T13:24:45Z</time>
      </trkpt>
      <trkpt lat="44.9509" lon="5.46204">
        <ele>1310.895019</ele>
        <time>2010-06-05T13:24:53Z</time>
      </trkpt>
      <trkpt lat="44.95074" lon="5.46219">
        <ele>1310.414307</ele>
        <time>2010-06-05T13:25:01Z</time>
      </trkpt>
      <trkpt lat="44.95059" lon="5.46232">
        <ele>1311.856445</ele>
        <time>2010-06-05T13:25:09Z</time>
      </trkpt>
      <trkpt lat="44.95043" lon="5.46241">
        <ele>1314.740234</ele>
        <time>2010-06-05T13:25:17Z</time>
      </trkpt>
      <trkpt lat="44.95028" lon="5.46242">
        <ele>1314.740234</ele>
        <time>2010-06-05T13:25:24Z</time>
      </trkpt>
      <trkpt lat="44.95017" lon="5.46238">
        <ele>1315.220947</ele>
        <time>2010-06-05T13:25:30Z</time>
      </trkpt>
      <trkpt lat="44.95006" lon="5.46233">
        <ele>1314.259521</ele>
        <time>2010-06-05T13:25:36Z</time>
      </trkpt>
      <trkpt lat="44.94989" lon="5.46224">
        <ele>1313.778809</ele>
        <time>2010-06-05T13:25:44Z</time>
      </trkpt>
      <trkpt lat="44.94967" lon="5.46216">
        <ele>1310.414307</ele>
        <time>2010-06-05T13:25:53Z</time>
      </trkpt>
      <trkpt lat="44.94953" lon="5.46206">
        <ele>1311.375732</ele>
        <time>2010-06-05T13:25:59Z</time>
      </trkpt>
      <trkpt lat="44.94945" lon="5.46189">
        <ele>1311.856445</ele>
        <time>2010-06-05T13:26:04Z</time>
      </trkpt>
      <trkpt lat="44.94937" lon="5.4616">
        <ele>1312.817627</ele>
        <time>2010-06-05T13:26:12Z</time>
      </trkpt>
      <trkpt lat="44.94926" lon="5.46149">
        <ele>1315.220947</ele>
        <time>2010-06-05T13:26:17Z</time>
      </trkpt>
      <trkpt lat="44.94911" lon="5.4615">
        <ele>1316.182129</ele>
        <time>2010-06-05T13:26:23Z</time>
      </trkpt>
      <trkpt lat="44.94895" lon="5.46168">
        <ele>1315.70166</ele>
        <time>2010-06-05T13:26:31Z</time>
      </trkpt>
      <trkpt lat="44.94881" lon="5.4619">
        <ele>1314.740234</ele>
        <time>2010-06-05T13:26:39Z</time>
      </trkpt>
      <trkpt lat="44.94866" lon="5.46212">
        <ele>1315.70166</ele>
        <time>2010-06-05T13:26:47Z</time>
      </trkpt>
      <trkpt lat="44.94846" lon="5.46236">
        <ele>1315.220947</ele>
        <time>2010-06-05T13:26:56Z</time>
      </trkpt>
      <trkpt lat="44.94836" lon="5.46247">
        <ele>1313.29834</ele>
        <time>2010-06-05T13:27:02Z</time>
      </trkpt>
      <trkpt lat="44.94834" lon="5.46248">
        <ele>1312.817627</ele>
        <time>2010-06-05T13:27:09Z</time>
      </trkpt>
      <trkpt lat="44.9483" lon="5.46253">
        <ele>1309.453125</ele>
        <time>2010-06-05T13:27:31Z</time>
      </trkpt>
      <trkpt lat="44.94824" lon="5.46265">
        <ele>1308.491699</ele>
        <time>2010-06-05T13:27:38Z</time>
      </trkpt>
      <trkpt lat="44.94822" lon="5.46268">
        <ele>1309.453125</ele>
        <time>2010-06-05T13:27:43Z</time>
      </trkpt>
      <trkpt lat="44.9482" lon="5.46266">
        <ele>1310.895019</ele>
        <time>2010-06-05T13:28:25Z</time>
      </trkpt>
      <trkpt lat="44.94817" lon="5.46272">
        <ele>1309.453125</ele>
        <time>2010-06-05T13:28:29Z</time>
      </trkpt>
      <trkpt lat="44.94809" lon="5.46293">
        <ele>1308.491699</ele>
        <time>2010-06-05T13:28:36Z</time>
      </trkpt>
      <trkpt lat="44.94803" lon="5.46302">
        <ele>1308.491699</ele>
        <time>2010-06-05T13:28:41Z</time>
      </trkpt>
      <trkpt lat="44.94794" lon="5.46308">
        <ele>1308.011231</ele>
        <time>2010-06-05T13:28:49Z</time>
      </trkpt>
      <trkpt lat="44.94793" lon="5.46309">
        <ele>1308.491699</ele>
        <time>2010-06-05T13:28:55Z</time>
      </trkpt>
      <trkpt lat="44.94794" lon="5.4631">
        <ele>1308.011231</ele>
        <time>2010-06-05T13:29:00Z</time>
      </trkpt>
      <trkpt lat="44.94796" lon="5.46313">
        <ele>1304.64624</ele>
        <time>2010-06-05T13:36:43Z</time>
      </trkpt>
      <trkpt lat="44.94796" lon="5.46315">
        <ele>1302.723633</ele>
        <time>2010-06-05T13:36:53Z</time>
      </trkpt>
      <trkpt lat="44.94795" lon="5.46313">
        <ele>1302.24292</ele>
        <time>2010-06-05T13:37:16Z</time>
      </trkpt>
      <trkpt lat="44.94795" lon="5.46314">
        <ele>1303.204346</ele>
        <time>2010-06-05T13:37:37Z</time>
      </trkpt>
      <trkpt lat="44.94792" lon="5.46317">
        <ele>1307.049561</ele>
        <time>2010-06-05T13:37:43Z</time>
      </trkpt>
      <trkpt lat="44.9479" lon="5.46318">
        <ele>1308.972412</ele>
        <time>2010-06-05T13:37:49Z</time>
      </trkpt>
      <trkpt lat="44.94787" lon="5.4632">
        <ele>1314.740234</ele>
        <time>2010-06-05T13:38:01Z</time>
      </trkpt>
      <trkpt lat="44.94783" lon="5.46321">
        <ele>1315.70166</ele>
        <time>2010-06-05T13:38:05Z</time>
      </trkpt>
      <trkpt lat="44.94766" lon="5.46322">
        <ele>1316.662842</ele>
        <time>2010-06-05T13:38:14Z</time>
      </trkpt>
      <trkpt lat="44.94753" lon="5.46328">
        <ele>1316.662842</ele>
        <time>2010-06-05T13:38:20Z</time>
      </trkpt>
      <trkpt lat="44.9474" lon="5.46333">
        <ele>1317.143555</ele>
        <time>2010-06-05T13:38:27Z</time>
      </trkpt>
      <trkpt lat="44.94732" lon="5.46338">
        <ele>1318.104736</ele>
        <time>2010-06-05T13:38:34Z</time>
      </trkpt>
      <trkpt lat="44.94725" lon="5.46338">
        <ele>1318.104736</ele>
        <time>2010-06-05T13:38:40Z</time>
      </trkpt>
      <trkpt lat="44.94722" lon="5.46337">
        <ele>1318.585449</ele>
        <time>2010-06-05T13:38:42Z</time>
      </trkpt>
      <trkpt lat="44.94716" lon="5.46334">
        <ele>1319.066162</ele>
        <time>2010-06-05T13:38:47Z</time>
      </trkpt>
      <trkpt lat="44.94704" lon="5.46331">
        <ele>1320.508057</ele>
        <time>2010-06-05T13:38:56Z</time>
      </trkpt>
      <trkpt lat="44.94698" lon="5.46327">
        <ele>1321.469238</ele>
        <time>2010-06-05T13:39:03Z</time>
      </trkpt>
      <trkpt lat="44.94695" lon="5.46327">
        <ele>1320.027344</ele>
        <time>2010-06-05T13:39:09Z</time>
      </trkpt>
      <trkpt lat="44.94696" lon="5.46327">
        <ele>1317.624023</ele>
        <time>2010-06-05T13:39:17Z</time>
      </trkpt>
      <trkpt lat="44.94688" lon="5.46324">
        <ele>1316.182129</ele>
        <time>2010-06-05T13:39:21Z</time>
      </trkpt>
      <trkpt lat="44.94679" lon="5.46309">
        <ele>1317.143555</ele>
        <time>2010-06-05T13:39:25Z</time>
      </trkpt>
      <trkpt lat="44.94677" lon="5.46298">
        <ele>1319.066162</ele>
        <time>2010-06-05T13:39:30Z</time>
      </trkpt>
      <trkpt lat="44.94673" lon="5.4628">
        <ele>1320.027344</ele>
        <time>2010-06-05T13:39:39Z</time>
      </trkpt>
      <trkpt lat="44.94673" lon="5.46266">
        <ele>1319.546875</ele>
        <time>2010-06-05T13:39:45Z</time>
      </trkpt>
      <trkpt lat="44.94676" lon="5.4625">
        <ele>1320.027344</ele>
        <time>2010-06-05T13:39:52Z</time>
      </trkpt>
      <trkpt lat="44.94677" lon="5.46247">
        <ele>1320.027344</ele>
        <time>2010-06-05T13:39:53Z</time>
      </trkpt>
      <trkpt lat="44.94683" lon="5.4623">
        <ele>1319.066162</ele>
        <time>2010-06-05T13:39:59Z</time>
      </trkpt>
      <trkpt lat="44.9469" lon="5.4621">
        <ele>1319.066162</ele>
        <time>2010-06-05T13:40:06Z</time>
      </trkpt>
      <trkpt lat="44.94692" lon="5.46193">
        <ele>1321.469238</ele>
        <time>2010-06-05T13:40:11Z</time>
      </trkpt>
      <trkpt lat="44.94691" lon="5.46176">
        <ele>1323.872559</ele>
        <time>2010-06-05T13:40:17Z</time>
      </trkpt>
      <trkpt lat="44.94693" lon="5.46159">
        <ele>1327.237549</ele>
        <time>2010-06-05T13:40:25Z</time>
      </trkpt>
      <trkpt lat="44.94693" lon="5.46143">
        <ele>1329.640625</ele>
        <time>2010-06-05T13:40:32Z</time>
      </trkpt>
      <trkpt lat="44.94691" lon="5.4613">
        <ele>1331.082764</ele>
        <time>2010-06-05T13:40:38Z</time>
      </trkpt>
      <trkpt lat="44.9469" lon="5.46122">
        <ele>1331.082764</ele>
        <time>2010-06-05T13:40:41Z</time>
      </trkpt>
      <trkpt lat="44.94689" lon="5.46099">
        <ele>1331.563232</ele>
        <time>2010-06-05T13:40:49Z</time>
      </trkpt>
      <trkpt lat="44.94688" lon="5.46092">
        <ele>1331.563232</ele>
        <time>2010-06-05T13:40:52Z</time>
      </trkpt>
      <trkpt lat="44.94689" lon="5.4608">
        <ele>1331.563232</ele>
        <time>2010-06-05T13:40:56Z</time>
      </trkpt>
      <trkpt lat="44.94685" lon="5.46064">
        <ele>1333.966553</ele>
        <time>2010-06-05T13:41:04Z</time>
      </trkpt>
      <trkpt lat="44.94684" lon="5.46063">
        <ele>1334.447266</ele>
        <time>2010-06-05T13:41:05Z</time>
      </trkpt>
      <trkpt lat="44.94682" lon="5.46055">
        <ele>1335.408447</ele>
        <time>2010-06-05T13:41:12Z</time>
      </trkpt>
      <trkpt lat="44.94681" lon="5.46053">
        <ele>1335.408447</ele>
        <time>2010-06-05T13:41:14Z</time>
      </trkpt>
      <trkpt lat="44.94677" lon="5.46047">
        <ele>1336.369873</ele>
        <time>2010-06-05T13:41:18Z</time>
      </trkpt>
      <trkpt lat="44.94665" lon="5.46026">
        <ele>1338.292481</ele>
        <time>2010-06-05T13:41:24Z</time>
      </trkpt>
      <trkpt lat="44.94659" lon="5.46015">
        <ele>1341.657227</ele>
        <time>2010-06-05T13:41:29Z</time>
      </trkpt>
      <trkpt lat="44.94656" lon="5.46007">
        <ele>1340.695801</ele>
        <time>2010-06-05T13:41:33Z</time>
      </trkpt>
      <trkpt lat="44.94656" lon="5.45993">
        <ele>1340.215332</ele>
        <time>2010-06-05T13:41:40Z</time>
      </trkpt>
      <trkpt lat="44.94656" lon="5.45984">
        <ele>1342.618652</ele>
        <time>2010-06-05T13:41:46Z</time>
      </trkpt>
      <trkpt lat="44.94655" lon="5.45983">
        <ele>1343.579834</ele>
        <time>2010-06-05T13:41:48Z</time>
      </trkpt>
      <trkpt lat="44.9465" lon="5.45976">
        <ele>1344.060547</ele>
        <time>2010-06-05T13:41:55Z</time>
      </trkpt>
      <trkpt lat="44.94649" lon="5.4597">
        <ele>1347.425049</ele>
        <time>2010-06-05T13:42:02Z</time>
      </trkpt>
      <trkpt lat="44.94651" lon="5.45965">
        <ele>1348.866943</ele>
        <time>2010-06-05T13:42:12Z</time>
      </trkpt>
      <trkpt lat="44.94649" lon="5.45958">
        <ele>1349.347656</ele>
        <time>2010-06-05T13:42:19Z</time>
      </trkpt>
      <trkpt lat="44.94647" lon="5.45953">
        <ele>1349.828369</ele>
        <time>2010-06-05T13:42:26Z</time>
      </trkpt>
      <trkpt lat="44.94643" lon="5.45949">
        <ele>1350.789551</ele>
        <time>2010-06-05T13:42:34Z</time>
      </trkpt>
      <trkpt lat="44.94639" lon="5.45946">
        <ele>1347.905762</ele>
        <time>2010-06-05T13:42:41Z</time>
      </trkpt>
      <trkpt lat="44.94637" lon="5.45941">
        <ele>1350.309082</ele>
        <time>2010-06-05T13:42:47Z</time>
      </trkpt>
      <trkpt lat="44.94636" lon="5.45935">
        <ele>1349.828369</ele>
        <time>2010-06-05T13:42:53Z</time>
      </trkpt>
      <trkpt lat="44.94633" lon="5.4593">
        <ele>1350.309082</ele>
        <time>2010-06-05T13:42:58Z</time>
      </trkpt>
      <trkpt lat="44.94632" lon="5.45922">
        <ele>1351.750977</ele>
        <time>2010-06-05T13:43:05Z</time>
      </trkpt>
      <trkpt lat="44.94633" lon="5.45916">
        <ele>1351.750977</ele>
        <time>2010-06-05T13:43:12Z</time>
      </trkpt>
      <trkpt lat="44.94634" lon="5.4591">
        <ele>1352.231445</ele>
        <time>2010-06-05T13:43:20Z</time>
      </trkpt>
      <trkpt lat="44.94635" lon="5.45905">
        <ele>1353.673584</ele>
        <time>2010-06-05T13:43:27Z</time>
      </trkpt>
      <trkpt lat="44.94637" lon="5.45899">
        <ele>1353.192871</ele>
        <time>2010-06-05T13:43:40Z</time>
      </trkpt>
      <trkpt lat="44.94637" lon="5.45892">
        <ele>1354.154297</ele>
        <time>2010-06-05T13:43:48Z</time>
      </trkpt>
      <trkpt lat="44.94635" lon="5.45887">
        <ele>1355.115479</ele>
        <time>2010-06-05T13:43:56Z</time>
      </trkpt>
      <trkpt lat="44.94632" lon="5.45882">
        <ele>1358.480225</ele>
        <time>2010-06-05T13:44:11Z</time>
      </trkpt>
      <trkpt lat="44.94632" lon="5.45874">
        <ele>1357.999756</ele>
        <time>2010-06-05T13:44:18Z</time>
      </trkpt>
      <trkpt lat="44.94632" lon="5.45864">
        <ele>1357.999756</ele>
        <time>2010-06-05T13:44:26Z</time>
      </trkpt>
      <trkpt lat="44.94633" lon="5.45855">
        <ele>1357.999756</ele>
        <time>2010-06-05T13:44:33Z</time>
      </trkpt>
      <trkpt lat="44.94633" lon="5.45848">
        <ele>1357.03833</ele>
        <time>2010-06-05T13:44:42Z</time>
      </trkpt>
      <trkpt lat="44.94633" lon="5.45841">
        <ele>1354.154297</ele>
        <time>2010-06-05T13:44:53Z</time>
      </trkpt>
      <trkpt lat="44.94632" lon="5.45835">
        <ele>1353.192871</ele>
        <time>2010-06-05T13:45:00Z</time>
      </trkpt>
      <trkpt lat="44.94631" lon="5.45832">
        <ele>1353.192871</ele>
        <time>2010-06-05T13:45:13Z</time>
      </trkpt>
      <trkpt lat="44.9463" lon="5.45831">
        <ele>1352.231445</ele>
        <time>2010-06-05T13:45:20Z</time>
      </trkpt>
      <trkpt lat="44.94625" lon="5.45829">
        <ele>1351.270264</ele>
        <time>2010-06-05T13:45:26Z</time>
      </trkpt>
      <trkpt lat="44.9461" lon="5.45825">
        <ele>1349.347656</ele>
        <time>2010-06-05T13:45:30Z</time>
      </trkpt>
      <trkpt lat="44.94601" lon="5.45818">
        <ele>1349.347656</ele>
        <time>2010-06-05T13:45:33Z</time>
      </trkpt>
      <trkpt lat="44.94594" lon="5.45811">
        <ele>1349.347656</ele>
        <time>2010-06-05T13:45:36Z</time>
      </trkpt>
      <trkpt lat="44.94588" lon="5.45801">
        <ele>1350.309082</ele>
        <time>2010-06-05T13:45:41Z</time>
      </trkpt>
      <trkpt lat="44.94588" lon="5.45798">
        <ele>1351.750977</ele>
        <time>2010-06-05T13:45:46Z</time>
      </trkpt>
      <trkpt lat="44.94587" lon="5.45794">
        <ele>1352.231445</ele>
        <time>2010-06-05T13:45:52Z</time>
      </trkpt>
      <trkpt lat="44.94582" lon="5.4579">
        <ele>1352.712158</ele>
        <time>2010-06-05T13:46:00Z</time>
      </trkpt>
      <trkpt lat="44.94583" lon="5.4579">
        <ele>1352.712158</ele>
        <time>2010-06-05T13:46:03Z</time>
      </trkpt>
      <trkpt lat="44.94581" lon="5.45797">
        <ele>1353.673584</ele>
        <time>2010-06-05T13:46:10Z</time>
      </trkpt>
      <trkpt lat="44.94577" lon="5.45799">
        <ele>1357.999756</ele>
        <time>2010-06-05T13:47:08Z</time>
      </trkpt>
      <trkpt lat="44.94575" lon="5.45797">
        <ele>1355.596191</ele>
        <time>2010-06-05T13:47:30Z</time>
      </trkpt>
      <trkpt lat="44.94573" lon="5.45796">
        <ele>1354.154297</ele>
        <time>2010-06-05T13:47:42Z</time>
      </trkpt>
      <trkpt lat="44.94574" lon="5.45799">
        <ele>1350.309082</ele>
        <time>2010-06-05T13:47:53Z</time>
      </trkpt>
      <trkpt lat="44.94573" lon="5.45798">
        <ele>1349.828369</ele>
        <time>2010-06-05T13:48:02Z</time>
      </trkpt>
      <trkpt lat="44.94571" lon="5.45792">
        <ele>1350.309082</ele>
        <time>2010-06-05T13:48:06Z</time>
      </trkpt>
      <trkpt lat="44.94563" lon="5.45783">
        <ele>1352.712158</ele>
        <time>2010-06-05T13:48:13Z</time>
      </trkpt>
      <trkpt lat="44.94559" lon="5.45786">
        <ele>1353.192871</ele>
        <time>2010-06-05T13:48:17Z</time>
      </trkpt>
      <trkpt lat="44.9455" lon="5.45798">
        <ele>1353.192871</ele>
        <time>2010-06-05T13:48:24Z</time>
      </trkpt>
      <trkpt lat="44.94546" lon="5.45806">
        <ele>1353.192871</ele>
        <time>2010-06-05T13:48:29Z</time>
      </trkpt>
      <trkpt lat="44.94539" lon="5.45823">
        <ele>1353.192871</ele>
        <time>2010-06-05T13:48:37Z</time>
      </trkpt>
      <trkpt lat="44.94534" lon="5.45837">
        <ele>1353.673584</ele>
        <time>2010-06-05T13:48:43Z</time>
      </trkpt>
      <trkpt lat="44.94525" lon="5.4585">
        <ele>1356.557617</ele>
        <time>2010-06-05T13:48:50Z</time>
      </trkpt>
      <trkpt lat="44.94516" lon="5.45857">
        <ele>1357.999756</ele>
        <time>2010-06-05T13:48:56Z</time>
      </trkpt>
      <trkpt lat="44.94501" lon="5.45868">
        <ele>1355.115479</ele>
        <time>2010-06-05T13:49:01Z</time>
      </trkpt>
      <trkpt lat="44.94482" lon="5.45885">
        <ele>1351.270264</ele>
        <time>2010-06-05T13:49:06Z</time>
      </trkpt>
      <trkpt lat="44.94459" lon="5.45892">
        <ele>1347.425049</ele>
        <time>2010-06-05T13:49:11Z</time>
      </trkpt>
      <trkpt lat="44.94456" lon="5.45891">
        <ele>1346.944336</ele>
        <time>2010-06-05T13:49:12Z</time>
      </trkpt>
      <trkpt lat="44.94445" lon="5.45885">
        <ele>1345.502441</ele>
        <time>2010-06-05T13:49:15Z</time>
      </trkpt>
      <trkpt lat="44.94427" lon="5.45881">
        <ele>1344.541016</ele>
        <time>2010-06-05T13:49:19Z</time>
      </trkpt>
      <trkpt lat="44.94403" lon="5.45889">
        <ele>1343.099121</ele>
        <time>2010-06-05T13:49:24Z</time>
      </trkpt>
      <trkpt lat="44.94381" lon="5.45887">
        <ele>1342.137939</ele>
        <time>2010-06-05T13:49:29Z</time>
      </trkpt>
      <trkpt lat="44.94354" lon="5.4588">
        <ele>1341.176514</ele>
        <time>2010-06-05T13:49:34Z</time>
      </trkpt>
      <trkpt lat="44.94316" lon="5.45878">
        <ele>1338.773193</ele>
        <time>2010-06-05T13:49:40Z</time>
      </trkpt>
      <trkpt lat="44.94278" lon="5.45859">
        <ele>1337.331055</ele>
        <time>2010-06-05T13:49:46Z</time>
      </trkpt>
      <trkpt lat="44.94266" lon="5.4585">
        <ele>1336.850342</ele>
        <time>2010-06-05T13:49:48Z</time>
      </trkpt>
      <trkpt lat="44.9424" lon="5.45845">
        <ele>1336.369873</ele>
        <time>2010-06-05T13:49:52Z</time>
      </trkpt>
      <trkpt lat="44.94234" lon="5.45844">
        <ele>1335.88916</ele>
        <time>2010-06-05T13:49:55Z</time>
      </trkpt>
      <trkpt lat="44.94231" lon="5.45843">
        <ele>1333.48584</ele>
        <time>2010-06-05T13:50:12Z</time>
      </trkpt>
      <trkpt lat="44.94231" lon="5.45843">
        <ele>1333.48584</ele>
        <time>2010-06-05T13:50:13Z</time>
      </trkpt>
      <trkpt lat="44.9422" lon="5.45845">
        <ele>1333.966553</ele>
        <time>2010-06-05T13:50:18Z</time>
      </trkpt>
      <trkpt lat="44.94201" lon="5.45842">
        <ele>1334.447266</ele>
        <time>2010-06-05T13:50:25Z</time>
      </trkpt>
      <trkpt lat="44.94191" lon="5.45842">
        <ele>1334.927979</ele>
        <time>2010-06-05T13:50:32Z</time>
      </trkpt>
      <trkpt lat="44.9419" lon="5.45842">
        <ele>1334.927979</ele>
        <time>2010-06-05T13:50:33Z</time>
      </trkpt>
      <trkpt lat="44.94178" lon="5.45844">
        <ele>1336.369873</ele>
        <time>2010-06-05T13:50:41Z</time>
      </trkpt>
      <trkpt lat="44.94159" lon="5.45845">
        <ele>1336.850342</ele>
        <time>2010-06-05T13:50:48Z</time>
      </trkpt>
      <trkpt lat="44.94139" lon="5.45852">
        <ele>1337.811768</ele>
        <time>2010-06-05T13:50:55Z</time>
      </trkpt>
      <trkpt lat="44.94115" lon="5.45855">
        <ele>1338.773193</ele>
        <time>2010-06-05T13:51:05Z</time>
      </trkpt>
      <trkpt lat="44.94109" lon="5.45855">
        <ele>1339.253662</ele>
        <time>2010-06-05T13:51:08Z</time>
      </trkpt>
      <trkpt lat="44.94106" lon="5.45854">
        <ele>1340.215332</ele>
        <time>2010-06-05T13:51:14Z</time>
      </trkpt>
      <trkpt lat="44.94102" lon="5.45852">
        <ele>1340.695801</ele>
        <time>2010-06-05T13:51:20Z</time>
      </trkpt>
      <trkpt lat="44.94099" lon="5.45855">
        <ele>1341.176514</ele>
        <time>2010-06-05T13:51:24Z</time>
      </trkpt>
      <trkpt lat="44.94086" lon="5.45856">
        <ele>1343.579834</ele>
        <time>2010-06-05T13:51:31Z</time>
      </trkpt>
      <trkpt lat="44.94071" lon="5.45856">
        <ele>1346.944336</ele>
        <time>2010-06-05T13:51:39Z</time>
      </trkpt>
      <trkpt lat="44.94057" lon="5.4586">
        <ele>1349.828369</ele>
        <time>2010-06-05T13:51:45Z</time>
      </trkpt>
      <trkpt lat="44.94046" lon="5.45865">
        <ele>1351.750977</ele>
        <time>2010-06-05T13:51:51Z</time>
      </trkpt>
      <trkpt lat="44.94036" lon="5.45866">
        <ele>1352.231445</ele>
        <time>2010-06-05T13:51:56Z</time>
      </trkpt>
      <trkpt lat="44.94029" lon="5.45868">
        <ele>1353.192871</ele>
        <time>2010-06-05T13:52:00Z</time>
      </trkpt>
      <trkpt lat="44.94012" lon="5.45873">
        <ele>1354.154297</ele>
        <time>2010-06-05T13:52:09Z</time>
      </trkpt>
      <trkpt lat="44.94001" lon="5.45879">
        <ele>1356.557617</ele>
        <time>2010-06-05T13:52:16Z</time>
      </trkpt>
      <trkpt lat="44.9399" lon="5.45876">
        <ele>1357.519043</ele>
        <time>2010-06-05T13:52:22Z</time>
      </trkpt>
      <trkpt lat="44.93975" lon="5.45867">
        <ele>1358.480225</ele>
        <time>2010-06-05T13:52:31Z</time>
      </trkpt>
      <trkpt lat="44.93965" lon="5.4586">
        <ele>1359.922119</ele>
        <time>2010-06-05T13:52:38Z</time>
      </trkpt>
      <trkpt lat="44.93956" lon="5.45858">
        <ele>1361.364258</ele>
        <time>2010-06-05T13:52:44Z</time>
      </trkpt>
      <trkpt lat="44.9395" lon="5.45859">
        <ele>1361.844971</ele>
        <time>2010-06-05T13:52:50Z</time>
      </trkpt>
      <trkpt lat="44.93946" lon="5.45859">
        <ele>1363.286865</ele>
        <time>2010-06-05T13:52:59Z</time>
      </trkpt>
      <trkpt lat="44.93934" lon="5.45858">
        <ele>1363.286865</ele>
        <time>2010-06-05T13:53:06Z</time>
      </trkpt>
      <trkpt lat="44.93923" lon="5.45853">
        <ele>1364.72876</ele>
        <time>2010-06-05T13:53:12Z</time>
      </trkpt>
      <trkpt lat="44.9392" lon="5.45848">
        <ele>1365.690186</ele>
        <time>2010-06-05T13:53:15Z</time>
      </trkpt>
      <trkpt lat="44.93915" lon="5.45838">
        <ele>1369.5354</ele>
        <time>2010-06-05T13:53:23Z</time>
      </trkpt>
      <trkpt lat="44.93908" lon="5.45827">
        <ele>1370.015869</ele>
        <time>2010-06-05T13:53:31Z</time>
      </trkpt>
      <trkpt lat="44.93901" lon="5.45821">
        <ele>1369.054688</ele>
        <time>2010-06-05T13:53:39Z</time>
      </trkpt>
      <trkpt lat="44.93895" lon="5.45818">
        <ele>1370.977295</ele>
        <time>2010-06-05T13:53:46Z</time>
      </trkpt>
      <trkpt lat="44.93885" lon="5.45816">
        <ele>1371.457764</ele>
        <time>2010-06-05T13:53:53Z</time>
      </trkpt>
      <trkpt lat="44.93877" lon="5.45813">
        <ele>1373.380859</ele>
        <time>2010-06-05T13:54:01Z</time>
      </trkpt>
      <trkpt lat="44.93867" lon="5.45805">
        <ele>1374.822754</ele>
        <time>2010-06-05T13:54:07Z</time>
      </trkpt>
      <trkpt lat="44.93864" lon="5.45788">
        <ele>1372.900146</ele>
        <time>2010-06-05T13:54:17Z</time>
      </trkpt>
      <trkpt lat="44.93862" lon="5.45779">
        <ele>1371.457764</ele>
        <time>2010-06-05T13:54:23Z</time>
      </trkpt>
      <trkpt lat="44.93864" lon="5.45769">
        <ele>1371.938477</ele>
        <time>2010-06-05T13:54:30Z</time>
      </trkpt>
      <trkpt lat="44.93859" lon="5.45759">
        <ele>1371.938477</ele>
        <time>2010-06-05T13:54:38Z</time>
      </trkpt>
      <trkpt lat="44.93857" lon="5.45757">
        <ele>1372.419434</ele>
        <time>2010-06-05T13:54:40Z</time>
      </trkpt>
      <trkpt lat="44.93848" lon="5.45755">
        <ele>1375.303223</ele>
        <time>2010-06-05T13:54:46Z</time>
      </trkpt>
      <trkpt lat="44.93835" lon="5.45758">
        <ele>1378.667969</ele>
        <time>2010-06-05T13:54:54Z</time>
      </trkpt>
      <trkpt lat="44.93821" lon="5.45765">
        <ele>1380.590576</ele>
        <time>2010-06-05T13:55:02Z</time>
      </trkpt>
      <trkpt lat="44.93806" lon="5.45774">
        <ele>1380.109863</ele>
        <time>2010-06-05T13:55:10Z</time>
      </trkpt>
      <trkpt lat="44.93792" lon="5.45791">
        <ele>1380.590576</ele>
        <time>2010-06-05T13:55:17Z</time>
      </trkpt>
      <trkpt lat="44.93783" lon="5.45803">
        <ele>1378.667969</ele>
        <time>2010-06-05T13:55:20Z</time>
      </trkpt>
      <trkpt lat="44.93778" lon="5.45816">
        <ele>1377.706543</ele>
        <time>2010-06-05T13:55:22Z</time>
      </trkpt>
      <trkpt lat="44.93757" lon="5.45858">
        <ele>1373.380859</ele>
        <time>2010-06-05T13:55:28Z</time>
      </trkpt>
      <trkpt lat="44.93745" lon="5.45884">
        <ele>1370.977295</ele>
        <time>2010-06-05T13:55:33Z</time>
      </trkpt>
      <trkpt lat="44.93743" lon="5.45885">
        <ele>1368.573975</ele>
        <time>2010-06-05T13:55:40Z</time>
      </trkpt>
      <trkpt lat="44.93741" lon="5.45894">
        <ele>1366.170654</ele>
        <time>2010-06-05T13:55:55Z</time>
      </trkpt>
      <trkpt lat="44.93736" lon="5.45899">
        <ele>1366.170654</ele>
        <time>2010-06-05T13:55:57Z</time>
      </trkpt>
      <trkpt lat="44.93717" lon="5.45895">
        <ele>1365.209473</ele>
        <time>2010-06-05T13:56:02Z</time>
      </trkpt>
      <trkpt lat="44.93706" lon="5.45883">
        <ele>1364.72876</ele>
        <time>2010-06-05T13:56:08Z</time>
      </trkpt>
      <trkpt lat="44.93696" lon="5.45865">
        <ele>1364.248047</ele>
        <time>2010-06-05T13:56:14Z</time>
      </trkpt>
      <trkpt lat="44.93685" lon="5.45838">
        <ele>1364.248047</ele>
        <time>2010-06-05T13:56:20Z</time>
      </trkpt>
      <trkpt lat="44.93667" lon="5.45801">
        <ele>1364.248047</ele>
        <time>2010-06-05T13:56:27Z</time>
      </trkpt>
      <trkpt lat="44.93665" lon="5.45795">
        <ele>1363.767334</ele>
        <time>2010-06-05T13:56:28Z</time>
      </trkpt>
      <trkpt lat="44.93654" lon="5.4576">
        <ele>1363.286865</ele>
        <time>2010-06-05T13:56:34Z</time>
      </trkpt>
      <trkpt lat="44.93654" lon="5.45737">
        <ele>1362.806152</ele>
        <time>2010-06-05T13:56:37Z</time>
      </trkpt>
      <trkpt lat="44.93653" lon="5.4572">
        <ele>1362.325439</ele>
        <time>2010-06-05T13:56:39Z</time>
      </trkpt>
      <trkpt lat="44.93638" lon="5.45679">
        <ele>1361.364258</ele>
        <time>2010-06-05T13:56:44Z</time>
      </trkpt>
      <trkpt lat="44.93614" lon="5.45667">
        <ele>1361.364258</ele>
        <time>2010-06-05T13:56:47Z</time>
      </trkpt>
      <trkpt lat="44.93606" lon="5.45665">
        <ele>1360.402832</ele>
        <time>2010-06-05T13:56:48Z</time>
      </trkpt>
      <trkpt lat="44.9358" lon="5.45659">
        <ele>1358.960938</ele>
        <time>2010-06-05T13:56:52Z</time>
      </trkpt>
      <trkpt lat="44.93578" lon="5.45657">
        <ele>1358.480225</ele>
        <time>2010-06-05T13:56:55Z</time>
      </trkpt>
      <trkpt lat="44.93582" lon="5.45659">
        <ele>1359.922119</ele>
        <time>2010-06-05T13:57:01Z</time>
      </trkpt>
      <trkpt lat="44.93583" lon="5.45661">
        <ele>1359.922119</ele>
        <time>2010-06-05T13:57:20Z</time>
      </trkpt>
      <trkpt lat="44.93583" lon="5.45661">
        <ele>1359.922119</ele>
        <time>2010-06-05T13:57:23Z</time>
      </trkpt>
      <trkpt lat="44.93576" lon="5.4566">
        <ele>1359.44165</ele>
        <time>2010-06-05T13:57:27Z</time>
      </trkpt>
      <trkpt lat="44.93558" lon="5.45649">
        <ele>1357.999756</ele>
        <time>2010-06-05T13:57:33Z</time>
      </trkpt>
      <trkpt lat="44.93538" lon="5.45635">
        <ele>1357.03833</ele>
        <time>2010-06-05T13:57:39Z</time>
      </trkpt>
      <trkpt lat="44.93523" lon="5.45636">
        <ele>1355.596191</ele>
        <time>2010-06-05T13:57:44Z</time>
      </trkpt>
      <trkpt lat="44.93511" lon="5.45646">
        <ele>1357.03833</ele>
        <time>2010-06-05T13:57:49Z</time>
      </trkpt>
      <trkpt lat="44.93494" lon="5.45664">
        <ele>1358.480225</ele>
        <time>2010-06-05T13:57:58Z</time>
      </trkpt>
      <trkpt lat="44.9348" lon="5.45676">
        <ele>1358.480225</ele>
        <time>2010-06-05T13:58:05Z</time>
      </trkpt>
      <trkpt lat="44.93469" lon="5.45685">
        <ele>1358.480225</ele>
        <time>2010-06-05T13:58:11Z</time>
      </trkpt>
      <trkpt lat="44.93452" lon="5.45697">
        <ele>1355.596191</ele>
        <time>2010-06-05T13:58:19Z</time>
      </trkpt>
      <trkpt lat="44.93433" lon="5.45702">
        <ele>1354.634766</ele>
        <time>2010-06-05T13:58:26Z</time>
      </trkpt>
      <trkpt lat="44.93407" lon="5.45708">
        <ele>1354.154297</ele>
        <time>2010-06-05T13:58:34Z</time>
      </trkpt>
      <trkpt lat="44.9339" lon="5.45707">
        <ele>1354.154297</ele>
        <time>2010-06-05T13:58:40Z</time>
      </trkpt>
      <trkpt lat="44.93374" lon="5.45691">
        <ele>1354.634766</ele>
        <time>2010-06-05T13:58:47Z</time>
      </trkpt>
      <trkpt lat="44.93368" lon="5.45682">
        <ele>1356.557617</ele>
        <time>2010-06-05T13:58:52Z</time>
      </trkpt>
      <trkpt lat="44.93361" lon="5.45666">
        <ele>1356.557617</ele>
        <time>2010-06-05T13:58:58Z</time>
      </trkpt>
      <trkpt lat="44.9336" lon="5.4564">
        <ele>1354.154297</ele>
        <time>2010-06-05T13:59:04Z</time>
      </trkpt>
      <trkpt lat="44.93367" lon="5.45611">
        <ele>1354.634766</ele>
        <time>2010-06-05T13:59:10Z</time>
      </trkpt>
      <trkpt lat="44.93369" lon="5.45595">
        <ele>1354.154297</ele>
        <time>2010-06-05T13:59:15Z</time>
      </trkpt>
      <trkpt lat="44.93376" lon="5.45568">
        <ele>1355.596191</ele>
        <time>2010-06-05T13:59:22Z</time>
      </trkpt>
      <trkpt lat="44.93386" lon="5.45546">
        <ele>1355.596191</ele>
        <time>2010-06-05T13:59:27Z</time>
      </trkpt>
      <trkpt lat="44.93397" lon="5.45519">
        <ele>1356.076904</ele>
        <time>2010-06-05T13:59:34Z</time>
      </trkpt>
      <trkpt lat="44.93404" lon="5.45481">
        <ele>1356.557617</ele>
        <time>2010-06-05T13:59:43Z</time>
      </trkpt>
      <trkpt lat="44.93403" lon="5.45455">
        <ele>1356.076904</ele>
        <time>2010-06-05T13:59:50Z</time>
      </trkpt>
      <trkpt lat="44.93402" lon="5.45438">
        <ele>1358.960938</ele>
        <time>2010-06-05T13:59:56Z</time>
      </trkpt>
      <trkpt lat="44.93398" lon="5.45416">
        <ele>1360.883545</ele>
        <time>2010-06-05T14:00:03Z</time>
      </trkpt>
      <trkpt lat="44.93391" lon="5.45392">
        <ele>1359.922119</ele>
        <time>2010-06-05T14:00:11Z</time>
      </trkpt>
      <trkpt lat="44.93388" lon="5.4537">
        <ele>1359.922119</ele>
        <time>2010-06-05T14:00:18Z</time>
      </trkpt>
      <trkpt lat="44.93391" lon="5.45344">
        <ele>1360.883545</ele>
        <time>2010-06-05T14:00:26Z</time>
      </trkpt>
      <trkpt lat="44.93388" lon="5.45329">
        <ele>1364.248047</ele>
        <time>2010-06-05T14:00:31Z</time>
      </trkpt>
      <trkpt lat="44.9338" lon="5.45329">
        <ele>1365.690186</ele>
        <time>2010-06-05T14:00:36Z</time>
      </trkpt>
      <trkpt lat="44.93377" lon="5.45342">
        <ele>1367.13208</ele>
        <time>2010-06-05T14:00:42Z</time>
      </trkpt>
      <trkpt lat="44.93377" lon="5.45352">
        <ele>1366.170654</ele>
        <time>2010-06-05T14:00:49Z</time>
      </trkpt>
      <trkpt lat="44.93377" lon="5.45353">
        <ele>1366.170654</ele>
        <time>2010-06-05T14:00:50Z</time>
      </trkpt>
      <trkpt lat="44.93375" lon="5.45369">
        <ele>1367.612549</ele>
        <time>2010-06-05T14:00:57Z</time>
      </trkpt>
      <trkpt lat="44.93374" lon="5.45389">
        <ele>1369.5354</ele>
        <time>2010-06-05T14:01:03Z</time>
      </trkpt>
      <trkpt lat="44.93368" lon="5.45417">
        <ele>1370.977295</ele>
        <time>2010-06-05T14:01:12Z</time>
      </trkpt>
      <trkpt lat="44.93368" lon="5.45439">
        <ele>1373.861328</ele>
        <time>2010-06-05T14:01:19Z</time>
      </trkpt>
      <trkpt lat="44.93365" lon="5.4546">
        <ele>1375.303223</ele>
        <time>2010-06-05T14:01:25Z</time>
      </trkpt>
      <trkpt lat="44.93356" lon="5.45493">
        <ele>1372.900146</ele>
        <time>2010-06-05T14:01:32Z</time>
      </trkpt>
      <trkpt lat="44.93354" lon="5.45521">
        <ele>1374.822754</ele>
        <time>2010-06-05T14:01:37Z</time>
      </trkpt>
      <trkpt lat="44.93345" lon="5.45545">
        <ele>1373.380859</ele>
        <time>2010-06-05T14:01:42Z</time>
      </trkpt>
      <trkpt lat="44.93332" lon="5.45557">
        <ele>1371.938477</ele>
        <time>2010-06-05T14:01:47Z</time>
      </trkpt>
      <trkpt lat="44.93323" lon="5.45577">
        <ele>1373.861328</ele>
        <time>2010-06-05T14:01:53Z</time>
      </trkpt>
      <trkpt lat="44.93308" lon="5.45596">
        <ele>1372.900146</ele>
        <time>2010-06-05T14:02:00Z</time>
      </trkpt>
      <trkpt lat="44.93293" lon="5.45602">
        <ele>1373.380859</ele>
        <time>2010-06-05T14:02:05Z</time>
      </trkpt>
      <trkpt lat="44.93274" lon="5.45604">
        <ele>1376.745361</ele>
        <time>2010-06-05T14:02:12Z</time>
      </trkpt>
      <trkpt lat="44.93255" lon="5.45613">
        <ele>1379.148438</ele>
        <time>2010-06-05T14:02:18Z</time>
      </trkpt>
      <trkpt lat="44.93235" lon="5.45626">
        <ele>1381.071289</ele>
        <time>2010-06-05T14:02:26Z</time>
      </trkpt>
      <trkpt lat="44.93216" lon="5.45645">
        <ele>1382.513184</ele>
        <time>2010-06-05T14:02:34Z</time>
      </trkpt>
      <trkpt lat="44.93206" lon="5.45653">
        <ele>1383.474365</ele>
        <time>2010-06-05T14:02:39Z</time>
      </trkpt>
      <trkpt lat="44.93193" lon="5.45653">
        <ele>1383.955078</ele>
        <time>2010-06-05T14:02:46Z</time>
      </trkpt>
      <trkpt lat="44.93178" lon="5.45658">
        <ele>1383.955078</ele>
        <time>2010-06-05T14:02:54Z</time>
      </trkpt>
      <trkpt lat="44.93169" lon="5.45666">
        <ele>1383.955078</ele>
        <time>2010-06-05T14:03:02Z</time>
      </trkpt>
      <trkpt lat="44.93157" lon="5.45679">
        <ele>1384.916504</ele>
        <time>2010-06-05T14:03:11Z</time>
      </trkpt>
      <trkpt lat="44.93145" lon="5.45694">
        <ele>1383.474365</ele>
        <time>2010-06-05T14:03:20Z</time>
      </trkpt>
      <trkpt lat="44.93134" lon="5.45707">
        <ele>1385.396973</ele>
        <time>2010-06-05T14:03:28Z</time>
      </trkpt>
      <trkpt lat="44.93127" lon="5.45715">
        <ele>1387.800293</ele>
        <time>2010-06-05T14:03:35Z</time>
      </trkpt>
      <trkpt lat="44.93116" lon="5.45726">
        <ele>1386.838867</ele>
        <time>2010-06-05T14:03:42Z</time>
      </trkpt>
      <trkpt lat="44.93109" lon="5.45746">
        <ele>1389.242432</ele>
        <time>2010-06-05T14:03:51Z</time>
      </trkpt>
      <trkpt lat="44.931" lon="5.45762">
        <ele>1389.242432</ele>
        <time>2010-06-05T14:03:59Z</time>
      </trkpt>
      <trkpt lat="44.93086" lon="5.45778">
        <ele>1390.684326</ele>
        <time>2010-06-05T14:04:08Z</time>
      </trkpt>
      <trkpt lat="44.93073" lon="5.45796">
        <ele>1391.165039</ele>
        <time>2010-06-05T14:04:17Z</time>
      </trkpt>
      <trkpt lat="44.93062" lon="5.45804">
        <ele>1392.126465</ele>
        <time>2010-06-05T14:04:23Z</time>
      </trkpt>
      <trkpt lat="44.93054" lon="5.45798">
        <ele>1392.126465</ele>
        <time>2010-06-05T14:04:29Z</time>
      </trkpt>
      <trkpt lat="44.93054" lon="5.45796">
        <ele>1392.607178</ele>
        <time>2010-06-05T14:04:34Z</time>
      </trkpt>
      <trkpt lat="44.93048" lon="5.45789">
        <ele>1394.049072</ele>
        <time>2010-06-05T14:04:51Z</time>
      </trkpt>
      <trkpt lat="44.93043" lon="5.45782">
        <ele>1399.336182</ele>
        <time>2010-06-05T14:05:14Z</time>
      </trkpt>
      <trkpt lat="44.93053" lon="5.4579">
        <ele>1395.010254</ele>
        <time>2010-06-05T14:08:49Z</time>
      </trkpt>
      <trkpt lat="44.93055" lon="5.458">
        <ele>1384.916504</ele>
        <time>2010-06-05T14:16:48Z</time>
      </trkpt>
      <trkpt lat="44.93055" lon="5.45791">
        <ele>1398.855469</ele>
        <time>2010-06-05T14:17:10Z</time>
      </trkpt>
      <trkpt lat="44.9305" lon="5.45787">
        <ele>1399.336182</ele>
        <time>2010-06-05T14:18:05Z</time>
      </trkpt>
      <trkpt lat="44.9305" lon="5.45789">
        <ele>1397.413574</ele>
        <time>2010-06-05T14:18:42Z</time>
      </trkpt>
      <trkpt lat="44.93054" lon="5.45791">
        <ele>1392.607178</ele>
        <time>2010-06-05T14:19:19Z</time>
      </trkpt>
      <trkpt lat="44.93054" lon="5.45798">
        <ele>1391.165039</ele>
        <time>2010-06-05T14:19:49Z</time>
      </trkpt>
      <trkpt lat="44.93061" lon="5.45804">
        <ele>1401.739502</ele>
        <time>2010-06-05T14:20:16Z</time>
      </trkpt>
      <trkpt lat="44.93059" lon="5.45803">
        <ele>1397.894287</ele>
        <time>2010-06-05T14:20:43Z</time>
      </trkpt>
      <trkpt lat="44.93057" lon="5.45802">
        <ele>1393.087646</ele>
        <time>2010-06-05T14:21:11Z</time>
      </trkpt>
      <trkpt lat="44.93053" lon="5.45808">
        <ele>1391.645752</ele>
        <time>2010-06-05T14:21:18Z</time>
      </trkpt>
      <trkpt lat="44.93047" lon="5.45812">
        <ele>1391.645752</ele>
        <time>2010-06-05T14:21:25Z</time>
      </trkpt>
      <trkpt lat="44.93035" lon="5.45813">
        <ele>1390.684326</ele>
        <time>2010-06-05T14:21:33Z</time>
      </trkpt>
      <trkpt lat="44.93024" lon="5.45817">
        <ele>1391.165039</ele>
        <time>2010-06-05T14:21:39Z</time>
      </trkpt>
      <trkpt lat="44.93012" lon="5.45824">
        <ele>1391.645752</ele>
        <time>2010-06-05T14:21:46Z</time>
      </trkpt>
      <trkpt lat="44.93001" lon="5.45833">
        <ele>1391.645752</ele>
        <time>2010-06-05T14:21:53Z</time>
      </trkpt>
      <trkpt lat="44.92993" lon="5.45849">
        <ele>1391.165039</ele>
        <time>2010-06-05T14:22:00Z</time>
      </trkpt>
      <trkpt lat="44.92995" lon="5.45866">
        <ele>1393.087646</ele>
        <time>2010-06-05T14:22:06Z</time>
      </trkpt>
      <trkpt lat="44.92997" lon="5.45884">
        <ele>1393.087646</ele>
        <time>2010-06-05T14:22:13Z</time>
      </trkpt>
      <trkpt lat="44.92994" lon="5.45899">
        <ele>1393.568359</ele>
        <time>2010-06-05T14:22:19Z</time>
      </trkpt>
      <trkpt lat="44.92993" lon="5.45921">
        <ele>1396.932861</ele>
        <time>2010-06-05T14:22:27Z</time>
      </trkpt>
      <trkpt lat="44.92999" lon="5.45935">
        <ele>1396.452393</ele>
        <time>2010-06-05T14:22:33Z</time>
      </trkpt>
      <trkpt lat="44.93003" lon="5.45952">
        <ele>1397.894287</ele>
        <time>2010-06-05T14:22:40Z</time>
      </trkpt>
      <trkpt lat="44.92997" lon="5.45968">
        <ele>1398.855469</ele>
        <time>2010-06-05T14:22:47Z</time>
      </trkpt>
      <trkpt lat="44.92986" lon="5.45978">
        <ele>1397.894287</ele>
        <time>2010-06-05T14:22:54Z</time>
      </trkpt>
      <trkpt lat="44.92973" lon="5.4599">
        <ele>1398.374756</ele>
        <time>2010-06-05T14:23:03Z</time>
      </trkpt>
      <trkpt lat="44.9296" lon="5.46001">
        <ele>1397.894287</ele>
        <time>2010-06-05T14:23:11Z</time>
      </trkpt>
      <trkpt lat="44.92948" lon="5.46015">
        <ele>1398.855469</ele>
        <time>2010-06-05T14:23:19Z</time>
      </trkpt>
      <trkpt lat="44.92944" lon="5.46032">
        <ele>1398.855469</ele>
        <time>2010-06-05T14:23:26Z</time>
      </trkpt>
      <trkpt lat="44.92947" lon="5.46048">
        <ele>1399.336182</ele>
        <time>2010-06-05T14:23:33Z</time>
      </trkpt>
      <trkpt lat="44.92956" lon="5.46071">
        <ele>1401.739502</ele>
        <time>2010-06-05T14:23:42Z</time>
      </trkpt>
      <trkpt lat="44.92963" lon="5.46092">
        <ele>1405.104248</ele>
        <time>2010-06-05T14:23:49Z</time>
      </trkpt>
      <trkpt lat="44.92965" lon="5.46126">
        <ele>1407.988281</ele>
        <time>2010-06-05T14:23:59Z</time>
      </trkpt>
      <trkpt lat="44.92964" lon="5.46153">
        <ele>1407.507568</ele>
        <time>2010-06-05T14:24:07Z</time>
      </trkpt>
      <trkpt lat="44.92955" lon="5.46171">
        <ele>1407.026856</ele>
        <time>2010-06-05T14:24:13Z</time>
      </trkpt>
      <trkpt lat="44.92941" lon="5.46182">
        <ele>1407.988281</ele>
        <time>2010-06-05T14:24:20Z</time>
      </trkpt>
      <trkpt lat="44.92929" lon="5.46202">
        <ele>1407.507568</ele>
        <time>2010-06-05T14:24:27Z</time>
      </trkpt>
      <trkpt lat="44.92917" lon="5.46229">
        <ele>1409.910644</ele>
        <time>2010-06-05T14:24:34Z</time>
      </trkpt>
      <trkpt lat="44.92909" lon="5.46259">
        <ele>1408.46875</ele>
        <time>2010-06-05T14:24:40Z</time>
      </trkpt>
      <trkpt lat="44.92899" lon="5.46277">
        <ele>1409.910644</ele>
        <time>2010-06-05T14:24:44Z</time>
      </trkpt>
      <trkpt lat="44.92892" lon="5.46284">
        <ele>1409.910644</ele>
        <time>2010-06-05T14:24:46Z</time>
      </trkpt>
      <trkpt lat="44.92879" lon="5.46301">
        <ele>1409.910644</ele>
        <time>2010-06-05T14:24:50Z</time>
      </trkpt>
      <trkpt lat="44.92862" lon="5.4631">
        <ele>1412.313965</ele>
        <time>2010-06-05T14:24:55Z</time>
      </trkpt>
      <trkpt lat="44.92856" lon="5.46301">
        <ele>1412.794678</ele>
        <time>2010-06-05T14:24:58Z</time>
      </trkpt>
      <trkpt lat="44.92856" lon="5.46288">
        <ele>1411.833496</ele>
        <time>2010-06-05T14:25:02Z</time>
      </trkpt>
      <trkpt lat="44.92859" lon="5.46262">
        <ele>1410.87207</ele>
        <time>2010-06-05T14:25:09Z</time>
      </trkpt>
      <trkpt lat="44.92862" lon="5.46235">
        <ele>1411.833496</ele>
        <time>2010-06-05T14:25:16Z</time>
      </trkpt>
      <trkpt lat="44.92872" lon="5.46197">
        <ele>1414.236572</ele>
        <time>2010-06-05T14:25:26Z</time>
      </trkpt>
      <trkpt lat="44.92881" lon="5.46162">
        <ele>1415.678711</ele>
        <time>2010-06-05T14:25:35Z</time>
      </trkpt>
      <trkpt lat="44.92882" lon="5.46137">
        <ele>1416.15918</ele>
        <time>2010-06-05T14:25:41Z</time>
      </trkpt>
      <trkpt lat="44.92879" lon="5.46112">
        <ele>1415.678711</ele>
        <time>2010-06-05T14:25:47Z</time>
      </trkpt>
      <trkpt lat="44.92876" lon="5.46084">
        <ele>1417.120606</ele>
        <time>2010-06-05T14:25:53Z</time>
      </trkpt>
      <trkpt lat="44.92866" lon="5.46071">
        <ele>1418.081787</ele>
        <time>2010-06-05T14:25:58Z</time>
      </trkpt>
      <trkpt lat="44.92855" lon="5.46079">
        <ele>1417.120606</ele>
        <time>2010-06-05T14:26:02Z</time>
      </trkpt>
      <trkpt lat="44.92845" lon="5.46099">
        <ele>1416.639893</ele>
        <time>2010-06-05T14:26:08Z</time>
      </trkpt>
      <trkpt lat="44.92832" lon="5.46109">
        <ele>1416.639893</ele>
        <time>2010-06-05T14:26:15Z</time>
      </trkpt>
      <trkpt lat="44.92818" lon="5.46114">
        <ele>1416.15918</ele>
        <time>2010-06-05T14:26:21Z</time>
      </trkpt>
      <trkpt lat="44.92802" lon="5.46131">
        <ele>1416.15918</ele>
        <time>2010-06-05T14:26:28Z</time>
      </trkpt>
      <trkpt lat="44.92798" lon="5.46155">
        <ele>1417.120606</ele>
        <time>2010-06-05T14:26:34Z</time>
      </trkpt>
      <trkpt lat="44.92794" lon="5.46185">
        <ele>1418.081787</ele>
        <time>2010-06-05T14:26:42Z</time>
      </trkpt>
      <trkpt lat="44.92786" lon="5.46211">
        <ele>1417.601074</ele>
        <time>2010-06-05T14:26:50Z</time>
      </trkpt>
      <trkpt lat="44.92784" lon="5.46222">
        <ele>1418.5625</ele>
        <time>2010-06-05T14:26:55Z</time>
      </trkpt>
      <trkpt lat="44.92785" lon="5.46223">
        <ele>1417.601074</ele>
        <time>2010-06-05T14:27:09Z</time>
      </trkpt>
      <trkpt lat="44.92783" lon="5.46226">
        <ele>1414.717285</ele>
        <time>2010-06-05T14:27:51Z</time>
      </trkpt>
      <trkpt lat="44.92777" lon="5.46231">
        <ele>1414.717285</ele>
        <time>2010-06-05T14:27:59Z</time>
      </trkpt>
      <trkpt lat="44.9278" lon="5.46232">
        <ele>1417.601074</ele>
        <time>2010-06-05T14:28:25Z</time>
      </trkpt>
      <trkpt lat="44.92778" lon="5.46236">
        <ele>1417.120606</ele>
        <time>2010-06-05T14:28:32Z</time>
      </trkpt>
      <trkpt lat="44.92776" lon="5.46241">
        <ele>1418.5625</ele>
        <time>2010-06-05T14:28:36Z</time>
      </trkpt>
      <trkpt lat="44.92765" lon="5.46251">
        <ele>1419.043213</ele>
        <time>2010-06-05T14:28:44Z</time>
      </trkpt>
      <trkpt lat="44.92763" lon="5.46252">
        <ele>1419.043213</ele>
        <time>2010-06-05T14:28:50Z</time>
      </trkpt>
      <trkpt lat="44.92764" lon="5.46251">
        <ele>1419.523926</ele>
        <time>2010-06-05T14:28:55Z</time>
      </trkpt>
      <trkpt lat="44.92755" lon="5.46245">
        <ele>1418.081787</ele>
        <time>2010-06-05T14:29:00Z</time>
      </trkpt>
      <trkpt lat="44.92744" lon="5.46233">
        <ele>1416.639893</ele>
        <time>2010-06-05T14:29:05Z</time>
      </trkpt>
      <trkpt lat="44.92742" lon="5.46229">
        <ele>1416.15918</ele>
        <time>2010-06-05T14:29:06Z</time>
      </trkpt>
      <trkpt lat="44.92734" lon="5.46194">
        <ele>1413.755859</ele>
        <time>2010-06-05T14:29:11Z</time>
      </trkpt>
      <trkpt lat="44.92729" lon="5.46175">
        <ele>1412.794678</ele>
        <time>2010-06-05T14:29:13Z</time>
      </trkpt>
      <trkpt lat="44.9271" lon="5.46145">
        <ele>1410.391357</ele>
        <time>2010-06-05T14:29:17Z</time>
      </trkpt>
      <trkpt lat="44.92703" lon="5.46141">
        <ele>1409.430176</ele>
        <time>2010-06-05T14:29:18Z</time>
      </trkpt>
      <trkpt lat="44.92681" lon="5.46128">
        <ele>1407.026856</ele>
        <time>2010-06-05T14:29:21Z</time>
      </trkpt>
      <trkpt lat="44.92662" lon="5.46098">
        <ele>1402.700684</ele>
        <time>2010-06-05T14:29:25Z</time>
      </trkpt>
      <trkpt lat="44.92659" lon="5.46089">
        <ele>1401.258789</ele>
        <time>2010-06-05T14:29:26Z</time>
      </trkpt>
      <trkpt lat="44.92656" lon="5.46077">
        <ele>1399.816894</ele>
        <time>2010-06-05T14:29:28Z</time>
      </trkpt>
      <trkpt lat="44.92645" lon="5.4608">
        <ele>1397.413574</ele>
        <time>2010-06-05T14:29:32Z</time>
      </trkpt>
      <trkpt lat="44.92647" lon="5.46104">
        <ele>1395.490967</ele>
        <time>2010-06-05T14:29:35Z</time>
      </trkpt>
      <trkpt lat="44.92653" lon="5.46137">
        <ele>1392.607178</ele>
        <time>2010-06-05T14:29:38Z</time>
      </trkpt>
      <trkpt lat="44.92644" lon="5.46178">
        <ele>1389.723144</ele>
        <time>2010-06-05T14:29:42Z</time>
      </trkpt>
      <trkpt lat="44.92633" lon="5.46191">
        <ele>1387.31958</ele>
        <time>2010-06-05T14:29:44Z</time>
      </trkpt>
      <trkpt lat="44.92616" lon="5.46204">
        <ele>1386.838867</ele>
        <time>2010-06-05T14:29:49Z</time>
      </trkpt>
      <trkpt lat="44.92606" lon="5.46213">
        <ele>1388.28125</ele>
        <time>2010-06-05T14:29:56Z</time>
      </trkpt>
      <trkpt lat="44.92605" lon="5.46214">
        <ele>1389.242432</ele>
        <time>2010-06-05T14:30:00Z</time>
      </trkpt>
      <trkpt lat="44.92601" lon="5.46218">
        <ele>1396.932861</ele>
        <time>2010-06-05T14:30:25Z</time>
      </trkpt>
      <trkpt lat="44.92595" lon="5.46231">
        <ele>1397.413574</ele>
        <time>2010-06-05T14:30:28Z</time>
      </trkpt>
      <trkpt lat="44.92577" lon="5.46235">
        <ele>1395.97168</ele>
        <time>2010-06-05T14:30:33Z</time>
      </trkpt>
      <trkpt lat="44.92558" lon="5.46224">
        <ele>1393.087646</ele>
        <time>2010-06-05T14:30:38Z</time>
      </trkpt>
      <trkpt lat="44.92544" lon="5.46201">
        <ele>1392.126465</ele>
        <time>2010-06-05T14:30:43Z</time>
      </trkpt>
      <trkpt lat="44.92539" lon="5.46181">
        <ele>1390.684326</ele>
        <time>2010-06-05T14:30:46Z</time>
      </trkpt>
      <trkpt lat="44.92523" lon="5.46155">
        <ele>1388.761963</ele>
        <time>2010-06-05T14:30:51Z</time>
      </trkpt>
      <trkpt lat="44.92517" lon="5.46142">
        <ele>1387.800293</ele>
        <time>2010-06-05T14:30:54Z</time>
      </trkpt>
      <trkpt lat="44.92503" lon="5.46117">
        <ele>1387.800293</ele>
        <time>2010-06-05T14:31:00Z</time>
      </trkpt>
      <trkpt lat="44.92485" lon="5.46112">
        <ele>1387.800293</ele>
        <time>2010-06-05T14:31:05Z</time>
      </trkpt>
      <trkpt lat="44.92463" lon="5.461">
        <ele>1385.396973</ele>
        <time>2010-06-05T14:31:11Z</time>
      </trkpt>
      <trkpt lat="44.92444" lon="5.46095">
        <ele>1383.955078</ele>
        <time>2010-06-05T14:31:16Z</time>
      </trkpt>
      <trkpt lat="44.92422" lon="5.461">
        <ele>1381.551758</ele>
        <time>2010-06-05T14:31:20Z</time>
      </trkpt>
      <trkpt lat="44.92398" lon="5.46111">
        <ele>1378.667969</ele>
        <time>2010-06-05T14:31:23Z</time>
      </trkpt>
      <trkpt lat="44.92375" lon="5.46108">
        <ele>1377.226074</ele>
        <time>2010-06-05T14:31:26Z</time>
      </trkpt>
      <trkpt lat="44.92356" lon="5.46102">
        <ele>1375.303223</ele>
        <time>2010-06-05T14:31:29Z</time>
      </trkpt>
      <trkpt lat="44.92335" lon="5.46108">
        <ele>1374.822754</ele>
        <time>2010-06-05T14:31:32Z</time>
      </trkpt>
      <trkpt lat="44.92312" lon="5.46092">
        <ele>1373.861328</ele>
        <time>2010-06-05T14:31:37Z</time>
      </trkpt>
      <trkpt lat="44.92292" lon="5.46078">
        <ele>1371.938477</ele>
        <time>2010-06-05T14:31:41Z</time>
      </trkpt>
      <trkpt lat="44.92286" lon="5.46076">
        <ele>1371.457764</ele>
        <time>2010-06-05T14:31:42Z</time>
      </trkpt>
      <trkpt lat="44.92261" lon="5.4608">
        <ele>1370.496582</ele>
        <time>2010-06-05T14:31:46Z</time>
      </trkpt>
      <trkpt lat="44.92239" lon="5.46096">
        <ele>1369.5354</ele>
        <time>2010-06-05T14:31:51Z</time>
      </trkpt>
      <trkpt lat="44.92223" lon="5.46109">
        <ele>1371.457764</ele>
        <time>2010-06-05T14:31:55Z</time>
      </trkpt>
      <trkpt lat="44.92197" lon="5.46121">
        <ele>1377.706543</ele>
        <time>2010-06-05T14:32:02Z</time>
      </trkpt>
      <trkpt lat="44.92174" lon="5.46136">
        <ele>1380.109863</ele>
        <time>2010-06-05T14:32:09Z</time>
      </trkpt>
      <trkpt lat="44.92166" lon="5.46139">
        <ele>1380.590576</ele>
        <time>2010-06-05T14:32:11Z</time>
      </trkpt>
      <trkpt lat="44.92148" lon="5.46131">
        <ele>1378.187256</ele>
        <time>2010-06-05T14:32:15Z</time>
      </trkpt>
      <trkpt lat="44.92137" lon="5.46132">
        <ele>1375.783936</ele>
        <time>2010-06-05T14:32:17Z</time>
      </trkpt>
      <trkpt lat="44.92129" lon="5.46146">
        <ele>1375.303223</ele>
        <time>2010-06-05T14:32:19Z</time>
      </trkpt>
      <trkpt lat="44.92125" lon="5.46162">
        <ele>1373.861328</ele>
        <time>2010-06-05T14:32:21Z</time>
      </trkpt>
      <trkpt lat="44.92103" lon="5.46213">
        <ele>1372.419434</ele>
        <time>2010-06-05T14:32:28Z</time>
      </trkpt>
      <trkpt lat="44.92084" lon="5.46263">
        <ele>1371.938477</ele>
        <time>2010-06-05T14:32:35Z</time>
      </trkpt>
      <trkpt lat="44.92058" lon="5.46308">
        <ele>1372.419434</ele>
        <time>2010-06-05T14:32:42Z</time>
      </trkpt>
      <trkpt lat="44.9205" lon="5.46318">
        <ele>1372.419434</ele>
        <time>2010-06-05T14:32:44Z</time>
      </trkpt>
      <trkpt lat="44.9203" lon="5.46326">
        <ele>1371.457764</ele>
        <time>2010-06-05T14:32:48Z</time>
      </trkpt>
      <trkpt lat="44.92019" lon="5.46313">
        <ele>1372.900146</ele>
        <time>2010-06-05T14:32:51Z</time>
      </trkpt>
      <trkpt lat="44.92" lon="5.46296">
        <ele>1372.900146</ele>
        <time>2010-06-05T14:32:56Z</time>
      </trkpt>
      <trkpt lat="44.91991" lon="5.46299">
        <ele>1373.861328</ele>
        <time>2010-06-05T14:32:58Z</time>
      </trkpt>
      <trkpt lat="44.91975" lon="5.46311">
        <ele>1375.303223</ele>
        <time>2010-06-05T14:33:04Z</time>
      </trkpt>
      <trkpt lat="44.91954" lon="5.46324">
        <ele>1373.861328</ele>
        <time>2010-06-05T14:33:12Z</time>
      </trkpt>
      <trkpt lat="44.91935" lon="5.46332">
        <ele>1373.380859</ele>
        <time>2010-06-05T14:33:18Z</time>
      </trkpt>
      <trkpt lat="44.91917" lon="5.46336">
        <ele>1374.342041</ele>
        <time>2010-06-05T14:33:24Z</time>
      </trkpt>
      <trkpt lat="44.91901" lon="5.46349">
        <ele>1373.861328</ele>
        <time>2010-06-05T14:33:30Z</time>
      </trkpt>
      <trkpt lat="44.91879" lon="5.46369">
        <ele>1372.419434</ele>
        <time>2010-06-05T14:33:35Z</time>
      </trkpt>
      <trkpt lat="44.91873" lon="5.46374">
        <ele>1371.938477</ele>
        <time>2010-06-05T14:33:36Z</time>
      </trkpt>
      <trkpt lat="44.91852" lon="5.46387">
        <ele>1371.938477</ele>
        <time>2010-06-05T14:33:40Z</time>
      </trkpt>
      <trkpt lat="44.91828" lon="5.464">
        <ele>1372.900146</ele>
        <time>2010-06-05T14:33:47Z</time>
      </trkpt>
      <trkpt lat="44.91812" lon="5.46417">
        <ele>1372.900146</ele>
        <time>2010-06-05T14:33:53Z</time>
      </trkpt>
      <trkpt lat="44.91793" lon="5.46453">
        <ele>1375.783936</ele>
        <time>2010-06-05T14:34:01Z</time>
      </trkpt>
      <trkpt lat="44.91779" lon="5.46477">
        <ele>1378.667969</ele>
        <time>2010-06-05T14:34:07Z</time>
      </trkpt>
      <trkpt lat="44.91766" lon="5.46492">
        <ele>1381.071289</ele>
        <time>2010-06-05T14:34:13Z</time>
      </trkpt>
      <trkpt lat="44.9175" lon="5.46499">
        <ele>1382.513184</ele>
        <time>2010-06-05T14:34:19Z</time>
      </trkpt>
      <trkpt lat="44.91731" lon="5.46503">
        <ele>1379.148438</ele>
        <time>2010-06-05T14:34:24Z</time>
      </trkpt>
      <trkpt lat="44.9172" lon="5.46497">
        <ele>1376.745361</ele>
        <time>2010-06-05T14:34:28Z</time>
      </trkpt>
      <trkpt lat="44.91718" lon="5.46493">
        <ele>1375.783936</ele>
        <time>2010-06-05T14:34:30Z</time>
      </trkpt>
      <trkpt lat="44.91721" lon="5.46473">
        <ele>1370.977295</ele>
        <time>2010-06-05T14:34:36Z</time>
      </trkpt>
      <trkpt lat="44.91721" lon="5.46464">
        <ele>1369.054688</ele>
        <time>2010-06-05T14:34:39Z</time>
      </trkpt>
      <trkpt lat="44.91725" lon="5.46451">
        <ele>1367.13208</ele>
        <time>2010-06-05T14:34:46Z</time>
      </trkpt>
      <trkpt lat="44.91727" lon="5.46424">
        <ele>1367.612549</ele>
        <time>2010-06-05T14:34:54Z</time>
      </trkpt>
      <trkpt lat="44.91727" lon="5.46402">
        <ele>1367.612549</ele>
        <time>2010-06-05T14:34:59Z</time>
      </trkpt>
      <trkpt lat="44.91722" lon="5.46383">
        <ele>1370.015869</ele>
        <time>2010-06-05T14:35:04Z</time>
      </trkpt>
      <trkpt lat="44.91708" lon="5.46376">
        <ele>1371.938477</ele>
        <time>2010-06-05T14:35:09Z</time>
      </trkpt>
      <trkpt lat="44.91694" lon="5.46382">
        <ele>1372.900146</ele>
        <time>2010-06-05T14:35:15Z</time>
      </trkpt>
      <trkpt lat="44.91685" lon="5.4639">
        <ele>1375.303223</ele>
        <time>2010-06-05T14:35:21Z</time>
      </trkpt>
      <trkpt lat="44.91673" lon="5.46404">
        <ele>1374.822754</ele>
        <time>2010-06-05T14:35:29Z</time>
      </trkpt>
      <trkpt lat="44.91657" lon="5.46428">
        <ele>1372.900146</ele>
        <time>2010-06-05T14:35:37Z</time>
      </trkpt>
      <trkpt lat="44.91636" lon="5.46456">
        <ele>1371.457764</ele>
        <time>2010-06-05T14:35:45Z</time>
      </trkpt>
      <trkpt lat="44.91622" lon="5.46471">
        <ele>1370.015869</ele>
        <time>2010-06-05T14:35:49Z</time>
      </trkpt>
      <trkpt lat="44.91605" lon="5.46483">
        <ele>1369.5354</ele>
        <time>2010-06-05T14:35:53Z</time>
      </trkpt>
      <trkpt lat="44.91569" lon="5.46497">
        <ele>1368.573975</ele>
        <time>2010-06-05T14:36:02Z</time>
      </trkpt>
      <trkpt lat="44.91547" lon="5.46497">
        <ele>1368.573975</ele>
        <time>2010-06-05T14:36:09Z</time>
      </trkpt>
      <trkpt lat="44.91529" lon="5.46485">
        <ele>1369.5354</ele>
        <time>2010-06-05T14:36:15Z</time>
      </trkpt>
      <trkpt lat="44.91512" lon="5.46471">
        <ele>1370.015869</ele>
        <time>2010-06-05T14:36:21Z</time>
      </trkpt>
      <trkpt lat="44.91499" lon="5.46475">
        <ele>1370.015869</ele>
        <time>2010-06-05T14:36:25Z</time>
      </trkpt>
      <trkpt lat="44.91482" lon="5.46486">
        <ele>1370.977295</ele>
        <time>2010-06-05T14:36:31Z</time>
      </trkpt>
      <trkpt lat="44.91467" lon="5.46505">
        <ele>1371.457764</ele>
        <time>2010-06-05T14:36:38Z</time>
      </trkpt>
      <trkpt lat="44.91456" lon="5.46524">
        <ele>1370.496582</ele>
        <time>2010-06-05T14:36:44Z</time>
      </trkpt>
      <trkpt lat="44.91444" lon="5.46556">
        <ele>1369.5354</ele>
        <time>2010-06-05T14:36:53Z</time>
      </trkpt>
      <trkpt lat="44.9143" lon="5.46579">
        <ele>1370.977295</ele>
        <time>2010-06-05T14:37:00Z</time>
      </trkpt>
      <trkpt lat="44.9141" lon="5.466">
        <ele>1371.938477</ele>
        <time>2010-06-05T14:37:08Z</time>
      </trkpt>
      <trkpt lat="44.91393" lon="5.46599">
        <ele>1372.419434</ele>
        <time>2010-06-05T14:37:14Z</time>
      </trkpt>
      <trkpt lat="44.91366" lon="5.46589">
        <ele>1372.419434</ele>
        <time>2010-06-05T14:37:23Z</time>
      </trkpt>
      <trkpt lat="44.91348" lon="5.46579">
        <ele>1373.861328</ele>
        <time>2010-06-05T14:37:30Z</time>
      </trkpt>
      <trkpt lat="44.91331" lon="5.46587">
        <ele>1374.342041</ele>
        <time>2010-06-05T14:37:36Z</time>
      </trkpt>
      <trkpt lat="44.91312" lon="5.46593">
        <ele>1374.342041</ele>
        <time>2010-06-05T14:37:42Z</time>
      </trkpt>
      <trkpt lat="44.91289" lon="5.46585">
        <ele>1374.822754</ele>
        <time>2010-06-05T14:37:48Z</time>
      </trkpt>
      <trkpt lat="44.91272" lon="5.46571">
        <ele>1375.303223</ele>
        <time>2010-06-05T14:37:53Z</time>
      </trkpt>
      <trkpt lat="44.91264" lon="5.46561">
        <ele>1375.303223</ele>
        <time>2010-06-05T14:37:55Z</time>
      </trkpt>
      <trkpt lat="44.9125" lon="5.46552">
        <ele>1375.783936</ele>
        <time>2010-06-05T14:37:59Z</time>
      </trkpt>
      <trkpt lat="44.91225" lon="5.46556">
        <ele>1375.303223</ele>
        <time>2010-06-05T14:38:06Z</time>
      </trkpt>
      <trkpt lat="44.91208" lon="5.4657">
        <ele>1375.783936</ele>
        <time>2010-06-05T14:38:12Z</time>
      </trkpt>
      <trkpt lat="44.91203" lon="5.46586">
        <ele>1375.303223</ele>
        <time>2010-06-05T14:38:17Z</time>
      </trkpt>
      <trkpt lat="44.91194" lon="5.46615">
        <ele>1375.303223</ele>
        <time>2010-06-05T14:38:25Z</time>
      </trkpt>
      <trkpt lat="44.91177" lon="5.46633">
        <ele>1376.745361</ele>
        <time>2010-06-05T14:38:33Z</time>
      </trkpt>
      <trkpt lat="44.9116" lon="5.46646">
        <ele>1378.667969</ele>
        <time>2010-06-05T14:38:40Z</time>
      </trkpt>
      <trkpt lat="44.91145" lon="5.46645">
        <ele>1378.187256</ele>
        <time>2010-06-05T14:38:46Z</time>
      </trkpt>
      <trkpt lat="44.91127" lon="5.46645">
        <ele>1378.187256</ele>
        <time>2010-06-05T14:38:53Z</time>
      </trkpt>
      <trkpt lat="44.9111" lon="5.4664">
        <ele>1378.667969</ele>
        <time>2010-06-05T14:38:59Z</time>
      </trkpt>
      <trkpt lat="44.91092" lon="5.46623">
        <ele>1379.148438</ele>
        <time>2010-06-05T14:39:08Z</time>
      </trkpt>
      <trkpt lat="44.91073" lon="5.46612">
        <ele>1380.590576</ele>
        <time>2010-06-05T14:39:15Z</time>
      </trkpt>
      <trkpt lat="44.91061" lon="5.46606">
        <ele>1380.590576</ele>
        <time>2010-06-05T14:39:20Z</time>
      </trkpt>
      <trkpt lat="44.91058" lon="5.46598">
        <ele>1381.551758</ele>
        <time>2010-06-05T14:39:25Z</time>
      </trkpt>
      <trkpt lat="44.91056" lon="5.46579">
        <ele>1383.955078</ele>
        <time>2010-06-05T14:39:32Z</time>
      </trkpt>
      <trkpt lat="44.91052" lon="5.46565">
        <ele>1385.877686</ele>
        <time>2010-06-05T14:39:37Z</time>
      </trkpt>
      <trkpt lat="44.91041" lon="5.46561">
        <ele>1388.28125</ele>
        <time>2010-06-05T14:39:42Z</time>
      </trkpt>
      <trkpt lat="44.91024" lon="5.46569">
        <ele>1390.684326</ele>
        <time>2010-06-05T14:39:50Z</time>
      </trkpt>
      <trkpt lat="44.91006" lon="5.46571">
        <ele>1390.203857</ele>
        <time>2010-06-05T14:39:58Z</time>
      </trkpt>
      <trkpt lat="44.90996" lon="5.46574">
        <ele>1389.242432</ele>
        <time>2010-06-05T14:40:04Z</time>
      </trkpt>
      <trkpt lat="44.90995" lon="5.46574">
        <ele>1389.242432</ele>
        <time>2010-06-05T14:40:05Z</time>
      </trkpt>
      <trkpt lat="44.90985" lon="5.46579">
        <ele>1389.723144</ele>
        <time>2010-06-05T14:40:13Z</time>
      </trkpt>
      <trkpt lat="44.90979" lon="5.46588">
        <ele>1389.242432</ele>
        <time>2010-06-05T14:40:20Z</time>
      </trkpt>
      <trkpt lat="44.90978" lon="5.46588">
        <ele>1389.242432</ele>
        <time>2010-06-05T14:40:27Z</time>
      </trkpt>
      <trkpt lat="44.90977" lon="5.46588">
        <ele>1390.203857</ele>
        <time>2010-06-05T14:40:54Z</time>
      </trkpt>
      <trkpt lat="44.90971" lon="5.46596">
        <ele>1389.723144</ele>
        <time>2010-06-05T14:41:00Z</time>
      </trkpt>
      <trkpt lat="44.90961" lon="5.46597">
        <ele>1389.242432</ele>
        <time>2010-06-05T14:41:05Z</time>
      </trkpt>
      <trkpt lat="44.90943" lon="5.46596">
        <ele>1388.761963</ele>
        <time>2010-06-05T14:41:14Z</time>
      </trkpt>
      <trkpt lat="44.90921" lon="5.46596">
        <ele>1390.684326</ele>
        <time>2010-06-05T14:41:24Z</time>
      </trkpt>
      <trkpt lat="44.90902" lon="5.46596">
        <ele>1391.645752</ele>
        <time>2010-06-05T14:41:33Z</time>
      </trkpt>
      <trkpt lat="44.90888" lon="5.46604">
        <ele>1392.126465</ele>
        <time>2010-06-05T14:41:40Z</time>
      </trkpt>
      <trkpt lat="44.90877" lon="5.46613">
        <ele>1392.126465</ele>
        <time>2010-06-05T14:41:47Z</time>
      </trkpt>
      <trkpt lat="44.90861" lon="5.46617">
        <ele>1392.607178</ele>
        <time>2010-06-05T14:41:55Z</time>
      </trkpt>
      <trkpt lat="44.90843" lon="5.46622">
        <ele>1393.087646</ele>
        <time>2010-06-05T14:42:03Z</time>
      </trkpt>
      <trkpt lat="44.90824" lon="5.46639">
        <ele>1393.568359</ele>
        <time>2010-06-05T14:42:14Z</time>
      </trkpt>
      <trkpt lat="44.90808" lon="5.46648">
        <ele>1394.529541</ele>
        <time>2010-06-05T14:42:22Z</time>
      </trkpt>
      <trkpt lat="44.90793" lon="5.46652">
        <ele>1395.490967</ele>
        <time>2010-06-05T14:42:30Z</time>
      </trkpt>
      <trkpt lat="44.90778" lon="5.46659">
        <ele>1395.97168</ele>
        <time>2010-06-05T14:42:39Z</time>
      </trkpt>
      <trkpt lat="44.90763" lon="5.46663">
        <ele>1395.97168</ele>
        <time>2010-06-05T14:42:47Z</time>
      </trkpt>
      <trkpt lat="44.90748" lon="5.4666">
        <ele>1396.452393</ele>
        <time>2010-06-05T14:42:55Z</time>
      </trkpt>
      <trkpt lat="44.90735" lon="5.46656">
        <ele>1395.010254</ele>
        <time>2010-06-05T14:43:03Z</time>
      </trkpt>
      <trkpt lat="44.90723" lon="5.4665">
        <ele>1394.049072</ele>
        <time>2010-06-05T14:43:10Z</time>
      </trkpt>
      <trkpt lat="44.90708" lon="5.46632">
        <ele>1396.452393</ele>
        <time>2010-06-05T14:43:18Z</time>
      </trkpt>
      <trkpt lat="44.90694" lon="5.46616">
        <ele>1396.452393</ele>
        <time>2010-06-05T14:43:26Z</time>
      </trkpt>
      <trkpt lat="44.90678" lon="5.46603">
        <ele>1403.181396</ele>
        <time>2010-06-05T14:43:33Z</time>
      </trkpt>
      <trkpt lat="44.90667" lon="5.46606">
        <ele>1403.662109</ele>
        <time>2010-06-05T14:43:39Z</time>
      </trkpt>
      <trkpt lat="44.90658" lon="5.46612">
        <ele>1404.623535</ele>
        <time>2010-06-05T14:43:44Z</time>
      </trkpt>
      <trkpt lat="44.90646" lon="5.46618">
        <ele>1407.507568</ele>
        <time>2010-06-05T14:43:50Z</time>
      </trkpt>
      <trkpt lat="44.90629" lon="5.46618">
        <ele>1409.430176</ele>
        <time>2010-06-05T14:43:57Z</time>
      </trkpt>
      <trkpt lat="44.90616" lon="5.46613">
        <ele>1410.87207</ele>
        <time>2010-06-05T14:44:04Z</time>
      </trkpt>
      <trkpt lat="44.90612" lon="5.46608">
        <ele>1408.949463</ele>
        <time>2010-06-05T14:44:09Z</time>
      </trkpt>
      <trkpt lat="44.90605" lon="5.46595">
        <ele>1408.46875</ele>
        <time>2010-06-05T14:44:15Z</time>
      </trkpt>
      <trkpt lat="44.90596" lon="5.46576">
        <ele>1406.546143</ele>
        <time>2010-06-05T14:44:23Z</time>
      </trkpt>
      <trkpt lat="44.90588" lon="5.4657">
        <ele>1406.06543</ele>
        <time>2010-06-05T14:44:28Z</time>
      </trkpt>
      <trkpt lat="44.90577" lon="5.46563">
        <ele>1408.46875</ele>
        <time>2010-06-05T14:44:35Z</time>
      </trkpt>
      <trkpt lat="44.90561" lon="5.46558">
        <ele>1411.833496</ele>
        <time>2010-06-05T14:44:43Z</time>
      </trkpt>
      <trkpt lat="44.90542" lon="5.46562">
        <ele>1412.794678</ele>
        <time>2010-06-05T14:44:52Z</time>
      </trkpt>
      <trkpt lat="44.90521" lon="5.46566">
        <ele>1415.678711</ele>
        <time>2010-06-05T14:45:02Z</time>
      </trkpt>
      <trkpt lat="44.90513" lon="5.46565">
        <ele>1417.120606</ele>
        <time>2010-06-05T14:45:08Z</time>
      </trkpt>
      <trkpt lat="44.90504" lon="5.46563">
        <ele>1416.639893</ele>
        <time>2010-06-05T14:45:16Z</time>
      </trkpt>
      <trkpt lat="44.90493" lon="5.46559">
        <ele>1416.15918</ele>
        <time>2010-06-05T14:45:24Z</time>
      </trkpt>
      <trkpt lat="44.90478" lon="5.46553">
        <ele>1416.639893</ele>
        <time>2010-06-05T14:45:32Z</time>
      </trkpt>
      <trkpt lat="44.90471" lon="5.46551">
        <ele>1418.081787</ele>
        <time>2010-06-05T14:45:37Z</time>
      </trkpt>
      <trkpt lat="44.90465" lon="5.46551">
        <ele>1419.523926</ele>
        <time>2010-06-05T14:45:41Z</time>
      </trkpt>
      <trkpt lat="44.90452" lon="5.46558">
        <ele>1420.485352</ele>
        <time>2010-06-05T14:45:49Z</time>
      </trkpt>
      <trkpt lat="44.90441" lon="5.46567">
        <ele>1420.485352</ele>
        <time>2010-06-05T14:45:56Z</time>
      </trkpt>
      <trkpt lat="44.90429" lon="5.46573">
        <ele>1420.485352</ele>
        <time>2010-06-05T14:46:05Z</time>
      </trkpt>
      <trkpt lat="44.90418" lon="5.46575">
        <ele>1419.043213</ele>
        <time>2010-06-05T14:46:13Z</time>
      </trkpt>
      <trkpt lat="44.9041" lon="5.46576">
        <ele>1418.5625</ele>
        <time>2010-06-05T14:46:20Z</time>
      </trkpt>
      <trkpt lat="44.90402" lon="5.46574">
        <ele>1418.081787</ele>
        <time>2010-06-05T14:46:27Z</time>
      </trkpt>
      <trkpt lat="44.90395" lon="5.46572">
        <ele>1417.120606</ele>
        <time>2010-06-05T14:46:32Z</time>
      </trkpt>
      <trkpt lat="44.90391" lon="5.4657">
        <ele>1415.678711</ele>
        <time>2010-06-05T14:46:35Z</time>
      </trkpt>
      <trkpt lat="44.90379" lon="5.46563">
        <ele>1415.197998</ele>
        <time>2010-06-05T14:46:43Z</time>
      </trkpt>
      <trkpt lat="44.90366" lon="5.46555">
        <ele>1414.717285</ele>
        <time>2010-06-05T14:46:50Z</time>
      </trkpt>
      <trkpt lat="44.90351" lon="5.46551">
        <ele>1415.197998</ele>
        <time>2010-06-05T14:46:58Z</time>
      </trkpt>
      <trkpt lat="44.90343" lon="5.46553">
        <ele>1415.678711</ele>
        <time>2010-06-05T14:47:04Z</time>
      </trkpt>
      <trkpt lat="44.90342" lon="5.46554">
        <ele>1415.197998</ele>
        <time>2010-06-05T14:47:05Z</time>
      </trkpt>
      <trkpt lat="44.90327" lon="5.46549">
        <ele>1422.407959</ele>
        <time>2010-06-05T14:47:14Z</time>
      </trkpt>
      <trkpt lat="44.90313" lon="5.46551">
        <ele>1425.291748</ele>
        <time>2010-06-05T14:47:22Z</time>
      </trkpt>
      <trkpt lat="44.90298" lon="5.46558">
        <ele>1425.291748</ele>
        <time>2010-06-05T14:47:31Z</time>
      </trkpt>
      <trkpt lat="44.9029" lon="5.4656">
        <ele>1425.291748</ele>
        <time>2010-06-05T14:47:37Z</time>
      </trkpt>
      <trkpt lat="44.90279" lon="5.46558">
        <ele>1425.772461</ele>
        <time>2010-06-05T14:47:46Z</time>
      </trkpt>
      <trkpt lat="44.90268" lon="5.46555">
        <ele>1426.253174</ele>
        <time>2010-06-05T14:47:54Z</time>
      </trkpt>
      <trkpt lat="44.90258" lon="5.46552">
        <ele>1425.772461</ele>
        <time>2010-06-05T14:48:01Z</time>
      </trkpt>
      <trkpt lat="44.90248" lon="5.46548">
        <ele>1426.733887</ele>
        <time>2010-06-05T14:48:08Z</time>
      </trkpt>
      <trkpt lat="44.90234" lon="5.46544">
        <ele>1428.175781</ele>
        <time>2010-06-05T14:48:16Z</time>
      </trkpt>
      <trkpt lat="44.90225" lon="5.46544">
        <ele>1430.098389</ele>
        <time>2010-06-05T14:48:23Z</time>
      </trkpt>
      <trkpt lat="44.90223" lon="5.46544">
        <ele>1430.579102</ele>
        <time>2010-06-05T14:48:25Z</time>
      </trkpt>
      <trkpt lat="44.90216" lon="5.46545">
        <ele>1432.020996</ele>
        <time>2010-06-05T14:48:32Z</time>
      </trkpt>
      <trkpt lat="44.902" lon="5.46543">
        <ele>1438.750488</ele>
        <time>2010-06-05T14:48:41Z</time>
      </trkpt>
      <trkpt lat="44.90184" lon="5.46539">
        <ele>1441.634277</ele>
        <time>2010-06-05T14:48:48Z</time>
      </trkpt>
      <trkpt lat="44.9018" lon="5.4654">
        <ele>1441.634277</ele>
        <time>2010-06-05T14:48:50Z</time>
      </trkpt>
      <trkpt lat="44.90175" lon="5.46544">
        <ele>1440.672852</ele>
        <time>2010-06-05T14:48:55Z</time>
      </trkpt>
      <trkpt lat="44.90168" lon="5.46551">
        <ele>1440.672852</ele>
        <time>2010-06-05T14:49:03Z</time>
      </trkpt>
      <trkpt lat="44.90158" lon="5.4656">
        <ele>1442.11499</ele>
        <time>2010-06-05T14:49:11Z</time>
      </trkpt>
      <trkpt lat="44.90146" lon="5.46567">
        <ele>1444.998779</ele>
        <time>2010-06-05T14:49:19Z</time>
      </trkpt>
      <trkpt lat="44.90132" lon="5.46567">
        <ele>1445.960205</ele>
        <time>2010-06-05T14:49:28Z</time>
      </trkpt>
      <trkpt lat="44.90118" lon="5.46562">
        <ele>1446.440918</ele>
        <time>2010-06-05T14:49:36Z</time>
      </trkpt>
      <trkpt lat="44.90116" lon="5.46561">
        <ele>1447.4021</ele>
        <time>2010-06-05T14:49:41Z</time>
      </trkpt>
      <trkpt lat="44.90116" lon="5.4656">
        <ele>1447.4021</ele>
        <time>2010-06-05T14:50:11Z</time>
      </trkpt>
      <trkpt lat="44.90105" lon="5.4655">
        <ele>1444.518066</ele>
        <time>2010-06-05T14:50:16Z</time>
      </trkpt>
      <trkpt lat="44.90094" lon="5.46544">
        <ele>1444.037598</ele>
        <time>2010-06-05T14:50:20Z</time>
      </trkpt>
      <trkpt lat="44.9008" lon="5.46536">
        <ele>1441.634277</ele>
        <time>2010-06-05T14:50:25Z</time>
      </trkpt>
      <trkpt lat="44.90055" lon="5.46531">
        <ele>1441.153564</ele>
        <time>2010-06-05T14:50:31Z</time>
      </trkpt>
      <trkpt lat="44.90044" lon="5.46527">
        <ele>1441.634277</ele>
        <time>2010-06-05T14:50:37Z</time>
      </trkpt>
      <trkpt lat="44.90043" lon="5.46527">
        <ele>1441.634277</ele>
        <time>2010-06-05T14:50:42Z</time>
      </trkpt>
      <trkpt lat="44.90038" lon="5.46525">
        <ele>1442.11499</ele>
        <time>2010-06-05T14:50:54Z</time>
      </trkpt>
      <trkpt lat="44.90033" lon="5.46522">
        <ele>1442.595703</ele>
        <time>2010-06-05T14:51:01Z</time>
      </trkpt>
      <trkpt lat="44.90028" lon="5.4652">
        <ele>1443.076172</ele>
        <time>2010-06-05T14:51:10Z</time>
      </trkpt>
      <trkpt lat="44.90019" lon="5.46514">
        <ele>1443.076172</ele>
        <time>2010-06-05T14:51:21Z</time>
      </trkpt>
      <trkpt lat="44.90021" lon="5.46515">
        <ele>1442.595703</ele>
        <time>2010-06-05T14:51:31Z</time>
      </trkpt>
      <trkpt lat="44.90022" lon="5.46516">
        <ele>1442.595703</ele>
        <time>2010-06-05T14:51:36Z</time>
      </trkpt>
      <trkpt lat="44.90032" lon="5.46522">
        <ele>1442.11499</ele>
        <time>2010-06-05T14:51:43Z</time>
      </trkpt>
      <trkpt lat="44.90046" lon="5.46529">
        <ele>1440.672852</ele>
        <time>2010-06-05T14:51:48Z</time>
      </trkpt>
      <trkpt lat="44.90067" lon="5.46534">
        <ele>1440.192383</ele>
        <time>2010-06-05T14:51:54Z</time>
      </trkpt>
      <trkpt lat="44.90079" lon="5.46537">
        <ele>1440.192383</ele>
        <time>2010-06-05T14:52:00Z</time>
      </trkpt>
      <trkpt lat="44.90089" lon="5.46541">
        <ele>1441.634277</ele>
        <time>2010-06-05T14:52:06Z</time>
      </trkpt>
      <trkpt lat="44.90099" lon="5.46548">
        <ele>1442.595703</ele>
        <time>2010-06-05T14:52:14Z</time>
      </trkpt>
      <trkpt lat="44.90105" lon="5.46552">
        <ele>1443.076172</ele>
        <time>2010-06-05T14:52:20Z</time>
      </trkpt>
      <trkpt lat="44.9011" lon="5.46556">
        <ele>1444.037598</ele>
        <time>2010-06-05T14:52:27Z</time>
      </trkpt>
      <trkpt lat="44.90114" lon="5.4656">
        <ele>1447.4021</ele>
        <time>2010-06-05T14:52:37Z</time>
      </trkpt>
      <trkpt lat="44.90113" lon="5.46562">
        <ele>1447.4021</ele>
        <time>2010-06-05T14:52:46Z</time>
      </trkpt>
      <trkpt lat="44.90112" lon="5.46561">
        <ele>1447.4021</ele>
        <time>2010-06-05T14:52:51Z</time>
      </trkpt>
      <trkpt lat="44.9011" lon="5.4656">
        <ele>1447.4021</ele>
        <time>2010-06-05T14:52:58Z</time>
      </trkpt>
      <trkpt lat="44.90113" lon="5.46559">
        <ele>1447.882812</ele>
        <time>2010-06-05T14:53:12Z</time>
      </trkpt>
      <trkpt lat="44.90113" lon="5.46559">
        <ele>1447.882812</ele>
        <time>2010-06-05T14:53:25Z</time>
      </trkpt>
      <trkpt lat="44.90111" lon="5.46564">
        <ele>1446.440918</ele>
        <time>2010-06-05T14:53:49Z</time>
      </trkpt>
      <trkpt lat="44.90109" lon="5.46563">
        <ele>1448.363281</ele>
        <time>2010-06-05T14:53:56Z</time>
      </trkpt>
      <trkpt lat="44.90101" lon="5.46565">
        <ele>1447.4021</ele>
        <time>2010-06-05T14:54:03Z</time>
      </trkpt>
      <trkpt lat="44.90091" lon="5.46565">
        <ele>1447.882812</ele>
        <time>2010-06-05T14:54:11Z</time>
      </trkpt>
      <trkpt lat="44.90081" lon="5.46569">
        <ele>1448.843994</ele>
        <time>2010-06-05T14:54:19Z</time>
      </trkpt>
      <trkpt lat="44.90076" lon="5.4658">
        <ele>1450.286133</ele>
        <time>2010-06-05T14:54:27Z</time>
      </trkpt>
      <trkpt lat="44.90074" lon="5.46595">
        <ele>1452.20874</ele>
        <time>2010-06-05T14:54:37Z</time>
      </trkpt>
      <trkpt lat="44.90072" lon="5.46609">
        <ele>1453.650879</ele>
        <time>2010-06-05T14:54:46Z</time>
      </trkpt>
      <trkpt lat="44.90067" lon="5.46621">
        <ele>1454.131592</ele>
        <time>2010-06-05T14:54:55Z</time>
      </trkpt>
      <trkpt lat="44.90067" lon="5.46622">
        <ele>1454.612061</ele>
        <time>2010-06-05T14:55:13Z</time>
      </trkpt>
      <trkpt lat="44.90065" lon="5.46626">
        <ele>1452.20874</ele>
        <time>2010-06-05T14:55:38Z</time>
      </trkpt>
      <trkpt lat="44.90058" lon="5.4664">
        <ele>1453.170166</ele>
        <time>2010-06-05T14:55:47Z</time>
      </trkpt>
      <trkpt lat="44.90053" lon="5.46655">
        <ele>1455.092773</ele>
        <time>2010-06-05T14:55:55Z</time>
      </trkpt>
      <trkpt lat="44.90049" lon="5.4667">
        <ele>1456.534668</ele>
        <time>2010-06-05T14:56:03Z</time>
      </trkpt>
      <trkpt lat="44.90047" lon="5.46683">
        <ele>1458.457275</ele>
        <time>2010-06-05T14:56:10Z</time>
      </trkpt>
      <trkpt lat="44.90042" lon="5.46701">
        <ele>1459.418701</ele>
        <time>2010-06-05T14:56:19Z</time>
      </trkpt>
      <trkpt lat="44.90038" lon="5.46716">
        <ele>1460.379883</ele>
        <time>2010-06-05T14:56:27Z</time>
      </trkpt>
      <trkpt lat="44.90033" lon="5.46733">
        <ele>1461.341309</ele>
        <time>2010-06-05T14:56:35Z</time>
      </trkpt>
      <trkpt lat="44.90031" lon="5.46742">
        <ele>1462.783203</ele>
        <time>2010-06-05T14:56:42Z</time>
      </trkpt>
      <trkpt lat="44.9003" lon="5.46743">
        <ele>1465.667236</ele>
        <time>2010-06-05T14:56:52Z</time>
      </trkpt>
      <trkpt lat="44.9003" lon="5.46746">
        <ele>1466.628418</ele>
        <time>2010-06-05T14:56:59Z</time>
      </trkpt>
      <trkpt lat="44.90036" lon="5.46759">
        <ele>1466.147705</ele>
        <time>2010-06-05T14:57:06Z</time>
      </trkpt>
      <trkpt lat="44.90039" lon="5.46761">
        <ele>1466.147705</ele>
        <time>2010-06-05T14:57:08Z</time>
      </trkpt>
      <trkpt lat="44.90042" lon="5.46764">
        <ele>1465.667236</ele>
        <time>2010-06-05T14:57:11Z</time>
      </trkpt>
      <trkpt lat="44.90046" lon="5.46774">
        <ele>1465.667236</ele>
        <time>2010-06-05T14:57:17Z</time>
      </trkpt>
      <trkpt lat="44.90048" lon="5.46776">
        <ele>1466.147705</ele>
        <time>2010-06-05T14:57:18Z</time>
      </trkpt>
      <trkpt lat="44.90051" lon="5.46776">
        <ele>1466.628418</ele>
        <time>2010-06-05T14:57:23Z</time>
      </trkpt>
      <trkpt lat="44.90051" lon="5.46776">
        <ele>1466.147705</ele>
        <time>2010-06-05T14:57:42Z</time>
      </trkpt>
      <trkpt lat="44.90051" lon="5.46776">
        <ele>1465.667236</ele>
        <time>2010-06-05T14:57:44Z</time>
      </trkpt>
      <trkpt lat="44.90041" lon="5.46771">
        <ele>1465.186523</ele>
        <time>2010-06-05T14:57:49Z</time>
      </trkpt>
      <trkpt lat="44.90028" lon="5.46764">
        <ele>1465.667236</ele>
        <time>2010-06-05T14:57:55Z</time>
      </trkpt>
      <trkpt lat="44.90027" lon="5.46764">
        <ele>1465.667236</ele>
        <time>2010-06-05T14:57:56Z</time>
      </trkpt>
      <trkpt lat="44.90023" lon="5.46772">
        <ele>1466.147705</ele>
        <time>2010-06-05T14:58:02Z</time>
      </trkpt>
      <trkpt lat="44.9002" lon="5.46782">
        <ele>1466.628418</ele>
        <time>2010-06-05T14:58:09Z</time>
      </trkpt>
      <trkpt lat="44.90016" lon="5.46795">
        <ele>1466.628418</ele>
        <time>2010-06-05T14:58:15Z</time>
      </trkpt>
      <trkpt lat="44.9001" lon="5.46813">
        <ele>1467.109131</ele>
        <time>2010-06-05T14:58:22Z</time>
      </trkpt>
      <trkpt lat="44.89999" lon="5.46847">
        <ele>1468.070557</ele>
        <time>2010-06-05T14:58:34Z</time>
      </trkpt>
      <trkpt lat="44.89995" lon="5.46858">
        <ele>1468.070557</ele>
        <time>2010-06-05T14:58:40Z</time>
      </trkpt>
      <trkpt lat="44.89995" lon="5.46859">
        <ele>1469.512695</ele>
        <time>2010-06-05T14:59:01Z</time>
      </trkpt>
      <trkpt lat="44.8999" lon="5.46865">
        <ele>1469.031982</ele>
        <time>2010-06-05T14:59:29Z</time>
      </trkpt>
      <trkpt lat="44.89981" lon="5.46885">
        <ele>1469.512695</ele>
        <time>2010-06-05T14:59:34Z</time>
      </trkpt>
      <trkpt lat="44.89974" lon="5.46916">
        <ele>1469.993164</ele>
        <time>2010-06-05T14:59:39Z</time>
      </trkpt>
      <trkpt lat="44.89979" lon="5.46944">
        <ele>1469.993164</ele>
        <time>2010-06-05T14:59:43Z</time>
      </trkpt>
      <trkpt lat="44.89987" lon="5.46956">
        <ele>1469.993164</ele>
        <time>2010-06-05T14:59:45Z</time>
      </trkpt>
      <trkpt lat="44.9" lon="5.46992">
        <ele>1470.473877</ele>
        <time>2010-06-05T14:59:50Z</time>
      </trkpt>
      <trkpt lat="44.89997" lon="5.47035">
        <ele>1473.35791</ele>
        <time>2010-06-05T14:59:56Z</time>
      </trkpt>
      <trkpt lat="44.89989" lon="5.47057">
        <ele>1474.799805</ele>
        <time>2010-06-05T15:00:01Z</time>
      </trkpt>
      <trkpt lat="44.89973" lon="5.47075">
        <ele>1474.799805</ele>
        <time>2010-06-05T15:00:08Z</time>
      </trkpt>
      <trkpt lat="44.89958" lon="5.47092">
        <ele>1474.799805</ele>
        <time>2010-06-05T15:00:14Z</time>
      </trkpt>
      <trkpt lat="44.89945" lon="5.47102">
        <ele>1475.280273</ele>
        <time>2010-06-05T15:00:18Z</time>
      </trkpt>
      <trkpt lat="44.89936" lon="5.4711">
        <ele>1474.799805</ele>
        <time>2010-06-05T15:00:21Z</time>
      </trkpt>
      <trkpt lat="44.89928" lon="5.47135">
        <ele>1477.683594</ele>
        <time>2010-06-05T15:00:26Z</time>
      </trkpt>
      <trkpt lat="44.89922" lon="5.47142">
        <ele>1477.683594</ele>
        <time>2010-06-05T15:00:28Z</time>
      </trkpt>
      <trkpt lat="44.899" lon="5.47167">
        <ele>1478.164307</ele>
        <time>2010-06-05T15:00:36Z</time>
      </trkpt>
      <trkpt lat="44.89888" lon="5.47185">
        <ele>1480.086914</ele>
        <time>2010-06-05T15:00:41Z</time>
      </trkpt>
      <trkpt lat="44.89882" lon="5.47211">
        <ele>1481.528809</ele>
        <time>2010-06-05T15:00:47Z</time>
      </trkpt>
      <trkpt lat="44.89875" lon="5.47238">
        <ele>1484.413086</ele>
        <time>2010-06-05T15:00:53Z</time>
      </trkpt>
      <trkpt lat="44.89865" lon="5.47265">
        <ele>1485.854981</ele>
        <time>2010-06-05T15:00:59Z</time>
      </trkpt>
      <trkpt lat="44.89867" lon="5.47293">
        <ele>1485.854981</ele>
        <time>2010-06-05T15:01:05Z</time>
      </trkpt>
      <trkpt lat="44.89871" lon="5.47335">
        <ele>1484.893799</ele>
        <time>2010-06-05T15:01:14Z</time>
      </trkpt>
      <trkpt lat="44.89864" lon="5.47355">
        <ele>1484.893799</ele>
        <time>2010-06-05T15:01:19Z</time>
      </trkpt>
      <trkpt lat="44.8985" lon="5.47351">
        <ele>1483.932129</ele>
        <time>2010-06-05T15:01:24Z</time>
      </trkpt>
      <trkpt lat="44.89845" lon="5.47342">
        <ele>1483.451416</ele>
        <time>2010-06-05T15:01:26Z</time>
      </trkpt>
      <trkpt lat="44.8984" lon="5.47327">
        <ele>1482.009521</ele>
        <time>2010-06-05T15:01:29Z</time>
      </trkpt>
      <trkpt lat="44.89828" lon="5.47314">
        <ele>1482.009521</ele>
        <time>2010-06-05T15:01:33Z</time>
      </trkpt>
      <trkpt lat="44.89813" lon="5.47309">
        <ele>1481.04834</ele>
        <time>2010-06-05T15:01:37Z</time>
      </trkpt>
      <trkpt lat="44.89797" lon="5.47294">
        <ele>1480.567627</ele>
        <time>2010-06-05T15:01:42Z</time>
      </trkpt>
      <trkpt lat="44.89782" lon="5.47268">
        <ele>1480.567627</ele>
        <time>2010-06-05T15:01:48Z</time>
      </trkpt>
      <trkpt lat="44.89762" lon="5.47265">
        <ele>1481.528809</ele>
        <time>2010-06-05T15:01:53Z</time>
      </trkpt>
      <trkpt lat="44.89751" lon="5.47273">
        <ele>1482.009521</ele>
        <time>2010-06-05T15:01:56Z</time>
      </trkpt>
      <trkpt lat="44.89736" lon="5.47301">
        <ele>1482.970703</ele>
        <time>2010-06-05T15:02:02Z</time>
      </trkpt>
      <trkpt lat="44.89739" lon="5.47367">
        <ele>1483.932129</ele>
        <time>2010-06-05T15:02:13Z</time>
      </trkpt>
      <trkpt lat="44.89739" lon="5.47385">
        <ele>1484.893799</ele>
        <time>2010-06-05T15:02:16Z</time>
      </trkpt>
      <trkpt lat="44.89736" lon="5.47398">
        <ele>1485.854981</ele>
        <time>2010-06-05T15:02:18Z</time>
      </trkpt>
      <trkpt lat="44.89726" lon="5.47426">
        <ele>1487.777588</ele>
        <time>2010-06-05T15:02:24Z</time>
      </trkpt>
      <trkpt lat="44.89715" lon="5.47446">
        <ele>1487.296875</ele>
        <time>2010-06-05T15:02:30Z</time>
      </trkpt>
      <trkpt lat="44.89701" lon="5.47465">
        <ele>1488.258301</ele>
        <time>2010-06-05T15:02:39Z</time>
      </trkpt>
      <trkpt lat="44.89691" lon="5.47485">
        <ele>1489.219482</ele>
        <time>2010-06-05T15:02:47Z</time>
      </trkpt>
      <trkpt lat="44.89684" lon="5.47507">
        <ele>1489.700195</ele>
        <time>2010-06-05T15:02:55Z</time>
      </trkpt>
      <trkpt lat="44.89673" lon="5.47535">
        <ele>1491.14209</ele>
        <time>2010-06-05T15:03:05Z</time>
      </trkpt>
      <trkpt lat="44.89663" lon="5.47539">
        <ele>1491.622803</ele>
        <time>2010-06-05T15:03:11Z</time>
      </trkpt>
      <trkpt lat="44.89651" lon="5.47537">
        <ele>1491.622803</ele>
        <time>2010-06-05T15:03:18Z</time>
      </trkpt>
      <trkpt lat="44.89638" lon="5.47528">
        <ele>1492.103516</ele>
        <time>2010-06-05T15:03:26Z</time>
      </trkpt>
      <trkpt lat="44.89634" lon="5.47514">
        <ele>1492.584229</ele>
        <time>2010-06-05T15:03:31Z</time>
      </trkpt>
      <trkpt lat="44.89633" lon="5.47493">
        <ele>1493.54541</ele>
        <time>2010-06-05T15:03:38Z</time>
      </trkpt>
      <trkpt lat="44.89627" lon="5.47478">
        <ele>1494.506592</ele>
        <time>2010-06-05T15:03:45Z</time>
      </trkpt>
      <trkpt lat="44.8962" lon="5.47469">
        <ele>1494.506592</ele>
        <time>2010-06-05T15:03:52Z</time>
      </trkpt>
      <trkpt lat="44.8961" lon="5.47459">
        <ele>1494.987305</ele>
        <time>2010-06-05T15:03:58Z</time>
      </trkpt>
      <trkpt lat="44.89594" lon="5.47441">
        <ele>1494.987305</ele>
        <time>2010-06-05T15:04:07Z</time>
      </trkpt>
      <trkpt lat="44.89581" lon="5.47426">
        <ele>1494.987305</ele>
        <time>2010-06-05T15:04:16Z</time>
      </trkpt>
      <trkpt lat="44.89571" lon="5.47417">
        <ele>1496.429443</ele>
        <time>2010-06-05T15:04:22Z</time>
      </trkpt>
      <trkpt lat="44.89557" lon="5.47411">
        <ele>1498.351807</ele>
        <time>2010-06-05T15:04:30Z</time>
      </trkpt>
      <trkpt lat="44.89549" lon="5.47411">
        <ele>1499.793945</ele>
        <time>2010-06-05T15:04:36Z</time>
      </trkpt>
      <trkpt lat="44.89537" lon="5.47413">
        <ele>1500.274902</ele>
        <time>2010-06-05T15:04:44Z</time>
      </trkpt>
      <trkpt lat="44.89523" lon="5.47419">
        <ele>1501.236084</ele>
        <time>2010-06-05T15:04:53Z</time>
      </trkpt>
      <trkpt lat="44.89513" lon="5.47426">
        <ele>1501.716797</ele>
        <time>2010-06-05T15:05:00Z</time>
      </trkpt>
      <trkpt lat="44.89511" lon="5.47428">
        <ele>1501.716797</ele>
        <time>2010-06-05T15:05:06Z</time>
      </trkpt>
      <trkpt lat="44.89508" lon="5.47432">
        <ele>1501.716797</ele>
        <time>2010-06-05T15:05:11Z</time>
      </trkpt>
      <trkpt lat="44.89504" lon="5.47433">
        <ele>1502.197266</ele>
        <time>2010-06-05T15:05:18Z</time>
      </trkpt>
      <trkpt lat="44.89505" lon="5.47433">
        <ele>1503.158691</ele>
        <time>2010-06-05T15:10:09Z</time>
      </trkpt>
      <trkpt lat="44.89505" lon="5.47433">
        <ele>1504.600586</ele>
        <time>2010-06-05T15:10:32Z</time>
      </trkpt>
      <trkpt lat="44.89505" lon="5.47433">
        <ele>1503.158691</ele>
        <time>2010-06-05T15:10:38Z</time>
      </trkpt>
      <trkpt lat="44.89505" lon="5.47436">
        <ele>1502.677979</ele>
        <time>2010-06-05T15:10:40Z</time>
      </trkpt>
      <trkpt lat="44.895" lon="5.47448">
        <ele>1503.158691</ele>
        <time>2010-06-05T15:10:48Z</time>
      </trkpt>
      <trkpt lat="44.89494" lon="5.47463">
        <ele>1504.600586</ele>
        <time>2010-06-05T15:10:57Z</time>
      </trkpt>
      <trkpt lat="44.89487" lon="5.47474">
        <ele>1506.042481</ele>
        <time>2010-06-05T15:11:05Z</time>
      </trkpt>
      <trkpt lat="44.8948" lon="5.47489">
        <ele>1507.965332</ele>
        <time>2010-06-05T15:11:13Z</time>
      </trkpt>
      <trkpt lat="44.89473" lon="5.47505">
        <ele>1508.445801</ele>
        <time>2010-06-05T15:11:21Z</time>
      </trkpt>
      <trkpt lat="44.89465" lon="5.47517">
        <ele>1509.407227</ele>
        <time>2010-06-05T15:11:29Z</time>
      </trkpt>
      <trkpt lat="44.89454" lon="5.4752">
        <ele>1510.849121</ele>
        <time>2010-06-05T15:11:36Z</time>
      </trkpt>
      <trkpt lat="44.89441" lon="5.47513">
        <ele>1510.368408</ele>
        <time>2010-06-05T15:11:44Z</time>
      </trkpt>
      <trkpt lat="44.89425" lon="5.47514">
        <ele>1510.368408</ele>
        <time>2010-06-05T15:11:52Z</time>
      </trkpt>
      <trkpt lat="44.89406" lon="5.47515">
        <ele>1511.329834</ele>
        <time>2010-06-05T15:12:02Z</time>
      </trkpt>
      <trkpt lat="44.89394" lon="5.47502">
        <ele>1513.252441</ele>
        <time>2010-06-05T15:12:09Z</time>
      </trkpt>
      <trkpt lat="44.89386" lon="5.47479">
        <ele>1515.175049</ele>
        <time>2010-06-05T15:12:17Z</time>
      </trkpt>
      <trkpt lat="44.89379" lon="5.47442">
        <ele>1516.136475</ele>
        <time>2010-06-05T15:12:28Z</time>
      </trkpt>
      <trkpt lat="44.89375" lon="5.47411">
        <ele>1517.0979</ele>
        <time>2010-06-05T15:12:37Z</time>
      </trkpt>
      <trkpt lat="44.89372" lon="5.4737">
        <ele>1517.0979</ele>
        <time>2010-06-05T15:12:47Z</time>
      </trkpt>
      <trkpt lat="44.89367" lon="5.47334">
        <ele>1515.655762</ele>
        <time>2010-06-05T15:12:55Z</time>
      </trkpt>
      <trkpt lat="44.89364" lon="5.47315">
        <ele>1514.694336</ele>
        <time>2010-06-05T15:12:59Z</time>
      </trkpt>
      <trkpt lat="44.89363" lon="5.47272">
        <ele>1511.810547</ele>
        <time>2010-06-05T15:13:05Z</time>
      </trkpt>
      <trkpt lat="44.89363" lon="5.47255">
        <ele>1510.849121</ele>
        <time>2010-06-05T15:13:08Z</time>
      </trkpt>
      <trkpt lat="44.89362" lon="5.47248">
        <ele>1510.368408</ele>
        <time>2010-06-05T15:13:11Z</time>
      </trkpt>
      <trkpt lat="44.89362" lon="5.47248">
        <ele>1510.368408</ele>
        <time>2010-06-05T15:13:23Z</time>
      </trkpt>
      <trkpt lat="44.89361" lon="5.47247">
        <ele>1513.252441</ele>
        <time>2010-06-05T15:14:04Z</time>
      </trkpt>
      <trkpt lat="44.89359" lon="5.47244">
        <ele>1513.252441</ele>
        <time>2010-06-05T15:14:09Z</time>
      </trkpt>
      <trkpt lat="44.8936" lon="5.47245">
        <ele>1511.810547</ele>
        <time>2010-06-05T15:15:13Z</time>
      </trkpt>
      <trkpt lat="44.89362" lon="5.47224">
        <ele>1511.329834</ele>
        <time>2010-06-05T15:15:21Z</time>
      </trkpt>
      <trkpt lat="44.89365" lon="5.47189">
        <ele>1510.368408</ele>
        <time>2010-06-05T15:15:28Z</time>
      </trkpt>
      <trkpt lat="44.89373" lon="5.47139">
        <ele>1509.407227</ele>
        <time>2010-06-05T15:15:37Z</time>
      </trkpt>
      <trkpt lat="44.89375" lon="5.47132">
        <ele>1508.926514</ele>
        <time>2010-06-05T15:15:38Z</time>
      </trkpt>
      <trkpt lat="44.89377" lon="5.47087">
        <ele>1509.887695</ele>
        <time>2010-06-05T15:15:45Z</time>
      </trkpt>
      <trkpt lat="44.89378" lon="5.47054">
        <ele>1510.849121</ele>
        <time>2010-06-05T15:15:50Z</time>
      </trkpt>
      <trkpt lat="44.89367" lon="5.4702">
        <ele>1511.329834</ele>
        <time>2010-06-05T15:15:55Z</time>
      </trkpt>
      <trkpt lat="44.8936" lon="5.47008">
        <ele>1513.252441</ele>
        <time>2010-06-05T15:15:57Z</time>
      </trkpt>
      <trkpt lat="44.89353" lon="5.4697">
        <ele>1512.291016</ele>
        <time>2010-06-05T15:16:02Z</time>
      </trkpt>
      <trkpt lat="44.89348" lon="5.46955">
        <ele>1512.771729</ele>
        <time>2010-06-05T15:16:04Z</time>
      </trkpt>
      <trkpt lat="44.89328" lon="5.46929">
        <ele>1512.771729</ele>
        <time>2010-06-05T15:16:09Z</time>
      </trkpt>
      <trkpt lat="44.89319" lon="5.46934">
        <ele>1512.291016</ele>
        <time>2010-06-05T15:16:11Z</time>
      </trkpt>
      <trkpt lat="44.89313" lon="5.46942">
        <ele>1511.810547</ele>
        <time>2010-06-05T15:16:13Z</time>
      </trkpt>
      <trkpt lat="44.89307" lon="5.46955">
        <ele>1511.329834</ele>
        <time>2010-06-05T15:16:18Z</time>
      </trkpt>
      <trkpt lat="44.89307" lon="5.46956">
        <ele>1512.771729</ele>
        <time>2010-06-05T15:16:28Z</time>
      </trkpt>
      <trkpt lat="44.89307" lon="5.46958">
        <ele>1511.810547</ele>
        <time>2010-06-05T15:16:38Z</time>
      </trkpt>
      <trkpt lat="44.893" lon="5.46973">
        <ele>1510.849121</ele>
        <time>2010-06-05T15:16:44Z</time>
      </trkpt>
      <trkpt lat="44.89287" lon="5.46994">
        <ele>1508.445801</ele>
        <time>2010-06-05T15:16:50Z</time>
      </trkpt>
      <trkpt lat="44.89264" lon="5.47003">
        <ele>1507.484619</ele>
        <time>2010-06-05T15:16:56Z</time>
      </trkpt>
      <trkpt lat="44.89244" lon="5.47013">
        <ele>1506.042481</ele>
        <time>2010-06-05T15:17:01Z</time>
      </trkpt>
      <trkpt lat="44.89223" lon="5.47009">
        <ele>1506.042481</ele>
        <time>2010-06-05T15:17:06Z</time>
      </trkpt>
      <trkpt lat="44.89208" lon="5.46991">
        <ele>1505.562012</ele>
        <time>2010-06-05T15:17:10Z</time>
      </trkpt>
      <trkpt lat="44.89201" lon="5.46972">
        <ele>1505.081299</ele>
        <time>2010-06-05T15:17:13Z</time>
      </trkpt>
      <trkpt lat="44.89197" lon="5.4696">
        <ele>1504.600586</ele>
        <time>2010-06-05T15:17:15Z</time>
      </trkpt>
      <trkpt lat="44.89193" lon="5.46911">
        <ele>1505.081299</ele>
        <time>2010-06-05T15:17:22Z</time>
      </trkpt>
      <trkpt lat="44.89184" lon="5.46862">
        <ele>1507.484619</ele>
        <time>2010-06-05T15:17:29Z</time>
      </trkpt>
      <trkpt lat="44.89164" lon="5.46838">
        <ele>1510.849121</ele>
        <time>2010-06-05T15:17:34Z</time>
      </trkpt>
      <trkpt lat="44.89154" lon="5.46837">
        <ele>1511.810547</ele>
        <time>2010-06-05T15:17:36Z</time>
      </trkpt>
      <trkpt lat="44.8913" lon="5.4684">
        <ele>1510.849121</ele>
        <time>2010-06-05T15:17:41Z</time>
      </trkpt>
      <trkpt lat="44.89115" lon="5.46824">
        <ele>1510.368408</ele>
        <time>2010-06-05T15:17:45Z</time>
      </trkpt>
      <trkpt lat="44.89113" lon="5.46817">
        <ele>1510.368408</ele>
        <time>2010-06-05T15:17:46Z</time>
      </trkpt>
      <trkpt lat="44.89106" lon="5.46791">
        <ele>1509.887695</ele>
        <time>2010-06-05T15:17:50Z</time>
      </trkpt>
      <trkpt lat="44.89092" lon="5.46773">
        <ele>1509.407227</ele>
        <time>2010-06-05T15:17:54Z</time>
      </trkpt>
      <trkpt lat="44.89075" lon="5.46744">
        <ele>1507.484619</ele>
        <time>2010-06-05T15:18:00Z</time>
      </trkpt>
      <trkpt lat="44.89072" lon="5.46731">
        <ele>1507.003906</ele>
        <time>2010-06-05T15:18:02Z</time>
      </trkpt>
      <trkpt lat="44.89057" lon="5.4668">
        <ele>1505.562012</ele>
        <time>2010-06-05T15:18:10Z</time>
      </trkpt>
      <trkpt lat="44.89042" lon="5.46627">
        <ele>1507.484619</ele>
        <time>2010-06-05T15:18:18Z</time>
      </trkpt>
      <trkpt lat="44.89035" lon="5.46608">
        <ele>1510.368408</ele>
        <time>2010-06-05T15:18:21Z</time>
      </trkpt>
      <trkpt lat="44.89017" lon="5.46583">
        <ele>1511.810547</ele>
        <time>2010-06-05T15:18:26Z</time>
      </trkpt>
      <trkpt lat="44.89008" lon="5.46576">
        <ele>1512.291016</ele>
        <time>2010-06-05T15:18:28Z</time>
      </trkpt>
      <trkpt lat="44.88989" lon="5.46545">
        <ele>1511.810547</ele>
        <time>2010-06-05T15:18:34Z</time>
      </trkpt>
      <trkpt lat="44.88975" lon="5.46525">
        <ele>1512.291016</ele>
        <time>2010-06-05T15:18:38Z</time>
      </trkpt>
      <trkpt lat="44.88968" lon="5.46508">
        <ele>1511.329834</ele>
        <time>2010-06-05T15:18:41Z</time>
      </trkpt>
      <trkpt lat="44.88955" lon="5.46489">
        <ele>1510.368408</ele>
        <time>2010-06-05T15:18:45Z</time>
      </trkpt>
      <trkpt lat="44.88944" lon="5.46465">
        <ele>1508.926514</ele>
        <time>2010-06-05T15:18:50Z</time>
      </trkpt>
      <trkpt lat="44.88937" lon="5.46431">
        <ele>1509.407227</ele>
        <time>2010-06-05T15:18:56Z</time>
      </trkpt>
      <trkpt lat="44.88924" lon="5.46415">
        <ele>1509.887695</ele>
        <time>2010-06-05T15:19:00Z</time>
      </trkpt>
      <trkpt lat="44.88914" lon="5.46414">
        <ele>1509.407227</ele>
        <time>2010-06-05T15:19:02Z</time>
      </trkpt>
      <trkpt lat="44.88905" lon="5.46414">
        <ele>1509.407227</ele>
        <time>2010-06-05T15:19:04Z</time>
      </trkpt>
      <trkpt lat="44.88889" lon="5.46404">
        <ele>1508.445801</ele>
        <time>2010-06-05T15:19:08Z</time>
      </trkpt>
      <trkpt lat="44.88885" lon="5.46394">
        <ele>1507.965332</ele>
        <time>2010-06-05T15:19:10Z</time>
      </trkpt>
      <trkpt lat="44.88878" lon="5.46367">
        <ele>1508.926514</ele>
        <time>2010-06-05T15:19:17Z</time>
      </trkpt>
      <trkpt lat="44.88871" lon="5.46344">
        <ele>1512.291016</ele>
        <time>2010-06-05T15:19:24Z</time>
      </trkpt>
      <trkpt lat="44.8887" lon="5.46332">
        <ele>1515.175049</ele>
        <time>2010-06-05T15:19:30Z</time>
      </trkpt>
      <trkpt lat="44.8887" lon="5.46319">
        <ele>1517.0979</ele>
        <time>2010-06-05T15:19:36Z</time>
      </trkpt>
      <trkpt lat="44.8887" lon="5.46311">
        <ele>1519.501221</ele>
        <time>2010-06-05T15:19:41Z</time>
      </trkpt>
      <trkpt lat="44.88869" lon="5.46306">
        <ele>1519.981689</ele>
        <time>2010-06-05T15:19:44Z</time>
      </trkpt>
      <trkpt lat="44.88869" lon="5.4629">
        <ele>1525.268799</ele>
        <time>2010-06-05T15:19:52Z</time>
      </trkpt>
      <trkpt lat="44.88868" lon="5.46286">
        <ele>1525.268799</ele>
        <time>2010-06-05T15:19:54Z</time>
      </trkpt>
      <trkpt lat="44.88866" lon="5.46276">
        <ele>1525.749512</ele>
        <time>2010-06-05T15:19:58Z</time>
      </trkpt>
      <trkpt lat="44.88858" lon="5.46253">
        <ele>1531.036865</ele>
        <time>2010-06-05T15:20:09Z</time>
      </trkpt>
      <trkpt lat="44.88859" lon="5.46237">
        <ele>1529.114014</ele>
        <time>2010-06-05T15:20:15Z</time>
      </trkpt>
      <trkpt lat="44.88866" lon="5.46219">
        <ele>1528.152832</ele>
        <time>2010-06-05T15:20:21Z</time>
      </trkpt>
      <trkpt lat="44.88883" lon="5.46197">
        <ele>1528.633545</ele>
        <time>2010-06-05T15:20:29Z</time>
      </trkpt>
      <trkpt lat="44.88892" lon="5.46173">
        <ele>1529.114014</ele>
        <time>2010-06-05T15:20:35Z</time>
      </trkpt>
      <trkpt lat="44.88893" lon="5.46167">
        <ele>1528.633545</ele>
        <time>2010-06-05T15:20:36Z</time>
      </trkpt>
      <trkpt lat="44.88892" lon="5.46136">
        <ele>1524.78833</ele>
        <time>2010-06-05T15:20:41Z</time>
      </trkpt>
      <trkpt lat="44.88894" lon="5.46095">
        <ele>1519.981689</ele>
        <time>2010-06-05T15:20:47Z</time>
      </trkpt>
      <trkpt lat="44.88899" lon="5.46084">
        <ele>1519.020508</ele>
        <time>2010-06-05T15:20:49Z</time>
      </trkpt>
      <trkpt lat="44.88925" lon="5.46042">
        <ele>1516.617188</ele>
        <time>2010-06-05T15:20:56Z</time>
      </trkpt>
      <trkpt lat="44.88931" lon="5.46035">
        <ele>1516.136475</ele>
        <time>2010-06-05T15:20:57Z</time>
      </trkpt>
      <trkpt lat="44.88946" lon="5.46001">
        <ele>1514.694336</ele>
        <time>2010-06-05T15:21:01Z</time>
      </trkpt>
      <trkpt lat="44.88947" lon="5.45979">
        <ele>1513.252441</ele>
        <time>2010-06-05T15:21:03Z</time>
      </trkpt>
      <trkpt lat="44.88955" lon="5.45935">
        <ele>1510.368408</ele>
        <time>2010-06-05T15:21:07Z</time>
      </trkpt>
      <trkpt lat="44.88964" lon="5.45885">
        <ele>1505.562012</ele>
        <time>2010-06-05T15:21:12Z</time>
      </trkpt>
      <trkpt lat="44.88968" lon="5.4584">
        <ele>1502.677979</ele>
        <time>2010-06-05T15:21:16Z</time>
      </trkpt>
      <trkpt lat="44.8899" lon="5.45804">
        <ele>1500.274902</ele>
        <time>2010-06-05T15:21:20Z</time>
      </trkpt>
      <trkpt lat="44.89012" lon="5.45794">
        <ele>1497.871338</ele>
        <time>2010-06-05T15:21:23Z</time>
      </trkpt>
      <trkpt lat="44.89021" lon="5.45781">
        <ele>1496.429443</ele>
        <time>2010-06-05T15:21:25Z</time>
      </trkpt>
      <trkpt lat="44.89029" lon="5.45766">
        <ele>1495.468018</ele>
        <time>2010-06-05T15:21:27Z</time>
      </trkpt>
      <trkpt lat="44.89037" lon="5.45726">
        <ele>1493.54541</ele>
        <time>2010-06-05T15:21:32Z</time>
      </trkpt>
      <trkpt lat="44.89051" lon="5.45701">
        <ele>1494.026123</ele>
        <time>2010-06-05T15:21:37Z</time>
      </trkpt>
      <trkpt lat="44.89061" lon="5.45684">
        <ele>1493.54541</ele>
        <time>2010-06-05T15:21:41Z</time>
      </trkpt>
      <trkpt lat="44.89061" lon="5.45667">
        <ele>1493.064697</ele>
        <time>2010-06-05T15:21:45Z</time>
      </trkpt>
      <trkpt lat="44.89059" lon="5.45659">
        <ele>1492.103516</ele>
        <time>2010-06-05T15:21:48Z</time>
      </trkpt>
      <trkpt lat="44.89061" lon="5.45639">
        <ele>1488.739014</ele>
        <time>2010-06-05T15:21:57Z</time>
      </trkpt>
      <trkpt lat="44.89067" lon="5.45632">
        <ele>1488.258301</ele>
        <time>2010-06-05T15:22:02Z</time>
      </trkpt>
      <trkpt lat="44.89076" lon="5.45629">
        <ele>1487.296875</ele>
        <time>2010-06-05T15:22:08Z</time>
      </trkpt>
      <trkpt lat="44.89082" lon="5.45618">
        <ele>1487.296875</ele>
        <time>2010-06-05T15:22:15Z</time>
      </trkpt>
      <trkpt lat="44.89083" lon="5.45605">
        <ele>1487.296875</ele>
        <time>2010-06-05T15:22:18Z</time>
      </trkpt>
      <trkpt lat="44.89071" lon="5.45581">
        <ele>1485.374268</ele>
        <time>2010-06-05T15:22:22Z</time>
      </trkpt>
      <trkpt lat="44.89062" lon="5.45554">
        <ele>1482.009521</ele>
        <time>2010-06-05T15:22:25Z</time>
      </trkpt>
      <trkpt lat="44.89066" lon="5.45518">
        <ele>1478.645019</ele>
        <time>2010-06-05T15:22:28Z</time>
      </trkpt>
      <trkpt lat="44.89069" lon="5.45506">
        <ele>1477.683594</ele>
        <time>2010-06-05T15:22:29Z</time>
      </trkpt>
      <trkpt lat="44.89075" lon="5.45482">
        <ele>1476.722412</ele>
        <time>2010-06-05T15:22:31Z</time>
      </trkpt>
      <trkpt lat="44.89072" lon="5.45459">
        <ele>1474.319092</ele>
        <time>2010-06-05T15:22:34Z</time>
      </trkpt>
      <trkpt lat="44.89061" lon="5.45456">
        <ele>1473.35791</ele>
        <time>2010-06-05T15:22:36Z</time>
      </trkpt>
      <trkpt lat="44.89038" lon="5.45473">
        <ele>1470.95459</ele>
        <time>2010-06-05T15:22:40Z</time>
      </trkpt>
      <trkpt lat="44.89028" lon="5.45487">
        <ele>1469.993164</ele>
        <time>2010-06-05T15:22:42Z</time>
      </trkpt>
      <trkpt lat="44.88995" lon="5.45511">
        <ele>1466.628418</ele>
        <time>2010-06-05T15:22:47Z</time>
      </trkpt>
      <trkpt lat="44.88947" lon="5.45505">
        <ele>1464.225098</ele>
        <time>2010-06-05T15:22:53Z</time>
      </trkpt>
      <trkpt lat="44.88924" lon="5.45515">
        <ele>1463.744385</ele>
        <time>2010-06-05T15:22:57Z</time>
      </trkpt>
      <trkpt lat="44.88901" lon="5.4552">
        <ele>1462.30249</ele>
        <time>2010-06-05T15:23:01Z</time>
      </trkpt>
      <trkpt lat="44.88889" lon="5.45517">
        <ele>1461.341309</ele>
        <time>2010-06-05T15:23:03Z</time>
      </trkpt>
      <trkpt lat="44.88865" lon="5.45497">
        <ele>1458.937988</ele>
        <time>2010-06-05T15:23:07Z</time>
      </trkpt>
      <trkpt lat="44.88853" lon="5.45482">
        <ele>1457.976807</ele>
        <time>2010-06-05T15:23:09Z</time>
      </trkpt>
      <trkpt lat="44.88835" lon="5.45443">
        <ele>1455.092773</ele>
        <time>2010-06-05T15:23:13Z</time>
      </trkpt>
      <trkpt lat="44.88818" lon="5.45384">
        <ele>1451.247314</ele>
        <time>2010-06-05T15:23:18Z</time>
      </trkpt>
      <trkpt lat="44.88816" lon="5.45356">
        <ele>1448.843994</ele>
        <time>2010-06-05T15:23:22Z</time>
      </trkpt>
      <trkpt lat="44.88824" lon="5.45359">
        <ele>1446.921387</ele>
        <time>2010-06-05T15:23:25Z</time>
      </trkpt>
      <trkpt lat="44.88826" lon="5.45363">
        <ele>1446.440918</ele>
        <time>2010-06-05T15:23:26Z</time>
      </trkpt>
      <trkpt lat="44.88849" lon="5.45398">
        <ele>1442.11499</ele>
        <time>2010-06-05T15:23:32Z</time>
      </trkpt>
      <trkpt lat="44.88859" lon="5.45411">
        <ele>1441.153564</ele>
        <time>2010-06-05T15:23:34Z</time>
      </trkpt>
      <trkpt lat="44.88877" lon="5.45427">
        <ele>1439.230957</ele>
        <time>2010-06-05T15:23:37Z</time>
      </trkpt>
      <trkpt lat="44.88906" lon="5.45433">
        <ele>1437.789062</ele>
        <time>2010-06-05T15:23:41Z</time>
      </trkpt>
      <trkpt lat="44.88932" lon="5.45409">
        <ele>1434.905029</ele>
        <time>2010-06-05T15:23:45Z</time>
      </trkpt>
      <trkpt lat="44.88934" lon="5.45379">
        <ele>1433.462891</ele>
        <time>2010-06-05T15:23:48Z</time>
      </trkpt>
      <trkpt lat="44.88934" lon="5.45359">
        <ele>1432.982178</ele>
        <time>2010-06-05T15:23:50Z</time>
      </trkpt>
      <trkpt lat="44.88943" lon="5.45317">
        <ele>1431.540283</ele>
        <time>2010-06-05T15:23:54Z</time>
      </trkpt>
      <trkpt lat="44.88959" lon="5.45289">
        <ele>1431.059814</ele>
        <time>2010-06-05T15:23:57Z</time>
      </trkpt>
      <trkpt lat="44.88961" lon="5.45278">
        <ele>1430.579102</ele>
        <time>2010-06-05T15:23:58Z</time>
      </trkpt>
      <trkpt lat="44.88963" lon="5.45231">
        <ele>1430.579102</ele>
        <time>2010-06-05T15:24:02Z</time>
      </trkpt>
      <trkpt lat="44.88968" lon="5.45194">
        <ele>1428.656494</ele>
        <time>2010-06-05T15:24:05Z</time>
      </trkpt>
      <trkpt lat="44.88969" lon="5.4514">
        <ele>1425.772461</ele>
        <time>2010-06-05T15:24:09Z</time>
      </trkpt>
      <trkpt lat="44.88972" lon="5.45102">
        <ele>1423.849854</ele>
        <time>2010-06-05T15:24:12Z</time>
      </trkpt>
      <trkpt lat="44.88962" lon="5.45065">
        <ele>1420.966064</ele>
        <time>2010-06-05T15:24:16Z</time>
      </trkpt>
      <trkpt lat="44.88942" lon="5.45059">
        <ele>1418.081787</ele>
        <time>2010-06-05T15:24:19Z</time>
      </trkpt>
      <trkpt lat="44.88935" lon="5.45043">
        <ele>1417.120606</ele>
        <time>2010-06-05T15:24:21Z</time>
      </trkpt>
      <trkpt lat="44.88933" lon="5.45033">
        <ele>1416.639893</ele>
        <time>2010-06-05T15:24:22Z</time>
      </trkpt>
      <trkpt lat="44.88926" lon="5.44986">
        <ele>1413.275391</ele>
        <time>2010-06-05T15:24:27Z</time>
      </trkpt>
      <trkpt lat="44.88921" lon="5.44967">
        <ele>1411.352783</ele>
        <time>2010-06-05T15:24:29Z</time>
      </trkpt>
      <trkpt lat="44.88916" lon="5.44936">
        <ele>1409.910644</ele>
        <time>2010-06-05T15:24:32Z</time>
      </trkpt>
      <trkpt lat="44.88903" lon="5.44909">
        <ele>1409.430176</ele>
        <time>2010-06-05T15:24:35Z</time>
      </trkpt>
      <trkpt lat="44.88881" lon="5.44899">
        <ele>1408.949463</ele>
        <time>2010-06-05T15:24:38Z</time>
      </trkpt>
      <trkpt lat="44.8887" lon="5.44882">
        <ele>1408.949463</ele>
        <time>2010-06-05T15:24:40Z</time>
      </trkpt>
      <trkpt lat="44.88848" lon="5.4483">
        <ele>1407.026856</ele>
        <time>2010-06-05T15:24:45Z</time>
      </trkpt>
      <trkpt lat="44.88827" lon="5.44806">
        <ele>1406.06543</ele>
        <time>2010-06-05T15:24:48Z</time>
      </trkpt>
      <trkpt lat="44.88787" lon="5.44778">
        <ele>1404.143066</ele>
        <time>2010-06-05T15:24:54Z</time>
      </trkpt>
      <trkpt lat="44.88766" lon="5.44749">
        <ele>1403.662109</ele>
        <time>2010-06-05T15:24:58Z</time>
      </trkpt>
      <trkpt lat="44.88763" lon="5.44721">
        <ele>1403.662109</ele>
        <time>2010-06-05T15:25:01Z</time>
      </trkpt>
      <trkpt lat="44.88766" lon="5.44705">
        <ele>1402.219971</ele>
        <time>2010-06-05T15:25:03Z</time>
      </trkpt>
      <trkpt lat="44.88767" lon="5.44636">
        <ele>1398.855469</ele>
        <time>2010-06-05T15:25:11Z</time>
      </trkpt>
      <trkpt lat="44.88765" lon="5.44621">
        <ele>1397.413574</ele>
        <time>2010-06-05T15:25:15Z</time>
      </trkpt>
      <trkpt lat="44.88765" lon="5.44618">
        <ele>1396.932861</ele>
        <time>2010-06-05T15:25:19Z</time>
      </trkpt>
      <trkpt lat="44.8876" lon="5.44617">
        <ele>1392.126465</ele>
        <time>2010-06-05T15:26:34Z</time>
      </trkpt>
      <trkpt lat="44.88758" lon="5.44595">
        <ele>1394.529541</ele>
        <time>2010-06-05T15:26:41Z</time>
      </trkpt>
      <trkpt lat="44.88752" lon="5.44566">
        <ele>1401.258789</ele>
        <time>2010-06-05T15:26:47Z</time>
      </trkpt>
      <trkpt lat="44.88746" lon="5.44543">
        <ele>1400.297607</ele>
        <time>2010-06-05T15:26:52Z</time>
      </trkpt>
      <trkpt lat="44.8874" lon="5.44523">
        <ele>1398.855469</ele>
        <time>2010-06-05T15:26:59Z</time>
      </trkpt>
      <trkpt lat="44.8873" lon="5.44504">
        <ele>1398.855469</ele>
        <time>2010-06-05T15:27:04Z</time>
      </trkpt>
      <trkpt lat="44.88716" lon="5.44496">
        <ele>1397.894287</ele>
        <time>2010-06-05T15:27:08Z</time>
      </trkpt>
      <trkpt lat="44.88707" lon="5.4451">
        <ele>1395.97168</ele>
        <time>2010-06-05T15:27:11Z</time>
      </trkpt>
      <trkpt lat="44.8871" lon="5.44531">
        <ele>1393.568359</ele>
        <time>2010-06-05T15:27:14Z</time>
      </trkpt>
      <trkpt lat="44.88712" lon="5.44552">
        <ele>1391.645752</ele>
        <time>2010-06-05T15:27:18Z</time>
      </trkpt>
      <trkpt lat="44.88701" lon="5.44557">
        <ele>1389.723144</ele>
        <time>2010-06-05T15:27:21Z</time>
      </trkpt>
      <trkpt lat="44.88695" lon="5.44555">
        <ele>1389.723144</ele>
        <time>2010-06-05T15:27:22Z</time>
      </trkpt>
      <trkpt lat="44.8866" lon="5.44543">
        <ele>1385.396973</ele>
        <time>2010-06-05T15:27:27Z</time>
      </trkpt>
      <trkpt lat="44.88627" lon="5.44527">
        <ele>1381.551758</ele>
        <time>2010-06-05T15:27:32Z</time>
      </trkpt>
      <trkpt lat="44.88592" lon="5.44523">
        <ele>1377.706543</ele>
        <time>2010-06-05T15:27:36Z</time>
      </trkpt>
      <trkpt lat="44.88528" lon="5.44503">
        <ele>1368.093262</ele>
        <time>2010-06-05T15:27:42Z</time>
      </trkpt>
      <trkpt lat="44.88484" lon="5.44486">
        <ele>1363.286865</ele>
        <time>2010-06-05T15:27:46Z</time>
      </trkpt>
      <trkpt lat="44.88453" lon="5.44464">
        <ele>1358.960938</ele>
        <time>2010-06-05T15:27:50Z</time>
      </trkpt>
      <trkpt lat="44.88443" lon="5.44456">
        <ele>1357.999756</ele>
        <time>2010-06-05T15:27:52Z</time>
      </trkpt>
      <trkpt lat="44.88426" lon="5.44457">
        <ele>1355.596191</ele>
        <time>2010-06-05T15:27:56Z</time>
      </trkpt>
      <trkpt lat="44.88424" lon="5.44461">
        <ele>1355.596191</ele>
        <time>2010-06-05T15:27:57Z</time>
      </trkpt>
      <trkpt lat="44.88421" lon="5.44468">
        <ele>1353.673584</ele>
        <time>2010-06-05T15:28:02Z</time>
      </trkpt>
      <trkpt lat="44.88426" lon="5.44456">
        <ele>1356.076904</ele>
        <time>2010-06-05T15:28:09Z</time>
      </trkpt>
      <trkpt lat="44.88431" lon="5.44452">
        <ele>1355.596191</ele>
        <time>2010-06-05T15:28:13Z</time>
      </trkpt>
      <trkpt lat="44.8843" lon="5.44452">
        <ele>1356.557617</ele>
        <time>2010-06-05T15:28:18Z</time>
      </trkpt>
      <trkpt lat="44.8843" lon="5.44454">
        <ele>1355.596191</ele>
        <time>2010-06-05T15:28:25Z</time>
      </trkpt>
      <trkpt lat="44.88426" lon="5.44462">
        <ele>1354.154297</ele>
        <time>2010-06-05T15:28:32Z</time>
      </trkpt>
      <trkpt lat="44.88424" lon="5.44467">
        <ele>1352.712158</ele>
        <time>2010-06-05T15:29:16Z</time>
      </trkpt>
      <trkpt lat="44.88409" lon="5.44483">
        <ele>1354.154297</ele>
        <time>2010-06-05T15:29:24Z</time>
      </trkpt>
      <trkpt lat="44.88393" lon="5.44493">
        <ele>1354.634766</ele>
        <time>2010-06-05T15:29:31Z</time>
      </trkpt>
      <trkpt lat="44.88378" lon="5.44499">
        <ele>1355.596191</ele>
        <time>2010-06-05T15:29:38Z</time>
      </trkpt>
      <trkpt lat="44.8837" lon="5.44502">
        <ele>1356.557617</ele>
        <time>2010-06-05T15:29:43Z</time>
      </trkpt>
      <trkpt lat="44.88358" lon="5.44507">
        <ele>1356.076904</ele>
        <time>2010-06-05T15:29:51Z</time>
      </trkpt>
      <trkpt lat="44.88343" lon="5.44513">
        <ele>1356.557617</ele>
        <time>2010-06-05T15:29:59Z</time>
      </trkpt>
      <trkpt lat="44.88325" lon="5.44522">
        <ele>1357.999756</ele>
        <time>2010-06-05T15:30:06Z</time>
      </trkpt>
      <trkpt lat="44.88307" lon="5.44525">
        <ele>1359.44165</ele>
        <time>2010-06-05T15:30:14Z</time>
      </trkpt>
      <trkpt lat="44.88296" lon="5.44518">
        <ele>1360.402832</ele>
        <time>2010-06-05T15:30:20Z</time>
      </trkpt>
      <trkpt lat="44.88288" lon="5.44505">
        <ele>1361.364258</ele>
        <time>2010-06-05T15:30:28Z</time>
      </trkpt>
      <trkpt lat="44.88277" lon="5.44486">
        <ele>1363.767334</ele>
        <time>2010-06-05T15:30:37Z</time>
      </trkpt>
      <trkpt lat="44.88261" lon="5.44465">
        <ele>1370.977295</ele>
        <time>2010-06-05T15:30:47Z</time>
      </trkpt>
      <trkpt lat="44.88248" lon="5.44452">
        <ele>1374.822754</ele>
        <time>2010-06-05T15:30:54Z</time>
      </trkpt>
      <trkpt lat="44.88233" lon="5.44444">
        <ele>1378.667969</ele>
        <time>2010-06-05T15:31:01Z</time>
      </trkpt>
      <trkpt lat="44.88226" lon="5.44443">
        <ele>1376.745361</ele>
        <time>2010-06-05T15:31:06Z</time>
      </trkpt>
      <trkpt lat="44.88217" lon="5.44441">
        <ele>1375.303223</ele>
        <time>2010-06-05T15:31:12Z</time>
      </trkpt>
      <trkpt lat="44.88206" lon="5.44439">
        <ele>1373.861328</ele>
        <time>2010-06-05T15:31:17Z</time>
      </trkpt>
      <trkpt lat="44.88195" lon="5.44436">
        <ele>1373.380859</ele>
        <time>2010-06-05T15:31:24Z</time>
      </trkpt>
      <trkpt lat="44.88185" lon="5.44433">
        <ele>1371.938477</ele>
        <time>2010-06-05T15:31:32Z</time>
      </trkpt>
      <trkpt lat="44.88177" lon="5.4443">
        <ele>1370.977295</ele>
        <time>2010-06-05T15:31:38Z</time>
      </trkpt>
      <trkpt lat="44.88163" lon="5.44432">
        <ele>1370.496582</ele>
        <time>2010-06-05T15:31:45Z</time>
      </trkpt>
      <trkpt lat="44.88161" lon="5.44433">
        <ele>1370.496582</ele>
        <time>2010-06-05T15:31:46Z</time>
      </trkpt>
      <trkpt lat="44.88158" lon="5.44449">
        <ele>1370.496582</ele>
        <time>2010-06-05T15:31:51Z</time>
      </trkpt>
      <trkpt lat="44.88153" lon="5.44493">
        <ele>1370.977295</ele>
        <time>2010-06-05T15:32:01Z</time>
      </trkpt>
      <trkpt lat="44.88148" lon="5.44523">
        <ele>1371.457764</ele>
        <time>2010-06-05T15:32:07Z</time>
      </trkpt>
      <trkpt lat="44.88143" lon="5.44547">
        <ele>1371.938477</ele>
        <time>2010-06-05T15:32:12Z</time>
      </trkpt>
      <trkpt lat="44.88139" lon="5.44567">
        <ele>1372.900146</ele>
        <time>2010-06-05T15:32:17Z</time>
      </trkpt>
      <trkpt lat="44.88136" lon="5.44581">
        <ele>1374.822754</ele>
        <time>2010-06-05T15:32:22Z</time>
      </trkpt>
      <trkpt lat="44.88132" lon="5.44595">
        <ele>1375.783936</ele>
        <time>2010-06-05T15:32:27Z</time>
      </trkpt>
      <trkpt lat="44.8813" lon="5.44613">
        <ele>1372.419434</ele>
        <time>2010-06-05T15:32:33Z</time>
      </trkpt>
      <trkpt lat="44.8813" lon="5.44616">
        <ele>1371.938477</ele>
        <time>2010-06-05T15:32:34Z</time>
      </trkpt>
      <trkpt lat="44.88119" lon="5.44628">
        <ele>1370.015869</ele>
        <time>2010-06-05T15:32:40Z</time>
      </trkpt>
      <trkpt lat="44.881" lon="5.44647">
        <ele>1370.015869</ele>
        <time>2010-06-05T15:32:47Z</time>
      </trkpt>
      <trkpt lat="44.88078" lon="5.4467">
        <ele>1369.5354</ele>
        <time>2010-06-05T15:32:54Z</time>
      </trkpt>
      <trkpt lat="44.88062" lon="5.44689">
        <ele>1369.5354</ele>
        <time>2010-06-05T15:32:59Z</time>
      </trkpt>
      <trkpt lat="44.88052" lon="5.44725">
        <ele>1369.054688</ele>
        <time>2010-06-05T15:33:06Z</time>
      </trkpt>
      <trkpt lat="44.88041" lon="5.44756">
        <ele>1368.573975</ele>
        <time>2010-06-05T15:33:14Z</time>
      </trkpt>
      <trkpt lat="44.88027" lon="5.44767">
        <ele>1370.496582</ele>
        <time>2010-06-05T15:33:19Z</time>
      </trkpt>
      <trkpt lat="44.88002" lon="5.44774">
        <ele>1370.977295</ele>
        <time>2010-06-05T15:33:28Z</time>
      </trkpt>
      <trkpt lat="44.87985" lon="5.44786">
        <ele>1371.457764</ele>
        <time>2010-06-05T15:33:35Z</time>
      </trkpt>
      <trkpt lat="44.8798" lon="5.44803">
        <ele>1376.264648</ele>
        <time>2010-06-05T15:33:41Z</time>
      </trkpt>
      <trkpt lat="44.87982" lon="5.44816">
        <ele>1376.745361</ele>
        <time>2010-06-05T15:33:46Z</time>
      </trkpt>
      <trkpt lat="44.87984" lon="5.44825">
        <ele>1379.62915</ele>
        <time>2010-06-05T15:33:50Z</time>
      </trkpt>
      <trkpt lat="44.87984" lon="5.44841">
        <ele>1383.955078</ele>
        <time>2010-06-05T15:33:57Z</time>
      </trkpt>
      <trkpt lat="44.87979" lon="5.44853">
        <ele>1383.955078</ele>
        <time>2010-06-05T15:34:04Z</time>
      </trkpt>
      <trkpt lat="44.87971" lon="5.4486">
        <ele>1382.032471</ele>
        <time>2010-06-05T15:34:10Z</time>
      </trkpt>
      <trkpt lat="44.8796" lon="5.44859">
        <ele>1383.955078</ele>
        <time>2010-06-05T15:34:18Z</time>
      </trkpt>
      <trkpt lat="44.87952" lon="5.4486">
        <ele>1386.838867</ele>
        <time>2010-06-05T15:34:24Z</time>
      </trkpt>
      <trkpt lat="44.87945" lon="5.44865">
        <ele>1386.358398</ele>
        <time>2010-06-05T15:34:31Z</time>
      </trkpt>
      <trkpt lat="44.87941" lon="5.4487">
        <ele>1384.916504</ele>
        <time>2010-06-05T15:34:39Z</time>
      </trkpt>
      <trkpt lat="44.87943" lon="5.4487">
        <ele>1387.31958</ele>
        <time>2010-06-05T15:35:03Z</time>
      </trkpt>
      <trkpt lat="44.87953" lon="5.44865">
        <ele>1389.242432</ele>
        <time>2010-06-05T15:35:32Z</time>
      </trkpt>
      <trkpt lat="44.87952" lon="5.44868">
        <ele>1389.242432</ele>
        <time>2010-06-05T15:35:40Z</time>
      </trkpt>
      <trkpt lat="44.87944" lon="5.44884">
        <ele>1389.242432</ele>
        <time>2010-06-05T15:35:48Z</time>
      </trkpt>
      <trkpt lat="44.87938" lon="5.44898">
        <ele>1389.723144</ele>
        <time>2010-06-05T15:35:54Z</time>
      </trkpt>
      <trkpt lat="44.87932" lon="5.44914">
        <ele>1389.723144</ele>
        <time>2010-06-05T15:36:01Z</time>
      </trkpt>
      <trkpt lat="44.87928" lon="5.44926">
        <ele>1389.723144</ele>
        <time>2010-06-05T15:36:07Z</time>
      </trkpt>
      <trkpt lat="44.87923" lon="5.44946">
        <ele>1389.242432</ele>
        <time>2010-06-05T15:36:15Z</time>
      </trkpt>
      <trkpt lat="44.8792" lon="5.44959">
        <ele>1391.645752</ele>
        <time>2010-06-05T15:36:21Z</time>
      </trkpt>
      <trkpt lat="44.87919" lon="5.4497">
        <ele>1392.607178</ele>
        <time>2010-06-05T15:36:26Z</time>
      </trkpt>
      <trkpt lat="44.87918" lon="5.44987">
        <ele>1394.529541</ele>
        <time>2010-06-05T15:36:35Z</time>
      </trkpt>
      <trkpt lat="44.87916" lon="5.44998">
        <ele>1392.607178</ele>
        <time>2010-06-05T15:36:40Z</time>
      </trkpt>
      <trkpt lat="44.87913" lon="5.45009">
        <ele>1391.165039</ele>
        <time>2010-06-05T15:36:47Z</time>
      </trkpt>
      <trkpt lat="44.87909" lon="5.45029">
        <ele>1390.684326</ele>
        <time>2010-06-05T15:36:56Z</time>
      </trkpt>
      <trkpt lat="44.87901" lon="5.4504">
        <ele>1391.165039</ele>
        <time>2010-06-05T15:37:03Z</time>
      </trkpt>
      <trkpt lat="44.87888" lon="5.45044">
        <ele>1391.165039</ele>
        <time>2010-06-05T15:37:12Z</time>
      </trkpt>
      <trkpt lat="44.87879" lon="5.45046">
        <ele>1393.087646</ele>
        <time>2010-06-05T15:37:19Z</time>
      </trkpt>
      <trkpt lat="44.87869" lon="5.45042">
        <ele>1395.490967</ele>
        <time>2010-06-05T15:37:26Z</time>
      </trkpt>
      <trkpt lat="44.87859" lon="5.45039">
        <ele>1398.374756</ele>
        <time>2010-06-05T15:37:34Z</time>
      </trkpt>
      <trkpt lat="44.87849" lon="5.45043">
        <ele>1399.336182</ele>
        <time>2010-06-05T15:37:41Z</time>
      </trkpt>
      <trkpt lat="44.87843" lon="5.45055">
        <ele>1399.816894</ele>
        <time>2010-06-05T15:37:48Z</time>
      </trkpt>
      <trkpt lat="44.8784" lon="5.45069">
        <ele>1403.181396</ele>
        <time>2010-06-05T15:37:55Z</time>
      </trkpt>
      <trkpt lat="44.87837" lon="5.45083">
        <ele>1404.623535</ele>
        <time>2010-06-05T15:38:01Z</time>
      </trkpt>
      <trkpt lat="44.87834" lon="5.451">
        <ele>1405.104248</ele>
        <time>2010-06-05T15:38:08Z</time>
      </trkpt>
      <trkpt lat="44.87826" lon="5.45113">
        <ele>1406.06543</ele>
        <time>2010-06-05T15:38:15Z</time>
      </trkpt>
      <trkpt lat="44.87822" lon="5.4512">
        <ele>1407.026856</ele>
        <time>2010-06-05T15:38:19Z</time>
      </trkpt>
      <trkpt lat="44.87814" lon="5.45133">
        <ele>1408.46875</ele>
        <time>2010-06-05T15:38:28Z</time>
      </trkpt>
      <trkpt lat="44.87809" lon="5.45138">
        <ele>1408.949463</ele>
        <time>2010-06-05T15:38:33Z</time>
      </trkpt>
      <trkpt lat="44.87801" lon="5.45154">
        <ele>1409.910644</ele>
        <time>2010-06-05T15:38:43Z</time>
      </trkpt>
      <trkpt lat="44.87795" lon="5.45165">
        <ele>1410.87207</ele>
        <time>2010-06-05T15:38:51Z</time>
      </trkpt>
      <trkpt lat="44.87787" lon="5.45175">
        <ele>1411.833496</ele>
        <time>2010-06-05T15:38:59Z</time>
      </trkpt>
      <trkpt lat="44.87781" lon="5.45192">
        <ele>1412.794678</ele>
        <time>2010-06-05T15:39:10Z</time>
      </trkpt>
      <trkpt lat="44.87781" lon="5.45195">
        <ele>1413.275391</ele>
        <time>2010-06-05T15:39:15Z</time>
      </trkpt>
      <trkpt lat="44.8778" lon="5.45196">
        <ele>1414.236572</ele>
        <time>2010-06-05T15:39:21Z</time>
      </trkpt>
      <trkpt lat="44.87779" lon="5.45196">
        <ele>1414.717285</ele>
        <time>2010-06-05T15:39:36Z</time>
      </trkpt>
      <trkpt lat="44.87779" lon="5.45196">
        <ele>1416.639893</ele>
        <time>2010-06-05T15:46:18Z</time>
      </trkpt>
      <trkpt lat="44.8778" lon="5.45198">
        <ele>1414.717285</ele>
        <time>2010-06-05T15:46:37Z</time>
      </trkpt>
      <trkpt lat="44.8778" lon="5.45198">
        <ele>1414.236572</ele>
        <time>2010-06-05T15:46:44Z</time>
      </trkpt>
      <trkpt lat="44.87781" lon="5.45199">
        <ele>1412.794678</ele>
        <time>2010-06-05T15:47:13Z</time>
      </trkpt>
      <trkpt lat="44.87783" lon="5.45199">
        <ele>1414.717285</ele>
        <time>2010-06-05T15:47:32Z</time>
      </trkpt>
      <trkpt lat="44.87781" lon="5.45202">
        <ele>1411.352783</ele>
        <time>2010-06-05T15:48:10Z</time>
      </trkpt>
      <trkpt lat="44.87783" lon="5.45207">
        <ele>1410.87207</ele>
        <time>2010-06-05T15:48:27Z</time>
      </trkpt>
      <trkpt lat="44.87783" lon="5.45208">
        <ele>1410.391357</ele>
        <time>2010-06-05T15:48:28Z</time>
      </trkpt>
      <trkpt lat="44.87785" lon="5.45215">
        <ele>1410.87207</ele>
        <time>2010-06-05T15:48:36Z</time>
      </trkpt>
      <trkpt lat="44.87789" lon="5.45214">
        <ele>1414.236572</ele>
        <time>2010-06-05T15:48:54Z</time>
      </trkpt>
      <trkpt lat="44.8779" lon="5.4522">
        <ele>1415.197998</ele>
        <time>2010-06-05T15:48:58Z</time>
      </trkpt>
      <trkpt lat="44.87793" lon="5.45238">
        <ele>1416.15918</ele>
        <time>2010-06-05T15:49:07Z</time>
      </trkpt>
      <trkpt lat="44.87796" lon="5.45259">
        <ele>1414.717285</ele>
        <time>2010-06-05T15:49:14Z</time>
      </trkpt>
      <trkpt lat="44.87797" lon="5.45275">
        <ele>1413.275391</ele>
        <time>2010-06-05T15:49:19Z</time>
      </trkpt>
      <trkpt lat="44.87804" lon="5.45297">
        <ele>1412.313965</ele>
        <time>2010-06-05T15:49:25Z</time>
      </trkpt>
      <trkpt lat="44.87808" lon="5.45317">
        <ele>1413.275391</ele>
        <time>2010-06-05T15:49:30Z</time>
      </trkpt>
      <trkpt lat="44.87809" lon="5.45333">
        <ele>1416.15918</ele>
        <time>2010-06-05T15:49:35Z</time>
      </trkpt>
      <trkpt lat="44.87809" lon="5.45351">
        <ele>1418.081787</ele>
        <time>2010-06-05T15:49:41Z</time>
      </trkpt>
      <trkpt lat="44.87808" lon="5.45374">
        <ele>1418.5625</ele>
        <time>2010-06-05T15:49:48Z</time>
      </trkpt>
      <trkpt lat="44.87806" lon="5.45391">
        <ele>1419.523926</ele>
        <time>2010-06-05T15:49:54Z</time>
      </trkpt>
      <trkpt lat="44.87805" lon="5.45415">
        <ele>1422.888672</ele>
        <time>2010-06-05T15:50:02Z</time>
      </trkpt>
      <trkpt lat="44.87805" lon="5.45417">
        <ele>1422.888672</ele>
        <time>2010-06-05T15:50:03Z</time>
      </trkpt>
      <trkpt lat="44.87803" lon="5.45435">
        <ele>1424.330566</ele>
        <time>2010-06-05T15:50:09Z</time>
      </trkpt>
      <trkpt lat="44.87805" lon="5.45455">
        <ele>1427.2146</ele>
        <time>2010-06-05T15:50:16Z</time>
      </trkpt>
      <trkpt lat="44.87803" lon="5.45467">
        <ele>1429.136963</ele>
        <time>2010-06-05T15:50:22Z</time>
      </trkpt>
      <trkpt lat="44.87801" lon="5.45477">
        <ele>1432.501709</ele>
        <time>2010-06-05T15:50:28Z</time>
      </trkpt>
      <trkpt lat="44.878" lon="5.45484">
        <ele>1435.866211</ele>
        <time>2010-06-05T15:50:32Z</time>
      </trkpt>
      <trkpt lat="44.87799" lon="5.45489">
        <ele>1437.30835</ele>
        <time>2010-06-05T15:50:36Z</time>
      </trkpt>
      <trkpt lat="44.87794" lon="5.455">
        <ele>1439.230957</ele>
        <time>2010-06-05T15:50:43Z</time>
      </trkpt>
      <trkpt lat="44.87791" lon="5.45509">
        <ele>1443.556885</ele>
        <time>2010-06-05T15:50:50Z</time>
      </trkpt>
      <trkpt lat="44.8779" lon="5.4552">
        <ele>1447.4021</ele>
        <time>2010-06-05T15:50:57Z</time>
      </trkpt>
      <trkpt lat="44.87787" lon="5.45531">
        <ele>1451.247314</ele>
        <time>2010-06-05T15:51:03Z</time>
      </trkpt>
      <trkpt lat="44.87783" lon="5.45544">
        <ele>1453.170166</ele>
        <time>2010-06-05T15:51:09Z</time>
      </trkpt>
      <trkpt lat="44.8778" lon="5.45556">
        <ele>1452.20874</ele>
        <time>2010-06-05T15:51:14Z</time>
      </trkpt>
      <trkpt lat="44.87772" lon="5.45569">
        <ele>1450.766602</ele>
        <time>2010-06-05T15:51:22Z</time>
      </trkpt>
      <trkpt lat="44.87768" lon="5.45579">
        <ele>1450.766602</ele>
        <time>2010-06-05T15:51:28Z</time>
      </trkpt>
      <trkpt lat="44.8776" lon="5.45595">
        <ele>1444.998779</ele>
        <time>2010-06-05T15:51:36Z</time>
      </trkpt>
      <trkpt lat="44.87753" lon="5.45608">
        <ele>1440.672852</ele>
        <time>2010-06-05T15:51:42Z</time>
      </trkpt>
      <trkpt lat="44.87746" lon="5.4562">
        <ele>1437.30835</ele>
        <time>2010-06-05T15:51:49Z</time>
      </trkpt>
      <trkpt lat="44.87738" lon="5.45634">
        <ele>1437.789062</ele>
        <time>2010-06-05T15:51:58Z</time>
      </trkpt>
      <trkpt lat="44.8773" lon="5.45646">
        <ele>1438.269775</ele>
        <time>2010-06-05T15:52:05Z</time>
      </trkpt>
      <trkpt lat="44.87723" lon="5.45659">
        <ele>1437.30835</ele>
        <time>2010-06-05T15:52:12Z</time>
      </trkpt>
      <trkpt lat="44.87718" lon="5.4567">
        <ele>1437.789062</ele>
        <time>2010-06-05T15:52:18Z</time>
      </trkpt>
      <trkpt lat="44.87714" lon="5.45684">
        <ele>1438.750488</ele>
        <time>2010-06-05T15:52:25Z</time>
      </trkpt>
      <trkpt lat="44.87709" lon="5.45697">
        <ele>1442.595703</ele>
        <time>2010-06-05T15:52:33Z</time>
      </trkpt>
      <trkpt lat="44.87706" lon="5.45713">
        <ele>1443.556885</ele>
        <time>2010-06-05T15:52:40Z</time>
      </trkpt>
      <trkpt lat="44.87703" lon="5.4573">
        <ele>1443.556885</ele>
        <time>2010-06-05T15:52:48Z</time>
      </trkpt>
      <trkpt lat="44.877" lon="5.45749">
        <ele>1443.556885</ele>
        <time>2010-06-05T15:52:56Z</time>
      </trkpt>
      <trkpt lat="44.87698" lon="5.4576">
        <ele>1443.556885</ele>
        <time>2010-06-05T15:53:01Z</time>
      </trkpt>
      <trkpt lat="44.87695" lon="5.45771">
        <ele>1444.037598</ele>
        <time>2010-06-05T15:53:07Z</time>
      </trkpt>
      <trkpt lat="44.87691" lon="5.45786">
        <ele>1444.037598</ele>
        <time>2010-06-05T15:53:13Z</time>
      </trkpt>
      <trkpt lat="44.87684" lon="5.45799">
        <ele>1444.518066</ele>
        <time>2010-06-05T15:53:19Z</time>
      </trkpt>
      <trkpt lat="44.87674" lon="5.4581">
        <ele>1444.998779</ele>
        <time>2010-06-05T15:53:25Z</time>
      </trkpt>
      <trkpt lat="44.87662" lon="5.45826">
        <ele>1444.518066</ele>
        <time>2010-06-05T15:53:33Z</time>
      </trkpt>
      <trkpt lat="44.87649" lon="5.45846">
        <ele>1443.076172</ele>
        <time>2010-06-05T15:53:42Z</time>
      </trkpt>
      <trkpt lat="44.87642" lon="5.45861">
        <ele>1444.998779</ele>
        <time>2010-06-05T15:53:49Z</time>
      </trkpt>
      <trkpt lat="44.87635" lon="5.45875">
        <ele>1445.960205</ele>
        <time>2010-06-05T15:53:57Z</time>
      </trkpt>
      <trkpt lat="44.87628" lon="5.45889">
        <ele>1447.4021</ele>
        <time>2010-06-05T15:54:05Z</time>
      </trkpt>
      <trkpt lat="44.87623" lon="5.45896">
        <ele>1447.882812</ele>
        <time>2010-06-05T15:54:11Z</time>
      </trkpt>
      <trkpt lat="44.87618" lon="5.45912">
        <ele>1447.882812</ele>
        <time>2010-06-05T15:54:20Z</time>
      </trkpt>
      <trkpt lat="44.87613" lon="5.45926">
        <ele>1448.843994</ele>
        <time>2010-06-05T15:54:28Z</time>
      </trkpt>
      <trkpt lat="44.87609" lon="5.45939">
        <ele>1451.247314</ele>
        <time>2010-06-05T15:54:35Z</time>
      </trkpt>
      <trkpt lat="44.87604" lon="5.45952">
        <ele>1450.766602</ele>
        <time>2010-06-05T15:54:42Z</time>
      </trkpt>
      <trkpt lat="44.87598" lon="5.45962">
        <ele>1450.766602</ele>
        <time>2010-06-05T15:54:49Z</time>
      </trkpt>
      <trkpt lat="44.87592" lon="5.45975">
        <ele>1452.689453</ele>
        <time>2010-06-05T15:54:57Z</time>
      </trkpt>
      <trkpt lat="44.87583" lon="5.45987">
        <ele>1456.534668</ele>
        <time>2010-06-05T15:55:05Z</time>
      </trkpt>
      <trkpt lat="44.87578" lon="5.45994">
        <ele>1457.015381</ele>
        <time>2010-06-05T15:55:11Z</time>
      </trkpt>
      <trkpt lat="44.87573" lon="5.46002">
        <ele>1457.976807</ele>
        <time>2010-06-05T15:55:17Z</time>
      </trkpt>
      <trkpt lat="44.87566" lon="5.46013">
        <ele>1458.937988</ele>
        <time>2010-06-05T15:55:24Z</time>
      </trkpt>
      <trkpt lat="44.87563" lon="5.46018">
        <ele>1459.418701</ele>
        <time>2010-06-05T15:55:27Z</time>
      </trkpt>
      <trkpt lat="44.87558" lon="5.46027">
        <ele>1459.89917</ele>
        <time>2010-06-05T15:55:32Z</time>
      </trkpt>
      <trkpt lat="44.87554" lon="5.4604">
        <ele>1458.937988</ele>
        <time>2010-06-05T15:55:39Z</time>
      </trkpt>
      <trkpt lat="44.87552" lon="5.46042">
        <ele>1459.418701</ele>
        <time>2010-06-05T15:55:44Z</time>
      </trkpt>
      <trkpt lat="44.8755" lon="5.46043">
        <ele>1461.341309</ele>
        <time>2010-06-05T15:55:57Z</time>
      </trkpt>
      <trkpt lat="44.87547" lon="5.46048">
        <ele>1459.418701</ele>
        <time>2010-06-05T15:56:04Z</time>
      </trkpt>
      <trkpt lat="44.87536" lon="5.46065">
        <ele>1458.457275</ele>
        <time>2010-06-05T15:56:12Z</time>
      </trkpt>
      <trkpt lat="44.87522" lon="5.4609">
        <ele>1457.976807</ele>
        <time>2010-06-05T15:56:21Z</time>
      </trkpt>
      <trkpt lat="44.87503" lon="5.46121">
        <ele>1458.457275</ele>
        <time>2010-06-05T15:56:32Z</time>
      </trkpt>
      <trkpt lat="44.87495" lon="5.46138">
        <ele>1458.937988</ele>
        <time>2010-06-05T15:56:38Z</time>
      </trkpt>
      <trkpt lat="44.87489" lon="5.46153">
        <ele>1458.457275</ele>
        <time>2010-06-05T15:56:44Z</time>
      </trkpt>
      <trkpt lat="44.87488" lon="5.46154">
        <ele>1458.457275</ele>
        <time>2010-06-05T15:56:50Z</time>
      </trkpt>
      <trkpt lat="44.87485" lon="5.46161">
        <ele>1457.976807</ele>
        <time>2010-06-05T15:57:01Z</time>
      </trkpt>
      <trkpt lat="44.87475" lon="5.46188">
        <ele>1458.457275</ele>
        <time>2010-06-05T15:57:10Z</time>
      </trkpt>
      <trkpt lat="44.87461" lon="5.46208">
        <ele>1458.457275</ele>
        <time>2010-06-05T15:57:18Z</time>
      </trkpt>
      <trkpt lat="44.87451" lon="5.46231">
        <ele>1458.937988</ele>
        <time>2010-06-05T15:57:26Z</time>
      </trkpt>
      <trkpt lat="44.8744" lon="5.46262">
        <ele>1459.89917</ele>
        <time>2010-06-05T15:57:36Z</time>
      </trkpt>
      <trkpt lat="44.87428" lon="5.46282">
        <ele>1460.860596</ele>
        <time>2010-06-05T15:57:43Z</time>
      </trkpt>
      <trkpt lat="44.87412" lon="5.46305">
        <ele>1461.341309</ele>
        <time>2010-06-05T15:57:51Z</time>
      </trkpt>
      <trkpt lat="44.87401" lon="5.46328">
        <ele>1462.30249</ele>
        <time>2010-06-05T15:57:58Z</time>
      </trkpt>
      <trkpt lat="44.87388" lon="5.46352">
        <ele>1461.822021</ele>
        <time>2010-06-05T15:58:05Z</time>
      </trkpt>
      <trkpt lat="44.87379" lon="5.46371">
        <ele>1461.341309</ele>
        <time>2010-06-05T15:58:12Z</time>
      </trkpt>
      <trkpt lat="44.87372" lon="5.46388">
        <ele>1461.822021</ele>
        <time>2010-06-05T15:58:19Z</time>
      </trkpt>
      <trkpt lat="44.87365" lon="5.46404">
        <ele>1463.263916</ele>
        <time>2010-06-05T15:58:25Z</time>
      </trkpt>
      <trkpt lat="44.87361" lon="5.4641">
        <ele>1463.263916</ele>
        <time>2010-06-05T15:58:30Z</time>
      </trkpt>
      <trkpt lat="44.8736" lon="5.4641">
        <ele>1463.263916</ele>
        <time>2010-06-05T15:59:12Z</time>
      </trkpt>
      <trkpt lat="44.87355" lon="5.46426">
        <ele>1463.744385</ele>
        <time>2010-06-05T15:59:17Z</time>
      </trkpt>
      <trkpt lat="44.87346" lon="5.46461">
        <ele>1464.705811</ele>
        <time>2010-06-05T15:59:23Z</time>
      </trkpt>
      <trkpt lat="44.87339" lon="5.46484">
        <ele>1466.147705</ele>
        <time>2010-06-05T15:59:28Z</time>
      </trkpt>
      <trkpt lat="44.87337" lon="5.46491">
        <ele>1466.147705</ele>
        <time>2010-06-05T15:59:33Z</time>
      </trkpt>
      <trkpt lat="44.87335" lon="5.46497">
        <ele>1467.109131</ele>
        <time>2010-06-05T15:59:49Z</time>
      </trkpt>
      <trkpt lat="44.87331" lon="5.46517">
        <ele>1467.109131</ele>
        <time>2010-06-05T15:59:54Z</time>
      </trkpt>
      <trkpt lat="44.87325" lon="5.46545">
        <ele>1466.628418</ele>
        <time>2010-06-05T15:59:58Z</time>
      </trkpt>
      <trkpt lat="44.87317" lon="5.46589">
        <ele>1466.628418</ele>
        <time>2010-06-05T16:00:03Z</time>
      </trkpt>
      <trkpt lat="44.87311" lon="5.46624">
        <ele>1466.147705</ele>
        <time>2010-06-05T16:00:07Z</time>
      </trkpt>
      <trkpt lat="44.87308" lon="5.46649">
        <ele>1466.628418</ele>
        <time>2010-06-05T16:00:10Z</time>
      </trkpt>
      <trkpt lat="44.873" lon="5.46684">
        <ele>1466.628418</ele>
        <time>2010-06-05T16:00:15Z</time>
      </trkpt>
      <trkpt lat="44.87284" lon="5.46738">
        <ele>1467.109131</ele>
        <time>2010-06-05T16:00:24Z</time>
      </trkpt>
      <trkpt lat="44.87273" lon="5.46782">
        <ele>1467.5896</ele>
        <time>2010-06-05T16:00:31Z</time>
      </trkpt>
      <trkpt lat="44.8726" lon="5.46807">
        <ele>1468.070557</ele>
        <time>2010-06-05T16:00:37Z</time>
      </trkpt>
      <trkpt lat="44.87234" lon="5.46834">
        <ele>1468.551269</ele>
        <time>2010-06-05T16:00:47Z</time>
      </trkpt>
      <trkpt lat="44.87218" lon="5.46854">
        <ele>1468.551269</ele>
        <time>2010-06-05T16:00:55Z</time>
      </trkpt>
      <trkpt lat="44.87203" lon="5.46883">
        <ele>1469.512695</ele>
        <time>2010-06-05T16:01:03Z</time>
      </trkpt>
      <trkpt lat="44.8719" lon="5.46893">
        <ele>1470.473877</ele>
        <time>2010-06-05T16:01:08Z</time>
      </trkpt>
      <trkpt lat="44.87173" lon="5.46905">
        <ele>1470.473877</ele>
        <time>2010-06-05T16:01:15Z</time>
      </trkpt>
      <trkpt lat="44.87158" lon="5.46931">
        <ele>1470.473877</ele>
        <time>2010-06-05T16:01:23Z</time>
      </trkpt>
      <trkpt lat="44.87148" lon="5.46961">
        <ele>1472.396484</ele>
        <time>2010-06-05T16:01:31Z</time>
      </trkpt>
      <trkpt lat="44.87146" lon="5.46981">
        <ele>1473.35791</ele>
        <time>2010-06-05T16:01:38Z</time>
      </trkpt>
      <trkpt lat="44.87141" lon="5.47003">
        <ele>1474.319092</ele>
        <time>2010-06-05T16:01:45Z</time>
      </trkpt>
      <trkpt lat="44.87134" lon="5.47033">
        <ele>1474.799805</ele>
        <time>2010-06-05T16:01:55Z</time>
      </trkpt>
      <trkpt lat="44.87127" lon="5.47058">
        <ele>1475.280273</ele>
        <time>2010-06-05T16:02:04Z</time>
      </trkpt>
      <trkpt lat="44.8712" lon="5.47087">
        <ele>1475.280273</ele>
        <time>2010-06-05T16:02:13Z</time>
      </trkpt>
      <trkpt lat="44.87114" lon="5.471">
        <ele>1475.760986</ele>
        <time>2010-06-05T16:02:19Z</time>
      </trkpt>
      <trkpt lat="44.87108" lon="5.47112">
        <ele>1476.241699</ele>
        <time>2010-06-05T16:02:26Z</time>
      </trkpt>
      <trkpt lat="44.87098" lon="5.47124">
        <ele>1476.241699</ele>
        <time>2010-06-05T16:02:33Z</time>
      </trkpt>
      <trkpt lat="44.87084" lon="5.47137">
        <ele>1476.241699</ele>
        <time>2010-06-05T16:02:41Z</time>
      </trkpt>
      <trkpt lat="44.87065" lon="5.47156">
        <ele>1477.203125</ele>
        <time>2010-06-05T16:02:52Z</time>
      </trkpt>
      <trkpt lat="44.87059" lon="5.47162">
        <ele>1477.683594</ele>
        <time>2010-06-05T16:02:57Z</time>
      </trkpt>
      <trkpt lat="44.87047" lon="5.47174">
        <ele>1478.645019</ele>
        <time>2010-06-05T16:03:06Z</time>
      </trkpt>
      <trkpt lat="44.87038" lon="5.47184">
        <ele>1479.606201</ele>
        <time>2010-06-05T16:03:13Z</time>
      </trkpt>
      <trkpt lat="44.87028" lon="5.47198">
        <ele>1480.567627</ele>
        <time>2010-06-05T16:03:22Z</time>
      </trkpt>
      <trkpt lat="44.87022" lon="5.47205">
        <ele>1481.528809</ele>
        <time>2010-06-05T16:03:29Z</time>
      </trkpt>
      <trkpt lat="44.87018" lon="5.47211">
        <ele>1481.528809</ele>
        <time>2010-06-05T16:03:35Z</time>
      </trkpt>
      <trkpt lat="44.87012" lon="5.47218">
        <ele>1481.528809</ele>
        <time>2010-06-05T16:03:42Z</time>
      </trkpt>
      <trkpt lat="44.87002" lon="5.47232">
        <ele>1482.490234</ele>
        <time>2010-06-05T16:03:51Z</time>
      </trkpt>
      <trkpt lat="44.86992" lon="5.4724">
        <ele>1483.932129</ele>
        <time>2010-06-05T16:03:58Z</time>
      </trkpt>
      <trkpt lat="44.86984" lon="5.47241">
        <ele>1484.893799</ele>
        <time>2010-06-05T16:04:04Z</time>
      </trkpt>
      <trkpt lat="44.86982" lon="5.47241">
        <ele>1484.893799</ele>
        <time>2010-06-05T16:04:06Z</time>
      </trkpt>
      <trkpt lat="44.86971" lon="5.47241">
        <ele>1484.893799</ele>
        <time>2010-06-05T16:04:14Z</time>
      </trkpt>
      <trkpt lat="44.8696" lon="5.47247">
        <ele>1486.335693</ele>
        <time>2010-06-05T16:04:22Z</time>
      </trkpt>
      <trkpt lat="44.86955" lon="5.47255">
        <ele>1486.335693</ele>
        <time>2010-06-05T16:04:29Z</time>
      </trkpt>
      <trkpt lat="44.86948" lon="5.4727">
        <ele>1486.816162</ele>
        <time>2010-06-05T16:04:36Z</time>
      </trkpt>
      <trkpt lat="44.86936" lon="5.47294">
        <ele>1487.777588</ele>
        <time>2010-06-05T16:04:46Z</time>
      </trkpt>
      <trkpt lat="44.86931" lon="5.47305">
        <ele>1488.739014</ele>
        <time>2010-06-05T16:04:52Z</time>
      </trkpt>
      <trkpt lat="44.86931" lon="5.47306">
        <ele>1489.219482</ele>
        <time>2010-06-05T16:04:58Z</time>
      </trkpt>
      <trkpt lat="44.86929" lon="5.47307">
        <ele>1489.700195</ele>
        <time>2010-06-05T16:05:19Z</time>
      </trkpt>
      <trkpt lat="44.86922" lon="5.47319">
        <ele>1489.219482</ele>
        <time>2010-06-05T16:05:26Z</time>
      </trkpt>
      <trkpt lat="44.86916" lon="5.47331">
        <ele>1489.700195</ele>
        <time>2010-06-05T16:05:33Z</time>
      </trkpt>
      <trkpt lat="44.86915" lon="5.47331">
        <ele>1489.700195</ele>
        <time>2010-06-05T16:05:38Z</time>
      </trkpt>
      <trkpt lat="44.86915" lon="5.47332">
        <ele>1490.661377</ele>
        <time>2010-06-05T16:06:21Z</time>
      </trkpt>
      <trkpt lat="44.86913" lon="5.47335">
        <ele>1491.14209</ele>
        <time>2010-06-05T16:06:34Z</time>
      </trkpt>
      <trkpt lat="44.86913" lon="5.47334">
        <ele>1491.14209</ele>
        <time>2010-06-05T16:06:42Z</time>
      </trkpt>
      <trkpt lat="44.86913" lon="5.47334">
        <ele>1491.14209</ele>
        <time>2010-06-05T16:07:00Z</time>
      </trkpt>
      <trkpt lat="44.86914" lon="5.47334">
        <ele>1491.14209</ele>
        <time>2010-06-05T16:07:22Z</time>
      </trkpt>
      <trkpt lat="44.86914" lon="5.47334">
        <ele>1490.661377</ele>
        <time>2010-06-05T16:07:48Z</time>
      </trkpt>
      <trkpt lat="44.86913" lon="5.47336">
        <ele>1490.661377</ele>
        <time>2010-06-05T16:08:11Z</time>
      </trkpt>
      <trkpt lat="44.86911" lon="5.47339">
        <ele>1490.661377</ele>
        <time>2010-06-05T16:08:15Z</time>
      </trkpt>
      <trkpt lat="44.86901" lon="5.47351">
        <ele>1490.661377</ele>
        <time>2010-06-05T16:08:24Z</time>
      </trkpt>
      <trkpt lat="44.86893" lon="5.47361">
        <ele>1491.622803</ele>
        <time>2010-06-05T16:08:31Z</time>
      </trkpt>
      <trkpt lat="44.86881" lon="5.47379">
        <ele>1492.103516</ele>
        <time>2010-06-05T16:08:41Z</time>
      </trkpt>
      <trkpt lat="44.86865" lon="5.47399">
        <ele>1492.584229</ele>
        <time>2010-06-05T16:08:52Z</time>
      </trkpt>
      <trkpt lat="44.86853" lon="5.47418">
        <ele>1493.064697</ele>
        <time>2010-06-05T16:09:01Z</time>
      </trkpt>
      <trkpt lat="44.86838" lon="5.47436">
        <ele>1493.064697</ele>
        <time>2010-06-05T16:09:10Z</time>
      </trkpt>
      <trkpt lat="44.86826" lon="5.47446">
        <ele>1493.54541</ele>
        <time>2010-06-05T16:09:17Z</time>
      </trkpt>
      <trkpt lat="44.8681" lon="5.47461">
        <ele>1494.506592</ele>
        <time>2010-06-05T16:09:26Z</time>
      </trkpt>
      <trkpt lat="44.86795" lon="5.47479">
        <ele>1495.468018</ele>
        <time>2010-06-05T16:09:35Z</time>
      </trkpt>
      <trkpt lat="44.86786" lon="5.47492">
        <ele>1496.909912</ele>
        <time>2010-06-05T16:09:42Z</time>
      </trkpt>
      <trkpt lat="44.86775" lon="5.47505">
        <ele>1497.390625</ele>
        <time>2010-06-05T16:09:50Z</time>
      </trkpt>
      <trkpt lat="44.86765" lon="5.47519">
        <ele>1498.351807</ele>
        <time>2010-06-05T16:09:58Z</time>
      </trkpt>
      <trkpt lat="44.86756" lon="5.47532">
        <ele>1498.832519</ele>
        <time>2010-06-05T16:10:06Z</time>
      </trkpt>
      <trkpt lat="44.86751" lon="5.47538">
        <ele>1498.832519</ele>
        <time>2010-06-05T16:10:12Z</time>
      </trkpt>
      <trkpt lat="44.86741" lon="5.47549">
        <ele>1498.351807</ele>
        <time>2010-06-05T16:10:20Z</time>
      </trkpt>
      <trkpt lat="44.86729" lon="5.47556">
        <ele>1497.871338</ele>
        <time>2010-06-05T16:10:26Z</time>
      </trkpt>
      <trkpt lat="44.86727" lon="5.47556">
        <ele>1498.351807</ele>
        <time>2010-06-05T16:10:27Z</time>
      </trkpt>
      <trkpt lat="44.86725" lon="5.47554">
        <ele>1497.871338</ele>
        <time>2010-06-05T16:10:30Z</time>
      </trkpt>
      <trkpt lat="44.86724" lon="5.47549">
        <ele>1497.390625</ele>
        <time>2010-06-05T16:10:34Z</time>
      </trkpt>
      <trkpt lat="44.8672" lon="5.47545">
        <ele>1496.909912</ele>
        <time>2010-06-05T16:10:42Z</time>
      </trkpt>
      <trkpt lat="44.8672" lon="5.47546">
        <ele>1496.429443</ele>
        <time>2010-06-05T16:10:50Z</time>
      </trkpt>
      <trkpt lat="44.86724" lon="5.4755">
        <ele>1501.716797</ele>
        <time>2010-06-05T16:31:02Z</time>
      </trkpt>
      <trkpt lat="44.86723" lon="5.47552">
        <ele>1502.677979</ele>
        <time>2010-06-05T16:31:09Z</time>
      </trkpt>
      <trkpt lat="44.86722" lon="5.47555">
        <ele>1503.639404</ele>
        <time>2010-06-05T16:31:16Z</time>
      </trkpt>
      <trkpt lat="44.86719" lon="5.47556">
        <ele>1503.639404</ele>
        <time>2010-06-05T16:31:22Z</time>
      </trkpt>
      <trkpt lat="44.86718" lon="5.47555">
        <ele>1503.639404</ele>
        <time>2010-06-05T16:31:30Z</time>
      </trkpt>
      <trkpt lat="44.86718" lon="5.47555">
        <ele>1502.677979</ele>
        <time>2010-06-05T16:31:42Z</time>
      </trkpt>
      <trkpt lat="44.86712" lon="5.47552">
        <ele>1502.197266</ele>
        <time>2010-06-05T16:31:47Z</time>
      </trkpt>
      <trkpt lat="44.86692" lon="5.47539">
        <ele>1500.755371</ele>
        <time>2010-06-05T16:31:57Z</time>
      </trkpt>
      <trkpt lat="44.86677" lon="5.47528">
        <ele>1499.793945</ele>
        <time>2010-06-05T16:32:03Z</time>
      </trkpt>
      <trkpt lat="44.86659" lon="5.47516">
        <ele>1498.832519</ele>
        <time>2010-06-05T16:32:09Z</time>
      </trkpt>
      <trkpt lat="44.86639" lon="5.47508">
        <ele>1498.832519</ele>
        <time>2010-06-05T16:32:16Z</time>
      </trkpt>
      <trkpt lat="44.86633" lon="5.47507">
        <ele>1498.832519</ele>
        <time>2010-06-05T16:32:20Z</time>
      </trkpt>
      <trkpt lat="44.86632" lon="5.47507">
        <ele>1498.832519</ele>
        <time>2010-06-05T16:32:45Z</time>
      </trkpt>
      <trkpt lat="44.86624" lon="5.47507">
        <ele>1498.832519</ele>
        <time>2010-06-05T16:32:52Z</time>
      </trkpt>
      <trkpt lat="44.86612" lon="5.47508">
        <ele>1498.351807</ele>
        <time>2010-06-05T16:32:57Z</time>
      </trkpt>
      <trkpt lat="44.86601" lon="5.4751">
        <ele>1497.390625</ele>
        <time>2010-06-05T16:33:00Z</time>
      </trkpt>
      <trkpt lat="44.86585" lon="5.47519">
        <ele>1496.909912</ele>
        <time>2010-06-05T16:33:04Z</time>
      </trkpt>
      <trkpt lat="44.86573" lon="5.4753">
        <ele>1497.390625</ele>
        <time>2010-06-05T16:33:09Z</time>
      </trkpt>
      <trkpt lat="44.86559" lon="5.47547">
        <ele>1498.351807</ele>
        <time>2010-06-05T16:33:17Z</time>
      </trkpt>
      <trkpt lat="44.86541" lon="5.47565">
        <ele>1498.351807</ele>
        <time>2010-06-05T16:33:26Z</time>
      </trkpt>
      <trkpt lat="44.86527" lon="5.47575">
        <ele>1498.832519</ele>
        <time>2010-06-05T16:33:33Z</time>
      </trkpt>
      <trkpt lat="44.86515" lon="5.4758">
        <ele>1500.274902</ele>
        <time>2010-06-05T16:33:39Z</time>
      </trkpt>
      <trkpt lat="44.865" lon="5.47584">
        <ele>1500.274902</ele>
        <time>2010-06-05T16:33:46Z</time>
      </trkpt>
      <trkpt lat="44.86479" lon="5.47583">
        <ele>1501.236084</ele>
        <time>2010-06-05T16:33:54Z</time>
      </trkpt>
      <trkpt lat="44.86461" lon="5.47572">
        <ele>1501.716797</ele>
        <time>2010-06-05T16:34:01Z</time>
      </trkpt>
      <trkpt lat="44.86448" lon="5.47573">
        <ele>1502.197266</ele>
        <time>2010-06-05T16:34:06Z</time>
      </trkpt>
      <trkpt lat="44.86429" lon="5.47577">
        <ele>1503.158691</ele>
        <time>2010-06-05T16:34:14Z</time>
      </trkpt>
      <trkpt lat="44.86414" lon="5.47578">
        <ele>1504.120117</ele>
        <time>2010-06-05T16:34:20Z</time>
      </trkpt>
      <trkpt lat="44.86401" lon="5.47571">
        <ele>1503.639404</ele>
        <time>2010-06-05T16:34:26Z</time>
      </trkpt>
      <trkpt lat="44.86386" lon="5.47553">
        <ele>1502.677979</ele>
        <time>2010-06-05T16:34:32Z</time>
      </trkpt>
      <trkpt lat="44.86368" lon="5.47531">
        <ele>1504.600586</ele>
        <time>2010-06-05T16:34:40Z</time>
      </trkpt>
      <trkpt lat="44.86354" lon="5.47525">
        <ele>1505.081299</ele>
        <time>2010-06-05T16:34:46Z</time>
      </trkpt>
      <trkpt lat="44.86342" lon="5.47517">
        <ele>1505.562012</ele>
        <time>2010-06-05T16:34:52Z</time>
      </trkpt>
      <trkpt lat="44.86341" lon="5.47517">
        <ele>1505.562012</ele>
        <time>2010-06-05T16:34:56Z</time>
      </trkpt>
      <trkpt lat="44.86338" lon="5.47517">
        <ele>1506.042481</ele>
        <time>2010-06-05T16:35:13Z</time>
      </trkpt>
      <trkpt lat="44.86325" lon="5.47514">
        <ele>1505.081299</ele>
        <time>2010-06-05T16:35:17Z</time>
      </trkpt>
      <trkpt lat="44.86299" lon="5.47508">
        <ele>1505.562012</ele>
        <time>2010-06-05T16:35:23Z</time>
      </trkpt>
      <trkpt lat="44.86285" lon="5.47507">
        <ele>1506.523193</ele>
        <time>2010-06-05T16:35:27Z</time>
      </trkpt>
      <trkpt lat="44.86266" lon="5.47523">
        <ele>1507.003906</ele>
        <time>2010-06-05T16:35:33Z</time>
      </trkpt>
      <trkpt lat="44.86249" lon="5.47545">
        <ele>1507.484619</ele>
        <time>2010-06-05T16:35:40Z</time>
      </trkpt>
      <trkpt lat="44.86231" lon="5.47574">
        <ele>1507.003906</ele>
        <time>2010-06-05T16:35:49Z</time>
      </trkpt>
      <trkpt lat="44.86213" lon="5.47595">
        <ele>1507.965332</ele>
        <time>2010-06-05T16:35:57Z</time>
      </trkpt>
      <trkpt lat="44.86198" lon="5.47604">
        <ele>1508.445801</ele>
        <time>2010-06-05T16:36:03Z</time>
      </trkpt>
      <trkpt lat="44.86188" lon="5.47609">
        <ele>1508.445801</ele>
        <time>2010-06-05T16:36:09Z</time>
      </trkpt>
      <trkpt lat="44.86177" lon="5.4761">
        <ele>1507.484619</ele>
        <time>2010-06-05T16:36:14Z</time>
      </trkpt>
      <trkpt lat="44.86157" lon="5.47604">
        <ele>1508.926514</ele>
        <time>2010-06-05T16:36:21Z</time>
      </trkpt>
      <trkpt lat="44.86143" lon="5.47602">
        <ele>1510.849121</ele>
        <time>2010-06-05T16:36:26Z</time>
      </trkpt>
      <trkpt lat="44.86133" lon="5.47603">
        <ele>1512.291016</ele>
        <time>2010-06-05T16:36:31Z</time>
      </trkpt>
      <trkpt lat="44.8612" lon="5.47611">
        <ele>1513.73291</ele>
        <time>2010-06-05T16:36:38Z</time>
      </trkpt>
      <trkpt lat="44.86108" lon="5.47625">
        <ele>1514.213623</ele>
        <time>2010-06-05T16:36:45Z</time>
      </trkpt>
      <trkpt lat="44.86096" lon="5.47639">
        <ele>1515.175049</ele>
        <time>2010-06-05T16:36:53Z</time>
      </trkpt>
      <trkpt lat="44.86087" lon="5.47647">
        <ele>1516.617188</ele>
        <time>2010-06-05T16:37:00Z</time>
      </trkpt>
      <trkpt lat="44.86079" lon="5.47652">
        <ele>1518.059082</ele>
        <time>2010-06-05T16:37:07Z</time>
      </trkpt>
      <trkpt lat="44.8607" lon="5.47658">
        <ele>1519.020508</ele>
        <time>2010-06-05T16:37:15Z</time>
      </trkpt>
      <trkpt lat="44.86062" lon="5.47659">
        <ele>1519.981689</ele>
        <time>2010-06-05T16:37:23Z</time>
      </trkpt>
      <trkpt lat="44.8605" lon="5.47659">
        <ele>1520.462402</ele>
        <time>2010-06-05T16:37:31Z</time>
      </trkpt>
      <trkpt lat="44.86037" lon="5.47664">
        <ele>1520.943115</ele>
        <time>2010-06-05T16:37:38Z</time>
      </trkpt>
      <trkpt lat="44.86019" lon="5.47673">
        <ele>1522.865723</ele>
        <time>2010-06-05T16:37:47Z</time>
      </trkpt>
      <trkpt lat="44.86005" lon="5.47682">
        <ele>1523.826904</ele>
        <time>2010-06-05T16:37:55Z</time>
      </trkpt>
      <trkpt lat="44.85993" lon="5.47682">
        <ele>1523.346436</ele>
        <time>2010-06-05T16:38:01Z</time>
      </trkpt>
      <trkpt lat="44.85976" lon="5.47679">
        <ele>1523.346436</ele>
        <time>2010-06-05T16:38:08Z</time>
      </trkpt>
      <trkpt lat="44.85956" lon="5.47684">
        <ele>1524.307617</ele>
        <time>2010-06-05T16:38:16Z</time>
      </trkpt>
      <trkpt lat="44.85945" lon="5.47684">
        <ele>1525.749512</ele>
        <time>2010-06-05T16:38:22Z</time>
      </trkpt>
      <trkpt lat="44.85932" lon="5.47686">
        <ele>1527.19165</ele>
        <time>2010-06-05T16:38:30Z</time>
      </trkpt>
      <trkpt lat="44.85921" lon="5.47689">
        <ele>1527.19165</ele>
        <time>2010-06-05T16:38:38Z</time>
      </trkpt>
      <trkpt lat="44.85911" lon="5.47693">
        <ele>1527.672119</ele>
        <time>2010-06-05T16:38:45Z</time>
      </trkpt>
      <trkpt lat="44.85898" lon="5.47701">
        <ele>1528.152832</ele>
        <time>2010-06-05T16:38:53Z</time>
      </trkpt>
      <trkpt lat="44.85887" lon="5.47704">
        <ele>1528.152832</ele>
        <time>2010-06-05T16:39:00Z</time>
      </trkpt>
      <trkpt lat="44.8587" lon="5.47706">
        <ele>1528.152832</ele>
        <time>2010-06-05T16:39:08Z</time>
      </trkpt>
      <trkpt lat="44.85852" lon="5.47706">
        <ele>1528.633545</ele>
        <time>2010-06-05T16:39:15Z</time>
      </trkpt>
      <trkpt lat="44.85838" lon="5.47704">
        <ele>1530.556152</ele>
        <time>2010-06-05T16:39:22Z</time>
      </trkpt>
      <trkpt lat="44.85824" lon="5.477">
        <ele>1530.556152</ele>
        <time>2010-06-05T16:39:29Z</time>
      </trkpt>
      <trkpt lat="44.85803" lon="5.47692">
        <ele>1531.036865</ele>
        <time>2010-06-05T16:39:37Z</time>
      </trkpt>
      <trkpt lat="44.85781" lon="5.4769">
        <ele>1531.517334</ele>
        <time>2010-06-05T16:39:45Z</time>
      </trkpt>
      <trkpt lat="44.85762" lon="5.47688">
        <ele>1532.479004</ele>
        <time>2010-06-05T16:39:52Z</time>
      </trkpt>
      <trkpt lat="44.85742" lon="5.47684">
        <ele>1532.479004</ele>
        <time>2010-06-05T16:40:00Z</time>
      </trkpt>
      <trkpt lat="44.85716" lon="5.4768">
        <ele>1533.920898</ele>
        <time>2010-06-05T16:40:10Z</time>
      </trkpt>
      <trkpt lat="44.85706" lon="5.47682">
        <ele>1534.401611</ele>
        <time>2010-06-05T16:40:16Z</time>
      </trkpt>
      <trkpt lat="44.85687" lon="5.47686">
        <ele>1533.920898</ele>
        <time>2010-06-05T16:40:24Z</time>
      </trkpt>
      <trkpt lat="44.85676" lon="5.47693">
        <ele>1534.401611</ele>
        <time>2010-06-05T16:40:29Z</time>
      </trkpt>
      <trkpt lat="44.8566" lon="5.47705">
        <ele>1533.920898</ele>
        <time>2010-06-05T16:40:36Z</time>
      </trkpt>
      <trkpt lat="44.85636" lon="5.47718">
        <ele>1534.401611</ele>
        <time>2010-06-05T16:40:45Z</time>
      </trkpt>
      <trkpt lat="44.85627" lon="5.47727">
        <ele>1535.362793</ele>
        <time>2010-06-05T16:40:51Z</time>
      </trkpt>
      <trkpt lat="44.85621" lon="5.47734">
        <ele>1536.804688</ele>
        <time>2010-06-05T16:40:58Z</time>
      </trkpt>
      <trkpt lat="44.8562" lon="5.47734">
        <ele>1537.766113</ele>
        <time>2010-06-05T16:41:25Z</time>
      </trkpt>
      <trkpt lat="44.85623" lon="5.47734">
        <ele>1534.882324</ele>
        <time>2010-06-05T16:41:50Z</time>
      </trkpt>
      <trkpt lat="44.85619" lon="5.47732">
        <ele>1538.246826</ele>
        <time>2010-06-05T16:42:10Z</time>
      </trkpt>
      <trkpt lat="44.85626" lon="5.47735">
        <ele>1536.324219</ele>
        <time>2010-06-05T16:42:52Z</time>
      </trkpt>
      <trkpt lat="44.85625" lon="5.47734">
        <ele>1535.362793</ele>
        <time>2010-06-05T16:43:20Z</time>
      </trkpt>
      <trkpt lat="44.85624" lon="5.47734">
        <ele>1535.362793</ele>
        <time>2010-06-05T16:43:32Z</time>
      </trkpt>
      <trkpt lat="44.85618" lon="5.4774">
        <ele>1535.843506</ele>
        <time>2010-06-05T16:43:38Z</time>
      </trkpt>
      <trkpt lat="44.8561" lon="5.47751">
        <ele>1535.843506</ele>
        <time>2010-06-05T16:43:44Z</time>
      </trkpt>
      <trkpt lat="44.85599" lon="5.47759">
        <ele>1536.324219</ele>
        <time>2010-06-05T16:43:51Z</time>
      </trkpt>
      <trkpt lat="44.85589" lon="5.47769">
        <ele>1537.766113</ele>
        <time>2010-06-05T16:43:59Z</time>
      </trkpt>
      <trkpt lat="44.85576" lon="5.47783">
        <ele>1539.208008</ele>
        <time>2010-06-05T16:44:08Z</time>
      </trkpt>
      <trkpt lat="44.85563" lon="5.47791">
        <ele>1541.130615</ele>
        <time>2010-06-05T16:44:17Z</time>
      </trkpt>
      <trkpt lat="44.85556" lon="5.4779">
        <ele>1543.053223</ele>
        <time>2010-06-05T16:44:23Z</time>
      </trkpt>
      <trkpt lat="44.85547" lon="5.47788">
        <ele>1543.533936</ele>
        <time>2010-06-05T16:44:30Z</time>
      </trkpt>
      <trkpt lat="44.85535" lon="5.47787">
        <ele>1542.572754</ele>
        <time>2010-06-05T16:44:36Z</time>
      </trkpt>
      <trkpt lat="44.85523" lon="5.47788">
        <ele>1543.533936</ele>
        <time>2010-06-05T16:44:44Z</time>
      </trkpt>
      <trkpt lat="44.85509" lon="5.47791">
        <ele>1544.014648</ele>
        <time>2010-06-05T16:44:53Z</time>
      </trkpt>
      <trkpt lat="44.85497" lon="5.47793">
        <ele>1545.456543</ele>
        <time>2010-06-05T16:45:01Z</time>
      </trkpt>
      <trkpt lat="44.85483" lon="5.47794">
        <ele>1546.898438</ele>
        <time>2010-06-05T16:45:10Z</time>
      </trkpt>
      <trkpt lat="44.8547" lon="5.47795">
        <ele>1546.898438</ele>
        <time>2010-06-05T16:45:18Z</time>
      </trkpt>
      <trkpt lat="44.8546" lon="5.47795">
        <ele>1546.898438</ele>
        <time>2010-06-05T16:45:24Z</time>
      </trkpt>
      <trkpt lat="44.85451" lon="5.47797">
        <ele>1546.898438</ele>
        <time>2010-06-05T16:45:30Z</time>
      </trkpt>
      <trkpt lat="44.85443" lon="5.47799">
        <ele>1548.821289</ele>
        <time>2010-06-05T16:45:37Z</time>
      </trkpt>
      <trkpt lat="44.85436" lon="5.47804">
        <ele>1550.263428</ele>
        <time>2010-06-05T16:45:44Z</time>
      </trkpt>
      <trkpt lat="44.85425" lon="5.47816">
        <ele>1552.185791</ele>
        <time>2010-06-05T16:45:54Z</time>
      </trkpt>
      <trkpt lat="44.85417" lon="5.47829">
        <ele>1554.108643</ele>
        <time>2010-06-05T16:46:03Z</time>
      </trkpt>
      <trkpt lat="44.85406" lon="5.47836">
        <ele>1555.069824</ele>
        <time>2010-06-05T16:46:11Z</time>
      </trkpt>
      <trkpt lat="44.85395" lon="5.47839">
        <ele>1555.550537</ele>
        <time>2010-06-05T16:46:19Z</time>
      </trkpt>
      <trkpt lat="44.85386" lon="5.4784">
        <ele>1556.992432</ele>
        <time>2010-06-05T16:46:27Z</time>
      </trkpt>
      <trkpt lat="44.85374" lon="5.47841">
        <ele>1556.511719</ele>
        <time>2010-06-05T16:46:36Z</time>
      </trkpt>
      <trkpt lat="44.85362" lon="5.47842">
        <ele>1557.473144</ele>
        <time>2010-06-05T16:46:45Z</time>
      </trkpt>
      <trkpt lat="44.85354" lon="5.47843">
        <ele>1557.953857</ele>
        <time>2010-06-05T16:46:51Z</time>
      </trkpt>
      <trkpt lat="44.85345" lon="5.47845">
        <ele>1558.915039</ele>
        <time>2010-06-05T16:46:58Z</time>
      </trkpt>
      <trkpt lat="44.85337" lon="5.47845">
        <ele>1559.876221</ele>
        <time>2010-06-05T16:47:05Z</time>
      </trkpt>
      <trkpt lat="44.85331" lon="5.47845">
        <ele>1559.876221</ele>
        <time>2010-06-05T16:47:12Z</time>
      </trkpt>
      <trkpt lat="44.8532" lon="5.47843">
        <ele>1559.876221</ele>
        <time>2010-06-05T16:47:20Z</time>
      </trkpt>
      <trkpt lat="44.85313" lon="5.47842">
        <ele>1560.837646</ele>
        <time>2010-06-05T16:47:27Z</time>
      </trkpt>
      <trkpt lat="44.85301" lon="5.4784">
        <ele>1560.837646</ele>
        <time>2010-06-05T16:47:35Z</time>
      </trkpt>
      <trkpt lat="44.8529" lon="5.47836">
        <ele>1562.279541</ele>
        <time>2010-06-05T16:47:43Z</time>
      </trkpt>
      <trkpt lat="44.85282" lon="5.47833">
        <ele>1563.240967</ele>
        <time>2010-06-05T16:47:51Z</time>
      </trkpt>
      <trkpt lat="44.85273" lon="5.47831">
        <ele>1562.760254</ele>
        <time>2010-06-05T16:47:58Z</time>
      </trkpt>
      <trkpt lat="44.85263" lon="5.47833">
        <ele>1563.721436</ele>
        <time>2010-06-05T16:48:04Z</time>
      </trkpt>
      <trkpt lat="44.85254" lon="5.47831">
        <ele>1564.202393</ele>
        <time>2010-06-05T16:48:10Z</time>
      </trkpt>
      <trkpt lat="44.85242" lon="5.47831">
        <ele>1565.163818</ele>
        <time>2010-06-05T16:48:18Z</time>
      </trkpt>
      <trkpt lat="44.85235" lon="5.47833">
        <ele>1565.163818</ele>
        <time>2010-06-05T16:48:24Z</time>
      </trkpt>
      <trkpt lat="44.85231" lon="5.47835">
        <ele>1564.683106</ele>
        <time>2010-06-05T16:48:31Z</time>
      </trkpt>
      <trkpt lat="44.85229" lon="5.47834">
        <ele>1564.202393</ele>
        <time>2010-06-05T16:48:46Z</time>
      </trkpt>
      <trkpt lat="44.85223" lon="5.47836">
        <ele>1563.721436</ele>
        <time>2010-06-05T16:48:56Z</time>
      </trkpt>
      <trkpt lat="44.8521" lon="5.47839">
        <ele>1562.760254</ele>
        <time>2010-06-05T16:49:01Z</time>
      </trkpt>
      <trkpt lat="44.85206" lon="5.4784">
        <ele>1562.279541</ele>
        <time>2010-06-05T16:49:02Z</time>
      </trkpt>
      <trkpt lat="44.8518" lon="5.47854">
        <ele>1559.876221</ele>
        <time>2010-06-05T16:49:08Z</time>
      </trkpt>
      <trkpt lat="44.85162" lon="5.47862">
        <ele>1558.434326</ele>
        <time>2010-06-05T16:49:11Z</time>
      </trkpt>
      <trkpt lat="44.8514" lon="5.47864">
        <ele>1557.953857</ele>
        <time>2010-06-05T16:49:15Z</time>
      </trkpt>
      <trkpt lat="44.85129" lon="5.47859">
        <ele>1558.434326</ele>
        <time>2010-06-05T16:49:20Z</time>
      </trkpt>
      <trkpt lat="44.85114" lon="5.47851">
        <ele>1558.434326</ele>
        <time>2010-06-05T16:49:30Z</time>
      </trkpt>
      <trkpt lat="44.85109" lon="5.47849">
        <ele>1558.434326</ele>
        <time>2010-06-05T16:49:36Z</time>
      </trkpt>
      <trkpt lat="44.85109" lon="5.47849">
        <ele>1557.953857</ele>
        <time>2010-06-05T16:49:43Z</time>
      </trkpt>
      <trkpt lat="44.85107" lon="5.4785">
        <ele>1557.473144</ele>
        <time>2010-06-05T16:50:13Z</time>
      </trkpt>
      <trkpt lat="44.85108" lon="5.47849">
        <ele>1557.473144</ele>
        <time>2010-06-05T16:51:13Z</time>
      </trkpt>
      <trkpt lat="44.85106" lon="5.47849">
        <ele>1558.434326</ele>
        <time>2010-06-05T16:51:20Z</time>
      </trkpt>
      <trkpt lat="44.85106" lon="5.4785">
        <ele>1558.434326</ele>
        <time>2010-06-05T16:51:22Z</time>
      </trkpt>
      <trkpt lat="44.85104" lon="5.4785">
        <ele>1558.915039</ele>
        <time>2010-06-05T16:51:24Z</time>
      </trkpt>
      <trkpt lat="44.85089" lon="5.47841">
        <ele>1560.356934</ele>
        <time>2010-06-05T16:51:34Z</time>
      </trkpt>
      <trkpt lat="44.85076" lon="5.47836">
        <ele>1560.837646</ele>
        <time>2010-06-05T16:51:40Z</time>
      </trkpt>
      <trkpt lat="44.85066" lon="5.47829">
        <ele>1560.837646</ele>
        <time>2010-06-05T16:51:47Z</time>
      </trkpt>
      <trkpt lat="44.85054" lon="5.4782">
        <ele>1560.837646</ele>
        <time>2010-06-05T16:51:55Z</time>
      </trkpt>
      <trkpt lat="44.85046" lon="5.47817">
        <ele>1560.837646</ele>
        <time>2010-06-05T16:52:01Z</time>
      </trkpt>
      <trkpt lat="44.85035" lon="5.47808">
        <ele>1561.318359</ele>
        <time>2010-06-05T16:52:08Z</time>
      </trkpt>
      <trkpt lat="44.85025" lon="5.47806">
        <ele>1562.279541</ele>
        <time>2010-06-05T16:52:14Z</time>
      </trkpt>
      <trkpt lat="44.85017" lon="5.47821">
        <ele>1561.318359</ele>
        <time>2010-06-05T16:52:19Z</time>
      </trkpt>
      <trkpt lat="44.85008" lon="5.47849">
        <ele>1561.318359</ele>
        <time>2010-06-05T16:52:25Z</time>
      </trkpt>
      <trkpt lat="44.85001" lon="5.4787">
        <ele>1563.240967</ele>
        <time>2010-06-05T16:52:30Z</time>
      </trkpt>
      <trkpt lat="44.84994" lon="5.47885">
        <ele>1563.240967</ele>
        <time>2010-06-05T16:52:35Z</time>
      </trkpt>
      <trkpt lat="44.84986" lon="5.47896">
        <ele>1563.240967</ele>
        <time>2010-06-05T16:52:41Z</time>
      </trkpt>
      <trkpt lat="44.84977" lon="5.47897">
        <ele>1564.202393</ele>
        <time>2010-06-05T16:52:47Z</time>
      </trkpt>
      <trkpt lat="44.84966" lon="5.47897">
        <ele>1563.721436</ele>
        <time>2010-06-05T16:52:53Z</time>
      </trkpt>
      <trkpt lat="44.84954" lon="5.47904">
        <ele>1563.721436</ele>
        <time>2010-06-05T16:53:01Z</time>
      </trkpt>
      <trkpt lat="44.84942" lon="5.47907">
        <ele>1562.760254</ele>
        <time>2010-06-05T16:53:04Z</time>
      </trkpt>
      <trkpt lat="44.84929" lon="5.47911">
        <ele>1562.760254</ele>
        <time>2010-06-05T16:53:09Z</time>
      </trkpt>
      <trkpt lat="44.84915" lon="5.47913">
        <ele>1563.721436</ele>
        <time>2010-06-05T16:53:17Z</time>
      </trkpt>
      <trkpt lat="44.84903" lon="5.47918">
        <ele>1564.202393</ele>
        <time>2010-06-05T16:53:24Z</time>
      </trkpt>
      <trkpt lat="44.8489" lon="5.47917">
        <ele>1564.202393</ele>
        <time>2010-06-05T16:53:29Z</time>
      </trkpt>
      <trkpt lat="44.84879" lon="5.47918">
        <ele>1565.163818</ele>
        <time>2010-06-05T16:53:35Z</time>
      </trkpt>
      <trkpt lat="44.84864" lon="5.47917">
        <ele>1566.125</ele>
        <time>2010-06-05T16:53:43Z</time>
      </trkpt>
      <trkpt lat="44.8485" lon="5.47923">
        <ele>1567.086426</ele>
        <time>2010-06-05T16:53:51Z</time>
      </trkpt>
      <trkpt lat="44.84837" lon="5.47934">
        <ele>1566.125</ele>
        <time>2010-06-05T16:53:59Z</time>
      </trkpt>
      <trkpt lat="44.84829" lon="5.47949">
        <ele>1565.644531</ele>
        <time>2010-06-05T16:54:04Z</time>
      </trkpt>
      <trkpt lat="44.84816" lon="5.47969">
        <ele>1566.125</ele>
        <time>2010-06-05T16:54:11Z</time>
      </trkpt>
      <trkpt lat="44.84802" lon="5.47981">
        <ele>1564.683106</ele>
        <time>2010-06-05T16:54:16Z</time>
      </trkpt>
      <trkpt lat="44.84787" lon="5.47986">
        <ele>1564.683106</ele>
        <time>2010-06-05T16:54:21Z</time>
      </trkpt>
      <trkpt lat="44.84774" lon="5.47985">
        <ele>1564.202393</ele>
        <time>2010-06-05T16:54:26Z</time>
      </trkpt>
      <trkpt lat="44.84757" lon="5.47978">
        <ele>1564.202393</ele>
        <time>2010-06-05T16:54:33Z</time>
      </trkpt>
      <trkpt lat="44.84733" lon="5.47968">
        <ele>1564.683106</ele>
        <time>2010-06-05T16:54:42Z</time>
      </trkpt>
      <trkpt lat="44.84721" lon="5.47968">
        <ele>1566.125</ele>
        <time>2010-06-05T16:54:47Z</time>
      </trkpt>
      <trkpt lat="44.8471" lon="5.4797">
        <ele>1566.125</ele>
        <time>2010-06-05T16:54:54Z</time>
      </trkpt>
      <trkpt lat="44.84698" lon="5.47973">
        <ele>1566.605713</ele>
        <time>2010-06-05T16:55:02Z</time>
      </trkpt>
      <trkpt lat="44.84691" lon="5.47972">
        <ele>1567.086426</ele>
        <time>2010-06-05T16:55:09Z</time>
      </trkpt>
      <trkpt lat="44.84681" lon="5.47968">
        <ele>1566.605713</ele>
        <time>2010-06-05T16:55:14Z</time>
      </trkpt>
      <trkpt lat="44.84668" lon="5.47962">
        <ele>1566.605713</ele>
        <time>2010-06-05T16:55:20Z</time>
      </trkpt>
      <trkpt lat="44.8466" lon="5.47965">
        <ele>1567.086426</ele>
        <time>2010-06-05T16:55:26Z</time>
      </trkpt>
      <trkpt lat="44.84653" lon="5.4797">
        <ele>1565.644531</ele>
        <time>2010-06-05T16:55:29Z</time>
      </trkpt>
      <trkpt lat="44.8464" lon="5.47988">
        <ele>1564.683106</ele>
        <time>2010-06-05T16:55:34Z</time>
      </trkpt>
      <trkpt lat="44.84627" lon="5.48002">
        <ele>1563.721436</ele>
        <time>2010-06-05T16:55:39Z</time>
      </trkpt>
      <trkpt lat="44.8462" lon="5.48009">
        <ele>1564.683106</ele>
        <time>2010-06-05T16:55:43Z</time>
      </trkpt>
      <trkpt lat="44.84612" lon="5.48011">
        <ele>1565.644531</ele>
        <time>2010-06-05T16:55:50Z</time>
      </trkpt>
      <trkpt lat="44.84611" lon="5.48011">
        <ele>1565.163818</ele>
        <time>2010-06-05T16:55:56Z</time>
      </trkpt>
      <trkpt lat="44.84611" lon="5.48012">
        <ele>1565.163818</ele>
        <time>2010-06-05T16:56:02Z</time>
      </trkpt>
      <trkpt lat="44.84611" lon="5.48013">
        <ele>1565.163818</ele>
        <time>2010-06-05T16:56:44Z</time>
      </trkpt>
      <trkpt lat="44.84611" lon="5.48013">
        <ele>1565.163818</ele>
        <time>2010-06-05T16:56:54Z</time>
      </trkpt>
      <trkpt lat="44.84611" lon="5.48013">
        <ele>1565.163818</ele>
        <time>2010-06-05T16:57:02Z</time>
      </trkpt>
      <trkpt lat="44.84603" lon="5.48012">
        <ele>1565.163818</ele>
        <time>2010-06-05T16:57:08Z</time>
      </trkpt>
      <trkpt lat="44.8459" lon="5.48015">
        <ele>1566.125</ele>
        <time>2010-06-05T16:57:15Z</time>
      </trkpt>
      <trkpt lat="44.84576" lon="5.48017">
        <ele>1567.566894</ele>
        <time>2010-06-05T16:57:23Z</time>
      </trkpt>
      <trkpt lat="44.84563" lon="5.48027">
        <ele>1568.047607</ele>
        <time>2010-06-05T16:57:31Z</time>
      </trkpt>
      <trkpt lat="44.84553" lon="5.48035">
        <ele>1568.047607</ele>
        <time>2010-06-05T16:57:36Z</time>
      </trkpt>
      <trkpt lat="44.84544" lon="5.4804">
        <ele>1568.047607</ele>
        <time>2010-06-05T16:57:41Z</time>
      </trkpt>
      <trkpt lat="44.84532" lon="5.48045">
        <ele>1567.086426</ele>
        <time>2010-06-05T16:57:45Z</time>
      </trkpt>
      <trkpt lat="44.84521" lon="5.4805">
        <ele>1567.566894</ele>
        <time>2010-06-05T16:57:50Z</time>
      </trkpt>
      <trkpt lat="44.84506" lon="5.4806">
        <ele>1568.047607</ele>
        <time>2010-06-05T16:57:58Z</time>
      </trkpt>
      <trkpt lat="44.84492" lon="5.48068">
        <ele>1568.52832</ele>
        <time>2010-06-05T16:58:04Z</time>
      </trkpt>
      <trkpt lat="44.84483" lon="5.48074">
        <ele>1570.450928</ele>
        <time>2010-06-05T16:58:10Z</time>
      </trkpt>
      <trkpt lat="44.84475" lon="5.48079">
        <ele>1572.854248</ele>
        <time>2010-06-05T16:58:17Z</time>
      </trkpt>
      <trkpt lat="44.84465" lon="5.48083">
        <ele>1573.81543</ele>
        <time>2010-06-05T16:58:23Z</time>
      </trkpt>
      <trkpt lat="44.84456" lon="5.48089">
        <ele>1574.776856</ele>
        <time>2010-06-05T16:58:29Z</time>
      </trkpt>
      <trkpt lat="44.84445" lon="5.48095">
        <ele>1573.81543</ele>
        <time>2010-06-05T16:58:35Z</time>
      </trkpt>
      <trkpt lat="44.84434" lon="5.48101">
        <ele>1572.854248</ele>
        <time>2010-06-05T16:58:39Z</time>
      </trkpt>
      <trkpt lat="44.84426" lon="5.48109">
        <ele>1573.334961</ele>
        <time>2010-06-05T16:58:45Z</time>
      </trkpt>
      <trkpt lat="44.84418" lon="5.48125">
        <ele>1576.21875</ele>
        <time>2010-06-05T16:58:55Z</time>
      </trkpt>
      <trkpt lat="44.84413" lon="5.48137">
        <ele>1577.660644</ele>
        <time>2010-06-05T16:59:04Z</time>
      </trkpt>
      <trkpt lat="44.84411" lon="5.48138">
        <ele>1577.180176</ele>
        <time>2010-06-05T16:59:10Z</time>
      </trkpt>
      <trkpt lat="44.84409" lon="5.48141">
        <ele>1575.257324</ele>
        <time>2010-06-05T16:59:24Z</time>
      </trkpt>
      <trkpt lat="44.84405" lon="5.48149">
        <ele>1577.660644</ele>
        <time>2010-06-05T16:59:34Z</time>
      </trkpt>
      <trkpt lat="44.84403" lon="5.48156">
        <ele>1577.660644</ele>
        <time>2010-06-05T16:59:42Z</time>
      </trkpt>
      <trkpt lat="44.84404" lon="5.48158">
        <ele>1576.21875</ele>
        <time>2010-06-05T16:59:51Z</time>
      </trkpt>
      <trkpt lat="44.84408" lon="5.48166">
        <ele>1573.334961</ele>
        <time>2010-06-05T17:00:13Z</time>
      </trkpt>
      <trkpt lat="44.84409" lon="5.48166">
        <ele>1572.373535</ele>
        <time>2010-06-05T17:00:26Z</time>
      </trkpt>
      <trkpt lat="44.84406" lon="5.48172">
        <ele>1572.854248</ele>
        <time>2010-06-05T17:00:33Z</time>
      </trkpt>
      <trkpt lat="44.84403" lon="5.48174">
        <ele>1574.296143</ele>
        <time>2010-06-05T17:00:40Z</time>
      </trkpt>
      <trkpt lat="44.84401" lon="5.48179">
        <ele>1575.257324</ele>
        <time>2010-06-05T17:00:47Z</time>
      </trkpt>
      <trkpt lat="44.84398" lon="5.48183">
        <ele>1576.699463</ele>
        <time>2010-06-05T17:00:54Z</time>
      </trkpt>
      <trkpt lat="44.84396" lon="5.48188">
        <ele>1577.660644</ele>
        <time>2010-06-05T17:01:01Z</time>
      </trkpt>
      <trkpt lat="44.84393" lon="5.48196">
        <ele>1578.141357</ele>
        <time>2010-06-05T17:01:09Z</time>
      </trkpt>
      <trkpt lat="44.84392" lon="5.482">
        <ele>1580.064209</ele>
        <time>2010-06-05T17:01:16Z</time>
      </trkpt>
      <trkpt lat="44.84391" lon="5.48203">
        <ele>1581.025635</ele>
        <time>2010-06-05T17:01:18Z</time>
      </trkpt>
      <trkpt lat="44.84388" lon="5.48217">
        <ele>1581.506104</ele>
        <time>2010-06-05T17:01:28Z</time>
      </trkpt>
      <trkpt lat="44.84384" lon="5.48228">
        <ele>1581.986816</ele>
        <time>2010-06-05T17:01:37Z</time>
      </trkpt>
      <trkpt lat="44.8438" lon="5.48241">
        <ele>1583.428711</ele>
        <time>2010-06-05T17:01:46Z</time>
      </trkpt>
      <trkpt lat="44.84377" lon="5.48256">
        <ele>1583.909424</ele>
        <time>2010-06-05T17:01:56Z</time>
      </trkpt>
      <trkpt lat="44.84375" lon="5.48264">
        <ele>1583.909424</ele>
        <time>2010-06-05T17:02:04Z</time>
      </trkpt>
      <trkpt lat="44.84375" lon="5.48265">
        <ele>1583.428711</ele>
        <time>2010-06-05T17:02:16Z</time>
      </trkpt>
      <trkpt lat="44.84373" lon="5.48272">
        <ele>1583.428711</ele>
        <time>2010-06-05T17:02:29Z</time>
      </trkpt>
      <trkpt lat="44.84371" lon="5.48286">
        <ele>1582.947998</ele>
        <time>2010-06-05T17:02:39Z</time>
      </trkpt>
      <trkpt lat="44.84369" lon="5.48296">
        <ele>1583.428711</ele>
        <time>2010-06-05T17:02:47Z</time>
      </trkpt>
      <trkpt lat="44.84367" lon="5.48302">
        <ele>1583.909424</ele>
        <time>2010-06-05T17:02:55Z</time>
      </trkpt>
      <trkpt lat="44.84366" lon="5.48309">
        <ele>1584.87085</ele>
        <time>2010-06-05T17:03:02Z</time>
      </trkpt>
      <trkpt lat="44.84364" lon="5.48324">
        <ele>1584.87085</ele>
        <time>2010-06-05T17:03:12Z</time>
      </trkpt>
      <trkpt lat="44.8436" lon="5.48336">
        <ele>1586.793213</ele>
        <time>2010-06-05T17:03:20Z</time>
      </trkpt>
      <trkpt lat="44.84356" lon="5.4835">
        <ele>1589.677246</ele>
        <time>2010-06-05T17:03:29Z</time>
      </trkpt>
      <trkpt lat="44.84356" lon="5.48364">
        <ele>1593.522461</ele>
        <time>2010-06-05T17:03:38Z</time>
      </trkpt>
      <trkpt lat="44.84355" lon="5.48375">
        <ele>1594.964356</ele>
        <time>2010-06-05T17:03:44Z</time>
      </trkpt>
      <trkpt lat="44.84355" lon="5.48378">
        <ele>1594.964356</ele>
        <time>2010-06-05T17:03:46Z</time>
      </trkpt>
      <trkpt lat="44.84353" lon="5.48385">
        <ele>1595.925781</ele>
        <time>2010-06-05T17:03:50Z</time>
      </trkpt>
      <trkpt lat="44.8435" lon="5.48399">
        <ele>1594.964356</ele>
        <time>2010-06-05T17:03:58Z</time>
      </trkpt>
      <trkpt lat="44.84348" lon="5.48404">
        <ele>1594.483643</ele>
        <time>2010-06-05T17:04:01Z</time>
      </trkpt>
      <trkpt lat="44.84344" lon="5.48411">
        <ele>1593.041748</ele>
        <time>2010-06-05T17:04:07Z</time>
      </trkpt>
      <trkpt lat="44.84338" lon="5.48411">
        <ele>1592.080566</ele>
        <time>2010-06-05T17:04:14Z</time>
      </trkpt>
      <trkpt lat="44.84328" lon="5.48414">
        <ele>1591.119141</ele>
        <time>2010-06-05T17:04:22Z</time>
      </trkpt>
      <trkpt lat="44.84326" lon="5.48415">
        <ele>1590.157959</ele>
        <time>2010-06-05T17:04:27Z</time>
      </trkpt>
      <trkpt lat="44.84326" lon="5.48416">
        <ele>1589.677246</ele>
        <time>2010-06-05T17:04:37Z</time>
      </trkpt>
      <trkpt lat="44.84323" lon="5.48416">
        <ele>1588.716064</ele>
        <time>2010-06-05T17:05:01Z</time>
      </trkpt>
      <trkpt lat="44.84315" lon="5.48416">
        <ele>1589.677246</ele>
        <time>2010-06-05T17:05:10Z</time>
      </trkpt>
      <trkpt lat="44.84309" lon="5.48414">
        <ele>1590.638428</ele>
        <time>2010-06-05T17:05:18Z</time>
      </trkpt>
      <trkpt lat="44.84308" lon="5.48413">
        <ele>1590.157959</ele>
        <time>2010-06-05T17:05:23Z</time>
      </trkpt>
      <trkpt lat="44.84306" lon="5.48414">
        <ele>1594.003174</ele>
        <time>2010-06-05T17:11:36Z</time>
      </trkpt>
      <trkpt lat="44.84301" lon="5.48413">
        <ele>1595.445068</ele>
        <time>2010-06-05T17:11:45Z</time>
      </trkpt>
      <trkpt lat="44.84293" lon="5.4841">
        <ele>1595.925781</ele>
        <time>2010-06-05T17:11:54Z</time>
      </trkpt>
      <trkpt lat="44.84288" lon="5.48406">
        <ele>1596.406738</ele>
        <time>2010-06-05T17:12:04Z</time>
      </trkpt>
      <trkpt lat="44.84288" lon="5.48406">
        <ele>1596.406738</ele>
        <time>2010-06-05T17:12:11Z</time>
      </trkpt>
      <trkpt lat="44.84284" lon="5.48403">
        <ele>1596.406738</ele>
        <time>2010-06-05T17:12:18Z</time>
      </trkpt>
      <trkpt lat="44.84283" lon="5.48402">
        <ele>1596.406738</ele>
        <time>2010-06-05T17:12:19Z</time>
      </trkpt>
      <trkpt lat="44.84272" lon="5.48394">
        <ele>1597.36792</ele>
        <time>2010-06-05T17:12:31Z</time>
      </trkpt>
      <trkpt lat="44.84264" lon="5.48389">
        <ele>1598.329102</ele>
        <time>2010-06-05T17:12:40Z</time>
      </trkpt>
      <trkpt lat="44.84258" lon="5.48385">
        <ele>1599.290527</ele>
        <time>2010-06-05T17:12:48Z</time>
      </trkpt>
      <trkpt lat="44.84252" lon="5.4838">
        <ele>1599.77124</ele>
        <time>2010-06-05T17:12:57Z</time>
      </trkpt>
      <trkpt lat="44.84246" lon="5.48374">
        <ele>1599.290527</ele>
        <time>2010-06-05T17:13:04Z</time>
      </trkpt>
      <trkpt lat="44.84236" lon="5.48366">
        <ele>1598.329102</ele>
        <time>2010-06-05T17:13:15Z</time>
      </trkpt>
      <trkpt lat="44.84229" lon="5.48364">
        <ele>1598.329102</ele>
        <time>2010-06-05T17:13:24Z</time>
      </trkpt>
      <trkpt lat="44.84225" lon="5.48363">
        <ele>1599.290527</ele>
        <time>2010-06-05T17:13:28Z</time>
      </trkpt>
      <trkpt lat="44.8421" lon="5.48361">
        <ele>1600.251953</ele>
        <time>2010-06-05T17:13:42Z</time>
      </trkpt>
      <trkpt lat="44.842" lon="5.48359">
        <ele>1601.213135</ele>
        <time>2010-06-05T17:13:53Z</time>
      </trkpt>
      <trkpt lat="44.84193" lon="5.48359">
        <ele>1601.693848</ele>
        <time>2010-06-05T17:14:01Z</time>
      </trkpt>
      <trkpt lat="44.84188" lon="5.48358">
        <ele>1603.616455</ele>
        <time>2010-06-05T17:14:22Z</time>
      </trkpt>
      <trkpt lat="44.84179" lon="5.48361">
        <ele>1603.616455</ele>
        <time>2010-06-05T17:14:32Z</time>
      </trkpt>
      <trkpt lat="44.84172" lon="5.48362">
        <ele>1604.097168</ele>
        <time>2010-06-05T17:14:41Z</time>
      </trkpt>
      <trkpt lat="44.84164" lon="5.48361">
        <ele>1605.05835</ele>
        <time>2010-06-05T17:14:51Z</time>
      </trkpt>
      <trkpt lat="44.84159" lon="5.48359">
        <ele>1606.019531</ele>
        <time>2010-06-05T17:14:59Z</time>
      </trkpt>
      <trkpt lat="44.84152" lon="5.48358">
        <ele>1606.019531</ele>
        <time>2010-06-05T17:15:09Z</time>
      </trkpt>
      <trkpt lat="44.84149" lon="5.48357">
        <ele>1606.019531</ele>
        <time>2010-06-05T17:15:17Z</time>
      </trkpt>
      <trkpt lat="44.84144" lon="5.48356">
        <ele>1606.500244</ele>
        <time>2010-06-05T17:15:24Z</time>
      </trkpt>
      <trkpt lat="44.84132" lon="5.48355">
        <ele>1607.942383</ele>
        <time>2010-06-05T17:15:36Z</time>
      </trkpt>
      <trkpt lat="44.84122" lon="5.48356">
        <ele>1608.903564</ele>
        <time>2010-06-05T17:15:46Z</time>
      </trkpt>
      <trkpt lat="44.84121" lon="5.48355">
        <ele>1608.422852</ele>
        <time>2010-06-05T17:15:52Z</time>
      </trkpt>
      <trkpt lat="44.8412" lon="5.48355">
        <ele>1608.903564</ele>
        <time>2010-06-05T17:16:13Z</time>
      </trkpt>
      <trkpt lat="44.84109" lon="5.48354">
        <ele>1609.384277</ele>
        <time>2010-06-05T17:16:24Z</time>
      </trkpt>
      <trkpt lat="44.84099" lon="5.48351">
        <ele>1610.345459</ele>
        <time>2010-06-05T17:16:35Z</time>
      </trkpt>
      <trkpt lat="44.84094" lon="5.4835">
        <ele>1611.787598</ele>
        <time>2010-06-05T17:16:43Z</time>
      </trkpt>
      <trkpt lat="44.84089" lon="5.48352">
        <ele>1610.345459</ele>
        <time>2010-06-05T17:17:00Z</time>
      </trkpt>
      <trkpt lat="44.8408" lon="5.48353">
        <ele>1610.826172</ele>
        <time>2010-06-05T17:17:09Z</time>
      </trkpt>
      <trkpt lat="44.84071" lon="5.48354">
        <ele>1611.306885</ele>
        <time>2010-06-05T17:17:18Z</time>
      </trkpt>
      <trkpt lat="44.84069" lon="5.48354">
        <ele>1611.306885</ele>
        <time>2010-06-05T17:17:26Z</time>
      </trkpt>
      <trkpt lat="44.8406" lon="5.48352">
        <ele>1611.787598</ele>
        <time>2010-06-05T17:17:35Z</time>
      </trkpt>
      <trkpt lat="44.84054" lon="5.48348">
        <ele>1613.710205</ele>
        <time>2010-06-05T17:17:44Z</time>
      </trkpt>
      <trkpt lat="44.84051" lon="5.48343">
        <ele>1614.190918</ele>
        <time>2010-06-05T17:17:52Z</time>
      </trkpt>
      <trkpt lat="44.84042" lon="5.48336">
        <ele>1615.152344</ele>
        <time>2010-06-05T17:18:02Z</time>
      </trkpt>
      <trkpt lat="44.84033" lon="5.48331">
        <ele>1615.633057</ele>
        <time>2010-06-05T17:18:12Z</time>
      </trkpt>
      <trkpt lat="44.84027" lon="5.4833">
        <ele>1616.113525</ele>
        <time>2010-06-05T17:18:19Z</time>
      </trkpt>
      <trkpt lat="44.84027" lon="5.48329">
        <ele>1617.55542</ele>
        <time>2010-06-05T17:18:37Z</time>
      </trkpt>
      <trkpt lat="44.8402" lon="5.48328">
        <ele>1617.074951</ele>
        <time>2010-06-05T17:19:51Z</time>
      </trkpt>
      <trkpt lat="44.84016" lon="5.48323">
        <ele>1617.55542</ele>
        <time>2010-06-05T17:19:59Z</time>
      </trkpt>
      <trkpt lat="44.84012" lon="5.48322">
        <ele>1618.997559</ele>
        <time>2010-06-05T17:20:09Z</time>
      </trkpt>
      <trkpt lat="44.84007" lon="5.4832">
        <ele>1619.478271</ele>
        <time>2010-06-05T17:20:14Z</time>
      </trkpt>
      <trkpt lat="44.84002" lon="5.48317">
        <ele>1618.997559</ele>
        <time>2010-06-05T17:20:19Z</time>
      </trkpt>
      <trkpt lat="44.83992" lon="5.48309">
        <ele>1619.478271</ele>
        <time>2010-06-05T17:20:26Z</time>
      </trkpt>
      <trkpt lat="44.83982" lon="5.48299">
        <ele>1619.95874</ele>
        <time>2010-06-05T17:20:34Z</time>
      </trkpt>
      <trkpt lat="44.83973" lon="5.48294">
        <ele>1619.478271</ele>
        <time>2010-06-05T17:20:40Z</time>
      </trkpt>
      <trkpt lat="44.83962" lon="5.48289">
        <ele>1619.95874</ele>
        <time>2010-06-05T17:20:47Z</time>
      </trkpt>
      <trkpt lat="44.83954" lon="5.48284">
        <ele>1619.95874</ele>
        <time>2010-06-05T17:20:53Z</time>
      </trkpt>
      <trkpt lat="44.83942" lon="5.48276">
        <ele>1620.920166</ele>
        <time>2010-06-05T17:21:01Z</time>
      </trkpt>
      <trkpt lat="44.83934" lon="5.48269">
        <ele>1622.842773</ele>
        <time>2010-06-05T17:21:07Z</time>
      </trkpt>
      <trkpt lat="44.83922" lon="5.48262">
        <ele>1623.803955</ele>
        <time>2010-06-05T17:21:15Z</time>
      </trkpt>
      <trkpt lat="44.83909" lon="5.48255">
        <ele>1624.284668</ele>
        <time>2010-06-05T17:21:23Z</time>
      </trkpt>
      <trkpt lat="44.83895" lon="5.48245">
        <ele>1625.726562</ele>
        <time>2010-06-05T17:21:31Z</time>
      </trkpt>
      <trkpt lat="44.83883" lon="5.48235">
        <ele>1624.284668</ele>
        <time>2010-06-05T17:21:39Z</time>
      </trkpt>
      <trkpt lat="44.83869" lon="5.48222">
        <ele>1624.765381</ele>
        <time>2010-06-05T17:21:47Z</time>
      </trkpt>
      <trkpt lat="44.83859" lon="5.48218">
        <ele>1626.207275</ele>
        <time>2010-06-05T17:21:52Z</time>
      </trkpt>
      <trkpt lat="44.83848" lon="5.48216">
        <ele>1626.687988</ele>
        <time>2010-06-05T17:21:58Z</time>
      </trkpt>
      <trkpt lat="44.83838" lon="5.48212">
        <ele>1626.687988</ele>
        <time>2010-06-05T17:22:04Z</time>
      </trkpt>
      <trkpt lat="44.83825" lon="5.48207">
        <ele>1626.687988</ele>
        <time>2010-06-05T17:22:11Z</time>
      </trkpt>
      <trkpt lat="44.83809" lon="5.48203">
        <ele>1628.61084</ele>
        <time>2010-06-05T17:22:19Z</time>
      </trkpt>
      <trkpt lat="44.83798" lon="5.48198">
        <ele>1629.091309</ele>
        <time>2010-06-05T17:22:26Z</time>
      </trkpt>
      <trkpt lat="44.83781" lon="5.48195">
        <ele>1629.572021</ele>
        <time>2010-06-05T17:22:34Z</time>
      </trkpt>
      <trkpt lat="44.83765" lon="5.48192">
        <ele>1629.091309</ele>
        <time>2010-06-05T17:22:42Z</time>
      </trkpt>
      <trkpt lat="44.8375" lon="5.48191">
        <ele>1630.052734</ele>
        <time>2010-06-05T17:22:50Z</time>
      </trkpt>
      <trkpt lat="44.83734" lon="5.4819">
        <ele>1629.572021</ele>
        <time>2010-06-05T17:22:57Z</time>
      </trkpt>
      <trkpt lat="44.83718" lon="5.48194">
        <ele>1627.64917</ele>
        <time>2010-06-05T17:23:03Z</time>
      </trkpt>
      <trkpt lat="44.83701" lon="5.48192">
        <ele>1626.687988</ele>
        <time>2010-06-05T17:23:08Z</time>
      </trkpt>
      <trkpt lat="44.83676" lon="5.48181">
        <ele>1626.687988</ele>
        <time>2010-06-05T17:23:15Z</time>
      </trkpt>
      <trkpt lat="44.83661" lon="5.48173">
        <ele>1629.091309</ele>
        <time>2010-06-05T17:23:22Z</time>
      </trkpt>
      <trkpt lat="44.83643" lon="5.48164">
        <ele>1630.533447</ele>
        <time>2010-06-05T17:23:30Z</time>
      </trkpt>
      <trkpt lat="44.83628" lon="5.48157">
        <ele>1631.494629</ele>
        <time>2010-06-05T17:23:37Z</time>
      </trkpt>
      <trkpt lat="44.83614" lon="5.48152">
        <ele>1632.936523</ele>
        <time>2010-06-05T17:23:45Z</time>
      </trkpt>
      <trkpt lat="44.83599" lon="5.48148">
        <ele>1633.897949</ele>
        <time>2010-06-05T17:23:53Z</time>
      </trkpt>
      <trkpt lat="44.83587" lon="5.48145">
        <ele>1633.417236</ele>
        <time>2010-06-05T17:23:59Z</time>
      </trkpt>
      <trkpt lat="44.83572" lon="5.48142">
        <ele>1633.897949</ele>
        <time>2010-06-05T17:24:06Z</time>
      </trkpt>
      <trkpt lat="44.83558" lon="5.48141">
        <ele>1632.936523</ele>
        <time>2010-06-05T17:24:13Z</time>
      </trkpt>
      <trkpt lat="44.83538" lon="5.48144">
        <ele>1632.936523</ele>
        <time>2010-06-05T17:24:19Z</time>
      </trkpt>
      <trkpt lat="44.83515" lon="5.4815">
        <ele>1632.936523</ele>
        <time>2010-06-05T17:24:27Z</time>
      </trkpt>
      <trkpt lat="44.83496" lon="5.48155">
        <ele>1633.897949</ele>
        <time>2010-06-05T17:24:35Z</time>
      </trkpt>
      <trkpt lat="44.8348" lon="5.4816">
        <ele>1634.378662</ele>
        <time>2010-06-05T17:24:43Z</time>
      </trkpt>
      <trkpt lat="44.83466" lon="5.48163">
        <ele>1634.378662</ele>
        <time>2010-06-05T17:24:50Z</time>
      </trkpt>
      <trkpt lat="44.83451" lon="5.48167">
        <ele>1634.378662</ele>
        <time>2010-06-05T17:24:58Z</time>
      </trkpt>
      <trkpt lat="44.83437" lon="5.4817">
        <ele>1633.417236</ele>
        <time>2010-06-05T17:25:06Z</time>
      </trkpt>
      <trkpt lat="44.8342" lon="5.48171">
        <ele>1632.456055</ele>
        <time>2010-06-05T17:25:13Z</time>
      </trkpt>
      <trkpt lat="44.83396" lon="5.48169">
        <ele>1631.01416</ele>
        <time>2010-06-05T17:25:19Z</time>
      </trkpt>
      <trkpt lat="44.83381" lon="5.48172">
        <ele>1631.01416</ele>
        <time>2010-06-05T17:25:24Z</time>
      </trkpt>
      <trkpt lat="44.83369" lon="5.48185">
        <ele>1631.01416</ele>
        <time>2010-06-05T17:25:30Z</time>
      </trkpt>
      <trkpt lat="44.83353" lon="5.48196">
        <ele>1630.533447</ele>
        <time>2010-06-05T17:25:37Z</time>
      </trkpt>
      <trkpt lat="44.83344" lon="5.48206">
        <ele>1629.091309</ele>
        <time>2010-06-05T17:25:42Z</time>
      </trkpt>
      <trkpt lat="44.83334" lon="5.48217">
        <ele>1628.130127</ele>
        <time>2010-06-05T17:25:49Z</time>
      </trkpt>
      <trkpt lat="44.83326" lon="5.48225">
        <ele>1627.168701</ele>
        <time>2010-06-05T17:25:54Z</time>
      </trkpt>
      <trkpt lat="44.83326" lon="5.48225">
        <ele>1627.64917</ele>
        <time>2010-06-05T17:26:11Z</time>
      </trkpt>
      <trkpt lat="44.83323" lon="5.48228">
        <ele>1627.64917</ele>
        <time>2010-06-05T17:26:45Z</time>
      </trkpt>
      <trkpt lat="44.83317" lon="5.48231">
        <ele>1628.130127</ele>
        <time>2010-06-05T17:26:52Z</time>
      </trkpt>
      <trkpt lat="44.83315" lon="5.48232">
        <ele>1627.64917</ele>
        <time>2010-06-05T17:26:58Z</time>
      </trkpt>
      <trkpt lat="44.83313" lon="5.48233">
        <ele>1627.64917</ele>
        <time>2010-06-05T17:27:01Z</time>
      </trkpt>
      <trkpt lat="44.83309" lon="5.48234">
        <ele>1628.130127</ele>
        <time>2010-06-05T17:27:05Z</time>
      </trkpt>
      <trkpt lat="44.83306" lon="5.48233">
        <ele>1628.61084</ele>
        <time>2010-06-05T17:27:11Z</time>
      </trkpt>
      <trkpt lat="44.83307" lon="5.48233">
        <ele>1630.533447</ele>
        <time>2010-06-05T17:27:42Z</time>
      </trkpt>
      <trkpt lat="44.83304" lon="5.48232">
        <ele>1631.01416</ele>
        <time>2010-06-05T17:27:49Z</time>
      </trkpt>
      <trkpt lat="44.833" lon="5.48229">
        <ele>1631.01416</ele>
        <time>2010-06-05T17:27:54Z</time>
      </trkpt>
      <trkpt lat="44.83297" lon="5.48226">
        <ele>1631.01416</ele>
        <time>2010-06-05T17:28:01Z</time>
      </trkpt>
      <trkpt lat="44.83292" lon="5.48214">
        <ele>1631.01416</ele>
        <time>2010-06-05T17:28:10Z</time>
      </trkpt>
      <trkpt lat="44.83291" lon="5.48206">
        <ele>1630.533447</ele>
        <time>2010-06-05T17:28:18Z</time>
      </trkpt>
      <trkpt lat="44.8329" lon="5.48203">
        <ele>1630.533447</ele>
        <time>2010-06-05T17:28:25Z</time>
      </trkpt>
      <trkpt lat="44.83283" lon="5.48192">
        <ele>1629.091309</ele>
        <time>2010-06-05T17:28:30Z</time>
      </trkpt>
      <trkpt lat="44.8328" lon="5.48175">
        <ele>1626.687988</ele>
        <time>2010-06-05T17:28:35Z</time>
      </trkpt>
      <trkpt lat="44.83273" lon="5.48166">
        <ele>1626.687988</ele>
        <time>2010-06-05T17:28:39Z</time>
      </trkpt>
      <trkpt lat="44.83267" lon="5.48164">
        <ele>1627.168701</ele>
        <time>2010-06-05T17:28:45Z</time>
      </trkpt>
      <trkpt lat="44.83262" lon="5.48162">
        <ele>1628.130127</ele>
        <time>2010-06-05T17:28:59Z</time>
      </trkpt>
      <trkpt lat="44.83251" lon="5.48158">
        <ele>1628.61084</ele>
        <time>2010-06-05T17:29:06Z</time>
      </trkpt>
      <trkpt lat="44.83241" lon="5.48157">
        <ele>1628.61084</ele>
        <time>2010-06-05T17:29:12Z</time>
      </trkpt>
      <trkpt lat="44.83228" lon="5.48157">
        <ele>1627.64917</ele>
        <time>2010-06-05T17:29:16Z</time>
      </trkpt>
      <trkpt lat="44.83221" lon="5.48155">
        <ele>1627.168701</ele>
        <time>2010-06-05T17:29:18Z</time>
      </trkpt>
      <trkpt lat="44.83202" lon="5.48137">
        <ele>1625.726562</ele>
        <time>2010-06-05T17:29:23Z</time>
      </trkpt>
      <trkpt lat="44.83191" lon="5.48124">
        <ele>1626.687988</ele>
        <time>2010-06-05T17:29:29Z</time>
      </trkpt>
      <trkpt lat="44.83188" lon="5.48121">
        <ele>1626.687988</ele>
        <time>2010-06-05T17:29:33Z</time>
      </trkpt>
      <trkpt lat="44.83187" lon="5.48121">
        <ele>1627.168701</ele>
        <time>2010-06-05T17:29:52Z</time>
      </trkpt>
      <trkpt lat="44.83187" lon="5.48121">
        <ele>1627.64917</ele>
        <time>2010-06-05T17:29:53Z</time>
      </trkpt>
      <trkpt lat="44.83177" lon="5.48117">
        <ele>1626.207275</ele>
        <time>2010-06-05T17:29:57Z</time>
      </trkpt>
      <trkpt lat="44.83158" lon="5.48119">
        <ele>1625.24585</ele>
        <time>2010-06-05T17:30:01Z</time>
      </trkpt>
      <trkpt lat="44.83148" lon="5.48124">
        <ele>1626.687988</ele>
        <time>2010-06-05T17:30:06Z</time>
      </trkpt>
      <trkpt lat="44.83137" lon="5.48136">
        <ele>1626.687988</ele>
        <time>2010-06-05T17:30:14Z</time>
      </trkpt>
      <trkpt lat="44.83131" lon="5.48148">
        <ele>1626.207275</ele>
        <time>2010-06-05T17:30:20Z</time>
      </trkpt>
      <trkpt lat="44.83124" lon="5.48167">
        <ele>1626.687988</ele>
        <time>2010-06-05T17:30:27Z</time>
      </trkpt>
      <trkpt lat="44.83116" lon="5.48179">
        <ele>1627.64917</ele>
        <time>2010-06-05T17:30:34Z</time>
      </trkpt>
      <trkpt lat="44.83113" lon="5.48196">
        <ele>1627.64917</ele>
        <time>2010-06-05T17:30:42Z</time>
      </trkpt>
      <trkpt lat="44.83108" lon="5.48216">
        <ele>1628.130127</ele>
        <time>2010-06-05T17:30:50Z</time>
      </trkpt>
      <trkpt lat="44.83104" lon="5.48233">
        <ele>1627.168701</ele>
        <time>2010-06-05T17:30:56Z</time>
      </trkpt>
      <trkpt lat="44.83097" lon="5.48257">
        <ele>1626.687988</ele>
        <time>2010-06-05T17:31:02Z</time>
      </trkpt>
      <trkpt lat="44.83088" lon="5.48282">
        <ele>1625.726562</ele>
        <time>2010-06-05T17:31:08Z</time>
      </trkpt>
      <trkpt lat="44.83079" lon="5.48312">
        <ele>1622.842773</ele>
        <time>2010-06-05T17:31:13Z</time>
      </trkpt>
      <trkpt lat="44.83067" lon="5.48352">
        <ele>1618.516846</ele>
        <time>2010-06-05T17:31:19Z</time>
      </trkpt>
      <trkpt lat="44.83064" lon="5.4836">
        <ele>1618.036133</ele>
        <time>2010-06-05T17:31:20Z</time>
      </trkpt>
      <trkpt lat="44.83054" lon="5.48404">
        <ele>1615.633057</ele>
        <time>2010-06-05T17:31:25Z</time>
      </trkpt>
      <trkpt lat="44.83052" lon="5.48419">
        <ele>1615.633057</ele>
        <time>2010-06-05T17:31:27Z</time>
      </trkpt>
      <trkpt lat="44.83044" lon="5.4845">
        <ele>1615.633057</ele>
        <time>2010-06-05T17:31:33Z</time>
      </trkpt>
      <trkpt lat="44.8304" lon="5.48467">
        <ele>1617.074951</ele>
        <time>2010-06-05T17:31:40Z</time>
      </trkpt>
      <trkpt lat="44.8304" lon="5.48466">
        <ele>1618.036133</ele>
        <time>2010-06-05T17:31:46Z</time>
      </trkpt>
      <trkpt lat="44.8304" lon="5.48466">
        <ele>1618.516846</ele>
        <time>2010-06-05T17:32:06Z</time>
      </trkpt>
      <trkpt lat="44.83039" lon="5.4847">
        <ele>1619.95874</ele>
        <time>2010-06-05T17:32:16Z</time>
      </trkpt>
      <trkpt lat="44.83039" lon="5.48477">
        <ele>1620.920166</ele>
        <time>2010-06-05T17:32:23Z</time>
      </trkpt>
      <trkpt lat="44.83036" lon="5.48489">
        <ele>1622.362061</ele>
        <time>2010-06-05T17:32:31Z</time>
      </trkpt>
      <trkpt lat="44.83034" lon="5.48494">
        <ele>1622.842773</ele>
        <time>2010-06-05T17:32:39Z</time>
      </trkpt>
      <trkpt lat="44.83031" lon="5.48501">
        <ele>1623.323486</ele>
        <time>2010-06-05T17:32:47Z</time>
      </trkpt>
      <trkpt lat="44.8303" lon="5.48504">
        <ele>1623.803955</ele>
        <time>2010-06-05T17:32:52Z</time>
      </trkpt>
      <trkpt lat="44.83025" lon="5.4851">
        <ele>1624.284668</ele>
        <time>2010-06-05T17:33:01Z</time>
      </trkpt>
      <trkpt lat="44.8302" lon="5.48512">
        <ele>1624.284668</ele>
        <time>2010-06-05T17:33:09Z</time>
      </trkpt>
      <trkpt lat="44.83014" lon="5.48518">
        <ele>1624.765381</ele>
        <time>2010-06-05T17:33:19Z</time>
      </trkpt>
      <trkpt lat="44.83012" lon="5.4852">
        <ele>1625.24585</ele>
        <time>2010-06-05T17:33:27Z</time>
      </trkpt>
      <trkpt lat="44.83011" lon="5.48521">
        <ele>1624.765381</ele>
        <time>2010-06-05T17:33:34Z</time>
      </trkpt>
      <trkpt lat="44.83002" lon="5.4853">
        <ele>1625.24585</ele>
        <time>2010-06-05T17:33:44Z</time>
      </trkpt>
      <trkpt lat="44.82993" lon="5.48542">
        <ele>1623.803955</ele>
        <time>2010-06-05T17:33:51Z</time>
      </trkpt>
      <trkpt lat="44.82988" lon="5.48558">
        <ele>1624.765381</ele>
        <time>2010-06-05T17:33:58Z</time>
      </trkpt>
      <trkpt lat="44.82986" lon="5.48574">
        <ele>1624.765381</ele>
        <time>2010-06-05T17:34:03Z</time>
      </trkpt>
      <trkpt lat="44.8298" lon="5.48589">
        <ele>1625.726562</ele>
        <time>2010-06-05T17:34:10Z</time>
      </trkpt>
      <trkpt lat="44.82971" lon="5.48601">
        <ele>1626.207275</ele>
        <time>2010-06-05T17:34:17Z</time>
      </trkpt>
      <trkpt lat="44.82954" lon="5.48608">
        <ele>1626.687988</ele>
        <time>2010-06-05T17:34:27Z</time>
      </trkpt>
      <trkpt lat="44.82946" lon="5.48615">
        <ele>1626.687988</ele>
        <time>2010-06-05T17:34:34Z</time>
      </trkpt>
      <trkpt lat="44.82937" lon="5.48626">
        <ele>1624.765381</ele>
        <time>2010-06-05T17:34:40Z</time>
      </trkpt>
      <trkpt lat="44.82929" lon="5.48633">
        <ele>1623.323486</ele>
        <time>2010-06-05T17:34:44Z</time>
      </trkpt>
      <trkpt lat="44.82929" lon="5.48633">
        <ele>1623.323486</ele>
        <time>2010-06-05T17:34:54Z</time>
      </trkpt>
      <trkpt lat="44.82925" lon="5.48633">
        <ele>1624.284668</ele>
        <time>2010-06-05T17:35:46Z</time>
      </trkpt>
      <trkpt lat="44.82925" lon="5.48634">
        <ele>1623.803955</ele>
        <time>2010-06-05T17:35:51Z</time>
      </trkpt>
      <trkpt lat="44.8292" lon="5.48633">
        <ele>1621.881348</ele>
        <time>2010-06-05T17:36:04Z</time>
      </trkpt>
      <trkpt lat="44.82905" lon="5.48633">
        <ele>1619.478271</ele>
        <time>2010-06-05T17:36:10Z</time>
      </trkpt>
      <trkpt lat="44.8289" lon="5.48634">
        <ele>1616.594238</ele>
        <time>2010-06-05T17:36:17Z</time>
      </trkpt>
      <trkpt lat="44.82885" lon="5.48634">
        <ele>1615.633057</ele>
        <time>2010-06-05T17:36:42Z</time>
      </trkpt>
      <trkpt lat="44.82867" lon="5.48639">
        <ele>1613.710205</ele>
        <time>2010-06-05T17:36:46Z</time>
      </trkpt>
      <trkpt lat="44.82856" lon="5.48642">
        <ele>1612.749023</ele>
        <time>2010-06-05T17:36:48Z</time>
      </trkpt>
      <trkpt lat="44.82835" lon="5.48651">
        <ele>1613.229736</ele>
        <time>2010-06-05T17:36:53Z</time>
      </trkpt>
      <trkpt lat="44.82822" lon="5.48651">
        <ele>1613.710205</ele>
        <time>2010-06-05T17:36:59Z</time>
      </trkpt>
      <trkpt lat="44.82809" lon="5.48651">
        <ele>1614.671631</ele>
        <time>2010-06-05T17:37:06Z</time>
      </trkpt>
      <trkpt lat="44.82797" lon="5.48647">
        <ele>1614.671631</ele>
        <time>2010-06-05T17:37:12Z</time>
      </trkpt>
      <trkpt lat="44.82774" lon="5.48636">
        <ele>1615.633057</ele>
        <time>2010-06-05T17:37:22Z</time>
      </trkpt>
      <trkpt lat="44.82765" lon="5.48626">
        <ele>1616.113525</ele>
        <time>2010-06-05T17:37:29Z</time>
      </trkpt>
      <trkpt lat="44.82753" lon="5.48608">
        <ele>1616.113525</ele>
        <time>2010-06-05T17:37:37Z</time>
      </trkpt>
      <trkpt lat="44.8275" lon="5.48603">
        <ele>1616.113525</ele>
        <time>2010-06-05T17:37:42Z</time>
      </trkpt>
      <trkpt lat="44.82751" lon="5.48603">
        <ele>1615.633057</ele>
        <time>2010-06-05T17:38:25Z</time>
      </trkpt>
      <trkpt lat="44.82749" lon="5.48602">
        <ele>1617.55542</ele>
        <time>2010-06-05T17:38:42Z</time>
      </trkpt>
      <trkpt lat="44.82749" lon="5.48601">
        <ele>1618.516846</ele>
        <time>2010-06-05T17:38:47Z</time>
      </trkpt>
      <trkpt lat="44.82743" lon="5.48585">
        <ele>1618.036133</ele>
        <time>2010-06-05T17:38:55Z</time>
      </trkpt>
      <trkpt lat="44.82738" lon="5.48563">
        <ele>1618.036133</ele>
        <time>2010-06-05T17:39:04Z</time>
      </trkpt>
      <trkpt lat="44.82735" lon="5.48541">
        <ele>1616.594238</ele>
        <time>2010-06-05T17:39:12Z</time>
      </trkpt>
      <trkpt lat="44.8273" lon="5.48509">
        <ele>1615.152344</ele>
        <time>2010-06-05T17:39:20Z</time>
      </trkpt>
      <trkpt lat="44.82726" lon="5.48488">
        <ele>1614.671631</ele>
        <time>2010-06-05T17:39:25Z</time>
      </trkpt>
      <trkpt lat="44.82724" lon="5.48467">
        <ele>1613.710205</ele>
        <time>2010-06-05T17:39:31Z</time>
      </trkpt>
      <trkpt lat="44.82716" lon="5.48443">
        <ele>1613.229736</ele>
        <time>2010-06-05T17:39:38Z</time>
      </trkpt>
      <trkpt lat="44.82706" lon="5.48419">
        <ele>1611.787598</ele>
        <time>2010-06-05T17:39:44Z</time>
      </trkpt>
      <trkpt lat="44.82705" lon="5.48395">
        <ele>1611.306885</ele>
        <time>2010-06-05T17:39:49Z</time>
      </trkpt>
      <trkpt lat="44.82703" lon="5.48388">
        <ele>1611.306885</ele>
        <time>2010-06-05T17:39:51Z</time>
      </trkpt>
      <trkpt lat="44.82693" lon="5.48363">
        <ele>1610.345459</ele>
        <time>2010-06-05T17:39:59Z</time>
      </trkpt>
      <trkpt lat="44.82692" lon="5.4836">
        <ele>1609.864746</ele>
        <time>2010-06-05T17:40:00Z</time>
      </trkpt>
      <trkpt lat="44.8269" lon="5.48348">
        <ele>1609.864746</ele>
        <time>2010-06-05T17:40:05Z</time>
      </trkpt>
      <trkpt lat="44.8268" lon="5.48314">
        <ele>1609.384277</ele>
        <time>2010-06-05T17:40:15Z</time>
      </trkpt>
      <trkpt lat="44.82672" lon="5.4829">
        <ele>1608.422852</ele>
        <time>2010-06-05T17:40:22Z</time>
      </trkpt>
      <trkpt lat="44.82662" lon="5.48265">
        <ele>1606.500244</ele>
        <time>2010-06-05T17:40:29Z</time>
      </trkpt>
      <trkpt lat="44.82647" lon="5.48249">
        <ele>1605.539062</ele>
        <time>2010-06-05T17:40:34Z</time>
      </trkpt>
      <trkpt lat="44.82634" lon="5.4824">
        <ele>1605.05835</ele>
        <time>2010-06-05T17:40:39Z</time>
      </trkpt>
      <trkpt lat="44.82623" lon="5.48237">
        <ele>1604.577637</ele>
        <time>2010-06-05T17:40:45Z</time>
      </trkpt>
      <trkpt lat="44.82621" lon="5.48236">
        <ele>1604.577637</ele>
        <time>2010-06-05T17:40:50Z</time>
      </trkpt>
      <trkpt lat="44.82621" lon="5.48236">
        <ele>1604.577637</ele>
        <time>2010-06-05T17:40:55Z</time>
      </trkpt>
      <trkpt lat="44.82611" lon="5.48235">
        <ele>1603.616455</ele>
        <time>2010-06-05T17:41:01Z</time>
      </trkpt>
      <trkpt lat="44.82594" lon="5.48229">
        <ele>1601.693848</ele>
        <time>2010-06-05T17:41:07Z</time>
      </trkpt>
      <trkpt lat="44.82578" lon="5.48219">
        <ele>1601.213135</ele>
        <time>2010-06-05T17:41:13Z</time>
      </trkpt>
      <trkpt lat="44.82572" lon="5.4822">
        <ele>1601.213135</ele>
        <time>2010-06-05T17:41:18Z</time>
      </trkpt>
      <trkpt lat="44.82573" lon="5.4822">
        <ele>1601.213135</ele>
        <time>2010-06-05T17:41:29Z</time>
      </trkpt>
      <trkpt lat="44.82563" lon="5.48215">
        <ele>1599.290527</ele>
        <time>2010-06-05T17:41:35Z</time>
      </trkpt>
      <trkpt lat="44.82552" lon="5.48212">
        <ele>1597.848633</ele>
        <time>2010-06-05T17:41:42Z</time>
      </trkpt>
      <trkpt lat="44.8255" lon="5.48212">
        <ele>1597.36792</ele>
        <time>2010-06-05T17:41:48Z</time>
      </trkpt>
      <trkpt lat="44.82551" lon="5.48212">
        <ele>1597.36792</ele>
        <time>2010-06-05T17:42:09Z</time>
      </trkpt>
      <trkpt lat="44.82553" lon="5.48214">
        <ele>1597.848633</ele>
        <time>2010-06-05T17:42:14Z</time>
      </trkpt>
      <trkpt lat="44.82562" lon="5.48217">
        <ele>1598.809814</ele>
        <time>2010-06-05T17:42:24Z</time>
      </trkpt>
      <trkpt lat="44.82565" lon="5.48218">
        <ele>1599.290527</ele>
        <time>2010-06-05T17:42:32Z</time>
      </trkpt>
      <trkpt lat="44.82569" lon="5.48219">
        <ele>1599.77124</ele>
        <time>2010-06-05T17:42:45Z</time>
      </trkpt>
      <trkpt lat="44.82576" lon="5.4822">
        <ele>1600.251953</ele>
        <time>2010-06-05T17:42:53Z</time>
      </trkpt>
      <trkpt lat="44.82588" lon="5.4822">
        <ele>1600.251953</ele>
        <time>2010-06-05T17:43:04Z</time>
      </trkpt>
      <trkpt lat="44.82592" lon="5.4822">
        <ele>1599.77124</ele>
        <time>2010-06-05T17:43:12Z</time>
      </trkpt>
      <trkpt lat="44.82597" lon="5.48216">
        <ele>1599.290527</ele>
        <time>2010-06-05T17:43:21Z</time>
      </trkpt>
      <trkpt lat="44.82604" lon="5.4821">
        <ele>1600.251953</ele>
        <time>2010-06-05T17:43:30Z</time>
      </trkpt>
      <trkpt lat="44.82606" lon="5.48207">
        <ele>1600.732422</ele>
        <time>2010-06-05T17:43:33Z</time>
      </trkpt>
      <trkpt lat="44.82607" lon="5.48205">
        <ele>1600.732422</ele>
        <time>2010-06-05T17:43:35Z</time>
      </trkpt>
      <trkpt lat="44.82616" lon="5.48198">
        <ele>1601.213135</ele>
        <time>2010-06-05T17:43:45Z</time>
      </trkpt>
      <trkpt lat="44.82625" lon="5.48193">
        <ele>1601.693848</ele>
        <time>2010-06-05T17:43:55Z</time>
      </trkpt>
      <trkpt lat="44.82627" lon="5.48191">
        <ele>1601.693848</ele>
        <time>2010-06-05T17:43:57Z</time>
      </trkpt>
      <trkpt lat="44.82631" lon="5.4819">
        <ele>1602.174316</ele>
        <time>2010-06-05T17:44:05Z</time>
      </trkpt>
      <trkpt lat="44.82639" lon="5.48188">
        <ele>1602.655029</ele>
        <time>2010-06-05T17:44:13Z</time>
      </trkpt>
      <trkpt lat="44.82639" lon="5.48188">
        <ele>1602.655029</ele>
        <time>2010-06-05T17:44:21Z</time>
      </trkpt>
      <trkpt lat="44.82641" lon="5.48186">
        <ele>1603.616455</ele>
        <time>2010-06-05T17:44:43Z</time>
      </trkpt>
      <trkpt lat="44.82648" lon="5.48183">
        <ele>1603.616455</ele>
        <time>2010-06-05T17:44:52Z</time>
      </trkpt>
      <trkpt lat="44.82654" lon="5.48182">
        <ele>1604.097168</ele>
        <time>2010-06-05T17:45:00Z</time>
      </trkpt>
      <trkpt lat="44.82662" lon="5.48178">
        <ele>1604.097168</ele>
        <time>2010-06-05T17:45:08Z</time>
      </trkpt>
      <trkpt lat="44.8267" lon="5.4817">
        <ele>1604.577637</ele>
        <time>2010-06-05T17:45:18Z</time>
      </trkpt>
      <trkpt lat="44.8268" lon="5.48159">
        <ele>1604.097168</ele>
        <time>2010-06-05T17:45:29Z</time>
      </trkpt>
      <trkpt lat="44.82691" lon="5.48152">
        <ele>1604.097168</ele>
        <time>2010-06-05T17:45:40Z</time>
      </trkpt>
      <trkpt lat="44.82702" lon="5.48147">
        <ele>1603.616455</ele>
        <time>2010-06-05T17:45:50Z</time>
      </trkpt>
      <trkpt lat="44.82712" lon="5.48144">
        <ele>1604.097168</ele>
        <time>2010-06-05T17:45:59Z</time>
      </trkpt>
      <trkpt lat="44.8272" lon="5.48142">
        <ele>1604.097168</ele>
        <time>2010-06-05T17:46:07Z</time>
      </trkpt>
      <trkpt lat="44.82726" lon="5.48139">
        <ele>1604.097168</ele>
        <time>2010-06-05T17:46:14Z</time>
      </trkpt>
      <trkpt lat="44.82727" lon="5.48139">
        <ele>1604.577637</ele>
        <time>2010-06-05T17:46:21Z</time>
      </trkpt>
      <trkpt lat="44.8273" lon="5.4814">
        <ele>1605.05835</ele>
        <time>2010-06-05T17:46:29Z</time>
      </trkpt>
      <trkpt lat="44.82731" lon="5.48141">
        <ele>1605.05835</ele>
        <time>2010-06-05T17:46:30Z</time>
      </trkpt>
      <trkpt lat="44.82734" lon="5.48145">
        <ele>1605.05835</ele>
        <time>2010-06-05T17:46:35Z</time>
      </trkpt>
      <trkpt lat="44.82741" lon="5.48157">
        <ele>1605.05835</ele>
        <time>2010-06-05T17:46:45Z</time>
      </trkpt>
      <trkpt lat="44.82745" lon="5.48165">
        <ele>1606.019531</ele>
        <time>2010-06-05T17:46:54Z</time>
      </trkpt>
      <trkpt lat="44.82748" lon="5.4817">
        <ele>1607.46167</ele>
        <time>2010-06-05T17:47:03Z</time>
      </trkpt>
      <trkpt lat="44.82749" lon="5.48172">
        <ele>1607.942383</ele>
        <time>2010-06-05T17:47:10Z</time>
      </trkpt>
      <trkpt lat="44.8275" lon="5.48169">
        <ele>1608.422852</ele>
        <time>2010-06-05T17:47:15Z</time>
      </trkpt>
      <trkpt lat="44.82751" lon="5.48166">
        <ele>1608.903564</ele>
        <time>2010-06-05T17:47:22Z</time>
      </trkpt>
      <trkpt lat="44.82754" lon="5.48156">
        <ele>1610.345459</ele>
        <time>2010-06-05T17:47:32Z</time>
      </trkpt>
      <trkpt lat="44.82756" lon="5.48148">
        <ele>1611.787598</ele>
        <time>2010-06-05T17:47:40Z</time>
      </trkpt>
      <trkpt lat="44.82758" lon="5.48144">
        <ele>1611.787598</ele>
        <time>2010-06-05T17:47:47Z</time>
      </trkpt>
      <trkpt lat="44.82759" lon="5.48144">
        <ele>1612.268311</ele>
        <time>2010-06-05T17:47:53Z</time>
      </trkpt>
      <trkpt lat="44.82764" lon="5.48141">
        <ele>1612.749023</ele>
        <time>2010-06-05T17:48:01Z</time>
      </trkpt>
      <trkpt lat="44.82765" lon="5.4814">
        <ele>1613.710205</ele>
        <time>2010-06-05T17:48:10Z</time>
      </trkpt>
      <trkpt lat="44.82767" lon="5.48138">
        <ele>1614.671631</ele>
        <time>2010-06-05T17:48:24Z</time>
      </trkpt>
      <trkpt lat="44.82771" lon="5.48132">
        <ele>1616.113525</ele>
        <time>2010-06-05T17:48:33Z</time>
      </trkpt>
      <trkpt lat="44.82772" lon="5.48126">
        <ele>1617.074951</ele>
        <time>2010-06-05T17:48:40Z</time>
      </trkpt>
      <trkpt lat="44.82776" lon="5.48118">
        <ele>1618.516846</ele>
        <time>2010-06-05T17:48:50Z</time>
      </trkpt>
      <trkpt lat="44.82778" lon="5.48116">
        <ele>1618.036133</ele>
        <time>2010-06-05T17:48:55Z</time>
      </trkpt>
      <trkpt lat="44.82782" lon="5.48113">
        <ele>1618.036133</ele>
        <time>2010-06-05T17:49:01Z</time>
      </trkpt>
      <trkpt lat="44.82786" lon="5.48113">
        <ele>1618.036133</ele>
        <time>2010-06-05T17:49:08Z</time>
      </trkpt>
      <trkpt lat="44.82791" lon="5.48112">
        <ele>1618.997559</ele>
        <time>2010-06-05T17:49:16Z</time>
      </trkpt>
      <trkpt lat="44.82794" lon="5.48113">
        <ele>1619.478271</ele>
        <time>2010-06-05T17:49:22Z</time>
      </trkpt>
      <trkpt lat="44.82795" lon="5.48116">
        <ele>1619.478271</ele>
        <time>2010-06-05T17:49:29Z</time>
      </trkpt>
      <trkpt lat="44.82798" lon="5.48118">
        <ele>1619.95874</ele>
        <time>2010-06-05T17:49:36Z</time>
      </trkpt>
      <trkpt lat="44.82801" lon="5.48115">
        <ele>1619.95874</ele>
        <time>2010-06-05T17:49:43Z</time>
      </trkpt>
      <trkpt lat="44.82802" lon="5.48115">
        <ele>1620.439453</ele>
        <time>2010-06-05T17:49:51Z</time>
      </trkpt>
      <trkpt lat="44.82806" lon="5.48112">
        <ele>1620.920166</ele>
        <time>2010-06-05T17:49:59Z</time>
      </trkpt>
      <trkpt lat="44.82806" lon="5.48112">
        <ele>1620.920166</ele>
        <time>2010-06-05T17:50:06Z</time>
      </trkpt>
      <trkpt lat="44.82806" lon="5.48111">
        <ele>1620.920166</ele>
        <time>2010-06-05T17:50:07Z</time>
      </trkpt>
      <trkpt lat="44.82815" lon="5.48102">
        <ele>1620.439453</ele>
        <time>2010-06-05T17:50:14Z</time>
      </trkpt>
      <trkpt lat="44.82826" lon="5.48094">
        <ele>1619.95874</ele>
        <time>2010-06-05T17:50:21Z</time>
      </trkpt>
      <trkpt lat="44.82839" lon="5.48084">
        <ele>1619.478271</ele>
        <time>2010-06-05T17:50:29Z</time>
      </trkpt>
      <trkpt lat="44.82853" lon="5.48077">
        <ele>1618.997559</ele>
        <time>2010-06-05T17:50:36Z</time>
      </trkpt>
      <trkpt lat="44.82856" lon="5.48076">
        <ele>1618.516846</ele>
        <time>2010-06-05T17:50:41Z</time>
      </trkpt>
      <trkpt lat="44.82859" lon="5.48078">
        <ele>1619.478271</ele>
        <time>2010-06-05T17:50:47Z</time>
      </trkpt>
      <trkpt lat="44.8286" lon="5.48081">
        <ele>1619.478271</ele>
        <time>2010-06-05T17:50:50Z</time>
      </trkpt>
      <trkpt lat="44.82862" lon="5.48086">
        <ele>1619.478271</ele>
        <time>2010-06-05T17:50:53Z</time>
      </trkpt>
      <trkpt lat="44.8287" lon="5.48098">
        <ele>1618.997559</ele>
        <time>2010-06-05T17:51:04Z</time>
      </trkpt>
      <trkpt lat="44.8287" lon="5.481">
        <ele>1618.997559</ele>
        <time>2010-06-05T17:51:10Z</time>
      </trkpt>
      <trkpt lat="44.82874" lon="5.481">
        <ele>1618.516846</ele>
        <time>2010-06-05T17:51:37Z</time>
      </trkpt>
      <trkpt lat="44.82881" lon="5.48095">
        <ele>1617.074951</ele>
        <time>2010-06-05T17:51:46Z</time>
      </trkpt>
      <trkpt lat="44.82888" lon="5.48095">
        <ele>1615.152344</ele>
        <time>2010-06-05T17:51:53Z</time>
      </trkpt>
      <trkpt lat="44.82896" lon="5.48095">
        <ele>1615.152344</ele>
        <time>2010-06-05T17:52:01Z</time>
      </trkpt>
      <trkpt lat="44.82903" lon="5.48098">
        <ele>1615.633057</ele>
        <time>2010-06-05T17:52:08Z</time>
      </trkpt>
      <trkpt lat="44.82909" lon="5.48104">
        <ele>1616.594238</ele>
        <time>2010-06-05T17:52:16Z</time>
      </trkpt>
      <trkpt lat="44.82914" lon="5.48101">
        <ele>1617.074951</ele>
        <time>2010-06-05T17:52:23Z</time>
      </trkpt>
      <trkpt lat="44.8292" lon="5.48102">
        <ele>1617.55542</ele>
        <time>2010-06-05T17:52:30Z</time>
      </trkpt>
      <trkpt lat="44.82923" lon="5.48103">
        <ele>1618.036133</ele>
        <time>2010-06-05T17:52:34Z</time>
      </trkpt>
      <trkpt lat="44.82931" lon="5.48099">
        <ele>1617.55542</ele>
        <time>2010-06-05T17:52:43Z</time>
      </trkpt>
      <trkpt lat="44.82934" lon="5.48096">
        <ele>1617.55542</ele>
        <time>2010-06-05T17:52:50Z</time>
      </trkpt>
      <trkpt lat="44.82937" lon="5.48094">
        <ele>1618.516846</ele>
        <time>2010-06-05T17:53:24Z</time>
      </trkpt>
      <trkpt lat="44.82941" lon="5.48085">
        <ele>1618.997559</ele>
        <time>2010-06-05T17:53:32Z</time>
      </trkpt>
      <trkpt lat="44.82941" lon="5.48073">
        <ele>1620.920166</ele>
        <time>2010-06-05T17:53:42Z</time>
      </trkpt>
      <trkpt lat="44.82941" lon="5.48071">
        <ele>1621.400635</ele>
        <time>2010-06-05T17:53:50Z</time>
      </trkpt>
      <trkpt lat="44.82943" lon="5.48066">
        <ele>1621.881348</ele>
        <time>2010-06-05T17:53:56Z</time>
      </trkpt>
      <trkpt lat="44.8295" lon="5.4806">
        <ele>1623.323486</ele>
        <time>2010-06-05T17:54:06Z</time>
      </trkpt>
      <trkpt lat="44.82954" lon="5.48057">
        <ele>1623.803955</ele>
        <time>2010-06-05T17:54:11Z</time>
      </trkpt>
      <trkpt lat="44.82968" lon="5.48054">
        <ele>1622.362061</ele>
        <time>2010-06-05T17:54:24Z</time>
      </trkpt>
      <trkpt lat="44.82978" lon="5.4805">
        <ele>1620.439453</ele>
        <time>2010-06-05T17:54:34Z</time>
      </trkpt>
      <trkpt lat="44.8299" lon="5.48047">
        <ele>1619.95874</ele>
        <time>2010-06-05T17:54:45Z</time>
      </trkpt>
      <trkpt lat="44.82996" lon="5.48043">
        <ele>1620.439453</ele>
        <time>2010-06-05T17:54:53Z</time>
      </trkpt>
      <trkpt lat="44.82999" lon="5.4804">
        <ele>1620.920166</ele>
        <time>2010-06-05T17:54:58Z</time>
      </trkpt>
      <trkpt lat="44.82997" lon="5.48034">
        <ele>1617.074951</ele>
        <time>2010-06-06T05:31:00Z</time>
      </trkpt>
      <trkpt lat="44.82997" lon="5.48034">
        <ele>1617.074951</ele>
        <time>2010-06-06T05:31:00Z</time>
      </trkpt>
      <trkpt lat="44.82993" lon="5.48034">
        <ele>1618.036133</ele>
        <time>2010-06-06T05:31:08Z</time>
      </trkpt>
      <trkpt lat="44.82987" lon="5.48023">
        <ele>1618.516846</ele>
        <time>2010-06-06T05:31:19Z</time>
      </trkpt>
      <trkpt lat="44.82987" lon="5.48022">
        <ele>1618.516846</ele>
        <time>2010-06-06T05:31:24Z</time>
      </trkpt>
      <trkpt lat="44.82984" lon="5.48009">
        <ele>1617.55542</ele>
        <time>2010-06-06T05:31:28Z</time>
      </trkpt>
      <trkpt lat="44.8298" lon="5.47988">
        <ele>1617.074951</ele>
        <time>2010-06-06T05:31:33Z</time>
      </trkpt>
      <trkpt lat="44.82978" lon="5.47978">
        <ele>1617.55542</ele>
        <time>2010-06-06T05:31:38Z</time>
      </trkpt>
      <trkpt lat="44.82977" lon="5.47964">
        <ele>1618.036133</ele>
        <time>2010-06-06T05:31:44Z</time>
      </trkpt>
      <trkpt lat="44.82976" lon="5.47951">
        <ele>1618.516846</ele>
        <time>2010-06-06T05:31:50Z</time>
      </trkpt>
      <trkpt lat="44.82973" lon="5.47936">
        <ele>1618.036133</ele>
        <time>2010-06-06T05:31:56Z</time>
      </trkpt>
      <trkpt lat="44.82968" lon="5.47919">
        <ele>1616.594238</ele>
        <time>2010-06-06T05:32:04Z</time>
      </trkpt>
      <trkpt lat="44.82965" lon="5.47902">
        <ele>1616.113525</ele>
        <time>2010-06-06T05:32:11Z</time>
      </trkpt>
      <trkpt lat="44.82962" lon="5.47894">
        <ele>1616.113525</ele>
        <time>2010-06-06T05:32:16Z</time>
      </trkpt>
      <trkpt lat="44.82957" lon="5.4788">
        <ele>1615.633057</ele>
        <time>2010-06-06T05:32:25Z</time>
      </trkpt>
      <trkpt lat="44.82953" lon="5.4787">
        <ele>1616.594238</ele>
        <time>2010-06-06T05:32:31Z</time>
      </trkpt>
      <trkpt lat="44.82953" lon="5.47869">
        <ele>1617.55542</ele>
        <time>2010-06-06T05:32:36Z</time>
      </trkpt>
      <trkpt lat="44.82952" lon="5.47864">
        <ele>1617.55542</ele>
        <time>2010-06-06T05:32:40Z</time>
      </trkpt>
      <trkpt lat="44.82953" lon="5.47859">
        <ele>1618.036133</ele>
        <time>2010-06-06T05:32:47Z</time>
      </trkpt>
      <trkpt lat="44.82954" lon="5.47851">
        <ele>1618.036133</ele>
        <time>2010-06-06T05:32:53Z</time>
      </trkpt>
      <trkpt lat="44.82953" lon="5.47848">
        <ele>1618.036133</ele>
        <time>2010-06-06T05:32:56Z</time>
      </trkpt>
      <trkpt lat="44.82948" lon="5.47838">
        <ele>1618.516846</ele>
        <time>2010-06-06T05:33:05Z</time>
      </trkpt>
      <trkpt lat="44.82945" lon="5.47836">
        <ele>1618.997559</ele>
        <time>2010-06-06T05:33:12Z</time>
      </trkpt>
      <trkpt lat="44.82942" lon="5.47832">
        <ele>1620.439453</ele>
        <time>2010-06-06T05:33:30Z</time>
      </trkpt>
      <trkpt lat="44.82939" lon="5.47827">
        <ele>1620.920166</ele>
        <time>2010-06-06T05:33:36Z</time>
      </trkpt>
      <trkpt lat="44.82939" lon="5.47823">
        <ele>1620.920166</ele>
        <time>2010-06-06T05:33:39Z</time>
      </trkpt>
      <trkpt lat="44.82934" lon="5.47814">
        <ele>1621.400635</ele>
        <time>2010-06-06T05:33:47Z</time>
      </trkpt>
      <trkpt lat="44.82928" lon="5.47802">
        <ele>1622.362061</ele>
        <time>2010-06-06T05:33:56Z</time>
      </trkpt>
      <trkpt lat="44.82922" lon="5.47792">
        <ele>1623.803955</ele>
        <time>2010-06-06T05:34:05Z</time>
      </trkpt>
      <trkpt lat="44.82922" lon="5.47786">
        <ele>1623.803955</ele>
        <time>2010-06-06T05:34:10Z</time>
      </trkpt>
      <trkpt lat="44.82923" lon="5.47779">
        <ele>1623.803955</ele>
        <time>2010-06-06T05:34:14Z</time>
      </trkpt>
      <trkpt lat="44.82922" lon="5.4777">
        <ele>1624.765381</ele>
        <time>2010-06-06T05:34:21Z</time>
      </trkpt>
      <trkpt lat="44.82922" lon="5.47765">
        <ele>1625.726562</ele>
        <time>2010-06-06T05:34:27Z</time>
      </trkpt>
      <trkpt lat="44.8292" lon="5.47752">
        <ele>1625.726562</ele>
        <time>2010-06-06T05:34:35Z</time>
      </trkpt>
      <trkpt lat="44.82921" lon="5.47738">
        <ele>1626.207275</ele>
        <time>2010-06-06T05:34:43Z</time>
      </trkpt>
      <trkpt lat="44.82924" lon="5.4773">
        <ele>1625.726562</ele>
        <time>2010-06-06T05:34:49Z</time>
      </trkpt>
      <trkpt lat="44.82924" lon="5.4773">
        <ele>1625.726562</ele>
        <time>2010-06-06T05:34:50Z</time>
      </trkpt>
    </trkseg>
  </trk>
</gpx>